GFSMA_sfc_wetblb_000.txt.gz
Wetbulb
66.50 66.57 66.41 66.51 66.64 66.63 66.39 66.11 66.08 65.86 65.67 65.66 65.54 65.22 64.99 65.20 65.29 65.08 65.00 62.34 62.87 62.65 64.04 65.23 65.31 64.73 64.05 64.58 64.96 66.15 66.92 67.77 68.24 67.90 67.18 66.95 66.84 66.68 66.57 66.03 65.90 65.87 65.60
66.92 66.67 66.60 66.72 66.73 66.81 66.74 66.29 65.90 65.50 65.36 65.58 65.24 65.50 65.34 65.52 65.56 65.26 65.25 65.18 63.21 62.64 62.74 64.49 65.59 65.76 65.63 65.13 64.71 66.32 66.37 67.11 67.89 68.33 68.23 67.40 66.91 66.73 66.76 66.84 66.44 66.37 66.45
66.70 66.57 66.30 66.26 66.72 66.70 66.24 66.14 65.72 65.60 65.10 65.10 64.68 65.04 65.15 65.15 64.97 65.03 65.26 65.27 64.97 62.03 62.13 63.25 65.14 65.89 65.94 66.23 66.17 66.47 66.92 66.76 66.75 67.43 67.95 68.00 67.46 66.80 66.78 66.62 66.59 66.61 66.59
65.90 66.00 65.89 65.95 66.13 65.82 65.29 64.64 64.07 63.42 63.42 63.20 62.98 63.39 63.85 64.37 64.47 64.40 64.51 64.79 64.65 64.37 63.61 62.63 62.67 63.94 65.71 66.42 66.89 67.01 67.66 66.85 66.64 66.40 66.88 67.32 67.60 67.14 66.99 66.91 66.68 66.57 66.68
65.18 65.33 64.46 63.37 62.99 62.97 62.80 62.40 62.17 61.82 60.64 60.99 60.52 61.39 62.17 62.64 63.52 64.06 64.26 63.99 64.06 63.94 63.95 62.67 62.10 61.76 62.33 63.56 65.85 67.02 68.12 67.58 66.79 66.67 66.42 66.25 66.48 67.24 67.07 66.99 66.88 66.87 66.83
59.25 59.64 58.50 57.50 58.28 58.07 57.43 57.18 57.13 57.82 57.90 58.61 57.68 58.33 60.24 60.94 61.94 62.72 63.28 63.75 64.67 64.37 64.34 63.99 63.72 63.09 60.40 61.03 62.27 64.08 65.74 67.48 67.05 66.50 66.63 66.52 66.54 66.47 66.85 66.98 66.91 66.94 67.00
55.40 55.41 55.28 55.01 55.05 54.81 54.48 54.53 54.50 53.83 54.07 55.29 53.48 54.23 55.02 57.79 59.53 59.22 62.10 61.12 61.60 62.84 64.28 64.25 64.42 63.47 63.43 62.61 62.58 62.45 63.16 64.62 65.72 66.37 66.64 66.51 66.36 66.37 66.74 66.79 66.53 66.75 67.11
53.28 53.04 53.00 52.90 53.04 52.84 52.78 52.64 52.67 51.58 52.04 52.88 50.84 50.94 48.79 52.31 54.92 55.80 56.26 56.58 57.88 59.40 61.40 63.12 63.43 63.30 63.47 63.69 62.23 62.30 62.80 63.31 64.46 65.21 65.82 66.16 66.91 67.36 67.20 66.99 66.96 66.62 66.63
50.70 50.77 50.73 50.66 50.51 50.86 49.94 50.22 49.91 49.31 47.89 49.92 51.03 48.90 46.81 45.22 49.61 52.25 53.38 54.63 55.71 56.28 57.24 58.76 59.16 59.80 60.92 61.78 61.47 60.74 60.21 61.28 62.54 64.04 64.69 64.93 65.93 66.21 67.14 67.73 67.71 67.46 66.90
47.89 47.38 47.74 47.84 47.82 48.18 47.70 47.73 47.69 47.91 48.00 46.05 48.06 49.09 49.42 48.36 45.63 45.25 50.19 51.42 52.89 53.17 53.98 55.49 56.15 56.29 57.33 58.11 59.25 58.60 59.29 60.33 62.40 63.52 64.05 64.58 64.67 65.11 65.68 66.56 67.61 67.61 67.09
46.40 44.86 45.14 45.62 45.32 45.66 45.71 45.72 45.63 46.39 46.88 45.32 45.18 45.95 46.74 47.44 47.35 45.20 42.63 44.84 48.17 49.30 50.63 52.04 53.52 55.49 55.79 56.81 58.42 58.45 57.67 59.02 60.25 61.50 62.96 63.62 64.27 64.28 64.26 65.33 66.67 67.21 66.78
44.55 43.70 43.66 44.13 44.24 43.93 43.52 43.83 44.42 45.59 45.47 44.20 44.56 45.12 45.09 43.36 42.79 41.89 41.12 42.74 43.34 45.49 47.55 50.01 51.25 53.66 54.87 55.85 55.91 54.98 54.46 53.89 54.36 55.42 58.64 61.01 62.05 62.62 63.22 64.02 63.02 62.62 63.35
42.42 41.88 42.43 42.26 42.25 42.25 42.01 42.52 42.65 44.08 43.87 42.35 43.00 44.01 44.10 42.57 42.42 41.11 41.08 42.21 41.80 44.71 46.43 48.76 49.96 51.23 50.40 50.56 51.69 50.54 49.54 51.68 52.34 54.20 56.96 57.83 57.97 58.71 59.23 59.62 59.87 60.27 60.95
40.99 41.18 41.03 41.14 41.06 40.92 40.89 41.15 41.42 41.98 42.09 41.58 40.75 41.96 42.45 41.61 42.32 42.09 42.02 41.74 39.61 41.31 43.05 42.44 46.21 47.12 47.55 48.91 49.25 49.64 47.62 48.84 50.26 51.84 51.43 51.86 53.27 56.04 56.68 56.79 57.68 58.31 59.10
39.46 39.93 40.17 39.83 40.15 40.01 39.85 39.83 39.89 39.81 39.98 40.28 40.07 41.24 41.01 41.28 42.08 42.15 41.54 41.91 38.99 35.77 36.86 41.12 40.76 42.71 44.22 44.76 47.50 46.34 45.47 46.59 49.74 49.45 49.69 50.49 50.66 53.97 54.16 54.69 54.60 56.26 57.47
39.08 38.98 38.85 38.77 38.82 38.88 38.84 38.75 38.75 38.81 38.38 38.95 39.47 39.31 40.00 40.15 40.16 39.56 39.00 39.19 38.92 37.59 34.25 38.78 39.64 41.03 41.64 44.32 45.09 43.87 44.08 45.60 47.61 46.58 47.12 48.84 50.28 48.77 50.16 51.97 54.28 55.55 56.42
37.96 37.73 37.60 37.49 37.46 37.44 37.78 37.48 37.43 37.34 37.08 37.73 38.45 38.27 38.03 38.93 38.03 37.45 37.91 37.70 36.82 37.08 34.76 37.11 38.98 40.30 39.15 40.34 41.57 42.25 43.82 43.94 44.53 45.87 47.37 49.22 47.61 49.33 50.21 51.72 51.81 52.56 54.36
37.37 36.94 36.75 36.56 36.62 36.64 36.71 36.19 35.91 36.45 36.39 36.29 36.78 36.87 36.42 36.91 36.18 36.36 36.52 35.63 36.49 36.94 35.22 33.36 36.08 37.13 37.31 38.86 40.43 40.12 40.48 41.63 42.29 43.81 44.04 45.89 47.65 48.39 49.16 49.95 51.27 50.92 51.31
36.25 36.51 36.29 35.73 35.51 35.57 35.34 35.65 35.69 35.86 36.26 36.41 36.42 35.89 35.41 35.23 34.45 35.17 35.18 35.21 36.23 36.12 36.07 34.14 33.86 36.97 37.31 38.34 37.21 38.06 38.74 40.05 41.22 42.44 43.21 43.43 45.70 46.17 47.51 48.78 49.23 49.78 50.11
35.51 35.50 35.50 35.23 35.09 34.94 34.86 34.87 34.86 35.45 35.78 36.05 36.04 35.82 35.14 34.51 33.99 33.88 34.19 34.43 34.64 34.40 34.46 33.98 34.02 34.28 35.34 36.48 36.65 35.48 35.45 38.36 38.27 40.73 41.71 42.69 43.93 45.05 45.85 46.98 47.64 47.70 49.43
35.10 35.08 34.56 34.79 34.86 34.41 34.17 33.78 34.29 34.64 34.77 34.74 35.33 35.05 34.95 34.88 35.02 35.18 34.80 34.44 34.03 33.38 33.53 33.23 32.49 32.56 32.36 32.94 32.44 34.62 33.73 35.34 37.04 39.05 40.10 40.96 42.31 43.38 43.58 43.75 44.70 45.89 47.42
34.79 34.46 34.31 34.15 33.79 33.55 34.22 34.07 34.39 33.83 34.01 33.96 33.31 33.86 34.25 34.35 34.63 35.85 35.95 36.21 35.09 33.17 32.57 32.75 31.40 30.37 31.13 31.55 33.29 32.71 32.40 31.73 29.61 39.16 37.38 37.28 39.54 38.69 41.31 43.46 43.75 45.96 46.62
34.18 33.82 33.76 33.46 32.79 33.04 33.63 33.63 34.25 33.46 33.45 33.49 33.21 32.96 33.00 33.85 34.57 34.21 35.20 35.49 35.60 35.89 34.86 31.59 30.39 30.76 30.47 32.30 32.48 31.71 32.06 32.03 31.80 36.13 36.29 33.87 37.85 37.90 40.44 41.90 42.22 43.57 45.23
33.25 33.04 32.83 32.67 32.17 32.19 32.68 33.14 33.46 33.28 33.19 33.31 33.24 33.25 32.81 32.98 34.01 34.05 33.93 33.65 33.04 32.58 33.05 32.85 32.10 32.30 33.28 33.78 33.07 32.62 33.03 33.64 34.95 36.15 36.55 31.72 36.52 35.89 38.73 37.82 40.97 42.78 44.40
32.37 32.26 32.22 31.63 30.93 31.03 32.00 32.13 32.72 32.37 32.11 32.25 33.02 33.32 33.32 32.89 34.20 34.74 33.61 31.59 30.56 30.71 32.63 33.23 33.61 33.51 33.00 33.35 33.47 32.35 30.64 30.54 28.86 32.08 34.78 32.59 33.92 33.47 35.89 35.66 38.29 40.85 41.20
31.58 31.68 31.12 31.47 31.16 30.35 31.79 32.28 32.68 31.74 30.67 31.52 32.14 32.75 34.23 33.60 34.55 34.96 31.45 30.41 28.19 28.51 29.96 30.53 30.04 30.06 30.99 31.51 32.92 32.46 30.99 27.81 27.91 27.74 32.36 30.89 30.32 32.40 29.13 37.69 35.86 36.24 37.88

GFSMA_sfc_wetblb_003.txt.gz
Wetbulb
67.02 67.39 67.22 67.36 67.42 67.38 66.87 66.57 66.58 66.44 66.22 66.14 66.07 65.70 65.44 65.55 65.74 66.03 66.33 64.00 65.35 66.60 66.03 66.25 66.42 67.11 66.95 66.33 65.53 66.70 67.13 67.23 67.61 67.85 68.13 68.17 67.61 67.63 67.54 67.25 66.93 66.97 66.84
67.26 67.17 67.13 67.01 67.06 66.90 66.81 65.62 65.38 64.65 64.99 65.36 64.79 65.03 65.04 65.45 65.57 65.78 66.06 66.21 65.04 65.66 66.42 66.36 66.63 66.74 67.70 67.75 67.27 67.28 66.77 67.20 67.27 67.39 67.82 68.25 68.13 67.65 67.71 67.68 67.27 66.94 67.09
67.16 67.00 66.73 66.14 65.47 65.23 65.00 65.03 64.40 63.94 63.43 63.40 62.80 63.46 63.96 63.92 64.51 64.56 64.90 65.41 65.63 63.83 65.19 66.90 66.71 66.58 66.49 67.76 68.33 68.81 68.08 67.17 66.93 67.01 67.08 67.51 68.02 68.07 67.75 67.68 67.56 67.31 67.10
66.51 66.35 64.79 63.37 63.15 63.09 62.44 61.33 60.56 60.11 60.16 60.28 60.41 61.42 61.78 62.20 62.37 62.90 63.68 64.43 64.77 64.63 64.82 65.51 66.39 66.62 66.27 66.32 67.09 68.23 68.48 67.97 67.38 66.88 67.07 66.92 67.15 67.60 68.33 68.11 67.61 67.44 67.35
62.50 61.42 59.10 58.07 58.18 58.61 57.85 57.36 56.75 56.72 56.24 56.71 57.40 58.04 57.78 59.86 60.99 61.24 61.68 62.88 63.99 64.72 64.79 64.32 63.66 64.15 64.90 65.47 65.85 66.24 66.68 68.06 67.25 67.11 67.08 67.00 66.96 67.11 67.34 67.59 67.49 67.59 67.61
56.85 56.95 56.35 55.83 55.87 56.21 55.85 55.50 54.52 55.52 55.01 55.19 54.25 54.39 56.65 56.82 57.40 58.52 61.13 59.12 58.20 57.99 59.37 61.59 64.46 64.37 62.34 64.55 65.63 66.00 65.96 65.69 66.48 67.06 67.18 67.02 66.98 66.93 67.00 67.01 66.92 67.05 67.37
54.38 54.20 54.41 54.14 54.16 53.62 53.25 52.65 52.33 51.61 51.72 52.96 51.23 52.15 52.34 55.13 54.37 56.04 55.07 55.20 56.65 58.62 57.96 58.85 60.55 62.92 64.32 64.10 64.31 65.04 65.40 65.61 65.58 65.40 65.60 66.14 66.23 67.10 67.22 67.02 66.71 66.68 67.11
51.80 51.69 51.14 51.13 50.93 51.07 50.62 50.07 49.60 48.41 49.31 50.05 47.93 47.51 45.61 48.86 51.36 51.86 52.91 53.86 53.49 55.98 55.29 57.60 57.72 57.76 58.49 58.42 60.21 61.73 63.61 64.44 65.15 64.78 65.37 64.82 64.43 64.31 64.97 67.42 67.64 67.27 66.93
48.52 48.43 48.59 48.25 48.36 49.33 48.32 48.28 47.82 47.62 46.23 48.25 48.56 45.76 42.81 41.72 45.73 50.05 49.58 51.23 50.30 50.67 53.52 52.80 53.91 54.51 54.92 54.98 55.41 55.88 58.44 59.99 61.57 62.39 62.88 63.28 64.10 64.31 64.01 65.54 65.97 67.96 67.70
46.92 46.13 46.40 46.70 46.52 47.03 46.50 46.94 46.35 47.05 46.93 44.70 46.40 46.08 46.69 45.87 41.95 40.70 46.84 47.60 48.52 48.42 48.82 50.78 49.93 50.29 50.73 52.65 54.51 54.39 56.39 57.75 58.32 59.80 61.24 61.18 61.87 62.91 63.95 65.11 65.67 66.16 66.73
46.44 45.05 45.13 45.42 44.99 45.28 45.06 44.96 45.32 45.43 46.40 44.39 43.30 43.85 44.07 45.20 44.72 40.90 38.14 41.22 44.67 46.06 47.58 47.33 48.41 48.83 49.92 51.05 53.01 55.22 55.40 54.52 55.95 56.71 57.23 58.57 60.24 61.92 62.14 62.41 63.02 63.64 65.48
45.19 44.01 43.96 44.04 44.07 43.50 43.16 43.61 44.31 44.86 44.95 44.21 43.37 42.92 41.67 40.94 40.68 39.66 38.33 39.22 40.18 43.59 46.52 46.22 47.89 48.90 49.84 50.33 50.78 51.80 50.91 50.66 52.36 53.75 54.94 55.81 56.72 58.01 57.53 58.00 59.32 59.36 59.56
42.90 42.26 42.54 42.09 42.12 42.67 42.51 42.69 42.67 43.16 42.95 42.43 42.11 41.15 41.68 41.94 42.40 41.08 39.76 38.80 38.63 41.45 42.01 44.06 43.73 45.51 45.28 46.71 44.63 47.54 47.25 49.03 51.95 51.31 52.77 53.72 53.79 52.69 53.58 53.95 54.48 56.84 58.64
41.47 41.63 41.34 41.26 41.15 41.17 40.93 41.15 41.40 41.89 41.74 41.23 41.10 40.94 40.70 41.68 42.01 41.41 39.85 38.06 35.52 36.01 38.07 38.21 42.85 42.29 42.62 43.55 43.40 46.52 43.47 49.04 49.68 48.81 49.58 49.44 49.00 50.22 49.75 50.26 52.78 54.33 53.55
40.21 40.28 40.55 40.02 40.10 40.13 39.92 39.73 39.50 39.55 40.01 39.89 39.88 40.18 40.07 40.46 41.41 40.93 40.75 39.26 35.46 31.41 31.98 36.12 37.06 40.53 41.82 40.84 43.31 41.91 40.57 44.01 46.29 45.66 46.93 48.20 48.76 49.05 47.98 49.35 50.69 50.33 50.46
39.47 39.29 39.19 38.99 38.87 38.95 38.88 38.84 38.69 39.21 38.49 38.70 38.94 38.87 38.75 39.28 39.52 39.66 39.12 38.67 37.34 34.34 30.56 35.99 36.66 38.44 39.85 40.89 41.30 41.03 41.00 43.22 43.96 44.46 44.30 45.89 46.35 46.82 48.64 48.37 48.51 49.33 49.78
38.39 38.03 37.94 37.67 37.61 37.59 37.85 37.52 37.51 37.67 37.09 37.30 37.95 37.71 37.54 38.23 37.72 37.61 37.57 36.79 35.97 35.68 31.62 33.85 36.51 37.95 37.09 37.00 38.28 38.89 40.01 39.58 40.36 42.47 43.00 43.63 45.00 45.62 46.96 47.80 48.03 49.10 50.20
37.74 37.37 37.28 37.03 36.98 36.96 36.97 36.23 35.89 36.36 35.69 35.51 36.25 36.54 36.32 37.20 36.14 36.56 35.73 35.05 34.56 34.57 32.55 30.56 33.58 34.25 34.64 36.41 36.74 36.45 37.36 38.94 38.55 41.18 42.22 42.91 43.42 44.03 44.70 45.96 47.15 47.00 48.48
36.72 36.90 36.89 36.30 36.15 36.52 36.08 35.89 35.66 34.96 34.98 35.44 35.73 35.59 35.46 35.45 34.44 34.69 34.24 33.11 33.45 34.17 33.64 31.73 30.65 33.58 34.26 35.43 34.74 35.25 35.34 36.04 38.00 40.39 40.87 41.00 41.63 42.77 43.94 44.25 45.02 46.08 46.68
36.06 36.29 36.31 36.04 36.31 36.17 35.93 35.63 34.75 34.12 34.29 34.89 35.49 35.42 35.38 34.76 33.78 33.15 32.86 32.73 33.35 32.47 32.43 31.35 30.94 31.39 32.20 33.99 33.76 31.75 30.75 33.30 33.24 36.16 37.89 38.93 40.54 41.42 42.83 43.11 42.86 43.47 44.29
36.07 36.25 35.80 36.17 36.37 35.83 35.61 34.78 34.12 33.48 33.34 33.58 34.34 35.00 35.23 35.81 35.77 35.19 33.54 32.85 32.54 31.77 31.03 30.37 29.94 30.08 29.97 29.52 28.75 30.23 29.02 30.42 31.86 33.38 33.74 35.03 36.60 37.28 38.07 40.53 41.09 43.05 44.28
35.62 35.68 35.66 35.61 35.46 35.17 36.66 36.17 34.78 32.75 32.95 32.68 32.73 33.89 34.37 35.40 34.94 35.93 36.10 36.06 34.89 31.30 30.34 29.64 30.49 28.05 27.73 28.13 28.84 28.48 28.72 27.96 25.65 32.70 31.89 31.59 34.60 34.49 36.57 38.20 40.83 41.99 42.87
35.36 35.05 35.03 34.83 33.99 34.05 35.72 35.38 34.77 32.45 32.00 32.72 32.85 32.87 33.05 33.99 34.30 33.62 35.01 35.60 35.02 35.41 34.39 31.22 28.13 26.91 26.42 28.54 29.29 28.77 28.33 26.63 26.10 29.92 31.42 29.04 34.01 33.55 36.50 37.20 39.31 40.06 40.82
34.30 34.07 33.92 33.79 33.10 33.29 34.83 34.31 33.85 32.26 32.29 32.80 32.85 32.85 32.31 32.50 33.43 33.33 32.73 32.20 32.35 31.84 31.73 31.65 29.77 28.85 29.82 30.70 30.50 28.83 28.11 29.36 29.95 31.28 32.39 27.56 32.06 31.36 33.52 35.15 37.40 38.90 38.85
33.42 32.97 33.11 32.58 32.01 31.94 33.85 33.66 32.98 31.73 31.53 31.49 32.54 32.66 32.39 32.32 34.37 35.54 31.92 29.79 28.29 28.63 32.58 33.21 32.98 33.10 32.98 32.77 31.86 28.81 26.65 26.31 25.23 26.33 29.75 28.28 29.37 29.10 30.71 31.22 33.60 37.66 37.88
32.43 32.58 32.04 32.35 32.86 31.24 33.36 33.60 33.15 31.53 30.05 30.45 31.49 32.23 34.00 33.07 34.77 34.83 30.38 27.81 25.38 26.83 28.22 28.33 28.15 28.64 29.53 29.42 31.71 29.47 27.90 24.95 24.71 22.78 27.51 25.99 26.64 27.92 26.45 29.37 32.50 32.37 32.19

GFSMA_sfc_wetblb_006.txt.gz
Wetbulb
63.46 63.67 63.63 63.69 64.75 64.66 64.33 63.65 63.64 63.73 63.53 63.46 62.90 62.85 62.94 61.85 61.83 62.26 62.07 63.35 65.68 67.97 69.00 68.61 68.36 68.14 67.99 67.61 67.81 68.11 68.06 67.49 67.63 67.53 67.49 67.88 68.05 68.56 68.31 68.18 67.91 67.69 67.60
63.30 63.39 64.15 64.17 64.01 63.96 63.84 63.37 62.59 61.47 60.80 60.53 60.16 59.45 59.24 59.43 59.95 60.38 61.45 61.33 64.39 66.35 68.13 69.21 68.62 68.53 68.41 68.37 67.89 68.26 68.23 68.25 67.89 67.52 67.59 67.60 67.62 67.85 68.48 68.42 68.09 67.79 67.63
63.42 64.45 63.44 62.50 62.07 60.25 58.96 57.26 56.40 56.16 55.72 56.86 56.12 57.71 57.88 58.09 58.42 58.44 59.04 59.90 61.03 62.69 65.60 68.32 69.09 68.88 68.66 68.22 68.18 67.99 68.11 68.22 67.58 67.79 67.52 67.48 67.43 67.26 67.41 67.79 68.03 67.96 67.89
61.92 59.17 55.85 53.17 53.74 53.88 52.91 51.96 51.56 51.46 50.98 50.96 51.79 52.48 52.64 53.47 54.20 56.06 57.17 58.04 58.74 60.10 62.72 65.77 66.67 67.47 67.71 67.78 67.76 67.56 67.68 67.90 67.74 67.31 67.17 67.18 67.04 67.02 67.07 67.10 67.18 67.29 67.70
54.28 53.25 52.00 51.02 51.05 51.73 51.05 50.55 49.53 49.53 48.88 49.57 50.35 49.58 50.39 50.97 51.14 53.72 53.28 52.26 52.72 53.76 54.87 58.83 61.65 63.36 65.00 66.29 66.19 65.85 66.41 66.47 66.43 66.70 66.85 66.71 66.92 66.99 67.11 67.12 66.95 67.08 67.27
51.24 50.47 50.22 49.57 49.57 49.26 48.60 46.76 45.65 46.50 46.24 46.32 47.70 48.28 47.51 48.48 49.44 48.84 48.93 49.95 51.07 51.97 52.68 53.25 53.40 56.41 60.30 63.43 64.05 63.62 63.77 63.69 65.22 65.52 65.46 65.43 65.46 65.75 65.50 66.66 67.08 66.77 66.90
48.90 47.41 47.30 46.94 46.59 46.16 45.12 45.06 43.96 43.19 43.29 43.90 42.85 43.32 43.98 46.16 46.45 46.99 48.18 49.34 47.98 49.53 48.92 50.00 51.16 50.47 51.75 56.90 58.19 59.21 59.39 58.83 61.52 62.27 64.01 63.73 64.64 64.39 64.29 64.60 64.36 66.25 67.38
45.59 45.63 44.07 43.94 43.61 44.02 43.07 42.55 41.92 41.87 42.45 43.24 40.04 40.01 37.60 40.14 43.25 45.07 45.84 46.22 45.16 46.44 47.13 48.18 46.63 46.50 48.40 47.58 49.33 55.10 56.74 57.93 59.17 59.86 60.91 61.51 61.80 62.49 63.13 63.36 63.68 63.94 64.77
43.53 43.23 42.91 42.27 41.89 42.24 41.29 40.94 40.66 40.62 40.19 41.51 41.10 38.10 35.06 34.71 38.65 41.92 42.92 42.97 43.13 44.06 43.98 44.72 45.35 45.52 46.01 46.39 48.60 48.89 52.27 55.59 56.86 58.60 59.29 59.67 60.07 60.16 60.75 61.29 62.11 62.67 63.25
41.99 42.23 42.13 41.51 40.69 41.09 39.51 39.67 41.81 39.93 40.13 38.59 39.58 42.00 38.79 38.12 35.67 34.82 38.97 40.89 40.80 41.91 42.06 42.94 43.82 44.52 44.47 43.93 49.22 51.15 53.25 52.98 52.94 54.39 55.55 56.27 57.78 57.97 58.53 59.20 59.64 60.29 59.03
41.05 41.14 41.00 40.09 39.38 39.61 38.59 38.30 38.09 38.12 39.50 38.42 37.66 37.24 36.94 36.37 36.87 34.88 33.19 35.47 38.71 40.00 41.32 42.25 42.34 42.99 42.49 41.76 42.28 46.13 49.72 48.81 50.87 51.80 53.35 54.79 55.86 56.28 56.68 56.72 56.38 56.21 56.89
40.06 39.46 40.38 38.78 38.42 38.16 37.55 37.64 37.33 37.25 37.47 37.41 37.33 36.47 35.89 34.16 34.34 34.50 33.76 34.20 34.60 37.14 39.85 40.55 40.46 39.75 39.94 40.52 43.22 46.32 45.78 47.53 48.78 49.52 51.42 52.37 52.86 53.24 53.34 53.22 53.07 53.65 54.39
37.59 37.15 37.72 36.79 36.63 37.06 37.46 37.08 36.31 35.88 36.17 35.29 35.28 35.43 36.88 36.13 36.87 36.73 34.98 34.01 33.25 35.72 36.34 37.88 38.05 39.11 40.47 38.87 39.86 44.31 44.38 45.38 45.80 47.27 49.60 50.18 49.22 48.86 48.79 49.96 51.21 51.73 52.05
36.45 36.65 36.46 36.32 36.17 36.58 36.42 35.84 35.45 35.37 35.49 34.47 33.58 34.08 35.56 36.31 36.98 36.37 34.78 33.66 30.71 32.08 33.59 33.52 36.71 36.89 37.46 38.45 40.56 43.45 39.85 43.00 43.65 45.32 46.91 46.55 45.81 46.12 46.52 47.08 48.11 48.74 48.85
37.73 35.71 35.49 35.05 35.12 35.37 35.51 34.84 33.75 33.73 33.71 33.42 33.22 33.26 34.17 35.72 35.98 35.98 35.86 34.91 32.11 27.55 28.73 32.03 31.98 35.99 36.44 37.19 38.97 38.30 37.59 41.02 42.68 42.81 43.49 43.86 43.63 44.27 44.41 44.83 45.31 45.87 46.55
35.03 34.59 34.34 34.09 34.08 34.23 34.17 33.45 33.18 33.92 33.56 34.02 34.81 33.21 33.92 34.81 34.84 35.00 34.66 34.19 33.25 30.42 26.62 31.78 32.61 33.54 34.66 36.58 37.31 36.73 36.57 39.85 41.09 41.98 41.83 41.77 42.12 42.89 43.49 43.96 44.50 44.50 45.85
33.85 33.70 33.76 33.51 33.42 33.23 33.43 32.65 32.11 33.33 32.38 32.75 32.03 32.83 33.11 34.01 33.71 33.61 33.57 33.28 31.97 31.39 27.93 29.72 31.69 33.05 32.98 32.75 33.79 34.94 36.29 35.98 36.50 40.14 40.93 40.60 41.01 41.50 42.11 42.62 43.00 43.76 44.68
33.21 33.06 33.33 33.13 33.09 33.48 32.91 31.89 31.83 32.02 31.97 30.39 31.33 31.77 32.02 34.30 32.40 32.80 32.24 31.30 30.45 30.46 28.63 26.38 30.23 30.97 30.93 32.45 32.94 32.90 34.56 36.46 35.21 37.91 38.96 39.58 39.24 40.01 40.42 41.00 41.37 42.62 43.54
32.22 32.57 32.87 32.51 32.72 33.07 32.85 32.02 32.23 31.93 30.48 30.90 31.17 31.16 31.47 31.76 31.10 31.50 30.42 29.84 30.42 31.28 30.34 29.07 28.25 30.89 31.20 32.01 31.52 32.33 32.42 32.11 33.80 35.73 36.98 37.99 38.49 38.87 39.86 40.54 40.99 41.78 42.51
31.89 31.77 32.14 32.30 32.61 33.12 33.20 33.13 32.18 30.50 30.52 31.07 31.42 31.58 31.44 31.43 31.12 30.63 30.77 30.44 31.27 30.42 30.02 29.04 29.44 29.55 29.67 31.17 31.37 28.76 27.23 29.21 28.72 32.18 34.17 35.69 36.99 37.21 38.49 39.13 39.13 39.91 40.54
32.10 31.93 31.79 31.94 32.10 33.11 34.31 32.55 32.37 30.85 29.66 29.91 30.49 30.98 31.79 33.82 36.82 34.99 32.88 31.42 31.09 29.68 29.64 30.28 27.89 28.40 27.97 27.61 25.63 26.65 25.32 26.84 27.66 29.49 29.70 29.21 30.44 31.51 32.77 36.01 37.24 38.66 39.98
30.69 30.90 30.62 30.97 30.64 33.25 36.50 36.87 35.33 30.86 29.79 29.23 28.74 30.26 31.33 33.46 33.31 35.93 35.82 35.89 34.56 31.43 30.16 29.16 27.98 25.70 25.38 25.78 26.50 25.10 25.13 24.11 23.81 28.73 26.55 26.66 29.92 29.62 31.72 34.14 37.12 39.21 39.56
29.25 29.07 29.18 29.39 29.02 28.65 35.58 36.30 35.99 31.03 29.29 29.00 29.16 29.57 30.14 32.14 32.24 30.82 33.67 35.43 35.43 35.50 33.75 29.02 24.93 24.33 25.59 27.72 26.61 26.48 26.95 26.29 23.84 26.65 27.17 25.61 29.60 28.33 30.95 33.02 36.17 37.12 38.48
28.12 28.10 28.40 28.45 27.71 29.96 35.00 35.26 35.15 29.65 29.11 29.17 29.48 29.55 29.33 29.26 30.37 32.08 31.79 32.27 31.24 29.46 28.65 28.85 28.00 28.62 29.21 29.41 28.55 27.59 26.13 25.75 26.48 27.59 28.28 23.93 27.44 25.73 29.14 31.80 34.76 34.84 36.12
27.35 27.09 28.09 27.87 27.22 28.10 33.89 34.45 33.34 29.38 28.76 28.54 29.63 29.91 30.29 30.52 33.59 34.75 31.28 30.03 28.17 27.05 30.50 32.12 33.32 33.13 31.88 31.74 30.87 27.55 24.70 23.58 21.61 23.11 26.53 24.59 24.59 25.10 26.72 27.98 30.85 34.86 36.73
27.85 28.44 28.28 28.00 29.94 27.61 32.25 34.35 33.39 29.97 27.77 28.20 29.05 29.92 32.91 32.14 33.84 34.57 30.52 28.11 25.23 24.34 26.56 28.22 25.23 25.81 27.46 26.91 30.59 27.76 26.25 22.57 21.85 20.45 24.51 22.92 23.83 24.95 23.06 27.87 29.26 30.22 30.84

GFSMA_sfc_wetblb_009.txt.gz
Wetbulb
63.61 63.38 62.68 63.66 63.57 63.57 63.24 62.53 61.71 60.21 58.84 58.08 57.78 57.09 57.29 58.25 58.62 58.89 58.94 61.88 64.43 66.30 67.14 67.76 68.97 69.17 68.93 68.62 68.37 68.50 68.54 68.87 68.34 68.09 68.13 67.95 67.79 67.81 68.32 68.72 68.69 68.43 68.12
62.25 63.38 63.04 61.97 61.07 59.28 56.46 53.99 52.34 52.32 52.20 52.78 52.41 52.71 54.65 55.53 55.43 55.80 56.90 58.38 62.28 63.86 65.49 65.32 67.05 68.44 67.40 67.42 67.80 68.05 67.82 68.41 68.16 67.88 67.76 68.04 67.74 67.63 67.67 67.89 67.96 68.12 68.09
62.99 60.85 54.58 52.51 53.48 51.85 50.95 50.45 49.88 50.11 49.69 50.55 49.31 51.03 50.05 49.06 50.43 50.54 52.37 53.11 55.10 57.85 59.83 61.39 63.14 63.47 66.48 65.08 66.25 67.25 66.92 66.55 66.62 67.05 66.85 66.45 67.00 67.25 67.51 67.51 67.47 67.67 67.75
54.10 53.08 50.28 48.80 49.61 49.91 48.70 47.90 47.24 46.53 46.29 46.62 46.47 45.69 46.03 48.26 47.19 48.05 49.97 47.90 47.99 50.79 54.63 58.48 58.34 60.57 58.69 60.50 61.78 62.61 63.18 64.81 64.46 64.40 64.93 65.29 65.56 65.52 65.92 66.72 67.17 67.13 67.22
50.57 49.54 48.11 47.15 47.54 47.40 45.63 45.19 44.07 43.07 42.92 43.18 44.32 44.47 44.44 43.86 45.76 47.69 45.51 46.22 47.95 47.33 48.22 52.45 55.82 54.90 55.40 55.37 57.87 58.55 58.43 58.24 59.85 60.81 61.89 62.69 63.47 64.89 64.41 64.91 64.27 65.55 66.68
47.23 46.65 45.75 44.61 45.26 44.49 43.09 42.18 41.08 41.77 41.64 41.35 45.05 43.25 41.83 43.40 43.33 42.57 43.70 46.42 45.41 45.79 45.64 46.01 45.67 46.05 51.83 53.28 53.80 55.25 56.36 56.14 55.80 56.63 57.84 59.17 60.32 61.62 63.16 63.22 64.09 63.96 64.73
44.79 43.27 43.32 42.68 43.10 42.07 40.72 41.20 40.66 40.44 40.67 41.27 39.53 39.42 40.81 42.54 40.74 41.84 42.84 43.18 43.63 43.35 44.61 43.44 43.95 44.23 45.03 49.95 50.95 52.29 53.37 54.99 56.52 57.33 57.54 58.36 59.55 60.26 60.82 61.66 62.18 62.51 62.79
42.89 42.95 41.25 40.77 40.70 40.67 39.61 39.06 38.92 39.02 40.14 40.01 37.12 36.10 34.31 36.48 39.10 41.00 40.55 41.65 39.93 41.82 41.65 42.44 42.34 43.01 42.97 43.28 44.46 48.27 51.08 53.76 54.41 54.90 55.59 56.06 56.63 57.25 58.24 59.62 60.14 60.43 60.98
41.67 41.27 40.57 39.73 39.51 39.30 38.03 37.54 37.63 37.35 37.21 38.34 38.17 35.82 32.24 31.25 35.02 37.72 38.00 38.34 38.87 38.44 40.05 40.75 42.00 42.16 42.54 42.05 42.59 44.52 46.51 49.09 51.21 52.76 53.70 54.42 54.58 55.23 56.55 57.76 58.27 58.63 58.99
39.98 40.54 40.10 39.04 38.38 38.34 36.58 36.81 38.46 36.62 36.58 35.63 37.25 39.72 35.88 34.47 31.61 30.23 35.29 36.96 37.47 39.02 38.77 39.70 40.55 41.03 40.91 39.74 42.22 43.88 45.92 46.71 49.34 51.07 52.24 52.97 53.35 54.19 55.03 55.69 56.36 56.18 56.15
38.97 39.38 38.79 37.68 37.11 37.08 35.79 35.55 34.98 34.83 35.68 34.79 34.99 35.11 33.75 33.69 32.74 30.76 29.36 31.53 36.38 37.35 38.45 38.47 38.06 39.22 38.65 38.84 38.93 40.91 44.66 46.32 48.44 49.63 50.96 51.45 51.55 51.89 52.86 53.02 53.30 53.66 53.33
37.35 37.39 37.97 36.33 35.83 35.70 35.19 35.12 34.63 34.19 33.74 33.73 33.73 33.74 32.96 31.64 32.01 31.62 30.26 31.25 32.16 34.37 36.79 37.63 37.27 36.94 37.78 37.49 39.87 42.14 43.77 44.72 45.90 47.43 49.35 50.08 50.02 50.19 50.52 50.56 50.41 50.91 51.36
35.07 34.76 35.37 34.51 34.24 34.62 35.19 34.75 33.72 33.11 33.06 32.21 31.97 32.46 33.06 33.61 33.96 33.42 32.41 31.30 30.21 33.01 33.93 35.65 35.55 35.91 37.19 36.28 36.85 40.75 41.48 42.23 43.73 45.56 47.42 48.46 47.43 46.72 47.06 48.12 48.80 49.05 49.42
34.00 34.18 34.16 33.92 33.78 34.19 34.07 33.50 32.96 32.63 32.99 31.66 30.88 31.13 32.84 33.31 33.40 33.96 32.44 30.70 28.52 29.67 31.50 31.61 34.78 34.67 35.25 34.70 37.58 39.59 36.40 40.68 41.36 42.76 44.35 45.18 44.38 44.72 44.45 45.28 46.14 46.33 46.76
36.33 33.56 33.20 32.83 32.88 33.12 33.07 32.36 31.32 31.12 31.13 30.95 30.68 30.58 30.71 32.08 32.97 33.33 33.27 32.72 29.72 25.61 26.32 30.48 30.29 33.69 33.74 34.34 35.50 35.49 35.06 38.45 40.13 41.23 41.59 41.99 42.26 42.65 42.82 43.46 43.68 44.05 44.75
32.96 32.72 32.45 32.15 32.27 32.18 32.05 31.30 30.74 31.47 30.70 30.63 32.56 29.79 29.56 31.67 32.04 32.59 32.24 31.86 30.98 28.94 25.39 30.27 30.85 31.78 32.62 33.82 35.45 34.62 34.13 37.72 39.08 40.03 40.59 40.73 40.96 41.09 41.09 41.28 42.31 42.06 43.03
32.06 32.07 32.07 31.86 31.58 31.64 31.45 30.45 30.14 30.93 30.08 30.01 28.84 29.77 30.14 31.10 30.87 31.49 31.74 31.55 30.66 29.40 26.51 28.83 30.67 31.46 31.04 31.49 32.44 33.12 34.21 33.51 34.40 38.80 39.77 39.39 39.28 39.50 39.24 39.72 40.55 41.51 41.94
31.70 31.51 31.61 31.54 31.99 31.87 31.23 30.06 29.44 29.48 29.15 27.90 28.69 29.17 29.54 31.74 30.00 30.53 30.57 30.11 29.54 29.50 27.68 25.55 28.90 29.72 30.36 31.57 31.70 31.59 32.66 34.45 34.27 36.54 37.48 37.74 37.77 37.83 38.40 38.68 39.20 39.99 40.49
31.03 31.45 31.67 31.50 31.72 31.67 30.87 30.33 29.87 29.66 28.50 28.52 28.61 28.91 29.24 29.32 28.66 29.45 29.80 28.92 29.84 30.87 29.77 28.80 28.40 30.47 30.58 32.50 31.13 30.98 31.39 31.14 31.94 34.44 35.58 35.71 36.37 36.77 37.80 37.93 37.48 38.14 39.01
31.17 31.02 31.36 31.26 31.10 31.12 31.34 31.28 30.32 28.88 28.31 28.99 29.36 29.43 29.19 28.99 28.83 29.43 30.37 29.96 31.10 30.01 29.68 28.39 28.42 30.17 30.28 30.58 28.56 26.33 25.46 28.11 27.82 30.28 32.22 33.78 35.34 35.73 35.63 35.99 36.41 36.53 37.21
31.01 30.84 30.39 30.04 30.06 30.83 32.85 32.18 31.83 30.33 27.95 27.40 28.07 29.24 29.89 31.52 34.28 33.81 31.98 30.10 29.50 28.72 29.05 29.91 29.11 27.39 25.33 24.71 23.52 25.08 25.33 26.65 26.78 28.10 28.64 29.16 28.35 28.52 29.53 33.10 33.87 35.52 36.56
29.27 28.96 28.43 28.63 28.43 31.52 35.41 36.17 34.99 30.76 28.29 27.30 27.10 28.68 29.38 31.65 31.57 34.61 34.55 34.91 34.09 30.68 30.58 29.05 27.59 24.02 23.78 23.89 25.14 25.90 26.09 25.18 21.97 27.94 25.80 25.29 27.57 26.74 28.54 29.78 34.48 35.51 35.40
26.90 26.81 26.92 27.03 26.95 27.17 34.68 35.64 35.71 30.98 27.54 26.87 27.68 28.02 28.67 30.63 31.19 29.37 32.53 34.61 34.07 35.43 34.73 29.97 25.50 24.15 23.56 25.14 27.75 26.53 23.78 23.45 23.32 25.85 26.06 23.61 26.50 25.08 27.63 30.32 33.13 33.74 34.82
25.95 26.02 26.05 26.03 25.45 28.12 34.04 34.61 34.95 29.83 27.76 27.42 27.50 27.72 27.67 28.16 29.66 31.11 30.49 29.60 30.72 31.27 29.66 29.08 26.97 27.03 28.97 29.37 26.87 25.77 25.21 25.11 25.63 25.97 26.47 21.11 24.48 23.21 25.76 27.61 32.32 33.43 34.16
25.35 25.28 25.43 25.16 24.18 24.79 32.65 33.80 32.91 28.88 28.02 27.71 28.38 29.59 29.93 29.46 32.44 33.77 29.91 30.08 27.87 26.82 29.92 31.93 32.75 31.98 31.01 30.95 29.79 26.49 23.64 22.53 20.78 21.87 24.73 22.49 22.63 22.49 24.24 25.36 27.91 32.87 34.18
25.70 25.70 26.19 25.09 27.43 24.63 30.56 32.90 32.03 28.64 26.86 27.50 28.21 29.06 31.87 30.89 32.86 33.60 30.60 27.36 23.24 23.85 26.41 27.28 23.97 24.93 26.75 26.33 29.76 26.47 24.86 20.80 20.41 19.36 23.35 21.72 22.18 22.85 21.56 26.27 27.01 28.75 29.88

GFSMA_sfc_wetblb_012.txt.gz
Wetbulb
61.96 62.87 62.40 62.20 60.06 58.31 55.81 53.69 51.29 51.11 50.41 50.95 50.44 50.28 51.13 50.53 50.86 52.45 53.01 58.47 61.07 59.68 60.65 62.29 63.22 64.63 66.36 66.91 66.79 67.39 67.46 67.01 66.71 66.82 66.79 67.04 67.25 67.46 67.69 68.05 68.13 68.18 68.19
61.87 59.80 55.20 55.48 54.04 52.98 51.52 48.55 48.16 47.21 46.86 47.27 47.68 48.09 46.90 46.69 47.32 47.56 49.61 49.96 56.80 56.71 58.38 59.36 60.15 61.79 61.26 62.39 63.13 63.83 64.51 63.99 63.69 62.41 62.18 63.72 65.19 65.57 66.13 66.87 67.43 67.59 68.02
54.80 53.17 52.12 51.64 50.35 48.12 47.31 45.91 45.07 44.97 44.84 45.56 43.95 44.95 44.84 44.49 45.25 45.40 47.12 45.94 47.40 53.25 54.62 55.88 57.59 56.36 56.28 57.46 59.35 60.10 59.82 59.40 59.37 59.38 59.62 60.37 60.97 63.12 63.80 63.63 65.05 66.00 66.94
52.57 50.32 47.56 46.81 46.52 45.23 44.47 43.29 42.88 42.46 42.07 41.70 41.09 42.10 41.51 42.97 43.98 43.40 43.99 43.71 45.70 45.70 48.62 52.58 51.98 52.27 53.20 55.52 56.38 57.29 57.44 57.49 57.02 57.06 57.40 57.92 58.84 60.10 61.83 62.84 64.28 65.28 64.97
48.80 46.43 44.77 44.58 44.27 42.92 41.97 41.97 40.73 40.59 39.73 40.03 41.91 41.87 39.62 40.75 42.54 42.11 39.05 42.03 43.50 43.72 43.24 47.33 48.34 48.57 50.65 52.43 53.58 54.47 54.88 54.60 55.36 55.98 57.34 58.14 58.62 59.53 60.61 61.31 61.70 62.32 63.40
45.07 43.95 42.51 42.79 42.51 41.26 40.25 39.64 38.77 39.39 39.47 38.88 42.80 41.25 38.34 40.79 39.29 38.70 38.89 41.87 40.60 40.45 41.20 40.25 40.58 42.39 48.63 50.03 51.33 52.48 53.04 53.43 53.27 54.91 54.96 55.70 56.76 57.22 57.73 58.57 59.79 60.84 61.85
42.59 41.62 41.08 41.03 41.04 39.52 38.20 38.87 38.42 38.22 38.53 38.56 37.06 36.65 38.28 38.63 36.74 38.79 38.60 37.06 39.56 39.35 39.69 40.32 40.89 40.99 41.29 47.58 47.68 49.25 49.80 50.60 51.52 52.48 53.10 53.93 54.82 55.48 56.24 56.76 57.42 58.09 58.97
41.66 41.39 39.65 39.32 39.06 38.37 37.14 36.80 36.61 36.48 37.85 37.59 34.88 34.16 32.11 34.38 36.42 38.11 37.14 37.82 36.94 38.06 38.93 39.93 39.07 39.91 40.01 39.53 41.86 46.10 47.02 48.68 50.24 51.05 51.84 52.38 53.12 54.13 55.05 55.42 56.28 57.41 57.78
40.49 39.94 38.91 38.27 37.71 37.08 35.76 35.58 35.23 34.93 34.26 35.97 35.69 33.93 30.11 28.74 33.04 34.78 35.85 34.98 36.94 35.67 37.61 37.83 39.05 39.54 39.29 38.66 39.19 41.08 44.69 46.36 48.22 49.47 51.21 51.87 52.07 52.69 53.80 54.39 54.65 55.02 55.42
38.87 39.05 38.41 37.32 36.52 36.24 34.64 34.95 36.37 34.42 33.77 32.30 34.73 37.48 34.21 33.00 28.85 27.91 32.77 35.35 33.99 35.66 35.11 35.35 36.92 37.81 38.02 37.83 40.04 42.09 43.37 44.70 46.51 49.14 50.19 50.57 50.93 51.93 52.46 52.93 53.13 53.31 53.49
37.57 37.69 37.11 35.99 35.39 35.26 33.96 33.54 33.09 32.47 33.30 32.07 32.42 32.37 31.35 31.70 31.20 28.84 27.08 29.25 33.53 35.01 36.22 36.02 35.00 36.54 36.54 36.61 36.26 38.67 42.91 44.35 46.47 47.52 48.48 48.92 49.98 50.47 51.25 51.67 51.93 52.11 52.13
35.92 35.77 36.27 34.69 34.08 33.85 33.41 33.31 32.65 32.06 31.52 31.57 31.27 30.84 30.71 29.29 29.45 28.36 28.18 28.74 28.79 31.95 33.60 35.08 34.82 35.44 35.05 34.96 38.25 40.71 41.64 42.97 43.93 45.17 47.19 48.17 48.20 48.66 49.27 49.83 49.81 49.87 50.01
33.80 33.53 33.92 33.02 32.72 32.79 33.22 32.72 31.76 31.16 31.04 30.07 29.52 29.83 30.77 30.55 30.89 30.78 29.41 27.81 27.50 30.49 31.43 32.71 32.91 33.42 35.70 33.44 34.75 38.97 39.89 40.82 41.56 43.48 45.30 46.58 45.91 45.74 46.29 47.30 48.11 48.45 48.57
33.02 32.90 32.66 32.29 32.00 32.27 32.07 31.43 31.00 30.63 31.02 29.68 28.87 28.99 29.57 30.22 30.96 30.28 29.20 27.66 25.47 26.95 29.19 29.21 32.16 31.59 32.05 32.78 35.45 38.79 34.90 38.82 40.09 41.48 43.10 43.61 43.16 43.01 43.47 44.68 45.55 46.02 46.06
35.09 32.16 31.70 31.37 31.24 31.36 31.34 30.57 29.68 29.55 29.43 29.23 28.87 28.54 28.32 29.35 29.57 30.06 30.30 29.84 27.22 23.19 24.40 28.32 28.86 31.45 31.17 32.91 34.38 33.91 33.48 37.56 39.51 40.31 40.65 40.59 40.79 41.51 42.23 42.92 43.53 43.41 43.42
31.80 31.45 31.17 30.84 30.75 30.71 30.63 29.80 29.40 29.98 29.14 28.98 30.32 27.61 27.64 28.67 29.21 30.12 29.66 29.85 29.36 27.02 23.66 29.00 29.88 31.06 31.86 32.99 33.88 33.88 33.59 37.19 38.25 39.26 39.36 39.21 39.50 39.83 40.83 40.75 40.91 41.54 42.14
30.86 30.82 30.82 30.54 30.35 30.28 30.23 29.17 28.89 29.48 28.88 28.27 27.61 27.89 28.06 28.78 29.13 29.21 29.52 29.52 28.72 28.46 25.51 28.10 30.31 31.16 30.40 30.41 31.78 32.65 33.46 33.56 33.53 37.41 38.21 38.47 38.26 38.50 39.01 39.29 39.20 39.57 40.33
30.55 30.36 30.47 30.38 30.30 30.37 29.92 28.82 28.26 28.38 27.84 27.03 27.39 27.27 27.57 30.63 28.13 28.38 28.53 28.09 28.32 28.97 27.33 25.26 28.58 29.42 29.78 31.15 31.06 31.06 32.78 32.94 31.26 34.53 36.08 36.69 36.90 37.05 37.33 37.55 37.96 38.61 39.06
29.93 30.24 30.29 30.31 30.26 30.47 29.62 29.23 28.57 28.14 27.63 27.52 27.32 27.13 27.37 27.65 26.96 27.57 27.81 27.82 28.90 30.56 29.99 28.17 26.93 29.40 29.68 30.99 30.93 29.38 28.45 28.34 29.63 32.88 34.78 35.49 35.87 36.06 36.49 37.15 37.62 37.71 36.96
30.00 29.72 30.00 29.84 29.96 29.35 29.60 29.31 29.05 28.08 27.69 28.18 28.09 28.00 27.52 27.45 27.10 27.69 28.74 29.21 29.84 27.73 27.74 27.04 27.35 28.01 30.55 29.58 27.09 25.07 24.33 26.41 25.93 29.52 32.35 33.25 34.17 34.75 35.43 35.48 35.13 34.87 35.20
29.68 29.24 29.02 28.84 28.40 28.89 31.26 31.21 30.85 28.97 27.33 26.59 26.92 27.50 28.49 30.58 33.82 32.97 31.02 29.41 29.07 28.19 29.21 29.17 26.45 27.22 26.83 24.64 23.47 24.70 23.61 24.84 27.40 27.09 25.70 26.41 27.33 27.65 28.28 31.63 32.08 33.18 33.86
28.08 28.06 27.35 27.01 26.66 29.74 33.94 35.66 34.19 29.91 27.71 26.11 26.39 27.46 28.04 30.94 30.54 34.12 34.06 34.27 33.29 29.71 27.55 26.79 28.09 24.53 23.76 23.94 24.68 23.97 25.07 22.00 19.85 26.61 24.47 24.75 27.20 25.77 26.88 27.69 31.97 33.37 34.18
26.61 26.67 26.17 25.59 24.75 24.80 33.91 34.75 35.12 30.28 26.95 26.16 26.04 26.77 27.51 29.82 30.48 28.42 31.75 33.76 33.15 34.00 33.99 28.22 24.17 23.89 23.57 24.96 27.28 24.69 22.96 22.48 21.92 24.93 24.89 22.36 25.46 23.85 26.20 27.64 31.67 32.42 33.39
25.91 25.47 25.04 24.46 23.62 26.18 32.87 33.80 34.37 28.07 26.63 26.27 26.35 26.31 26.25 27.36 28.93 30.11 29.27 28.69 30.27 28.48 26.93 26.98 26.10 27.10 28.40 27.31 25.95 25.39 24.61 24.72 25.00 24.64 25.18 20.28 23.71 22.19 24.63 25.57 30.87 32.10 33.02
24.76 24.06 24.00 23.52 22.39 22.88 31.64 32.96 32.01 27.62 26.94 26.05 27.25 27.19 28.43 28.07 31.54 33.58 30.78 28.23 25.63 24.44 28.66 31.19 31.80 30.85 30.38 30.41 29.31 26.25 23.07 21.15 19.05 20.55 23.69 21.79 21.69 21.67 23.22 23.64 25.69 31.21 32.75
23.52 23.81 23.52 22.97 26.22 22.62 29.24 32.35 31.64 28.15 25.91 26.35 27.11 28.38 31.52 30.20 33.20 33.88 28.20 25.42 21.78 22.53 25.92 25.46 23.60 24.73 26.29 25.85 29.28 25.83 24.33 19.94 19.40 18.47 23.03 21.22 21.31 22.04 20.73 24.69 25.18 26.39 27.30

GFSMA_sfc_wetblb_015.txt.gz
Wetbulb
61.03 62.28 58.88 55.59 54.47 54.00 52.47 49.69 47.66 46.89 46.07 46.28 46.22 45.65 45.36 44.83 45.61 47.55 47.80 55.22 56.31 57.81 58.73 60.08 61.31 60.60 60.27 61.05 62.19 62.10 61.91 61.92 61.66 61.40 61.29 61.30 61.87 63.11 64.88 65.93 66.47 66.88 67.40
57.89 54.29 53.81 52.79 51.26 50.40 47.38 45.21 44.27 43.78 42.82 43.20 43.54 43.37 42.02 41.78 43.24 43.10 44.60 44.76 52.87 53.45 55.80 57.48 56.74 56.75 57.21 58.94 59.76 59.29 59.32 59.39 59.36 59.08 58.96 59.39 60.25 61.44 62.09 62.49 62.86 63.58 65.18
53.14 52.57 51.57 49.82 47.35 45.24 43.72 42.47 42.31 42.06 41.05 42.12 40.33 41.71 40.61 41.09 42.89 39.80 41.59 43.31 44.88 49.04 52.24 52.62 53.16 53.59 54.77 56.34 57.00 57.62 56.87 56.68 56.76 57.33 57.68 58.77 59.15 58.96 59.48 60.31 61.23 62.20 63.63
51.36 49.62 46.58 44.74 43.23 42.33 41.63 40.44 40.62 40.27 38.99 38.80 38.38 40.19 38.71 40.45 40.01 38.00 39.47 41.06 41.46 41.96 45.49 49.09 49.70 50.08 52.10 53.27 54.24 55.07 55.20 54.78 54.98 55.31 56.44 56.85 57.34 58.31 59.01 59.98 60.79 61.56 62.07
48.42 47.21 44.80 42.24 41.39 40.61 39.83 39.66 38.82 38.82 37.36 38.12 39.81 40.20 37.66 38.89 38.07 38.55 37.37 38.14 39.83 39.07 40.21 44.11 46.49 46.83 48.66 49.76 51.73 52.57 52.77 52.07 52.13 52.54 53.58 54.70 55.41 56.08 57.04 57.63 58.01 58.47 59.35
43.30 42.24 41.52 40.62 40.30 39.47 38.42 37.56 37.07 37.36 37.64 36.52 40.29 39.51 36.54 39.08 36.55 35.42 36.39 37.64 37.92 37.09 38.36 37.84 37.86 39.61 46.22 47.54 49.02 50.07 50.78 50.54 50.67 51.58 52.29 52.92 53.56 54.27 54.93 55.76 56.52 56.90 57.60
41.21 40.20 40.06 39.64 38.98 37.80 36.41 36.80 36.53 36.00 36.81 36.60 35.05 35.52 36.15 36.31 35.70 35.58 35.97 34.57 35.35 36.59 37.40 37.65 37.87 38.42 38.50 45.21 45.55 47.22 47.82 48.79 49.89 50.51 50.98 51.25 52.36 53.20 53.94 54.49 55.25 56.04 56.23
40.32 40.04 38.82 38.00 37.26 36.40 35.50 34.74 34.67 34.49 34.92 36.05 33.27 32.64 30.37 32.47 34.65 37.13 34.69 35.67 34.05 35.36 36.34 37.12 36.48 37.22 37.02 36.95 39.53 44.80 45.43 47.10 48.67 49.45 49.71 50.60 51.03 52.22 52.95 53.43 54.03 54.82 55.56
39.30 38.57 37.74 37.02 36.01 35.42 34.22 33.61 33.43 32.98 32.12 33.26 34.03 31.33 27.46 26.78 30.35 32.71 33.17 33.41 34.09 33.34 34.49 35.20 36.68 37.02 36.82 35.84 38.78 39.47 43.29 44.78 46.85 48.69 50.07 50.72 50.89 51.28 51.58 52.43 53.14 53.62 53.97
37.71 37.91 37.09 35.96 35.11 34.63 33.25 33.34 34.48 32.40 31.98 30.55 32.87 35.42 32.32 31.15 27.62 26.30 30.93 33.17 32.17 33.85 32.13 33.02 34.58 35.09 36.17 35.54 38.75 40.93 42.11 43.71 45.85 47.80 49.21 49.62 49.86 50.44 51.46 51.94 52.25 52.59 52.65
36.38 36.47 35.77 34.67 34.12 33.90 32.65 32.07 31.50 30.74 31.49 30.19 30.46 30.47 29.39 30.14 29.42 27.30 25.80 27.61 32.14 32.85 32.93 33.58 32.63 33.77 34.44 34.90 34.52 36.96 41.85 43.28 44.97 46.34 47.70 48.39 49.39 50.09 50.43 50.73 50.92 51.20 51.35
34.74 34.55 34.84 33.50 32.85 32.60 31.99 31.72 30.98 30.48 29.96 29.76 29.40 28.77 28.70 27.42 26.93 25.84 25.36 26.91 26.79 29.56 30.90 32.60 33.30 32.59 33.59 33.49 37.06 40.09 40.85 41.82 43.31 44.69 46.29 47.27 47.75 48.10 48.43 48.82 49.13 49.46 49.82
32.98 32.54 32.75 31.88 31.62 31.60 31.88 31.25 30.30 29.61 29.44 28.47 27.89 28.07 29.05 28.68 28.91 28.44 27.19 25.99 25.28 28.14 28.70 29.82 31.64 31.86 34.32 34.15 33.14 38.81 39.36 40.86 41.53 42.77 44.92 46.39 45.77 45.51 45.56 46.28 47.26 47.83 47.95
32.37 32.02 31.67 31.29 31.04 31.24 30.86 30.05 29.70 29.36 29.68 28.34 27.56 27.60 28.00 28.45 28.88 28.14 27.33 25.59 23.01 24.64 26.87 25.83 29.72 30.26 31.60 31.37 34.01 38.95 35.07 39.07 39.79 41.13 43.05 43.72 43.18 42.87 43.04 43.64 44.63 45.30 46.06
33.85 31.33 30.83 30.59 30.29 30.34 30.21 29.46 28.62 28.42 28.16 27.96 27.70 27.35 26.98 27.91 28.19 28.09 28.19 27.79 24.86 21.13 22.47 26.10 26.90 30.42 31.18 31.63 33.66 33.72 33.21 36.89 39.15 40.05 40.83 40.78 40.69 40.85 41.19 41.65 42.45 42.85 43.28
31.05 30.70 30.33 29.88 29.85 29.84 29.62 28.77 28.31 28.83 27.97 28.05 29.34 26.99 26.59 27.25 27.52 27.90 27.69 27.99 27.56 25.41 22.35 27.43 28.44 30.25 31.48 32.54 33.58 33.54 33.10 36.94 38.30 39.28 39.46 38.96 39.15 39.04 39.34 39.91 40.58 41.09 41.62
30.27 30.14 29.97 29.63 29.40 29.17 28.97 28.02 27.67 28.57 27.72 27.43 27.13 26.73 27.09 27.58 26.99 27.65 27.60 27.77 27.15 26.90 23.99 26.63 29.19 30.44 29.98 30.25 31.20 31.98 33.37 32.87 33.54 37.70 38.01 37.66 37.47 37.52 37.94 38.74 39.03 39.43 40.05
29.79 29.60 29.50 29.20 28.95 29.08 28.57 27.43 26.98 27.32 27.06 26.40 26.66 26.25 26.44 29.88 26.82 26.86 26.62 26.39 26.79 27.38 25.99 24.55 27.92 28.39 28.37 29.62 30.04 30.10 33.28 32.50 31.64 33.99 35.60 36.08 36.36 37.14 37.51 37.69 37.55 37.74 38.22
29.02 29.04 28.93 28.37 28.62 28.71 28.02 27.80 27.49 27.36 26.96 26.69 26.51 26.04 26.39 26.36 25.97 26.32 26.39 26.47 27.23 29.31 29.12 26.29 25.39 28.24 28.79 29.91 29.53 30.51 27.82 27.96 29.33 32.59 34.48 34.55 35.35 36.02 36.42 36.46 36.67 37.03 37.32
28.42 27.96 27.92 28.06 28.06 27.84 27.91 28.04 28.36 27.46 26.88 27.39 27.27 26.92 26.60 26.42 26.01 26.32 27.79 28.11 29.66 27.61 27.27 26.73 27.50 28.00 27.59 29.08 29.01 25.17 24.16 26.21 25.85 28.63 31.20 32.64 33.58 33.73 34.36 34.85 34.82 34.59 34.73
27.72 27.65 27.77 27.67 26.89 27.35 30.00 30.12 29.67 28.06 26.37 25.54 25.74 25.88 27.42 29.64 33.02 32.28 30.56 28.83 28.01 27.38 28.07 27.62 25.56 26.68 24.86 23.94 22.62 24.28 23.57 24.87 26.21 26.91 25.12 25.56 26.14 26.50 27.55 31.13 31.52 32.72 33.08
26.94 26.75 25.86 25.54 25.08 28.47 32.78 35.06 33.76 28.47 26.02 25.18 24.56 25.96 26.23 29.81 29.55 33.53 33.38 33.55 32.74 29.19 27.19 28.24 24.37 22.44 21.61 22.60 23.74 24.04 25.37 21.67 19.63 26.55 24.40 24.11 26.15 24.94 25.95 26.50 31.15 32.58 33.62
24.79 24.86 24.69 24.27 23.68 23.34 32.97 34.36 34.58 28.26 25.56 24.96 24.97 25.74 26.34 28.93 29.73 27.38 30.97 33.23 33.33 33.86 32.03 27.32 22.60 22.02 22.36 25.00 26.66 23.83 23.22 23.02 22.07 24.69 25.04 22.12 24.37 22.60 25.22 26.63 31.07 31.94 33.00
24.26 23.81 23.86 23.37 22.31 24.79 32.36 33.42 33.89 26.68 25.30 25.05 25.33 25.63 25.48 25.93 27.63 29.70 29.87 29.65 26.87 26.08 25.93 26.22 25.32 26.17 27.28 26.93 26.19 25.61 24.88 24.93 25.02 24.85 24.95 19.40 22.89 21.72 24.20 24.92 30.24 31.60 32.47
23.46 23.53 22.48 22.22 21.16 21.92 31.01 32.43 31.81 26.35 25.45 24.60 25.77 26.36 27.95 28.59 31.25 33.53 29.79 25.44 24.50 24.24 28.03 30.64 31.75 30.84 30.38 30.48 29.49 26.33 22.71 20.85 18.99 20.82 23.80 21.40 21.55 21.56 23.30 23.57 25.44 30.78 32.17
22.67 22.37 22.49 21.86 25.17 21.61 28.85 32.13 31.48 27.57 25.66 26.53 27.83 28.64 31.04 29.94 32.77 33.04 27.78 24.88 21.15 22.15 25.88 25.99 22.99 24.11 26.14 25.70 29.38 25.93 24.33 20.08 19.52 18.35 22.38 20.72 21.06 22.34 20.22 24.09 24.00 25.43 25.58

GFSMA_sfc_wetblb_018.txt.gz
Wetbulb
59.70 59.73 54.26 53.61 52.60 51.34 49.28 45.03 44.59 43.52 42.75 42.77 42.92 42.27 40.16 41.92 41.76 42.62 43.08 54.54 54.53 56.86 58.88 57.84 57.96 58.15 58.82 60.57 60.00 60.20 59.99 60.03 59.99 59.74 59.64 59.91 60.41 61.38 62.31 62.90 63.33 63.74 64.29
56.75 54.15 52.42 50.81 49.40 48.15 46.09 42.92 41.64 40.29 39.78 40.17 40.68 40.70 38.55 40.92 38.84 38.89 41.65 42.69 51.20 53.59 54.10 54.92 55.19 55.41 57.05 57.53 57.60 57.71 57.46 57.50 57.48 57.88 58.19 58.72 59.69 59.88 60.04 60.39 61.08 61.97 62.81
53.66 52.38 49.94 47.62 46.25 43.15 41.35 40.89 40.40 39.38 38.57 39.42 37.74 39.77 38.37 39.71 37.01 37.50 39.26 40.80 41.79 47.60 50.37 51.76 52.07 52.42 53.81 54.50 55.51 56.42 56.09 55.47 55.33 55.82 55.95 57.44 57.41 57.78 58.95 59.83 60.56 61.45 62.16
51.37 49.03 46.36 44.51 42.68 40.33 39.53 38.93 39.11 38.31 36.73 36.34 35.70 37.93 36.87 39.40 35.74 36.14 37.19 38.67 39.22 38.90 43.31 47.68 48.51 49.00 50.40 51.33 53.35 54.11 54.10 53.50 53.02 53.22 53.63 54.33 55.46 55.97 56.80 57.74 58.59 58.94 59.40
48.43 46.80 44.49 40.56 39.65 38.75 37.88 38.24 37.07 37.44 35.50 35.78 37.23 37.82 35.88 37.37 35.39 37.44 35.52 36.80 36.45 36.72 37.84 42.56 44.94 45.47 46.81 48.67 50.63 51.45 51.70 51.54 51.44 51.73 52.65 53.12 53.55 54.19 55.03 55.67 56.35 56.94 57.85
45.14 43.31 39.74 38.85 38.80 37.76 36.53 36.08 35.52 35.50 36.36 34.81 37.97 37.35 35.29 37.62 35.29 34.24 35.14 36.54 35.18 35.70 36.63 35.95 35.98 37.92 44.46 45.95 47.90 48.70 49.72 49.97 50.14 50.89 51.81 52.09 52.42 52.86 53.76 54.84 55.28 55.56 56.38
40.80 39.59 38.80 37.83 37.33 36.38 34.60 35.22 34.44 33.94 34.68 35.01 33.36 34.11 34.38 34.88 35.00 35.12 34.67 33.63 34.41 34.98 35.75 34.86 35.05 35.91 36.55 43.46 45.20 45.59 47.30 48.41 49.19 50.16 50.55 51.04 51.48 52.52 53.15 53.59 54.51 54.73 55.24
39.41 39.18 37.48 36.42 35.88 35.07 33.94 33.25 32.97 32.67 32.66 33.58 31.00 30.90 28.76 31.08 33.32 34.91 32.93 34.13 32.08 33.47 34.59 35.82 34.10 35.56 35.18 35.24 38.66 44.23 44.58 46.42 48.02 48.99 49.65 50.26 51.58 52.41 52.88 53.35 53.67 53.66 54.28
38.19 37.50 36.66 35.65 34.65 34.40 33.11 32.31 32.21 31.69 30.83 31.50 32.83 29.61 26.30 24.98 28.72 31.63 32.39 32.65 31.70 32.12 32.40 33.25 34.20 35.16 34.92 34.61 37.75 38.35 42.39 44.33 46.18 48.25 49.32 50.10 50.72 51.41 51.93 52.32 52.74 53.18 53.66
36.73 36.74 35.90 34.87 34.10 33.60 32.30 32.76 32.99 31.09 30.70 29.35 30.99 33.73 30.45 29.47 26.35 25.21 29.51 31.44 30.55 32.64 31.24 30.74 32.65 33.41 33.87 34.56 37.33 40.37 42.17 43.06 45.41 47.47 48.70 49.53 49.90 50.61 51.38 51.88 52.65 52.46 52.42
35.33 35.40 34.81 33.83 33.21 32.95 31.69 31.10 30.42 29.60 30.22 28.91 29.08 28.96 27.85 28.58 27.58 25.76 24.62 25.79 30.61 31.50 31.32 30.96 30.40 31.55 32.89 33.39 33.26 36.11 41.34 43.16 45.07 46.40 47.66 48.70 49.34 49.94 50.58 51.09 51.12 51.20 50.62
33.78 33.82 34.12 32.65 31.98 31.84 31.11 30.61 29.92 29.41 28.78 28.49 28.11 27.44 27.27 26.09 25.53 24.53 23.37 25.59 25.78 28.09 30.27 31.35 30.55 30.56 31.44 31.74 36.20 39.56 40.39 41.86 43.32 44.89 46.76 47.57 47.92 48.34 49.10 49.63 49.62 49.55 49.32
32.27 31.79 31.91 31.15 30.84 30.91 30.92 30.38 29.44 28.63 28.42 27.50 26.84 26.95 27.62 27.41 27.58 26.87 25.64 25.12 24.25 26.83 26.81 27.88 29.46 30.06 32.68 31.97 33.04 37.97 39.16 40.81 41.85 43.19 45.08 46.41 45.79 45.76 46.31 47.12 47.68 47.89 47.82
31.60 31.08 30.72 30.56 30.36 30.57 30.07 29.24 28.96 28.54 28.45 27.31 26.52 26.49 26.86 27.48 27.60 26.95 25.63 24.65 22.38 22.78 26.03 23.86 28.43 28.77 29.38 30.16 33.79 38.19 34.47 38.67 39.71 41.23 42.81 43.47 43.10 43.15 43.81 44.28 44.82 44.88 45.12
32.55 30.24 30.09 29.89 29.77 29.87 29.48 28.60 27.64 27.47 27.03 26.95 26.85 26.62 26.20 27.00 27.34 27.30 27.08 26.29 24.17 20.10 21.30 23.73 24.43 29.27 30.65 31.35 33.15 33.08 32.66 36.61 39.00 39.79 40.40 40.88 41.05 41.41 41.65 42.11 42.21 42.33 42.19
30.14 29.88 29.67 29.49 29.35 29.20 28.67 27.72 27.17 27.63 27.03 27.33 28.54 26.39 25.84 26.34 26.60 26.82 26.58 26.92 26.16 24.10 21.33 26.39 27.12 28.84 30.23 31.78 33.05 32.83 32.50 36.47 37.64 38.63 39.25 39.25 39.25 39.75 39.95 40.13 40.08 40.30 40.84
29.53 29.47 29.42 29.10 28.70 28.19 27.74 26.70 26.36 27.57 26.80 26.66 26.61 26.30 26.32 26.67 26.03 26.32 26.35 26.53 25.76 25.67 23.11 25.69 28.12 29.31 29.04 29.03 29.82 30.53 31.57 31.91 32.62 37.71 38.09 38.08 37.91 37.81 38.05 38.31 38.77 39.28 39.95
29.02 28.93 28.85 28.46 28.01 27.86 26.94 25.95 26.10 26.63 26.21 25.80 26.08 25.63 25.57 29.03 25.84 26.02 26.07 25.58 25.56 26.50 24.93 23.12 26.44 27.88 27.52 29.00 29.54 29.36 30.97 33.30 31.71 33.84 35.75 36.06 36.50 36.88 36.92 37.24 37.44 37.96 38.18
28.23 28.28 28.19 27.65 27.24 27.31 26.70 26.32 26.44 26.56 26.35 26.08 25.66 25.14 25.21 25.05 24.53 25.41 25.59 25.36 26.17 27.84 27.97 26.77 25.20 27.67 28.22 29.60 29.16 29.30 28.03 27.75 29.00 32.35 33.99 34.55 35.07 35.49 36.03 36.59 36.46 36.74 36.64
27.61 27.34 27.19 26.97 26.87 26.37 26.68 26.90 27.84 27.19 26.30 26.12 26.03 25.65 25.27 25.16 24.90 25.65 26.17 26.39 28.46 26.47 26.26 25.60 26.01 27.00 28.63 27.67 25.67 23.41 22.93 25.28 25.32 28.49 31.02 32.34 33.42 33.59 34.27 34.52 34.40 34.12 34.45
27.26 27.21 26.51 26.04 25.47 26.30 29.12 29.01 29.24 27.78 25.76 24.75 25.02 25.45 26.17 28.26 32.57 32.03 30.01 27.91 27.37 26.53 26.96 27.74 25.77 24.39 23.65 22.70 21.41 23.11 22.81 24.68 25.92 26.67 25.93 26.17 26.32 26.44 27.11 30.76 31.23 32.36 32.72
26.20 25.81 24.82 24.73 24.46 27.61 32.11 34.69 33.50 27.69 26.19 25.37 24.39 25.57 25.39 29.04 28.55 33.31 33.23 33.62 32.72 31.09 26.84 24.51 23.08 21.89 21.48 21.79 23.02 23.76 24.52 22.44 20.06 26.82 25.12 24.76 26.79 25.41 26.19 26.32 30.57 32.00 33.14
24.55 23.57 23.31 23.09 22.39 22.44 32.18 34.16 34.42 28.32 25.95 24.54 24.55 24.95 25.90 28.43 29.32 26.60 30.35 33.07 33.64 32.59 31.31 26.19 22.39 21.71 21.83 23.92 26.16 24.37 23.47 23.07 22.20 24.87 25.26 22.52 25.07 23.18 25.77 26.60 30.94 31.85 32.88
22.91 22.51 22.27 21.98 21.30 24.01 32.05 33.12 33.67 26.90 25.15 24.65 24.75 24.52 24.37 25.14 26.34 29.43 29.11 30.32 26.61 25.57 25.85 26.20 24.95 25.77 27.97 27.36 25.85 25.49 25.21 25.12 25.11 24.81 25.15 19.71 23.27 21.77 24.38 25.46 30.37 31.61 32.42
22.10 21.41 21.43 21.17 20.41 21.32 30.79 32.22 31.59 25.75 24.79 24.63 25.51 25.11 25.47 27.56 30.93 33.18 30.02 26.16 24.75 24.43 28.10 30.54 31.94 31.29 30.52 30.57 29.58 26.45 22.86 21.13 19.31 20.82 23.78 21.22 21.43 21.41 22.79 23.41 25.70 30.83 32.07
21.37 21.42 22.00 21.20 24.35 20.90 28.62 31.72 31.33 26.98 23.53 25.71 26.17 26.52 30.45 29.62 32.34 33.46 27.82 24.98 21.78 22.28 25.04 26.86 23.02 23.74 25.35 24.91 29.17 25.45 23.94 19.97 19.49 18.31 22.69 20.92 21.03 22.07 19.71 24.15 24.76 25.74 25.58

GFSMA_sfc_wetblb_021.txt.gz
Wetbulb
63.26 58.51 56.67 53.68 52.34 51.46 50.23 50.27 49.14 47.99 47.75 47.71 48.38 47.08 49.05 48.64 47.17 49.91 51.38 54.32 56.38 56.85 57.16 57.78 57.25 58.17 59.32 59.12 59.02 59.08 58.73 58.76 58.80 59.07 59.47 59.65 60.51 60.91 61.07 61.34 62.10 63.14 63.93
58.16 54.82 52.57 50.96 48.98 48.06 47.65 47.70 46.75 46.18 45.61 45.70 46.82 46.50 47.18 47.61 46.50 47.95 48.08 50.16 52.05 53.08 54.00 54.62 54.80 55.09 56.01 56.14 56.78 57.39 57.21 56.93 56.51 56.89 57.09 57.71 59.02 59.17 59.87 60.91 61.46 62.07 62.63
55.45 52.57 50.10 48.21 46.74 45.57 46.64 47.38 46.45 45.52 44.90 44.42 44.31 46.38 45.86 44.79 45.30 44.78 46.80 46.52 46.31 49.10 50.24 51.49 51.61 51.85 52.46 53.46 54.58 55.34 55.27 55.20 54.83 54.59 54.92 55.39 55.92 57.34 57.63 58.55 59.32 60.08 60.49
52.78 49.80 47.31 45.73 44.92 45.95 46.05 45.35 45.54 45.14 43.60 43.30 43.49 45.34 44.81 45.83 43.39 44.11 44.99 44.49 45.11 45.13 45.69 47.29 47.51 48.29 49.47 50.81 52.19 53.21 53.31 52.95 53.03 53.18 53.58 54.16 54.75 55.39 55.95 56.59 57.20 57.96 58.70
49.63 47.17 45.18 44.61 45.03 44.40 44.23 44.32 43.23 44.32 42.32 42.60 42.93 44.37 43.55 45.30 43.43 43.42 42.57 43.50 43.33 43.80 44.19 42.85 43.88 44.14 45.64 47.75 49.64 51.30 51.46 51.20 51.77 52.02 52.67 53.56 53.85 54.17 54.50 55.04 55.80 56.58 57.08
46.56 46.01 44.73 44.22 44.11 43.26 42.52 42.83 42.11 42.48 41.76 41.02 41.26 41.67 43.95 45.79 43.80 43.86 43.73 42.53 43.06 42.26 42.62 42.24 41.91 41.72 43.10 45.04 46.63 48.60 49.07 49.98 50.19 50.80 51.50 52.55 52.95 53.11 53.57 54.31 54.94 55.43 56.36
44.19 44.66 43.55 43.07 42.78 41.65 41.19 41.14 41.77 40.36 40.16 40.82 40.64 41.43 42.56 42.60 43.18 43.65 42.53 41.47 41.81 40.87 41.58 41.38 41.10 40.82 40.76 42.89 43.78 45.00 47.09 48.38 48.83 49.72 50.59 51.35 51.83 52.25 53.09 54.54 54.74 55.11 55.50
44.32 43.56 42.77 41.71 41.58 40.93 40.45 39.87 40.00 39.99 39.43 39.53 37.49 37.98 36.52 39.76 41.05 41.09 41.20 40.80 40.36 40.58 40.61 40.34 39.83 39.69 39.95 40.20 40.93 43.47 44.18 45.91 47.72 49.20 49.67 50.36 51.09 51.80 52.89 53.59 54.02 54.35 54.59
42.91 42.29 41.80 41.21 40.79 40.90 39.41 39.02 39.07 38.72 37.48 38.10 38.72 37.18 35.12 33.83 34.83 39.40 39.85 39.71 39.40 38.78 39.07 38.82 38.56 38.80 38.72 39.08 40.11 40.50 41.88 43.66 46.12 48.04 49.31 50.06 50.66 51.24 52.29 52.59 53.09 53.57 53.67
41.44 41.10 40.76 40.36 39.94 39.53 39.04 38.51 38.08 38.02 38.21 35.94 37.94 37.14 37.63 36.31 32.92 31.80 37.27 38.03 37.65 36.69 37.00 37.39 37.36 37.54 38.00 38.34 39.09 39.94 41.11 42.67 45.34 47.46 49.02 49.78 50.29 50.95 51.66 52.18 52.56 53.02 53.04
40.36 39.92 39.83 39.36 38.80 38.52 37.75 37.57 36.97 36.74 37.04 36.45 35.84 35.75 35.28 35.44 34.92 32.27 30.06 33.10 35.32 36.54 36.60 36.50 36.38 36.64 37.20 37.64 38.03 38.51 40.77 42.67 44.65 46.34 47.86 48.83 49.72 50.58 51.05 51.26 51.66 51.80 51.82
38.60 38.53 38.09 38.13 37.89 37.50 37.16 36.71 36.46 36.08 35.89 35.44 35.49 34.79 34.23 32.92 32.34 31.47 30.08 31.23 31.13 33.76 34.97 35.38 35.70 36.19 36.85 37.09 37.57 38.63 39.63 41.20 43.08 44.89 46.74 47.66 47.93 48.39 49.03 49.63 49.86 50.11 50.31
37.20 36.88 37.03 36.79 36.49 36.65 36.29 36.50 36.09 35.60 35.38 35.09 34.43 34.59 34.36 33.53 33.56 32.61 31.21 30.33 29.64 31.81 32.73 34.67 35.06 35.68 35.80 36.74 36.37 37.46 38.57 39.94 40.84 42.54 44.74 46.18 45.74 45.48 45.86 46.83 47.78 48.04 48.61
36.92 36.44 36.01 36.05 35.85 35.83 35.60 35.60 35.80 35.55 35.15 34.89 33.38 33.68 33.54 33.88 33.78 32.99 31.46 29.61 27.85 29.74 31.69 31.96 34.63 34.92 35.50 35.23 36.34 37.40 36.08 38.02 39.05 40.64 42.43 43.20 42.76 42.35 42.83 43.76 44.83 45.03 45.69
35.67 35.46 35.66 35.31 35.28 35.19 34.99 34.61 34.85 34.29 34.21 34.23 33.92 33.77 33.05 33.59 33.57 33.42 32.95 32.00 28.82 24.78 26.55 30.75 30.73 34.36 34.46 34.71 35.38 35.37 35.27 36.95 38.45 39.22 39.76 40.04 40.10 40.52 41.38 41.92 42.44 42.51 42.79
35.13 34.94 34.82 34.84 34.58 34.41 34.10 33.77 33.65 33.56 33.45 33.90 33.98 32.87 32.75 32.97 32.86 33.11 32.59 32.25 31.32 28.44 25.55 30.41 31.40 33.05 33.84 33.85 35.18 34.87 34.69 36.13 37.14 38.10 38.58 38.74 38.79 39.36 39.39 39.91 40.61 40.90 41.01
34.63 34.42 34.27 33.95 33.70 33.37 33.02 32.92 32.60 32.85 32.22 32.48 32.85 32.18 31.49 32.10 31.78 31.94 32.13 31.64 30.62 29.95 27.09 29.70 32.23 33.39 32.41 32.39 33.36 34.46 34.67 34.14 35.07 36.66 37.34 37.61 37.46 37.60 38.00 38.48 38.91 39.37 39.60
34.10 33.75 33.48 33.11 32.81 32.26 32.10 31.74 31.62 32.08 31.79 31.37 31.38 30.88 30.65 31.30 30.66 30.96 30.64 29.95 29.97 30.62 29.06 26.81 29.50 30.89 31.34 32.60 32.61 32.67 33.18 33.41 32.93 33.87 35.10 35.68 36.32 36.73 37.16 37.42 37.64 38.05 38.12
32.83 32.87 32.84 32.14 31.54 31.24 31.12 31.26 31.65 32.31 31.99 31.52 30.88 30.37 29.92 29.71 29.12 29.66 29.90 29.93 30.31 30.27 30.29 28.56 28.45 31.30 31.74 32.67 31.16 31.30 30.40 30.43 31.09 32.55 34.21 34.48 35.21 35.85 36.24 36.62 36.82 36.83 36.83
32.05 31.90 31.62 31.08 30.52 30.41 30.54 31.15 32.42 32.78 32.13 31.73 30.95 30.69 30.07 29.67 29.13 29.74 30.28 30.37 30.61 30.16 30.03 29.56 29.05 29.55 29.85 30.61 30.05 27.82 27.22 29.57 29.11 30.67 32.65 33.05 34.09 34.32 34.87 35.20 34.97 34.58 34.69
31.45 31.24 30.46 29.91 29.77 30.20 31.12 33.20 33.83 33.08 31.92 30.97 30.81 30.51 30.71 31.38 32.99 33.09 31.66 30.90 30.39 29.94 30.13 30.23 28.26 27.67 27.27 27.08 25.68 27.52 26.51 27.97 29.16 30.02 29.92 30.27 31.05 31.25 31.68 32.86 32.63 32.99 33.14
30.43 30.05 29.20 28.84 28.80 29.52 32.01 34.53 34.71 33.03 31.82 30.45 29.69 30.29 30.48 30.79 30.88 32.87 33.22 33.47 32.86 30.56 30.98 28.56 27.30 25.64 25.72 25.99 27.37 26.82 26.79 24.72 22.34 30.02 28.02 27.48 30.70 29.60 30.64 31.29 31.97 32.64 33.47
29.35 28.65 28.23 27.82 27.38 27.76 32.18 34.01 34.25 32.73 30.93 30.41 29.93 29.75 29.51 30.18 31.32 30.16 31.62 33.00 33.36 34.17 32.57 29.73 26.13 25.50 25.49 27.13 28.25 27.24 26.25 25.69 24.41 28.15 27.32 24.85 28.91 27.54 30.08 30.11 31.73 32.24 33.03
28.31 27.96 27.20 26.71 26.77 27.71 31.67 33.10 33.43 31.88 30.77 30.40 30.11 29.81 29.01 29.18 30.19 30.54 30.84 31.71 30.68 29.97 29.25 29.00 28.73 28.81 29.92 30.50 28.97 28.05 27.34 27.17 27.58 28.22 27.95 22.50 27.32 26.19 28.54 29.29 31.43 32.18 32.72
27.15 26.59 26.49 26.17 26.09 27.37 30.46 32.02 32.30 30.80 29.87 29.70 30.03 29.91 29.51 29.74 31.65 33.06 31.04 29.26 27.90 27.70 29.89 30.96 32.08 32.20 31.10 30.96 30.04 27.81 25.85 23.33 21.76 23.82 27.23 24.79 25.42 25.45 26.56 27.59 29.66 31.51 32.45
26.19 26.42 26.31 26.42 26.78 26.32 29.05 31.55 31.73 30.19 28.80 28.85 29.97 29.97 30.80 30.80 32.19 33.21 29.72 27.95 25.20 25.24 27.20 29.14 26.74 26.67 27.30 27.17 29.24 27.04 25.95 22.03 21.94 20.84 26.13 23.78 24.53 24.76 22.43 27.89 29.47 29.46 29.95

GFSMA_sfc_wetblb_024.txt.gz
Wetbulb
66.08 65.85 63.11 60.58 55.41 54.41 56.62 57.38 55.85 53.69 52.02 51.03 51.68 50.63 51.58 52.19 51.66 54.02 55.40 55.86 56.21 56.83 57.11 57.16 57.14 57.93 58.03 57.77 58.11 58.72 58.61 58.47 58.06 58.12 58.48 58.64 59.61 60.80 61.27 61.99 62.47 62.73 63.08
64.44 59.41 56.50 52.98 51.03 51.59 51.75 53.64 51.92 51.12 50.51 49.73 49.73 50.09 49.58 51.64 51.35 52.36 53.16 52.76 52.57 53.34 53.71 54.05 53.91 53.89 54.37 54.98 55.71 56.47 56.60 56.58 56.48 56.42 56.50 56.78 57.18 57.69 59.21 59.48 60.13 60.82 61.51
58.35 56.17 53.22 50.43 49.02 49.04 51.06 52.02 50.98 50.84 50.13 48.98 48.27 49.30 49.04 49.60 50.33 49.94 51.28 50.88 50.26 49.43 50.09 50.48 50.39 50.72 51.37 52.35 53.30 54.14 54.51 54.35 54.37 54.52 54.86 55.04 55.52 56.25 56.95 57.69 58.24 58.74 59.35
56.25 53.01 50.57 48.31 48.35 49.20 50.90 50.27 50.23 50.19 48.63 47.98 48.00 48.95 48.63 48.82 48.12 48.40 48.60 48.55 48.70 48.39 47.04 46.49 47.07 47.51 48.43 49.61 51.03 52.30 52.83 52.96 52.50 53.04 53.70 53.83 54.57 55.42 55.56 55.84 56.28 56.73 57.41
53.00 50.37 48.24 47.99 49.92 49.85 49.64 48.66 48.27 47.85 46.78 46.81 46.34 47.26 47.75 47.86 47.73 46.93 47.41 47.44 47.14 47.28 46.83 44.21 43.94 44.21 45.12 47.30 49.01 50.08 51.10 51.41 51.03 51.63 52.26 52.85 53.58 54.54 55.10 55.22 55.36 55.81 56.53
50.58 48.16 48.97 49.77 49.60 48.71 47.93 47.55 46.37 46.20 45.34 45.11 44.72 45.66 48.60 49.86 48.32 47.91 47.92 45.71 46.33 45.69 45.62 45.51 45.34 45.06 44.31 45.12 46.24 47.35 48.56 49.44 49.85 50.68 50.99 52.00 52.61 53.43 54.00 54.43 54.52 55.21 56.41
47.36 48.33 48.79 49.11 49.04 48.01 46.58 45.84 45.49 44.52 44.17 44.52 44.87 46.50 47.07 46.66 46.74 47.77 47.57 45.45 45.43 44.52 44.55 44.49 43.91 43.79 43.67 44.30 44.69 45.10 46.85 47.88 48.51 49.22 50.19 51.21 51.91 52.47 53.25 53.77 54.06 54.80 55.92
46.55 48.07 49.40 48.27 47.61 46.30 45.53 44.66 44.69 44.52 43.77 43.68 41.68 43.03 42.13 43.62 45.27 45.29 45.22 44.75 43.85 44.42 43.42 43.15 42.86 42.74 42.74 42.61 43.01 43.61 43.99 45.60 47.24 48.57 49.43 50.41 51.14 52.03 52.82 53.46 53.66 54.34 54.82
47.52 47.16 48.32 47.45 46.77 46.45 44.82 44.12 44.06 43.12 42.74 42.93 42.18 40.64 39.83 39.72 39.55 43.87 43.57 42.91 43.17 42.35 42.38 42.17 41.87 41.79 41.63 41.72 42.11 42.08 42.27 43.28 45.54 47.97 49.35 50.09 50.70 51.49 52.35 52.95 53.34 53.90 54.03
45.51 47.16 46.90 46.41 45.84 45.03 44.07 43.01 42.77 42.70 43.05 41.07 42.81 40.93 41.00 39.55 37.13 36.57 41.72 41.69 41.91 40.39 41.13 41.32 41.01 40.91 40.97 41.00 41.06 41.01 41.14 42.26 44.84 46.84 48.31 49.24 50.13 50.92 51.66 52.10 52.66 53.17 53.18
44.95 45.83 45.69 45.24 44.38 43.86 43.12 42.47 41.72 41.71 42.01 41.43 40.70 40.12 39.86 39.55 39.08 36.19 34.60 38.11 40.05 41.05 40.88 40.17 39.94 39.97 40.40 40.45 40.33 40.27 40.61 41.89 44.00 45.50 47.15 48.28 49.28 50.11 50.69 51.05 51.37 51.52 51.51
44.32 44.45 44.17 44.12 43.47 42.77 42.14 41.70 41.38 40.60 41.41 40.81 40.32 39.33 38.04 36.86 36.55 36.02 35.00 35.77 35.66 38.32 39.81 39.79 39.10 39.25 39.52 39.44 39.39 39.75 40.03 41.06 42.68 44.13 45.58 46.70 47.30 47.89 48.69 49.32 49.56 49.67 49.59
43.32 42.87 43.05 42.47 42.18 41.91 41.36 41.37 40.93 40.77 40.60 39.94 39.00 38.65 38.53 37.59 37.54 36.53 35.23 34.43 34.13 36.62 37.31 38.61 39.62 39.16 38.43 38.82 38.61 38.74 39.01 40.04 40.74 42.34 44.50 45.85 45.32 44.98 45.39 46.36 47.16 47.32 47.69
43.68 42.83 42.27 41.74 41.00 40.62 40.55 40.56 40.79 40.92 40.29 39.80 37.78 38.11 37.70 37.76 37.78 36.99 35.10 33.29 31.38 33.67 35.65 36.36 38.72 38.39 38.15 38.06 37.93 38.47 37.32 38.87 39.49 40.90 42.44 43.03 42.50 42.25 42.59 43.44 44.25 44.66 45.08
41.87 41.58 41.30 40.58 40.32 40.09 39.73 39.66 40.28 39.41 39.25 38.99 38.23 38.05 37.30 37.50 37.50 37.23 36.54 35.43 32.33 28.38 30.23 34.58 34.80 37.86 37.46 37.53 37.48 37.06 36.75 38.12 39.16 39.54 39.97 40.08 40.08 40.22 40.77 41.37 41.90 42.12 42.76
40.97 40.56 40.22 39.95 39.44 39.18 38.93 39.00 38.87 38.36 37.74 38.55 37.66 37.12 36.72 36.93 36.52 36.52 35.97 35.38 34.50 31.79 29.12 33.86 34.42 35.66 36.57 36.14 36.96 36.69 36.77 37.55 38.05 38.76 39.00 38.73 38.79 38.88 39.28 39.63 40.06 40.64 41.03
40.34 39.67 39.41 38.97 38.58 38.18 37.97 38.15 37.54 37.18 36.41 36.70 36.91 36.07 35.32 35.75 35.04 35.10 35.05 34.42 33.34 32.86 29.86 32.48 34.37 35.51 34.69 34.65 35.77 36.83 36.64 35.40 36.61 37.46 37.46 37.22 37.18 37.53 38.14 38.75 39.17 39.63 40.19
39.66 38.91 38.45 37.94 37.49 36.88 37.06 36.68 36.21 36.50 35.89 35.54 35.65 35.04 34.44 34.38 33.57 34.02 33.71 32.77 32.51 33.27 31.32 29.72 32.38 32.90 33.37 35.05 34.96 33.84 34.81 34.86 34.72 35.34 36.39 36.64 37.05 37.28 37.59 37.93 38.18 38.57 38.74
38.04 37.76 37.69 37.06 36.12 35.83 35.76 35.73 35.74 36.00 36.10 35.85 35.36 34.40 33.86 33.24 32.50 33.04 32.86 32.53 33.08 33.03 32.68 31.34 30.95 33.90 34.53 34.10 33.82 34.01 33.00 33.21 33.91 34.84 35.98 36.15 36.56 36.91 37.18 37.47 37.63 37.77 37.69
37.30 37.03 36.65 35.83 35.22 35.11 34.76 34.78 35.61 36.24 36.24 35.75 35.32 34.50 33.82 32.79 32.36 32.45 32.69 32.87 32.75 31.67 31.78 31.35 31.72 32.10 32.75 33.78 33.11 31.11 29.66 31.71 31.93 32.99 34.64 34.83 35.69 35.80 36.24 36.68 36.43 35.88 35.89
36.59 36.02 35.35 34.75 34.68 34.49 34.45 35.38 36.42 36.35 35.56 34.94 34.81 34.36 33.86 33.51 33.28 33.74 32.59 32.11 31.88 30.91 31.06 30.91 30.28 31.05 30.53 30.45 28.96 30.21 29.42 30.66 31.66 31.98 32.28 32.92 33.61 33.79 34.09 35.15 34.69 34.69 34.89
35.04 34.99 34.23 33.61 33.34 33.28 31.99 34.18 35.13 35.16 34.89 34.00 33.08 33.41 33.62 33.42 33.15 33.86 33.90 33.83 32.92 31.00 30.83 31.07 30.56 27.99 28.32 28.86 30.03 29.40 28.41 28.24 25.21 32.41 30.54 29.74 32.99 31.77 33.23 34.04 34.38 34.76 35.09
34.75 33.93 33.32 32.99 32.78 33.01 31.77 33.68 34.23 34.40 33.97 33.32 32.83 32.55 32.33 32.78 33.00 31.98 32.37 33.47 33.86 34.72 34.64 31.43 28.58 27.89 27.79 29.26 29.48 29.24 29.02 27.61 26.97 30.19 29.55 27.36 31.21 30.39 33.08 33.24 34.02 34.39 34.82
33.79 33.50 32.72 32.33 32.43 32.26 31.24 32.70 33.54 33.91 33.50 33.17 32.90 32.61 32.07 31.89 31.98 31.75 31.30 31.89 32.11 31.84 31.76 31.42 30.15 30.08 30.92 31.75 31.37 29.62 28.81 28.41 29.36 30.39 30.26 24.95 30.05 28.85 31.96 32.69 33.56 34.22 34.61
32.55 32.26 32.29 31.74 31.38 32.13 30.37 31.82 32.73 32.85 32.51 32.37 32.66 32.82 32.39 31.55 32.15 33.22 31.49 31.21 29.57 30.00 32.21 32.17 32.60 33.55 33.73 32.68 31.63 28.73 27.35 25.92 24.35 25.97 29.47 26.95 27.97 28.06 28.98 29.80 32.59 34.19 34.65
31.93 32.40 31.68 31.93 30.00 30.84 30.48 31.31 32.21 32.03 31.19 31.37 32.14 32.49 32.78 32.09 32.65 33.16 30.95 29.17 27.54 27.92 28.69 30.14 30.74 30.39 30.38 30.08 31.25 29.44 28.62 25.19 24.44 22.92 27.86 25.95 26.34 26.22 23.95 29.86 32.64 32.38 33.36

GFSMA_sfc_wetblb_027.txt.gz
Wetbulb
64.84 65.67 65.45 63.51 60.77 58.70 59.17 59.12 57.89 56.18 53.59 52.05 51.94 51.62 50.88 52.28 51.44 52.88 54.93 56.31 56.24 56.80 56.97 56.82 56.54 56.53 56.53 56.71 56.87 57.30 57.63 57.71 57.68 57.51 57.53 57.71 57.90 58.41 59.10 60.46 60.86 61.29 61.91
65.95 65.06 63.15 59.22 55.37 54.44 54.90 55.78 53.87 52.20 51.53 51.00 50.39 50.49 50.05 50.96 50.54 51.51 52.54 52.08 53.01 53.21 53.65 53.60 53.25 53.21 53.35 53.85 54.40 54.66 55.14 55.77 55.60 55.61 55.74 56.21 56.22 56.62 57.33 58.00 58.98 59.38 59.95
64.99 62.07 57.65 53.62 51.44 52.59 53.99 53.72 52.12 51.74 51.11 50.29 49.61 49.43 49.53 49.26 49.63 49.19 50.97 51.63 50.40 49.94 49.65 49.94 50.12 50.45 50.93 51.89 52.81 53.23 53.56 53.86 54.32 53.82 54.21 54.90 55.25 55.53 56.29 56.96 56.97 57.24 57.71
61.97 59.32 55.66 51.98 50.85 52.28 52.74 51.70 50.96 50.61 49.69 49.31 48.50 49.26 49.18 48.96 48.34 48.08 49.08 48.80 49.41 48.24 48.05 46.78 46.55 47.31 47.86 49.69 51.53 52.32 52.49 52.33 52.83 52.47 53.34 53.49 54.08 54.60 55.35 56.22 56.69 56.72 56.80
59.99 57.24 53.15 50.59 51.27 52.39 51.74 50.15 49.42 48.56 47.89 47.96 47.34 48.12 48.80 48.82 49.22 47.72 47.66 47.53 47.81 47.88 47.50 46.23 44.21 46.19 45.78 47.32 48.97 50.38 50.93 51.07 51.18 51.62 52.10 52.53 53.00 53.90 54.48 55.35 55.82 56.02 56.21
54.08 51.82 50.63 52.09 52.38 51.40 50.15 49.38 48.28 47.95 46.74 45.96 45.74 46.89 48.80 49.34 49.71 48.52 47.60 47.40 46.98 46.55 46.68 46.77 46.40 46.21 47.03 46.43 46.99 47.91 48.58 49.86 49.85 50.12 50.92 51.41 52.31 53.15 53.70 54.37 54.89 55.30 55.57
52.65 51.13 50.72 51.42 51.85 50.78 49.36 48.74 47.50 46.63 45.71 45.59 46.82 47.36 48.10 46.55 46.88 48.00 48.81 47.16 46.94 46.00 45.51 45.54 44.71 44.24 43.97 45.75 45.89 45.41 47.20 47.58 48.51 49.23 49.96 50.59 51.45 52.37 53.05 53.66 54.27 54.68 55.27
51.40 50.50 51.24 51.18 50.52 49.01 47.82 47.28 47.11 45.91 45.10 44.82 42.24 44.66 43.36 44.19 45.33 46.37 46.43 45.17 44.70 45.43 44.59 44.19 43.24 43.18 43.25 42.78 43.66 44.73 44.45 45.60 47.35 48.34 49.45 50.18 51.03 51.94 52.55 53.23 53.74 54.25 54.62
50.29 49.13 50.68 50.33 49.61 49.54 47.44 46.74 46.32 45.30 44.19 44.10 43.14 40.88 40.97 40.47 40.11 45.33 44.49 44.65 43.79 44.08 43.49 43.32 42.89 42.68 42.38 41.82 42.54 42.52 42.87 43.48 45.44 47.66 48.78 49.54 50.19 50.89 51.70 52.36 53.05 53.47 53.69
48.36 47.22 48.14 49.47 48.66 47.99 46.34 45.37 45.01 44.44 44.51 42.08 43.26 41.73 41.43 39.99 37.10 36.39 43.11 43.37 43.74 41.18 42.35 42.57 42.03 41.66 41.43 41.44 42.21 42.42 42.67 42.42 44.79 46.81 48.09 48.92 49.57 50.25 50.98 51.43 51.96 52.47 52.52
47.49 46.63 47.63 48.12 47.15 47.00 45.37 44.15 43.83 43.14 42.87 41.62 41.14 40.65 40.48 40.57 39.91 37.04 34.71 38.47 41.03 41.96 41.91 41.78 41.15 40.91 40.72 40.76 40.31 40.87 41.94 42.61 44.51 45.82 47.28 48.26 48.74 49.26 50.01 50.28 50.55 50.78 50.88
45.41 46.69 47.12 46.87 46.11 45.03 44.11 43.74 43.18 42.72 41.80 41.06 40.54 39.82 38.58 37.17 36.78 36.33 35.18 35.89 35.78 38.52 40.55 40.68 40.46 39.87 40.39 39.76 40.20 41.20 41.16 42.01 43.17 44.57 46.15 47.27 47.70 47.97 48.33 48.51 48.51 48.59 48.78
43.14 44.75 46.18 44.75 44.56 44.44 43.55 43.19 42.50 41.93 41.31 40.34 40.05 39.19 39.20 38.34 38.33 37.03 35.69 34.64 33.94 36.51 37.42 39.76 40.22 40.49 40.04 39.42 38.88 40.28 40.36 41.15 41.76 43.21 45.29 46.50 45.81 45.09 45.26 45.97 46.61 46.77 47.00
44.08 46.21 45.09 44.39 43.24 42.53 42.23 42.22 41.86 41.36 40.85 40.28 39.66 39.37 38.49 38.51 38.56 37.53 35.80 33.83 31.14 32.89 35.26 35.60 39.00 39.01 38.87 38.26 38.95 40.31 37.54 39.95 40.63 41.97 43.43 43.70 43.00 42.65 42.78 43.50 44.06 44.37 44.77
45.86 44.69 43.78 42.56 42.10 41.67 41.51 41.20 40.60 39.87 39.48 39.66 39.42 39.50 38.30 38.45 38.56 37.97 37.13 35.85 32.49 28.07 29.39 33.87 34.23 38.16 37.70 37.50 38.08 37.18 36.34 38.84 40.51 41.03 41.14 41.03 40.80 40.99 41.32 41.65 41.94 42.06 42.53
43.98 43.18 42.48 41.71 41.11 40.71 40.40 40.03 39.49 39.26 38.40 39.00 38.79 37.68 37.61 37.65 37.25 37.00 36.34 35.81 34.61 31.60 27.90 33.08 33.96 35.30 36.42 36.78 37.31 36.35 36.41 38.86 39.36 39.86 39.78 39.64 39.64 39.42 39.67 40.06 40.45 40.93 41.52
42.47 41.88 41.30 40.67 40.01 39.51 39.27 38.78 38.35 38.08 37.41 37.80 38.04 37.19 36.42 36.65 35.67 35.40 35.08 34.56 33.33 32.68 28.93 31.39 33.98 35.32 34.41 34.05 35.11 36.02 36.57 35.37 35.49 38.71 38.90 38.71 38.66 38.86 39.31 39.59 39.92 40.29 40.75
41.22 41.04 40.39 39.63 39.05 38.55 38.11 37.44 37.05 37.48 36.96 36.52 36.64 36.21 35.37 35.69 34.79 34.39 33.92 33.14 32.63 32.91 30.96 28.85 32.11 32.24 32.66 34.06 34.28 34.00 34.68 35.87 34.14 36.54 37.87 38.22 38.51 38.67 38.86 39.04 39.15 39.46 39.72
40.14 39.60 39.16 38.28 37.84 37.34 36.74 36.60 36.59 36.70 36.83 36.76 36.42 35.50 34.82 34.29 33.25 33.22 33.00 32.33 32.80 33.57 32.71 30.71 29.58 32.29 32.49 33.45 33.10 33.99 32.86 33.26 34.08 35.93 36.91 37.44 37.72 38.10 38.25 38.52 38.68 38.85 38.81
38.72 38.51 38.24 37.34 36.78 36.17 35.73 35.57 36.34 36.55 36.86 36.79 36.52 35.89 34.86 33.91 32.75 32.41 31.90 31.95 32.35 31.15 31.21 29.85 29.12 29.46 30.70 33.00 32.18 29.82 29.09 30.98 30.54 33.03 34.63 35.80 36.52 36.84 37.45 37.66 37.48 37.14 37.19
37.99 37.45 36.48 36.05 35.67 35.31 35.28 34.73 35.89 36.12 35.79 35.56 35.62 35.29 35.04 35.23 34.82 34.40 32.56 31.86 31.39 30.13 29.49 28.69 28.26 28.97 29.69 28.41 27.40 28.99 27.84 28.74 29.07 30.97 30.18 30.56 31.64 31.46 31.99 34.97 35.01 35.71 36.24
36.30 36.09 35.46 35.17 34.63 34.33 32.75 34.15 34.98 34.21 34.38 34.14 33.62 33.87 34.10 34.59 34.24 34.99 35.08 34.90 33.46 30.17 29.27 29.08 29.20 28.02 27.32 27.98 28.44 27.53 26.52 25.93 25.26 30.71 28.67 27.88 30.11 29.43 30.97 31.50 35.20 36.16 36.46
35.63 34.84 34.33 33.92 33.61 33.84 32.05 33.69 34.42 33.50 33.09 33.59 33.12 32.82 32.56 33.35 33.71 32.37 33.20 34.08 33.63 34.51 34.62 31.44 28.06 27.77 27.09 27.91 27.62 26.71 27.39 27.25 25.02 27.79 27.64 25.52 29.36 27.73 30.32 31.56 34.64 35.76 36.20
34.70 34.19 33.22 33.13 32.97 33.50 31.41 32.62 33.67 32.69 33.14 33.34 33.31 32.87 32.13 31.95 32.45 32.22 31.10 30.49 30.99 31.70 31.45 31.48 30.14 29.43 29.35 30.20 30.39 30.96 28.56 27.16 27.44 28.18 29.29 23.94 27.54 25.99 28.81 30.46 33.99 34.70 35.40
33.16 32.95 32.84 32.42 32.38 32.69 31.38 31.80 32.41 31.71 31.76 31.86 32.94 32.92 32.58 31.92 33.54 34.13 30.94 29.43 29.67 29.19 32.55 33.48 33.22 33.55 34.37 34.73 33.00 29.13 25.60 24.62 23.18 24.65 27.69 25.18 25.34 26.11 26.65 26.82 29.07 34.15 35.05
32.53 32.38 32.04 32.66 32.27 30.80 32.36 31.70 31.96 30.81 29.87 30.66 31.54 31.86 33.72 32.65 33.89 33.81 30.82 28.89 26.32 26.99 27.67 28.47 29.45 30.24 30.96 29.88 32.38 29.71 27.90 25.27 23.97 22.13 25.92 24.50 24.36 24.96 22.01 26.42 27.83 28.72 29.23

GFSMA_sfc_wetblb_030.txt.gz
Wetbulb
59.67 60.59 62.10 60.04 55.72 54.86 54.41 53.61 51.63 50.02 47.11 46.65 46.22 45.95 44.96 45.35 45.21 48.72 50.85 57.41 56.88 57.16 57.00 56.75 56.23 55.82 55.44 55.49 55.69 55.71 56.00 56.47 56.68 56.62 56.20 56.40 56.85 57.01 57.58 58.38 58.98 59.92 60.44
61.00 61.05 57.42 54.75 51.67 50.78 50.66 49.55 47.13 46.34 45.43 45.35 45.29 44.65 43.75 43.70 44.04 45.84 48.49 50.56 54.25 54.08 53.72 53.33 53.01 52.90 53.14 53.64 53.97 54.08 54.38 54.87 55.25 55.28 55.03 55.34 55.80 56.03 56.33 56.93 57.64 57.82 58.18
60.91 58.33 53.71 50.69 49.03 49.35 49.80 48.41 47.09 46.23 45.18 45.38 43.47 44.05 43.85 42.85 43.42 43.08 45.76 46.85 48.46 51.69 50.15 49.74 49.90 50.26 50.73 51.96 53.14 53.78 53.69 53.58 53.75 54.21 54.01 54.60 54.55 55.03 55.66 56.20 56.82 57.28 57.51
58.37 54.31 51.27 48.22 47.78 49.72 48.68 46.65 45.08 44.71 43.27 42.84 41.69 42.13 42.68 42.97 42.79 42.82 43.67 43.34 44.36 45.17 47.79 47.59 47.34 48.31 48.27 49.92 51.31 52.44 52.67 52.54 52.54 52.81 53.20 53.38 53.87 54.16 54.91 55.34 56.04 56.66 57.08
57.45 53.41 49.49 47.34 47.13 47.32 46.65 45.63 43.22 42.52 41.21 41.20 41.98 40.98 42.03 42.36 42.70 44.14 41.82 42.71 42.71 42.71 42.04 46.18 45.83 48.23 47.23 48.97 49.81 50.80 51.13 51.22 51.54 51.77 51.88 52.52 52.87 53.62 54.13 54.92 55.24 55.83 56.33
54.98 50.10 47.40 47.27 48.56 46.76 44.76 43.79 42.30 41.95 40.62 39.89 43.54 43.32 42.03 42.88 42.53 41.28 41.23 43.70 41.65 41.69 40.88 41.07 40.17 40.71 47.05 47.68 48.63 49.38 49.01 50.19 50.01 50.52 50.97 51.34 52.03 52.70 53.29 54.07 54.40 54.85 55.56
49.55 47.73 47.73 48.17 48.12 45.83 44.04 43.08 42.02 41.33 39.42 39.64 39.64 40.20 40.81 40.61 41.19 41.72 42.18 41.93 40.91 41.09 40.15 39.92 38.27 38.21 38.93 45.46 45.75 46.55 47.87 47.89 48.71 49.54 49.97 50.80 51.29 52.17 52.70 53.46 53.88 54.22 54.89
48.99 47.94 47.67 47.24 45.76 43.71 42.39 41.79 41.86 40.36 39.35 38.79 36.19 36.87 35.94 38.03 40.01 41.07 40.18 40.04 38.56 39.08 39.36 39.39 37.91 38.14 37.12 36.97 39.76 45.20 45.47 46.42 47.55 48.65 49.44 50.11 50.74 51.41 52.12 52.70 53.13 53.59 54.03
48.08 47.63 47.48 46.99 45.10 43.73 41.61 41.12 40.43 39.92 38.23 37.91 37.24 35.31 33.39 32.84 33.33 37.70 37.89 38.23 37.58 37.22 36.80 37.94 38.53 38.29 37.35 36.19 39.49 40.01 43.27 44.45 45.98 47.63 49.09 49.68 50.09 50.77 51.52 51.99 52.40 52.74 53.04
46.04 46.54 46.71 46.66 44.79 44.35 41.38 40.51 41.26 38.81 38.51 36.73 37.35 39.19 35.74 34.21 31.13 30.08 35.38 36.01 37.03 36.69 36.05 35.98 36.47 36.99 36.93 36.18 39.97 41.91 42.86 43.81 45.47 47.33 48.75 49.24 49.87 50.44 51.01 51.40 51.76 51.96 51.81
44.76 46.19 46.97 45.96 44.93 44.10 39.76 39.28 38.53 37.71 37.29 36.38 35.93 35.25 34.21 34.33 33.77 31.04 28.80 31.47 34.34 35.75 35.81 35.99 35.31 35.23 36.23 36.10 35.40 38.19 42.38 43.66 45.26 46.57 47.98 48.72 49.33 50.04 50.61 50.75 50.73 50.46 49.95
46.21 45.68 45.87 44.74 44.16 42.37 39.79 38.94 38.00 37.30 36.43 35.97 35.56 34.78 33.83 32.09 31.02 30.03 28.25 28.66 29.49 32.48 33.95 34.90 35.03 34.52 34.97 34.95 38.80 41.50 41.72 42.60 43.93 45.38 46.79 47.74 48.30 48.77 48.97 48.94 48.64 48.49 48.43
44.54 44.13 42.88 41.16 40.38 40.23 39.73 39.13 38.15 36.95 36.23 35.09 34.61 34.02 34.18 33.55 33.55 32.24 30.32 28.80 28.10 30.18 31.42 33.13 33.69 34.00 36.68 33.58 34.21 40.52 40.96 42.02 42.49 43.82 45.77 47.15 46.60 46.11 45.96 46.48 47.04 46.90 47.16
43.84 44.37 43.52 42.83 41.29 39.14 38.79 38.34 37.47 36.83 36.04 34.96 34.19 33.94 33.88 33.82 33.94 32.74 31.16 28.65 27.06 27.09 29.70 29.10 33.11 32.70 32.37 32.86 36.56 40.49 33.90 39.93 40.94 42.32 44.01 44.76 43.84 43.29 43.38 44.02 44.74 44.91 45.09
44.81 43.76 41.82 40.70 39.49 37.68 37.62 37.02 36.04 35.14 34.61 34.42 33.86 33.69 33.34 33.59 33.21 32.64 32.12 30.84 27.31 24.68 25.89 26.98 27.88 32.40 32.21 33.18 34.39 35.13 33.65 38.27 40.42 41.38 41.83 41.69 41.36 41.67 42.12 42.43 42.50 42.71 43.00
43.43 41.85 40.75 40.18 36.78 36.61 36.41 35.83 34.86 34.80 34.12 33.69 34.38 32.77 32.45 32.56 31.87 31.36 30.78 30.61 29.34 26.36 24.61 28.20 29.70 29.20 31.37 34.39 35.18 34.87 34.17 38.31 39.30 40.26 40.45 40.16 40.35 40.43 40.72 41.18 41.56 41.82 42.16
41.64 40.40 38.40 38.02 36.01 35.48 35.41 34.65 34.22 34.51 33.55 33.38 33.19 32.82 32.54 32.28 30.71 30.08 29.55 29.40 28.37 27.33 25.65 28.35 30.03 31.24 28.91 29.60 32.44 32.43 33.80 33.09 34.12 38.83 39.47 39.49 39.47 39.71 40.20 40.69 40.82 41.15 41.48
40.42 38.01 38.94 37.88 35.55 35.05 34.34 33.71 33.84 33.68 33.24 32.81 32.73 31.93 31.59 34.18 29.92 29.56 28.44 27.85 27.43 27.57 26.76 26.00 29.06 29.39 28.35 29.63 30.66 30.85 32.79 35.26 33.70 36.49 38.47 38.56 38.91 38.96 39.35 39.66 39.83 40.18 40.30
39.11 38.58 37.78 36.67 34.26 34.55 33.96 33.84 33.80 33.07 33.09 33.22 32.35 31.42 30.87 30.21 28.60 28.15 27.67 26.95 27.58 30.57 28.59 27.15 26.74 29.17 29.12 29.94 29.70 31.15 32.19 30.91 32.48 35.52 36.74 37.07 37.52 38.05 38.81 38.67 39.12 39.35 39.32
37.64 37.12 36.25 35.56 34.23 33.83 34.67 34.34 34.18 33.27 33.52 33.81 33.23 31.97 30.94 30.09 28.93 27.42 28.15 27.44 29.06 27.19 27.65 26.80 26.57 26.82 27.89 29.56 30.46 27.89 26.73 28.37 27.99 31.43 33.19 34.44 36.66 36.88 37.07 37.46 37.27 36.86 37.04
36.39 35.60 34.83 33.67 33.18 34.40 34.91 33.07 33.38 32.86 32.06 31.27 31.17 31.61 31.31 32.81 35.78 34.44 31.80 27.87 27.78 27.59 26.28 25.40 26.99 27.40 26.91 28.16 25.58 27.33 25.65 26.44 27.07 28.28 28.52 28.96 29.30 29.56 30.02 33.41 33.95 35.22 35.95
34.90 34.66 33.57 33.76 33.11 34.03 34.86 34.59 34.26 32.34 31.41 29.83 28.83 29.53 30.02 33.37 32.36 35.41 35.42 35.40 33.67 29.13 27.27 26.26 27.29 27.47 25.43 26.04 26.34 25.36 24.66 23.51 22.86 29.90 25.12 26.25 28.26 27.16 28.46 29.64 34.17 35.68 36.39
33.65 32.56 32.00 31.82 31.59 31.36 34.13 33.65 34.06 31.39 29.69 28.38 28.20 28.39 29.15 31.99 32.06 28.94 32.30 34.21 33.23 34.20 33.88 30.21 26.49 25.82 25.64 26.48 24.95 24.38 25.50 26.46 26.45 27.46 26.31 24.20 27.42 26.34 28.66 30.04 33.69 34.65 35.80
32.06 30.53 30.77 31.64 31.35 32.74 33.43 32.57 33.34 29.16 27.83 27.85 28.28 28.05 27.27 27.26 28.41 30.62 28.92 26.06 27.32 27.95 29.33 30.13 28.31 27.80 28.06 28.95 30.02 30.54 29.33 26.89 26.45 26.99 26.77 22.52 26.25 25.23 27.31 27.87 33.20 33.98 34.55
30.24 31.23 31.32 30.92 30.32 29.42 32.51 31.84 31.19 27.84 27.07 25.76 28.16 28.08 28.54 27.65 32.50 34.54 29.94 25.44 26.72 27.46 31.41 32.88 32.89 33.44 34.09 34.28 32.89 28.72 24.94 24.01 22.63 23.87 26.85 24.80 24.37 24.27 25.26 25.43 27.37 32.40 33.83
30.26 30.54 30.67 29.58 31.41 26.48 32.30 32.30 31.09 27.47 24.73 25.47 26.57 27.61 32.35 31.29 33.85 34.28 29.88 28.28 25.99 25.06 25.71 26.25 27.65 28.16 28.95 27.24 31.52 27.13 25.63 23.03 22.86 21.52 24.57 23.35 23.32 23.63 20.23 24.00 24.51 26.13 26.38

GFSMA_sfc_wetblb_033.txt.gz
Wetbulb
59.64 59.59 60.25 60.87 57.16 55.16 53.52 51.80 48.75 46.49 44.96 44.47 44.14 43.93 42.93 42.99 47.22 50.14 52.02 58.56 58.34 57.90 57.25 56.53 55.71 55.10 54.89 54.96 55.04 54.98 55.01 55.45 55.82 55.84 55.77 56.06 56.28 56.60 57.07 57.38 58.04 58.47 59.13
58.66 59.09 56.74 54.81 52.34 51.05 49.05 47.21 45.41 44.85 43.89 43.30 43.51 42.63 41.60 41.77 43.42 47.75 49.00 51.67 56.16 55.24 54.23 53.35 52.90 52.65 52.95 53.48 54.10 54.45 54.57 54.46 54.69 55.26 54.81 54.88 55.56 55.58 55.96 56.55 57.02 57.58 57.90
59.36 56.34 53.65 50.98 49.46 49.20 47.71 45.84 45.51 44.23 43.16 43.26 41.53 42.07 41.74 41.22 41.33 44.64 46.41 46.42 48.35 53.33 51.07 50.70 50.36 50.78 50.77 51.75 52.74 53.49 53.49 53.46 53.61 53.84 54.15 54.30 54.54 54.94 55.20 55.74 55.97 56.47 57.14
57.87 54.20 51.43 48.92 47.75 47.55 46.12 44.98 44.27 42.38 41.22 40.81 39.66 39.90 40.71 41.37 40.88 41.27 43.51 44.03 43.49 44.56 48.21 48.17 48.21 49.09 49.03 50.29 51.51 52.26 52.27 52.32 52.41 52.47 52.95 53.20 53.73 54.06 54.42 54.97 55.61 55.81 56.39
55.49 53.32 49.90 47.16 46.69 46.02 44.93 44.56 41.64 41.10 39.27 39.35 40.60 39.39 40.46 40.90 41.28 42.61 39.88 40.72 40.80 41.15 40.91 46.94 46.82 47.85 47.68 49.16 50.33 51.42 51.05 50.81 51.11 51.18 51.87 52.36 52.82 53.19 53.73 54.29 54.67 55.07 55.60
54.08 50.63 47.86 46.58 46.23 44.98 43.30 42.36 40.66 39.78 38.77 38.32 42.00 42.00 40.41 41.52 40.87 39.65 40.02 42.03 40.84 40.55 39.56 39.68 38.93 39.38 45.97 46.63 47.64 48.55 49.52 50.15 49.64 50.17 50.69 51.31 51.96 52.21 52.84 53.42 53.84 54.40 54.96
52.14 49.54 47.63 45.96 45.91 44.07 42.37 41.65 40.46 39.36 38.04 37.45 37.89 38.20 39.51 38.95 40.20 40.28 40.51 40.34 39.90 40.19 39.31 38.12 37.04 36.70 37.65 44.45 44.45 46.30 47.96 48.28 48.71 49.07 49.74 50.65 51.15 51.64 52.25 52.77 53.26 53.67 54.17
50.58 49.34 47.62 46.16 45.12 42.85 41.45 40.66 40.54 38.93 37.79 36.76 35.63 35.91 34.67 36.95 37.83 38.71 38.81 39.27 37.13 37.91 38.06 37.94 36.71 36.80 35.87 35.83 38.38 45.11 44.99 46.00 47.70 48.73 49.11 50.04 50.74 51.26 51.80 52.41 52.82 53.16 53.54
50.40 48.67 47.10 46.24 43.44 42.31 40.91 40.06 39.78 39.69 37.28 36.68 35.50 35.50 33.07 32.97 31.87 35.91 36.12 36.41 35.86 35.48 35.24 35.90 37.08 37.06 36.14 35.07 38.35 39.33 43.05 44.42 46.43 48.17 48.92 49.86 50.27 50.82 51.56 52.08 52.48 52.89 52.98
48.75 47.39 46.39 44.72 43.39 42.17 40.51 39.50 39.86 38.25 38.38 36.12 36.29 37.89 34.35 33.24 30.96 30.07 33.72 34.54 34.90 35.57 34.11 34.16 34.55 35.26 35.52 35.11 38.81 41.91 43.36 43.76 45.87 47.83 48.79 49.41 50.11 50.61 51.18 51.66 51.91 52.30 52.26
48.39 47.83 46.60 45.42 44.34 43.42 39.86 39.11 39.55 37.36 36.95 36.15 36.04 34.57 33.40 33.10 31.94 30.21 28.38 30.64 32.61 33.72 34.23 33.62 33.48 33.53 34.33 34.59 34.10 36.97 43.25 43.87 45.55 46.74 48.11 49.15 49.42 50.05 50.67 51.11 51.00 50.71 50.38
47.63 47.72 47.55 46.20 44.74 42.60 40.82 39.66 38.82 37.58 35.86 35.25 34.96 34.23 33.49 31.83 30.27 29.18 27.35 27.30 28.07 30.72 32.34 33.47 32.83 32.45 32.96 33.06 37.79 41.80 42.01 42.84 44.24 45.72 47.16 47.92 48.33 48.67 49.43 49.67 49.27 48.96 48.90
45.91 45.38 45.74 44.49 43.53 42.13 40.47 40.03 37.83 35.65 35.15 34.51 34.04 33.39 33.27 32.69 32.42 31.13 29.31 27.75 27.21 28.75 30.02 30.96 31.67 31.48 34.49 31.54 32.88 39.77 40.75 41.50 42.39 44.01 45.94 47.18 46.53 46.47 46.71 46.97 47.34 47.32 47.29
45.54 44.87 44.06 43.61 42.84 41.47 39.21 37.84 36.24 35.34 34.57 33.86 33.20 33.06 33.00 33.18 33.05 31.73 30.54 28.11 25.04 25.74 27.36 27.85 30.31 29.67 30.62 30.50 36.21 39.87 32.79 39.61 40.75 42.20 43.74 44.36 44.01 43.58 43.78 44.34 45.15 45.44 45.64
45.14 43.97 43.86 42.67 42.11 40.47 39.29 37.69 34.76 34.04 33.47 33.20 32.72 32.74 32.54 32.65 32.11 31.52 31.05 29.99 26.63 22.88 23.87 25.22 26.39 29.28 30.08 30.79 33.51 34.46 31.69 37.41 39.89 40.60 41.01 41.44 41.70 41.73 42.18 42.71 43.00 43.01 43.51
44.46 42.70 41.81 41.66 40.84 38.83 36.64 36.20 33.52 33.55 32.99 32.50 33.09 31.87 31.51 31.53 31.01 30.34 29.85 29.50 28.19 25.51 22.46 25.80 27.26 27.30 29.16 32.77 33.91 33.63 33.02 37.46 37.94 39.31 40.09 40.31 40.22 40.70 41.14 41.52 41.95 42.23 42.60
43.01 41.84 41.41 40.90 39.26 37.55 36.58 33.88 33.23 33.20 32.61 32.47 32.18 32.26 31.78 31.51 30.07 29.24 28.56 28.18 27.16 25.74 23.79 26.04 27.17 28.46 27.29 27.91 30.03 30.50 31.89 31.61 32.50 38.01 39.17 39.26 39.30 39.89 40.11 40.55 40.73 41.11 41.61
41.71 41.46 39.58 38.91 37.31 36.00 34.34 32.54 32.67 32.71 32.04 32.00 32.23 32.55 31.15 33.38 29.47 28.71 27.56 26.97 26.14 25.99 24.36 24.37 26.99 26.91 26.90 27.80 28.51 28.86 31.04 33.06 32.60 36.32 37.52 38.24 38.19 38.44 38.81 39.10 39.70 40.24 40.12
40.33 39.93 38.66 37.01 36.05 34.83 34.34 32.60 32.28 32.06 32.18 33.46 33.36 32.03 30.96 29.98 28.73 27.49 26.88 25.87 26.26 29.15 26.46 25.08 25.81 28.22 27.73 28.66 28.45 29.28 29.72 30.93 31.54 34.71 36.05 36.29 36.89 37.38 38.06 38.83 38.76 38.64 38.69
38.60 38.06 36.76 36.07 35.58 35.06 34.40 34.26 33.57 33.60 34.08 33.92 33.43 32.13 31.03 29.78 28.14 27.19 27.03 26.68 27.60 25.66 25.26 25.46 25.82 25.57 27.00 28.56 28.53 27.70 26.10 28.33 27.72 30.38 32.47 33.73 35.46 36.29 37.09 36.72 36.62 36.31 36.31
36.82 36.15 34.74 34.56 34.45 34.42 34.98 33.99 34.44 33.47 32.47 31.89 31.57 31.55 31.13 32.04 35.41 33.81 30.98 27.15 26.24 25.47 24.62 23.60 24.65 25.27 26.75 26.58 24.88 26.19 25.21 26.09 26.77 27.85 27.15 27.96 28.77 28.64 29.53 32.56 33.04 34.15 35.05
34.56 34.19 33.41 33.52 32.89 34.84 36.17 36.17 34.59 32.57 31.79 30.19 29.34 29.17 29.32 32.67 31.89 35.16 35.36 35.32 33.63 26.38 22.75 21.10 25.78 25.28 25.25 24.86 25.74 25.20 24.70 23.47 22.75 28.96 25.17 27.18 28.36 26.81 27.82 28.19 33.02 34.98 35.82
34.25 33.10 32.95 33.77 32.69 32.90 35.89 35.33 34.55 31.63 30.16 28.44 27.33 27.10 27.82 30.86 31.32 27.76 31.49 34.25 33.73 34.70 34.21 29.66 26.08 25.47 24.87 25.77 25.45 23.89 25.18 26.14 26.30 28.16 26.53 24.03 26.94 25.36 27.61 29.12 33.30 34.11 34.87
33.20 33.04 32.15 30.72 31.17 33.14 34.77 34.02 33.70 28.80 27.26 26.55 26.48 26.32 25.97 26.10 26.81 30.13 27.96 26.72 27.62 27.40 27.82 29.05 27.91 27.10 26.77 28.15 29.65 30.00 27.95 26.21 26.07 26.62 26.68 21.98 25.74 24.95 27.06 27.48 32.20 33.29 33.99
31.11 29.84 31.31 30.56 28.69 30.32 33.62 32.85 30.39 26.84 25.69 25.37 27.20 27.15 27.76 26.69 31.94 34.17 29.87 26.17 25.57 26.14 31.45 32.95 33.20 33.57 33.94 34.04 32.21 28.28 23.95 22.54 20.86 22.61 25.58 23.95 23.93 23.52 24.74 24.88 26.57 31.79 32.97
30.37 30.73 30.20 28.19 30.93 25.81 33.12 32.56 30.48 26.15 24.12 25.41 25.28 26.53 31.62 30.61 33.27 34.00 30.01 27.46 25.37 24.62 25.09 25.52 26.15 27.23 28.40 26.33 30.82 26.38 23.95 21.41 21.01 21.15 23.55 22.11 22.58 22.88 20.50 21.81 23.51 24.14 25.92

GFSMA_sfc_wetblb_036.txt.gz
Wetbulb
61.92 60.94 59.96 60.48 59.88 57.84 53.11 51.50 48.32 44.83 43.64 43.28 42.90 42.19 41.82 44.99 48.50 51.04 52.89 59.49 59.69 58.51 57.69 56.66 55.83 55.27 55.10 54.94 55.12 55.09 55.10 55.25 55.60 55.92 55.50 55.59 56.45 56.26 56.71 57.17 57.60 58.08 58.59
61.09 59.50 59.31 59.62 56.47 53.82 51.42 47.65 44.37 43.80 42.82 42.22 41.86 41.26 40.35 41.91 46.93 48.65 49.52 53.09 57.50 55.99 54.73 53.86 52.93 52.47 52.69 53.24 53.87 54.25 54.45 54.47 54.52 54.67 54.85 55.05 55.10 55.61 55.91 56.37 56.66 56.97 57.58
58.56 58.52 57.86 54.98 51.78 48.76 46.02 44.28 43.73 42.85 42.19 42.06 40.20 40.75 40.40 39.31 44.68 45.83 46.68 46.55 49.59 54.38 52.23 51.35 50.71 50.84 50.58 51.97 52.84 53.28 53.17 53.35 53.51 53.56 53.93 54.03 54.43 54.60 54.90 55.56 55.95 56.48 56.72
58.81 56.29 55.01 52.87 49.16 47.05 45.18 44.56 43.30 41.50 40.30 39.68 38.45 38.66 39.80 40.04 39.59 44.01 44.26 43.73 42.95 44.89 49.20 49.12 48.44 48.75 48.87 50.84 51.72 52.70 52.42 51.64 52.01 52.16 52.58 53.07 53.23 53.83 54.28 54.86 55.13 55.52 55.85
57.04 55.33 53.42 49.81 47.15 45.74 44.23 43.89 41.19 40.75 38.49 38.41 39.60 38.52 39.21 39.62 39.14 41.67 41.02 41.95 40.93 41.89 40.57 47.38 47.98 47.26 47.12 48.30 49.54 50.34 50.77 50.42 50.83 50.72 51.50 51.92 52.36 52.73 53.44 53.87 54.07 54.48 55.05
55.52 54.15 50.28 47.97 46.14 44.66 42.85 41.72 40.36 38.66 37.94 37.54 41.32 40.84 39.02 39.97 38.75 38.15 38.63 40.56 39.90 39.67 38.65 38.47 38.15 39.38 45.44 46.00 46.62 47.68 49.03 49.56 49.28 49.53 49.99 50.65 51.40 52.04 52.68 52.99 53.44 53.85 54.39
54.75 52.96 49.86 46.52 45.43 44.56 42.42 41.15 39.76 38.21 36.96 36.45 37.52 37.88 38.66 37.61 38.69 38.70 38.78 38.27 39.13 38.82 37.85 37.49 36.14 35.89 36.69 44.30 44.07 45.58 47.25 47.85 48.15 48.91 49.47 49.84 50.92 51.71 52.02 52.58 53.08 53.45 53.91
54.97 52.37 49.03 46.64 45.04 42.68 41.18 40.55 40.22 38.03 36.94 35.56 35.61 35.70 35.01 36.58 37.28 37.17 37.81 38.76 36.28 37.07 36.95 36.73 35.30 35.56 35.09 34.99 37.72 45.03 44.97 45.62 47.02 48.29 49.16 49.74 50.81 51.14 51.83 52.35 52.78 53.20 53.62
54.46 53.52 49.40 47.43 44.53 43.34 41.75 40.06 39.71 39.27 36.71 35.58 34.76 36.17 32.94 33.62 32.45 35.11 35.24 34.99 34.54 34.45 34.09 35.09 35.39 35.42 34.87 34.05 37.50 38.76 43.81 44.12 45.82 47.84 49.24 49.97 50.31 50.82 51.64 52.19 52.54 52.94 52.98
53.89 50.53 48.28 47.88 44.83 43.08 41.19 40.13 40.38 38.80 37.69 35.53 35.11 36.51 33.45 33.38 31.33 31.09 33.68 34.11 34.28 34.85 33.55 33.21 33.44 34.06 33.70 33.57 37.24 40.49 43.78 44.54 46.18 47.92 49.22 49.58 50.18 50.82 51.35 51.70 52.04 52.24 52.24
51.29 50.33 48.69 46.67 44.97 44.55 43.00 42.01 38.83 38.14 37.71 38.12 36.62 33.92 32.65 32.12 31.09 30.14 29.18 30.61 32.83 33.21 33.53 33.34 32.89 31.87 32.56 32.49 33.04 37.21 43.42 44.43 46.04 46.95 48.39 49.33 49.89 50.29 50.78 50.99 51.19 51.40 51.19
48.40 48.25 47.55 46.84 46.35 44.29 42.97 41.76 40.26 39.52 38.48 36.69 36.34 33.24 32.81 31.66 30.34 29.33 27.76 27.57 28.02 30.92 32.21 32.77 32.03 31.11 31.09 31.30 36.66 40.42 41.57 42.80 44.15 45.51 47.14 48.22 48.69 48.91 49.32 49.53 49.84 49.79 49.44
46.01 46.34 47.04 45.54 45.16 42.98 42.56 41.54 40.17 38.62 37.82 36.91 35.74 32.62 32.55 31.92 31.65 30.43 29.11 27.49 26.89 28.51 29.87 30.71 31.05 30.39 33.47 30.13 31.52 38.79 39.97 41.05 42.07 43.58 45.57 46.92 46.43 46.19 46.43 47.28 47.74 47.63 47.93
46.98 46.93 46.11 45.40 43.49 42.76 41.82 41.13 39.82 37.68 37.51 35.49 33.78 32.25 32.13 32.21 32.14 31.09 30.26 28.02 25.09 25.28 26.62 27.99 29.26 28.76 29.20 29.88 34.71 38.75 32.53 39.36 40.23 41.91 43.40 43.91 43.21 43.09 43.82 44.70 45.17 45.42 45.88
46.63 45.75 44.89 43.54 43.32 41.41 40.92 40.00 38.72 36.13 36.69 34.85 33.02 32.14 31.99 31.83 31.49 31.02 30.70 29.66 26.81 22.94 22.88 25.30 25.79 27.81 29.31 29.48 31.98 33.06 31.14 36.43 39.26 40.02 40.42 40.67 41.01 41.70 42.33 42.58 43.10 43.66 43.65
44.82 44.96 44.80 42.99 41.28 40.85 40.15 39.33 37.70 35.79 35.39 34.38 32.49 31.31 31.05 30.86 30.35 29.85 29.45 29.13 28.07 25.82 22.52 25.05 25.44 26.38 28.02 31.52 32.16 32.28 31.40 36.26 36.83 38.27 39.19 39.51 39.82 40.35 40.87 41.43 41.83 42.21 42.64
44.39 43.39 42.08 41.10 40.18 38.88 38.21 38.16 36.97 35.25 34.12 33.77 31.34 31.18 31.08 31.19 30.26 29.83 28.79 28.15 26.83 25.37 23.01 24.96 25.76 27.18 26.39 26.83 28.97 29.05 30.38 30.11 30.82 36.81 38.10 38.77 39.04 39.39 40.11 39.96 40.40 41.01 41.33
42.78 42.35 40.89 39.60 38.70 38.06 37.74 36.36 34.84 34.52 33.39 31.86 31.01 31.02 31.11 33.91 30.97 29.79 28.46 27.07 26.12 25.57 24.17 23.29 24.83 25.39 25.46 27.05 26.77 26.74 29.96 31.87 30.91 34.88 37.23 37.80 38.25 38.33 38.55 39.04 39.33 39.87 40.51
40.03 40.31 39.22 37.52 36.54 36.06 35.41 34.93 34.27 33.67 32.73 31.78 32.56 32.12 33.00 31.70 30.65 29.58 27.74 26.70 25.92 28.30 26.04 24.16 25.05 25.54 25.85 26.09 27.11 27.63 27.85 29.01 31.46 34.31 35.84 36.16 36.70 37.25 37.73 38.34 38.86 39.08 38.52
39.04 38.28 37.83 36.76 36.05 35.28 34.74 34.39 34.44 34.19 34.27 33.85 34.00 33.37 32.47 31.47 30.16 29.26 28.72 27.44 27.77 26.11 25.41 24.71 25.02 23.70 22.97 26.65 26.68 25.92 25.56 27.30 27.01 29.89 32.22 33.80 35.40 35.96 36.80 37.11 36.92 36.37 36.30
36.74 36.32 35.40 34.76 34.29 34.50 35.18 34.77 35.00 34.21 33.65 32.93 32.39 31.65 31.72 32.36 34.78 34.02 30.80 27.84 26.89 25.98 25.31 21.92 23.35 21.60 23.84 25.18 24.65 25.76 24.61 25.54 26.30 27.49 27.23 27.59 27.57 27.78 29.13 33.06 33.19 34.08 34.48
35.37 34.93 34.01 33.77 34.22 36.23 37.90 37.80 35.23 33.27 31.98 30.71 29.70 29.58 29.00 31.94 31.54 35.44 35.82 35.80 33.68 25.66 20.05 19.84 19.21 24.31 24.52 24.97 25.51 24.93 23.98 22.86 21.88 27.77 24.76 27.32 28.35 26.82 27.73 28.15 32.67 34.26 35.40
34.18 33.46 33.19 33.44 34.42 35.84 37.19 36.41 35.51 31.34 29.74 27.85 26.72 26.19 26.86 29.78 29.40 26.71 30.99 34.14 33.54 34.84 34.41 30.77 26.20 24.97 24.73 25.79 25.81 23.65 24.01 24.94 25.34 26.92 26.01 23.38 26.34 25.07 27.21 28.53 33.02 33.99 34.90
34.29 34.15 34.33 34.15 32.35 33.21 36.35 35.28 33.65 28.81 27.18 25.61 25.26 24.92 24.96 25.54 26.32 29.29 27.87 26.06 27.41 27.99 28.06 27.86 26.17 27.11 27.61 28.11 28.59 29.57 27.95 25.31 25.54 25.95 25.79 20.84 24.58 23.74 26.15 26.96 32.06 33.21 33.86
33.96 32.52 31.63 30.80 30.76 32.61 34.86 33.85 30.18 25.85 25.43 25.01 26.11 26.15 26.96 26.04 31.32 33.69 28.96 25.81 25.96 26.22 31.01 33.28 33.51 33.73 34.06 34.24 32.65 27.47 23.22 22.38 20.50 21.98 24.91 22.78 22.79 22.79 24.16 24.51 26.34 31.73 32.98
30.48 30.51 30.21 29.56 31.44 26.92 34.01 33.59 30.89 26.02 23.80 25.31 24.69 25.98 30.56 29.84 32.57 33.39 29.49 26.81 24.57 24.10 25.20 25.52 24.96 26.01 27.56 25.95 30.50 26.09 23.12 20.74 20.30 19.83 22.38 19.49 22.09 22.72 20.17 21.76 23.99 23.79 25.23

GFSMA_sfc_wetblb_042.txt.gz
Wetbulb
61.49 61.31 61.09 60.89 60.38 58.34 56.02 51.56 47.05 43.25 42.37 41.95 41.42 42.22 46.62 48.53 49.78 51.96 53.83 60.42 61.29 59.82 58.76 57.71 57.19 56.20 55.61 55.74 56.15 55.88 55.78 56.03 56.02 55.96 55.96 56.06 56.16 56.43 56.71 57.18 57.50 57.79 57.89
61.67 61.25 60.03 59.69 58.93 57.31 53.58 50.93 44.80 42.08 41.39 40.89 40.30 40.28 43.94 46.45 47.84 49.50 50.95 54.33 59.48 57.99 56.87 55.56 54.41 54.01 54.35 54.65 54.96 54.58 54.71 54.71 54.68 54.70 54.83 55.11 55.16 55.37 55.69 56.03 56.24 56.40 56.88
61.04 61.25 60.25 58.61 58.25 56.42 51.22 45.98 42.40 41.16 40.66 40.74 39.13 38.70 40.47 44.67 46.27 46.83 48.31 48.50 50.42 56.31 54.84 53.48 53.19 52.42 52.54 53.62 53.68 54.05 53.47 52.65 52.82 53.08 53.70 54.05 53.98 54.41 54.67 54.87 55.22 55.58 56.02
60.11 60.18 59.47 58.70 57.14 53.58 47.72 43.46 41.92 40.39 39.64 39.38 38.07 37.85 37.88 41.10 44.18 44.96 45.10 44.47 43.28 44.81 50.57 51.15 50.25 50.78 50.82 50.71 51.37 51.79 51.50 51.61 51.48 51.62 52.20 52.49 52.90 53.16 53.52 53.92 54.22 54.62 55.08
59.96 59.73 59.00 58.41 54.67 49.39 45.14 43.51 40.67 40.48 38.90 38.04 38.29 37.13 37.06 37.08 40.68 44.54 42.09 41.43 41.36 41.94 40.49 48.10 49.15 48.59 47.80 48.26 49.02 49.62 50.07 50.57 50.42 50.29 50.65 51.18 51.71 52.53 52.93 53.29 53.63 54.06 54.64
59.52 58.96 57.81 56.25 53.15 47.19 43.50 41.97 40.36 38.31 38.51 38.13 40.06 38.62 37.39 37.92 37.01 40.32 40.47 41.47 39.52 39.95 37.88 38.88 37.40 38.10 46.64 47.00 46.61 47.67 48.73 49.30 49.42 49.43 50.19 50.63 50.97 51.63 52.68 53.17 53.52 54.03 54.53
58.51 58.17 57.37 55.39 52.70 49.00 45.25 43.06 39.63 38.46 36.84 37.16 37.52 36.94 37.04 36.37 35.85 36.10 36.93 37.27 37.63 37.96 36.71 36.24 34.98 34.66 35.56 43.97 45.70 46.32 47.63 48.59 48.77 48.95 49.50 50.24 50.91 51.62 52.35 53.14 53.43 53.67 54.29
58.12 57.74 56.70 54.09 51.98 48.91 43.01 41.97 40.07 37.98 36.90 36.97 36.46 35.48 34.58 35.82 35.64 35.87 36.06 37.04 35.94 36.27 35.89 35.45 34.15 34.20 33.80 33.95 37.47 44.70 45.52 46.88 48.22 48.64 49.37 50.20 51.15 51.93 52.70 53.25 53.50 53.87 53.86
58.27 58.12 55.52 53.89 50.84 49.62 46.08 43.58 41.83 40.54 37.54 35.33 35.43 37.64 32.98 34.09 32.81 33.20 33.61 34.25 33.76 33.71 33.29 33.85 33.98 33.95 33.06 32.70 35.51 37.51 43.38 44.82 46.65 48.71 49.80 50.84 51.40 51.96 52.46 53.06 53.59 53.91 53.76
58.05 57.55 55.62 54.01 50.71 49.78 47.85 45.72 45.82 46.91 41.96 36.19 34.59 35.64 33.09 34.47 33.34 31.16 31.91 32.20 32.07 32.95 32.05 32.04 32.26 32.54 32.22 32.72 38.10 41.87 43.57 44.32 46.33 48.21 49.73 50.85 51.16 51.85 52.36 52.66 53.07 53.39 53.27
58.08 57.32 55.80 54.03 50.73 49.15 47.98 46.70 45.32 43.98 43.87 40.38 38.87 35.45 33.74 31.85 30.96 31.98 30.62 30.14 31.43 31.71 31.53 31.52 31.14 30.70 31.23 31.71 32.59 37.46 41.83 43.32 45.33 46.89 48.47 49.22 50.14 50.99 51.66 51.90 52.05 52.10 51.89
55.65 56.26 55.13 52.70 51.58 48.59 47.09 47.45 46.48 45.60 43.38 41.71 40.17 37.64 36.28 33.96 32.32 32.12 32.30 31.25 32.21 30.14 30.40 30.70 30.08 29.65 29.86 30.11 35.35 39.65 40.75 42.08 43.48 44.82 46.80 48.16 48.91 49.51 50.09 50.28 50.39 50.31 50.08
52.06 53.64 53.88 51.55 49.50 49.07 48.24 48.04 45.89 44.70 43.84 42.67 40.72 38.42 37.08 35.98 34.36 33.81 33.30 29.70 29.55 28.66 29.85 29.30 29.82 29.42 31.86 29.14 30.82 38.38 38.79 40.03 41.00 42.70 45.15 46.99 46.68 46.45 46.64 47.32 47.77 48.05 48.49
54.68 54.30 53.08 52.08 50.85 49.15 47.59 46.14 45.90 44.84 42.90 41.75 39.49 38.43 35.65 35.01 34.92 33.95 32.78 30.74 25.90 26.85 26.56 28.33 28.71 28.26 28.31 28.58 33.44 38.11 31.54 37.76 38.97 41.02 42.81 43.43 43.07 43.11 43.53 44.35 45.12 45.78 46.33
53.48 52.40 51.42 50.22 49.62 47.84 45.29 45.09 44.46 41.24 40.06 39.58 37.23 36.28 35.20 34.80 34.61 34.04 33.68 32.72 31.32 24.72 27.10 27.43 26.85 29.13 28.96 28.76 31.05 31.48 30.06 35.18 38.60 39.17 39.73 40.15 40.51 41.19 41.83 42.40 42.80 43.49 44.12
49.58 48.77 48.62 47.19 46.06 44.83 44.45 44.02 41.20 39.33 38.21 37.37 36.78 35.30 34.48 33.93 33.79 33.48 33.23 32.12 31.14 28.37 24.76 27.02 27.65 29.59 29.64 30.83 30.83 31.54 30.19 36.21 36.56 37.89 38.41 38.69 39.19 39.75 40.49 41.23 41.84 42.46 42.94
46.30 46.80 45.48 43.86 43.55 43.35 42.64 40.76 38.64 37.51 36.72 35.97 36.03 35.43 34.16 33.95 32.98 32.22 31.58 31.16 30.09 28.98 27.08 28.70 26.21 26.51 25.53 26.49 28.08 28.21 29.09 27.77 28.44 35.87 37.39 38.09 38.41 39.14 40.00 40.54 40.83 41.25 41.62
44.28 44.05 42.98 41.07 41.11 39.89 38.95 38.04 37.47 37.08 36.20 35.12 34.43 34.62 34.07 35.40 33.02 32.54 31.84 31.33 30.65 30.31 28.58 25.82 24.20 24.61 25.06 27.04 26.93 25.72 28.91 30.86 29.33 33.60 36.42 37.39 37.95 38.17 38.65 39.10 39.50 39.88 40.02
44.19 43.15 41.15 39.37 38.71 38.96 39.40 38.33 37.63 36.85 36.11 35.43 34.62 33.52 33.03 33.22 32.63 31.91 31.53 31.28 31.06 30.46 27.43 24.07 24.17 25.02 25.14 25.81 24.98 25.40 25.73 26.76 28.94 33.31 35.21 35.63 36.27 36.90 37.63 38.32 38.87 39.09 39.14
39.98 39.09 38.74 38.53 38.18 37.59 36.79 35.83 35.14 34.48 34.48 34.77 35.11 34.94 34.44 33.75 33.35 32.69 32.28 31.31 30.32 27.75 26.93 25.66 25.23 24.82 24.14 25.70 24.05 24.32 24.74 25.26 26.39 28.94 31.57 33.26 34.74 35.53 36.39 36.91 36.99 36.77 36.96
38.93 39.28 37.37 36.51 36.46 36.43 36.40 35.53 35.60 35.30 35.02 34.49 34.20 33.44 33.04 32.80 33.71 34.10 32.30 30.51 29.54 27.90 25.62 23.10 22.52 21.83 22.64 23.27 24.35 26.00 24.52 25.36 25.38 26.26 26.36 26.40 26.15 26.67 28.13 32.41 33.09 34.33 34.65
36.47 36.63 36.13 36.25 36.15 37.32 39.45 39.10 36.99 34.90 33.78 32.68 31.67 31.43 31.23 32.02 31.72 32.60 33.69 34.58 32.93 27.57 26.33 22.35 21.14 22.68 23.56 24.60 23.78 23.90 24.16 23.30 23.05 25.40 23.57 25.82 26.72 26.36 27.34 27.59 32.29 34.08 35.31
35.54 35.61 36.11 36.65 36.99 38.53 40.75 39.75 37.24 32.69 31.46 30.68 29.56 28.51 28.82 30.04 29.35 28.38 30.76 33.05 32.42 34.35 33.88 28.03 25.29 24.40 24.51 25.02 24.91 23.75 24.20 24.67 24.12 26.55 25.29 23.40 25.76 24.51 26.74 27.61 32.48 33.62 34.80
34.99 34.82 34.55 34.93 35.25 37.31 38.81 37.23 34.54 30.87 28.96 28.10 27.96 27.18 25.77 25.59 26.57 28.82 28.19 26.75 27.64 27.55 27.52 27.87 26.28 26.46 25.92 26.52 26.46 27.03 27.39 25.50 25.01 25.47 25.11 21.07 24.39 23.50 25.69 26.07 31.51 33.05 34.02
33.32 32.19 32.67 32.26 32.42 34.04 36.74 35.15 30.18 28.12 26.69 25.96 26.32 25.70 26.37 25.73 30.01 32.46 28.13 25.01 26.44 26.31 29.89 32.16 32.45 32.83 32.96 32.91 31.45 26.37 21.93 21.44 20.10 21.30 24.15 21.92 21.39 21.30 23.56 24.38 26.27 31.63 33.21
31.99 32.02 31.63 32.30 34.93 32.35 35.73 35.21 29.99 26.08 23.30 25.30 24.23 25.65 29.40 28.26 31.68 32.81 28.55 26.46 22.52 22.48 23.44 23.92 23.32 23.94 25.83 23.95 29.47 24.66 20.59 18.15 19.04 19.05 21.57 19.09 17.62 21.92 18.63 21.73 21.59 23.62 25.36

GFSMA_sfc_wetblb_045.txt.gz
Wetbulb
65.68 66.29 66.64 65.88 66.20 65.83 63.88 60.18 55.80 52.63 50.74 49.57 50.33 52.81 54.80 56.35 58.47 60.76 62.13 60.87 62.13 60.82 59.40 58.66 57.96 56.80 56.40 56.71 56.57 56.20 56.44 56.39 56.14 56.29 56.42 56.52 56.52 56.79 57.10 57.33 57.50 57.74 58.10
65.79 65.83 65.91 65.29 65.11 64.79 62.65 59.18 54.52 51.23 50.29 49.43 48.37 49.91 53.38 55.12 56.71 58.28 59.53 59.89 60.49 59.72 58.21 56.91 55.61 55.06 55.47 55.76 55.33 55.14 55.29 54.67 54.87 54.92 55.33 55.27 55.30 55.65 55.97 56.11 56.48 56.78 57.13
65.58 65.81 65.52 64.63 64.48 63.78 60.90 57.04 51.45 49.47 48.68 47.90 47.87 48.01 51.69 53.45 54.65 55.75 56.96 57.37 57.31 57.57 56.67 54.98 54.40 53.38 54.02 54.28 54.11 54.28 53.36 52.59 53.00 53.15 53.90 53.86 53.97 54.00 54.27 54.65 54.91 55.16 55.61
65.08 65.48 64.97 64.19 64.08 62.66 58.77 55.01 50.75 48.73 48.56 48.12 47.02 46.91 48.23 51.54 52.66 53.45 54.12 54.02 53.25 53.29 54.41 52.82 51.98 52.42 51.70 51.32 51.96 51.82 51.29 51.61 51.25 51.34 51.70 52.22 52.62 53.11 53.44 53.67 53.89 54.25 54.64
64.12 64.61 64.50 64.25 63.47 61.72 56.99 53.08 49.31 49.15 47.65 46.91 46.30 46.27 46.22 47.48 50.72 50.82 51.73 50.87 50.65 50.93 50.50 50.91 51.87 50.51 48.85 49.02 49.46 49.68 50.09 50.38 50.38 50.50 50.91 51.19 51.73 52.23 53.18 53.52 53.72 54.08 54.55
63.86 63.53 63.44 63.82 62.60 60.39 56.93 51.32 49.61 47.19 47.90 47.27 44.04 44.51 46.06 46.17 46.26 49.80 49.81 48.51 48.57 48.64 47.93 48.97 48.51 47.72 47.25 47.21 46.87 47.60 48.71 49.42 49.79 49.77 50.45 50.84 51.55 52.01 52.63 53.53 53.99 54.16 54.67
63.14 62.90 62.80 62.59 61.56 59.92 57.11 52.96 48.84 46.63 45.06 45.61 44.97 44.90 44.82 45.09 45.04 45.90 48.27 47.93 46.38 46.53 45.71 46.13 45.33 44.60 44.43 44.09 45.01 46.13 47.51 49.22 49.83 49.78 50.08 50.63 51.26 51.97 52.91 53.48 54.38 54.44 54.63
62.29 62.59 62.62 61.72 60.34 58.97 55.50 51.29 48.39 45.47 45.23 44.94 45.39 44.46 43.06 43.43 43.76 43.69 44.48 45.35 45.46 45.12 44.30 43.82 43.33 42.90 43.51 43.96 43.48 44.45 45.17 46.64 48.20 49.42 50.09 50.67 51.55 52.40 53.25 53.74 54.07 54.38 54.78
61.86 61.73 61.72 61.20 59.59 58.49 54.43 51.46 48.84 48.22 44.62 43.13 44.24 47.25 41.31 43.70 41.92 41.50 41.97 43.17 43.50 43.37 43.93 42.59 41.73 41.63 41.68 42.51 41.99 42.32 44.04 45.25 46.93 48.71 50.14 51.22 52.10 52.65 53.04 53.66 54.10 54.44 54.47
61.51 60.97 60.88 60.00 58.62 57.47 56.04 52.04 49.11 48.57 47.89 43.57 40.30 40.01 41.24 44.49 42.99 39.67 39.64 40.63 40.98 41.14 41.79 40.82 40.51 40.31 40.27 41.71 41.93 42.80 42.92 43.54 45.56 47.44 48.91 50.08 51.17 51.87 52.69 53.15 53.56 53.81 53.74
61.84 60.82 60.46 59.32 57.92 57.23 57.30 54.05 49.44 48.46 48.89 47.67 44.18 38.99 38.49 37.63 37.10 40.98 39.73 37.80 38.13 39.29 39.96 39.98 39.83 39.82 39.27 39.75 40.77 41.06 41.39 42.60 44.61 46.09 47.85 49.33 50.37 50.90 51.85 52.43 52.79 52.90 52.75
60.74 60.50 59.84 58.86 58.15 56.34 55.53 52.87 51.99 50.51 49.31 48.79 46.67 42.95 41.44 39.86 37.36 38.73 36.61 37.18 38.20 37.66 37.83 37.74 38.56 38.69 38.11 38.66 38.83 39.25 39.83 41.23 42.72 44.73 46.58 48.27 48.72 49.33 49.91 50.62 50.81 50.87 50.87
58.06 58.92 59.37 58.59 57.51 56.16 55.57 53.73 51.92 50.69 49.35 48.44 46.71 43.07 42.45 40.60 38.66 37.27 36.36 33.25 33.50 33.62 36.44 37.17 37.53 37.65 36.80 37.54 38.10 38.59 37.86 39.62 41.01 42.84 45.44 47.18 46.59 46.05 46.27 47.12 48.09 48.54 48.89
59.47 59.67 58.80 58.86 57.36 55.67 53.83 53.18 51.89 51.15 49.93 48.47 43.91 41.05 39.89 38.02 37.58 36.65 36.51 35.40 32.09 31.86 31.48 35.08 33.85 36.03 36.84 36.71 37.16 37.29 37.60 38.13 39.33 41.46 42.97 43.28 42.88 42.82 43.46 44.38 45.37 46.09 46.63
58.75 57.99 57.50 57.20 55.58 53.78 52.55 51.84 51.04 50.06 48.12 46.03 41.87 40.11 37.89 36.99 37.01 37.10 35.93 36.58 37.27 30.83 30.61 31.31 32.31 35.52 35.55 35.30 35.19 37.57 37.11 36.66 38.80 39.82 39.97 40.42 40.55 40.95 41.59 42.25 42.92 43.55 44.20
56.73 55.51 54.75 54.51 52.58 51.00 49.89 49.29 47.76 46.48 44.41 41.53 38.96 37.32 36.06 35.58 35.38 36.13 35.31 34.03 33.67 33.57 31.34 31.84 31.56 33.28 33.50 33.74 34.87 36.33 36.12 36.53 37.82 38.56 39.02 38.99 39.28 39.84 40.40 40.98 41.63 42.49 43.14
52.52 51.99 51.35 50.04 48.79 47.85 47.54 45.50 43.35 41.78 39.53 37.77 36.71 36.33 35.36 35.90 34.06 33.50 34.25 33.78 33.13 32.78 30.43 31.75 31.01 31.06 30.77 32.00 33.26 35.09 35.35 34.84 35.67 36.77 38.00 38.45 38.62 39.00 39.64 40.22 40.76 41.42 41.93
49.56 48.78 47.30 46.64 45.73 44.89 43.36 40.93 39.15 38.62 37.05 36.80 36.71 35.28 34.50 35.80 34.41 34.70 33.92 32.54 32.16 31.65 30.99 30.00 31.25 29.46 29.86 32.40 33.15 33.31 33.08 34.20 34.68 35.45 36.96 37.75 37.98 38.10 38.60 39.11 39.54 40.15 40.37
46.47 45.86 44.72 43.00 40.80 39.72 39.24 38.73 38.01 37.19 36.73 36.71 36.17 35.18 34.57 34.34 33.43 33.36 33.38 32.78 32.81 34.51 32.35 30.27 29.08 30.04 30.70 31.88 32.03 32.60 32.44 33.25 33.20 34.24 35.67 36.09 36.61 37.05 37.72 38.30 38.79 39.14 39.29
40.90 40.83 40.35 39.75 39.43 38.82 38.33 37.68 36.98 35.79 35.50 35.38 35.48 35.54 35.08 34.75 33.94 32.81 33.17 33.74 34.30 32.07 30.95 30.00 29.91 29.63 30.23 31.36 30.24 29.52 29.97 32.41 31.48 32.46 33.75 34.41 35.48 35.99 36.53 37.07 37.03 36.79 36.96
39.15 38.82 37.82 37.47 37.39 37.33 37.10 36.49 36.30 35.80 35.22 34.67 34.73 34.11 33.06 33.71 34.29 34.14 33.33 32.98 32.21 31.46 31.09 29.93 29.39 29.56 29.70 29.52 29.24 30.91 29.14 29.77 30.76 31.82 31.16 31.89 32.00 32.25 32.71 34.09 34.20 34.71 34.96
37.38 37.47 37.19 37.77 38.33 38.74 40.43 39.70 37.25 35.32 34.51 33.08 32.00 32.32 32.42 33.65 33.37 33.99 33.97 34.87 34.70 31.77 31.15 30.25 29.88 28.38 29.18 29.45 29.95 28.90 28.36 27.32 25.16 32.52 29.97 29.80 32.09 30.76 31.86 32.51 33.79 34.46 35.50
37.29 37.39 37.85 37.94 38.09 39.08 40.53 39.68 37.43 33.22 32.08 31.65 31.30 30.64 30.78 31.97 31.63 30.33 31.85 32.57 33.01 33.86 33.95 32.19 29.46 29.22 28.72 29.88 30.36 28.43 28.25 27.31 26.69 29.96 30.04 27.45 30.48 29.06 31.41 31.84 33.33 34.01 34.87
35.29 35.30 35.57 36.05 36.56 37.83 39.36 38.15 35.71 31.45 30.29 29.93 29.94 29.63 29.33 29.50 29.37 31.03 30.78 30.96 31.13 31.01 31.21 31.07 31.22 30.81 31.05 31.16 30.56 30.03 29.42 28.66 28.91 29.49 29.91 23.93 29.19 28.19 30.46 30.99 32.69 33.34 34.00
32.89 32.66 33.19 32.81 32.79 34.71 35.62 33.75 31.11 29.97 29.06 28.49 28.62 28.76 29.44 29.02 30.23 32.10 31.21 29.65 29.98 30.03 30.75 31.83 31.99 32.52 32.62 32.46 31.84 29.51 27.06 25.33 23.11 25.30 28.53 25.43 26.70 27.09 27.89 29.05 30.27 32.34 33.23
31.96 32.89 32.21 32.53 35.77 34.39 35.03 33.59 30.48 29.34 27.06 27.55 28.15 28.58 29.46 30.10 31.69 32.72 32.01 30.20 26.45 27.13 27.95 28.35 28.18 28.10 28.15 27.66 29.38 28.26 26.82 23.38 22.63 22.35 28.08 24.57 25.70 25.26 23.11 28.73 29.58 29.95 29.74

GFSMA_sfc_wetblb_048.txt.gz
Wetbulb
67.47 68.20 68.12 67.53 66.42 67.24 67.25 66.60 64.92 61.17 58.97 57.37 56.86 57.28 57.27 57.91 59.40 61.89 63.04 61.58 63.22 61.49 60.30 59.28 58.67 57.68 57.36 57.36 56.92 56.79 56.66 56.38 56.47 56.48 56.70 56.63 56.73 57.08 57.47 57.66 57.71 57.84 58.05
67.33 67.37 67.55 67.58 67.14 66.68 66.77 65.92 64.17 60.65 58.40 56.51 55.13 55.68 56.37 57.02 57.90 59.60 60.81 61.26 61.78 61.05 59.22 58.50 56.84 56.29 56.70 56.54 55.81 55.91 54.93 54.64 54.97 55.26 55.45 55.43 55.73 55.90 55.99 56.12 56.24 56.42 56.78
66.95 66.83 66.90 67.24 67.38 67.18 65.94 65.38 63.09 59.89 57.40 55.33 54.71 54.22 55.45 56.04 56.62 57.96 58.91 59.29 59.00 58.95 58.61 56.52 55.50 54.94 55.38 55.55 55.25 54.54 53.18 52.37 52.95 53.11 53.74 53.81 54.06 54.21 54.56 54.92 55.09 55.38 55.77
67.35 66.83 66.60 66.88 67.68 67.10 65.41 64.07 61.49 58.06 56.66 55.05 54.30 53.36 53.71 54.85 55.49 56.14 57.23 57.49 57.32 56.49 55.84 55.48 54.48 53.71 53.64 52.82 53.27 52.42 51.37 51.41 51.14 51.23 51.64 52.25 52.59 53.32 53.89 54.14 54.43 54.65 55.11
67.26 66.77 66.48 66.76 67.33 66.55 64.82 63.30 61.39 59.29 56.42 54.86 53.89 53.04 52.18 53.04 54.09 54.17 55.11 55.56 55.46 54.90 54.63 53.35 53.87 53.50 50.98 50.92 51.34 50.31 50.38 50.17 50.21 50.48 50.88 51.63 52.06 52.43 53.02 53.94 54.41 54.53 54.87
67.60 67.06 66.15 66.27 66.66 65.76 64.73 62.73 60.12 58.26 57.19 55.70 51.32 50.35 51.21 51.03 52.30 53.40 53.65 53.74 53.43 53.48 53.05 52.07 51.33 50.26 48.97 48.64 48.43 48.29 48.77 49.23 49.93 50.01 50.41 51.12 51.44 52.38 52.93 53.57 54.19 54.96 55.02
67.30 66.81 66.06 65.75 65.89 65.01 64.58 62.80 60.16 56.79 53.83 54.63 50.94 50.32 49.92 50.10 49.63 50.46 52.75 52.53 51.62 51.64 51.33 51.23 50.75 49.54 47.85 47.28 47.23 46.60 47.31 49.18 49.78 50.31 50.26 50.82 51.50 52.11 53.14 54.01 54.55 54.94 55.29
66.93 66.60 66.06 65.49 65.27 64.70 64.31 63.42 60.37 55.95 55.61 52.80 52.46 52.93 49.41 48.29 47.89 48.69 50.00 50.82 50.89 50.47 49.58 49.36 49.21 48.19 47.88 47.55 46.88 44.97 44.77 46.05 47.86 49.31 50.12 51.02 51.77 52.72 53.61 54.23 54.54 54.81 55.27
66.86 66.56 66.01 65.98 65.30 64.81 63.81 63.57 60.63 57.13 54.53 51.81 53.52 55.14 49.74 49.51 47.60 48.22 47.49 48.57 49.26 49.12 48.98 48.65 47.80 47.15 46.78 46.59 44.41 43.89 44.43 45.28 46.89 48.76 50.08 51.09 51.79 52.58 53.38 53.99 54.56 54.93 54.95
65.46 66.03 65.62 65.48 65.22 64.67 63.02 62.68 60.81 58.53 58.18 52.10 50.62 49.89 49.47 49.68 47.39 41.22 44.92 45.88 47.34 47.42 48.20 47.81 46.08 45.21 44.78 45.10 44.04 44.41 43.69 43.50 45.26 47.07 48.51 49.65 50.66 51.86 52.51 53.14 53.74 54.23 54.37
64.69 63.92 63.98 64.32 64.33 63.83 62.89 62.25 59.78 58.16 58.50 56.57 51.43 48.51 46.66 45.92 46.28 46.54 44.75 41.26 43.94 44.92 45.79 45.82 45.14 44.48 43.68 44.42 44.72 43.79 42.08 42.28 44.28 45.91 47.49 48.90 49.99 51.01 51.71 52.28 52.69 53.10 53.34
63.85 63.27 62.57 63.05 63.82 63.35 61.90 61.58 59.90 57.58 57.02 57.04 52.80 51.07 49.59 48.75 46.48 45.37 45.14 42.32 41.27 43.06 43.59 43.23 42.64 43.03 42.37 43.06 42.32 41.35 40.42 40.64 42.12 44.35 46.55 48.27 49.30 49.73 49.78 50.20 50.41 50.63 50.92
62.88 61.44 61.98 61.37 61.73 62.28 62.27 61.45 60.05 57.17 56.37 55.19 54.11 51.72 49.61 46.71 43.77 43.80 43.05 37.75 38.77 35.18 37.49 38.06 40.76 40.49 40.38 41.49 41.59 39.95 39.49 39.11 40.77 42.59 45.28 47.22 47.01 46.01 45.97 46.75 47.86 48.30 49.05
63.84 63.55 61.45 61.42 61.33 61.38 60.92 60.46 59.30 57.68 56.12 53.52 53.60 52.63 48.46 43.66 41.91 41.01 41.07 38.72 36.48 35.38 35.25 36.28 36.82 37.97 39.39 40.62 39.00 38.19 40.02 38.88 39.81 41.21 43.15 44.32 43.41 43.19 43.37 43.94 45.07 45.74 46.36
62.60 63.22 62.83 60.44 60.51 60.37 59.00 57.82 56.14 55.59 54.58 54.47 54.30 51.89 47.36 41.37 40.29 40.14 40.22 41.54 42.19 34.49 36.11 32.72 34.02 35.71 36.37 36.96 37.39 37.23 37.12 39.01 39.95 40.60 41.13 41.21 41.26 41.45 41.81 42.38 43.02 43.59 44.11
60.24 60.93 60.06 59.91 58.98 57.33 55.91 54.50 53.74 53.86 52.72 52.35 51.03 46.02 40.87 38.63 37.89 38.01 38.58 36.26 37.44 36.83 32.73 32.90 32.30 33.80 34.34 35.03 36.26 37.07 35.93 38.11 38.95 39.85 40.05 40.01 40.18 40.41 40.72 41.24 41.74 42.36 42.96
57.02 56.92 57.02 57.02 55.99 53.71 52.45 51.52 50.13 49.54 48.37 44.32 41.68 39.23 37.20 37.84 35.98 35.54 35.70 35.96 35.37 35.16 33.39 32.25 32.84 32.97 33.20 33.65 34.30 34.76 36.25 36.97 37.63 38.62 39.07 39.38 39.47 39.56 39.97 40.27 40.73 41.32 41.79
53.00 53.51 52.85 52.17 51.34 50.26 49.41 47.53 44.15 43.19 39.79 37.68 37.46 37.09 35.80 36.36 35.93 36.54 36.26 34.29 34.24 33.82 33.77 32.80 32.49 31.63 32.18 33.38 34.22 34.44 35.31 36.29 36.28 37.25 38.32 38.51 38.78 38.74 38.93 39.23 39.61 40.12 40.49
49.19 49.84 48.51 47.03 46.06 45.27 43.54 42.08 39.96 38.56 37.67 37.05 37.00 36.46 35.98 36.25 34.65 34.24 34.88 33.54 32.84 33.47 33.17 32.71 31.76 32.88 33.19 34.42 34.23 35.00 35.14 35.43 35.83 36.40 37.33 37.39 37.53 37.87 38.29 38.74 39.13 39.38 39.49
44.84 42.82 44.11 42.46 41.98 41.05 39.90 39.06 38.10 37.37 36.99 36.55 36.61 36.53 35.69 35.59 34.51 33.47 33.43 32.41 33.45 34.17 34.59 32.93 31.52 32.53 33.19 33.70 33.35 31.55 32.31 34.79 33.97 34.91 35.58 36.39 36.72 36.79 37.18 37.49 37.61 37.31 37.44
39.78 39.25 38.86 38.42 38.67 39.13 38.17 37.51 37.37 36.79 36.30 36.20 35.72 35.12 34.19 35.46 36.35 35.13 35.25 34.63 34.59 33.13 32.86 32.73 31.90 31.97 32.37 32.38 31.43 32.79 30.97 31.70 32.47 34.11 33.29 34.39 34.95 35.22 35.80 36.69 36.45 36.41 36.62
39.17 40.44 39.40 39.33 39.19 39.28 40.44 39.99 37.75 36.04 34.99 33.68 32.37 32.50 33.56 35.14 35.76 36.45 36.52 36.11 35.59 33.57 32.58 32.34 31.83 30.17 30.56 32.04 32.51 31.52 30.40 28.78 27.20 34.06 32.32 31.74 34.77 33.56 34.74 35.50 36.55 36.47 36.54
38.52 38.76 39.27 39.53 39.13 39.56 40.77 39.81 37.76 34.34 33.00 32.55 32.26 32.98 33.11 33.51 32.87 31.87 32.55 33.17 33.73 34.04 34.36 33.27 31.24 31.50 30.99 32.16 31.78 29.86 29.84 29.47 28.20 31.81 32.05 29.41 33.23 31.86 34.38 35.05 36.15 36.08 36.13
33.37 35.61 35.20 35.57 36.11 37.90 39.21 37.72 35.82 32.15 31.61 31.44 31.70 31.95 31.54 31.33 31.57 32.16 31.56 31.69 32.12 32.81 32.98 33.16 32.90 32.61 32.77 32.87 32.65 32.66 31.30 30.70 31.57 32.55 33.19 27.84 31.94 30.90 33.21 34.11 35.49 35.48 35.50
32.89 32.77 33.56 33.36 32.87 33.57 35.60 34.36 32.03 31.05 30.64 30.48 31.77 32.35 31.85 30.88 30.34 31.89 32.19 31.40 31.43 32.03 32.98 32.36 32.23 32.45 32.97 33.15 32.80 30.88 28.84 28.23 26.82 28.71 31.90 29.09 30.14 30.03 31.54 32.12 33.09 34.48 34.43
32.29 33.62 33.03 34.16 35.32 33.37 34.50 33.16 32.58 31.91 30.78 30.18 30.80 30.72 29.71 30.92 31.71 32.80 32.60 31.60 29.27 29.69 30.16 30.43 31.12 31.07 31.15 30.80 30.47 30.55 29.99 26.26 25.44 25.11 31.46 27.30 28.13 27.66 25.56 30.77 31.92 32.98 32.52

GFSMA_sfc_wetblb_051.txt.gz
Wetbulb
67.18 67.73 67.22 66.38 65.88 66.96 66.82 67.23 66.49 64.08 62.09 60.48 59.83 59.58 58.81 58.80 59.11 61.02 63.46 62.14 64.07 62.60 61.35 60.28 59.45 58.82 58.31 57.94 57.62 57.57 57.10 57.21 57.20 57.47 57.31 57.27 57.48 57.80 57.82 58.07 58.27 58.46 58.75
67.27 67.39 67.39 67.25 66.47 66.06 66.50 66.30 65.69 63.91 61.21 59.63 58.31 58.09 58.29 58.23 57.93 59.64 61.68 61.26 62.64 62.32 60.45 59.89 58.55 57.58 57.86 57.45 57.03 56.63 55.41 55.48 55.59 55.93 56.11 56.02 56.04 55.98 56.37 56.58 56.66 56.88 57.10
67.16 66.97 67.01 67.22 67.42 67.07 65.99 65.77 65.18 63.85 61.06 59.00 57.52 56.96 57.40 57.61 57.12 57.69 59.29 60.69 59.89 60.13 60.71 59.28 57.54 56.90 56.99 56.68 56.36 55.56 53.86 53.20 53.43 53.54 53.82 53.98 54.22 54.66 55.01 55.28 55.40 55.63 55.97
67.62 66.87 66.62 66.60 67.34 67.42 66.79 65.38 64.40 62.20 60.04 58.06 56.70 56.38 56.01 56.70 56.35 56.37 57.96 58.13 58.86 57.72 58.17 58.29 56.73 55.91 56.10 55.27 55.05 53.92 52.39 51.96 51.55 51.50 51.64 51.93 52.48 53.09 53.85 54.56 54.79 54.98 55.29
68.16 67.14 66.58 66.65 66.70 67.05 65.12 65.32 63.92 61.57 59.42 58.26 57.13 56.55 55.08 55.71 55.33 55.05 55.60 56.75 57.22 56.88 55.91 57.04 56.57 56.18 54.77 53.42 54.11 52.53 51.80 50.74 50.43 50.42 50.78 51.57 52.05 52.56 52.88 53.55 54.35 55.12 55.24
68.87 67.85 67.14 66.68 66.49 66.37 65.36 65.16 63.41 62.28 60.50 58.60 55.83 54.50 54.64 54.18 55.02 54.72 54.29 54.88 55.30 54.96 54.98 53.01 51.87 51.79 52.85 51.86 52.16 51.05 50.23 49.79 49.97 50.36 50.61 51.13 51.68 52.30 53.08 53.58 54.28 54.69 55.65
69.02 68.40 67.41 66.84 66.57 65.71 65.64 65.24 63.55 61.37 59.09 59.33 55.53 53.01 53.35 53.16 52.02 52.67 54.03 53.85 53.65 53.43 53.45 52.32 50.73 50.61 49.09 50.26 50.14 49.42 48.70 49.14 49.96 50.18 51.10 51.07 51.71 52.32 53.15 54.01 54.70 55.20 55.54
69.21 68.16 67.71 66.79 66.31 65.22 65.05 64.43 63.26 60.58 58.65 57.93 53.24 52.86 50.36 50.32 50.32 50.85 51.21 52.15 52.17 51.65 51.24 50.79 50.53 49.92 48.98 47.40 48.11 47.36 47.34 47.37 48.12 49.37 50.13 50.84 51.80 52.73 53.83 54.72 55.12 55.26 55.47
68.84 68.49 67.62 67.18 66.57 65.72 64.42 64.27 63.85 60.83 56.85 56.01 55.32 54.89 51.64 50.33 48.56 49.60 48.84 49.79 50.41 50.09 49.68 49.31 48.96 48.76 48.22 47.91 47.00 45.73 45.42 46.25 47.44 48.83 49.85 50.53 51.21 52.01 53.06 53.97 54.51 54.92 55.07
66.17 66.78 66.20 66.44 65.98 65.87 64.75 64.47 64.17 62.08 58.70 54.59 53.36 54.13 56.27 52.38 49.07 43.64 47.38 47.59 48.72 48.71 48.59 48.41 47.71 47.46 46.38 46.65 47.30 46.79 46.97 45.44 45.80 47.09 48.01 49.35 50.24 51.33 52.43 53.19 53.53 54.19 54.40
66.96 65.43 64.96 65.12 64.96 64.57 64.33 64.45 63.63 62.44 58.87 57.70 52.31 53.14 51.92 49.70 48.57 47.95 42.79 42.87 45.71 46.68 47.93 47.54 46.65 45.70 44.85 44.80 45.07 45.25 44.90 44.43 44.94 45.72 46.90 48.08 49.54 50.79 51.95 52.59 52.59 52.91 53.05
65.71 66.13 63.88 63.39 63.41 63.29 63.13 63.28 63.72 62.17 59.67 59.02 56.96 54.61 51.26 49.39 47.09 46.26 46.11 44.28 42.28 43.45 45.12 45.97 45.36 44.48 44.07 43.52 45.05 46.04 43.92 42.88 42.82 43.86 45.85 47.23 48.55 49.53 50.23 50.31 50.12 50.30 50.51
64.07 64.60 63.47 62.57 62.14 62.31 62.33 62.53 61.51 60.90 59.57 57.98 58.18 54.00 53.92 52.93 53.53 49.50 47.50 41.24 39.67 37.98 41.61 41.22 41.87 41.91 41.95 40.23 41.57 42.43 41.50 40.48 40.59 42.58 45.17 47.10 47.14 46.96 46.77 47.38 48.05 48.29 48.93
62.70 64.30 64.23 62.62 61.88 61.52 61.51 61.33 60.51 60.17 58.82 57.82 57.24 57.18 54.10 52.23 47.44 45.87 43.64 39.42 36.68 34.40 36.82 36.73 37.69 39.53 38.92 39.82 40.49 40.96 40.13 40.87 40.31 41.49 43.56 44.68 44.55 44.27 44.12 44.76 45.27 46.00 46.51
60.14 61.98 63.38 62.66 61.18 60.78 60.54 60.30 59.36 58.41 57.57 56.54 56.39 56.12 53.57 49.12 46.28 44.04 42.93 43.66 44.09 38.06 33.71 34.74 33.71 36.30 36.78 37.10 38.10 37.12 36.59 38.48 40.38 42.07 42.50 42.49 42.58 42.66 42.68 43.10 43.44 43.90 44.43
58.19 58.79 60.43 60.70 59.96 59.16 59.16 57.86 56.43 55.75 55.15 54.30 53.59 52.84 47.63 42.28 41.35 41.39 39.56 38.79 40.13 38.58 35.54 34.25 33.22 34.48 35.15 35.60 36.85 37.97 36.99 38.78 39.93 41.47 41.70 41.39 41.31 41.62 41.86 42.06 42.30 42.68 43.15
55.32 55.87 56.90 57.55 57.01 57.25 56.18 54.70 53.68 53.08 52.50 49.42 47.96 44.49 39.55 38.84 37.91 37.98 37.88 38.85 37.33 37.22 36.27 32.32 33.73 33.86 34.14 34.91 35.83 35.66 36.04 35.61 36.14 39.78 40.51 40.54 40.78 40.71 41.06 41.20 41.29 41.68 41.89
52.45 52.42 52.36 53.44 53.92 52.57 51.64 50.53 47.59 47.10 44.03 41.13 40.01 38.97 37.27 37.86 36.56 37.31 37.56 36.32 36.33 37.72 35.68 33.57 32.98 32.03 32.39 33.37 33.96 34.17 35.25 36.60 36.44 38.16 39.45 39.51 39.84 39.99 40.08 39.94 40.09 40.44 40.75
47.52 47.99 47.62 47.80 46.63 46.27 44.87 42.84 41.03 39.42 38.50 38.42 38.01 36.82 36.83 36.67 35.82 36.42 35.79 34.72 34.49 34.91 33.63 33.49 32.14 33.38 33.58 33.72 33.66 34.86 34.94 35.18 36.09 37.91 39.03 39.14 38.83 38.77 39.12 39.49 39.78 40.05 40.15
41.89 42.56 42.53 42.86 42.28 41.47 40.59 40.37 38.95 37.93 37.70 37.50 37.54 37.38 37.20 36.98 35.66 34.22 34.02 33.23 33.57 32.77 33.62 33.79 33.65 33.63 34.07 34.60 33.74 31.78 31.19 34.02 33.15 35.23 36.24 36.81 37.88 38.18 38.74 38.96 38.96 38.69 38.59
39.84 39.79 39.42 39.53 39.67 39.64 39.06 38.32 37.98 37.25 36.60 35.73 35.36 35.37 35.52 36.73 37.57 36.69 34.85 34.49 34.41 34.20 33.71 32.98 32.29 32.38 31.93 32.06 31.23 31.98 30.40 31.01 31.74 32.68 32.03 32.55 32.92 33.30 34.09 36.89 37.23 37.77 37.99
40.00 40.32 40.26 39.83 39.60 40.19 40.97 40.13 37.60 35.29 34.83 33.69 32.51 32.81 33.99 35.50 37.46 38.58 37.91 37.38 35.91 34.10 33.24 33.08 32.77 30.71 30.36 30.58 31.18 30.19 29.96 27.61 25.82 32.20 29.92 30.09 32.79 31.63 32.70 33.79 37.17 37.77 38.04
35.74 35.84 35.70 35.68 36.66 38.74 39.97 39.07 37.25 33.43 32.59 32.40 32.62 32.79 33.12 33.65 33.32 32.76 33.68 33.79 34.12 34.95 34.69 33.54 30.53 30.32 29.83 30.90 30.17 28.66 28.19 28.02 27.43 29.89 29.97 27.83 31.30 30.36 32.49 34.17 36.97 37.29 37.46
34.38 34.17 33.59 33.65 34.32 36.04 38.32 37.69 35.58 31.82 31.82 32.10 32.58 32.35 31.98 31.71 31.89 32.37 31.87 31.78 31.63 32.15 32.52 32.72 31.84 31.61 31.66 31.87 31.13 30.95 29.74 29.58 30.07 30.76 31.34 26.21 29.96 29.21 31.49 32.31 36.26 36.66 36.77
33.58 33.12 33.30 32.97 32.55 33.50 35.23 34.70 33.41 32.22 31.31 31.47 32.20 32.35 31.90 30.94 30.78 31.84 31.92 31.60 30.57 30.99 34.10 33.30 33.15 33.12 33.38 33.66 33.25 30.06 27.16 26.30 25.87 27.08 29.81 27.54 27.86 28.17 29.07 29.16 30.69 35.10 36.06
33.08 34.31 33.69 34.60 35.03 33.30 34.64 34.25 33.63 32.22 30.56 30.24 30.72 30.21 30.60 31.20 32.25 32.95 32.16 31.02 28.87 28.46 29.01 29.16 29.08 30.44 31.36 30.43 32.42 29.32 27.97 24.77 25.83 24.71 28.76 25.07 26.17 26.48 24.19 27.72 28.61 29.80 29.75

GFSMA_sfc_wetblb_054.txt.gz
Wetbulb
63.39 63.13 62.09 61.87 62.62 63.04 62.83 64.02 63.15 61.69 57.55 56.36 55.63 55.22 54.37 54.08 53.73 58.01 58.95 63.26 64.42 63.44 62.27 61.61 60.59 59.93 59.40 59.08 58.83 58.15 57.96 57.92 58.27 57.93 57.86 58.07 58.00 57.98 58.07 58.09 58.12 58.35 58.62
63.50 63.57 63.26 62.51 61.43 61.74 62.59 63.83 63.40 59.94 57.32 55.93 54.10 53.85 53.18 52.90 52.57 56.04 58.31 60.29 63.14 63.24 61.69 61.02 60.55 59.61 59.33 58.70 58.56 57.09 56.60 56.41 56.60 56.70 56.49 56.48 56.29 56.43 56.71 56.75 56.75 56.96 57.25
63.45 63.15 62.98 62.77 62.75 62.19 61.65 61.51 61.22 60.29 56.81 55.15 52.92 52.24 52.42 52.16 52.04 52.75 57.70 57.54 59.79 61.18 61.87 60.90 59.83 59.11 59.24 58.56 58.33 56.66 55.00 54.85 54.32 54.48 54.40 54.27 54.49 54.92 55.24 55.42 55.60 55.73 56.13
63.75 62.85 62.56 62.40 62.98 63.00 61.72 60.84 60.12 58.65 55.86 53.28 51.53 50.90 50.85 51.81 51.32 51.24 53.64 56.58 55.91 55.86 59.59 61.29 59.42 58.33 58.32 58.44 58.12 56.51 54.37 53.48 53.01 52.49 52.39 52.26 52.59 53.05 53.48 54.36 54.92 55.16 55.40
65.04 63.90 62.27 62.32 62.81 62.33 62.12 61.51 59.81 58.08 54.65 52.56 51.83 50.90 49.54 50.21 50.66 51.86 51.50 52.35 54.07 53.56 52.64 58.30 58.60 58.39 57.97 57.16 57.08 56.19 54.58 52.84 51.77 51.31 51.51 51.78 51.91 52.10 52.68 53.33 53.91 54.57 55.53
65.33 64.23 63.09 62.32 62.47 61.51 61.58 61.11 59.33 58.15 55.23 53.81 53.61 51.86 48.89 48.87 49.83 49.40 49.06 51.88 51.29 51.34 51.12 50.71 50.12 50.76 56.92 55.65 55.90 55.43 54.42 52.89 51.75 51.26 51.11 51.28 51.50 51.73 52.43 53.08 53.81 54.59 55.19
65.86 64.22 64.15 63.48 62.71 62.20 62.27 61.94 59.94 57.80 55.19 54.11 50.43 47.77 47.37 47.96 47.32 48.31 48.94 48.81 49.98 50.34 49.09 48.12 47.27 46.38 49.04 54.97 54.57 54.08 53.23 52.67 52.10 51.45 51.25 51.56 51.53 51.93 52.55 53.23 54.03 54.72 55.39
66.63 65.35 64.09 63.89 63.05 62.07 60.80 61.79 61.14 58.63 55.35 54.50 48.85 45.98 43.40 45.34 46.24 46.74 46.92 48.64 48.19 48.80 48.64 47.80 46.88 45.74 44.93 45.01 46.43 52.78 52.00 52.15 51.94 50.74 50.95 51.29 51.71 52.17 53.12 54.06 54.47 54.78 55.37
65.64 66.38 65.88 64.73 62.25 62.12 61.25 61.06 61.27 59.06 56.63 53.44 51.47 48.95 46.30 45.21 42.96 44.73 45.27 46.14 46.79 46.10 46.71 46.91 46.41 46.47 44.68 44.08 47.94 48.85 49.93 49.59 49.78 50.65 51.21 51.27 51.28 51.54 52.29 53.24 53.90 54.23 54.68
64.95 65.17 64.64 64.73 65.39 64.79 63.16 62.09 61.22 59.86 56.61 53.12 51.27 52.85 51.49 48.33 43.73 39.65 42.81 43.40 45.47 45.91 45.93 44.98 45.70 45.71 44.91 43.69 46.39 46.36 48.00 48.05 49.77 50.44 50.76 50.53 50.37 50.85 51.54 52.60 53.53 54.03 54.21
64.07 63.93 64.05 64.16 63.56 64.36 63.56 63.14 61.77 61.53 59.98 56.50 53.10 49.89 51.01 46.47 43.65 42.43 37.96 41.22 43.06 44.09 44.72 45.87 45.03 44.69 44.03 43.11 42.63 46.40 48.45 48.69 49.07 49.33 49.69 49.33 49.62 50.07 51.08 51.96 52.59 52.97 52.66
60.51 62.60 62.75 63.12 63.28 63.00 63.08 62.49 62.85 61.27 61.11 58.96 55.42 52.47 50.53 50.76 46.71 42.63 43.64 41.21 41.62 42.39 44.35 44.50 43.96 42.67 41.56 41.78 44.55 47.32 47.74 47.23 47.33 47.28 47.29 47.74 48.28 49.20 49.84 50.55 50.44 50.78 50.73
58.54 60.24 61.11 61.35 61.93 62.32 62.43 62.37 61.75 61.63 60.37 58.57 56.92 53.20 52.73 52.01 52.16 49.49 48.43 43.53 40.83 38.43 40.56 39.30 40.38 40.92 41.61 40.84 43.05 45.60 45.94 44.88 43.82 43.93 45.10 46.81 47.14 47.24 47.66 47.98 48.63 49.07 49.26
54.27 58.33 60.18 59.96 60.58 61.22 60.77 61.10 61.08 60.86 60.65 59.35 57.76 57.25 53.39 52.47 52.35 49.93 48.59 44.80 38.93 35.94 36.51 37.20 38.21 39.38 39.41 39.68 42.12 43.16 40.92 43.05 41.72 42.45 43.81 44.93 45.33 45.74 46.01 45.97 46.29 46.52 46.83
55.05 54.55 55.22 57.11 59.27 60.48 60.41 59.89 59.87 59.69 59.39 58.07 57.09 56.22 55.17 50.04 45.73 46.18 46.23 45.81 45.17 39.54 36.91 34.54 34.30 36.82 37.22 38.04 40.58 37.57 37.37 39.74 40.56 41.55 43.02 44.15 44.54 44.52 44.45 44.11 44.20 44.54 44.76
52.49 52.89 53.31 53.96 55.73 57.73 58.50 58.12 57.73 57.06 56.43 55.05 54.63 53.86 49.92 44.78 43.54 43.80 43.02 41.89 42.42 41.72 35.45 34.82 34.03 34.95 36.93 37.69 39.49 38.17 37.63 38.72 39.77 41.91 43.24 44.09 43.86 43.13 42.81 42.93 43.10 43.48 43.64
49.68 50.71 51.40 51.17 52.41 54.49 54.60 54.59 54.10 53.54 53.07 50.61 49.02 47.31 42.92 41.80 39.83 39.24 40.01 39.72 39.40 39.46 36.44 33.16 34.33 34.17 33.72 35.08 36.72 36.58 37.04 36.85 37.06 40.85 41.90 42.32 41.98 41.51 41.73 41.96 42.09 42.44 42.48
44.63 46.43 47.61 47.46 46.97 46.68 45.66 46.31 46.57 45.47 45.05 42.21 40.72 39.85 38.47 39.17 37.98 39.39 39.82 38.19 37.63 37.73 36.68 33.45 32.90 32.51 33.02 33.96 34.65 34.66 36.01 37.52 36.78 38.51 39.84 40.57 40.38 40.54 41.00 41.18 40.78 40.84 41.21
41.61 41.98 42.83 42.14 41.99 42.00 41.58 40.90 40.53 40.01 40.18 39.57 39.44 39.17 37.59 37.43 36.81 36.79 36.36 35.37 35.04 35.49 34.68 34.40 31.75 33.22 33.71 34.02 33.35 33.87 34.09 34.59 35.58 37.85 39.13 39.41 39.34 39.24 39.42 39.89 40.33 40.55 40.62
40.08 40.04 40.08 39.95 39.96 39.75 39.59 39.18 38.90 38.17 37.88 37.77 37.76 37.63 37.40 37.01 35.91 34.65 34.15 33.49 34.08 33.45 33.67 33.27 33.15 33.49 33.72 33.23 31.17 30.44 30.22 32.08 30.48 34.15 35.08 36.39 37.65 38.18 38.66 39.07 39.26 38.98 38.95
40.41 40.29 39.79 39.82 39.83 39.76 39.12 38.00 37.63 36.82 35.77 35.44 36.08 36.28 36.13 37.48 37.94 36.96 35.30 34.46 34.52 33.33 33.02 31.24 30.62 30.52 31.43 31.19 29.57 30.30 27.94 28.06 27.92 28.63 27.69 27.62 28.69 28.93 30.51 35.65 36.46 37.16 37.79
36.95 37.21 37.41 37.64 38.32 39.50 40.72 39.67 36.30 34.15 33.81 33.26 32.67 33.35 34.45 36.76 38.61 39.16 38.39 37.44 36.23 33.42 32.48 32.18 30.41 28.24 27.01 27.32 27.72 27.62 25.54 24.50 21.88 28.31 26.22 26.86 28.48 28.62 28.97 29.95 35.94 37.62 38.33
35.59 35.31 35.32 35.88 36.68 37.98 39.86 39.18 37.08 32.87 32.21 32.19 32.37 32.87 33.24 33.87 33.39 32.97 34.95 34.78 34.37 35.14 34.70 31.32 28.25 27.22 26.48 27.99 25.88 24.72 24.95 23.35 23.18 26.95 26.38 25.76 27.08 27.21 28.80 32.19 36.10 37.06 37.73
33.88 33.85 32.81 33.58 35.00 37.02 38.25 37.67 35.96 32.00 31.82 32.00 32.07 32.18 31.66 31.07 31.32 31.89 29.81 29.29 28.75 29.36 30.59 31.28 28.46 28.20 28.33 28.52 27.87 25.07 23.35 24.78 26.26 27.09 27.27 22.39 25.43 26.07 28.58 28.11 35.22 36.15 36.45
32.65 32.10 32.55 31.54 30.29 30.99 35.67 35.33 32.30 29.73 29.15 28.75 30.13 29.59 29.05 27.90 31.80 32.90 30.19 28.98 27.70 27.58 33.98 33.75 33.23 33.42 33.33 33.69 32.62 26.51 21.47 19.71 20.40 23.91 26.03 23.62 24.04 24.11 26.29 27.63 28.38 34.30 35.47
32.05 32.74 32.22 26.31 33.68 28.78 35.53 35.12 31.55 28.03 25.12 26.28 25.61 26.71 31.85 30.36 32.93 33.63 28.41 25.85 24.48 24.07 24.82 25.45 25.36 27.02 28.75 27.66 32.48 27.10 22.80 13.89 15.79 20.89 24.83 19.17 20.67 21.07 20.09 23.98 24.40 26.63 27.26

GFSMA_sfc_wetblb_057.txt.gz
Wetbulb
60.65 61.72 61.41 61.08 61.60 61.85 62.79 62.58 61.63 59.85 56.89 55.19 54.29 53.86 53.74 53.95 52.63 59.55 60.95 63.43 65.02 64.43 63.50 62.61 61.84 61.15 60.59 60.24 59.82 59.07 58.96 59.12 58.87 58.68 58.93 58.84 58.63 58.66 58.72 58.85 59.00 59.07 59.11
62.58 61.37 60.73 60.49 60.74 61.37 62.27 62.89 62.79 61.44 58.11 55.15 54.36 52.87 52.41 51.98 51.13 58.02 58.33 61.38 64.23 64.07 62.97 62.31 61.76 61.17 60.77 60.11 59.71 58.66 58.37 58.53 58.13 57.89 57.80 57.37 57.42 57.36 57.51 57.44 57.41 57.58 57.86
62.34 62.79 61.72 60.33 60.56 60.68 61.85 60.96 62.15 60.26 56.41 55.25 53.15 51.88 51.35 50.78 50.24 56.92 57.43 58.89 60.88 62.16 62.92 61.96 61.67 60.93 60.58 60.25 60.02 58.16 57.41 56.80 56.99 56.33 56.36 56.02 56.09 56.15 56.13 56.27 56.11 56.33 56.56
62.36 61.80 61.68 61.42 61.91 60.98 60.58 59.31 59.10 58.25 55.49 53.31 51.07 50.29 49.91 50.38 50.23 51.43 56.54 57.21 57.27 57.61 61.23 62.26 61.64 60.58 60.58 60.25 60.18 58.74 56.91 56.11 55.33 54.94 54.50 54.30 54.32 54.44 54.80 55.09 55.20 55.17 55.34
63.46 62.04 61.38 61.47 61.74 61.36 60.48 60.17 58.78 57.95 54.88 52.36 50.92 49.93 48.81 49.22 49.82 50.71 52.24 55.43 55.45 54.93 54.79 60.10 60.93 60.17 60.45 59.88 60.00 59.15 56.99 55.56 54.75 54.22 53.94 53.65 53.40 53.52 53.76 53.98 54.26 54.36 54.81
64.14 62.63 62.16 61.51 61.42 60.52 60.36 59.91 58.63 57.33 55.21 53.26 52.93 51.28 48.85 48.05 49.16 48.76 48.55 53.81 54.98 53.81 52.92 53.18 54.79 54.70 58.96 59.60 59.12 59.07 57.26 55.59 54.19 53.56 53.40 53.46 53.23 53.00 53.33 53.34 53.74 54.11 54.52
64.40 63.13 62.94 61.99 61.10 61.08 61.38 60.43 59.08 57.54 54.77 52.87 49.76 48.00 46.36 46.47 46.80 48.00 47.84 48.09 50.92 52.71 51.77 51.90 51.34 49.40 52.89 58.72 58.37 57.98 56.98 56.23 54.49 53.88 53.34 53.19 53.11 53.17 53.45 53.55 54.02 54.38 54.63
64.82 64.23 62.85 61.84 61.12 60.57 59.48 59.88 59.78 57.09 56.94 53.77 50.09 45.33 43.39 44.37 45.69 46.13 46.48 47.91 47.70 49.49 50.46 50.77 49.17 47.17 47.16 49.16 50.19 57.41 56.38 55.79 55.19 54.49 53.19 53.23 53.34 53.47 53.71 54.08 54.36 54.42 54.54
64.66 65.03 64.18 63.25 62.72 60.49 60.52 59.42 60.11 58.92 57.48 54.47 51.93 48.22 43.66 42.76 42.51 44.14 45.88 46.71 47.17 46.95 48.67 48.61 48.22 47.42 45.81 45.39 49.77 52.47 55.35 54.33 54.17 54.36 53.33 53.43 53.40 53.46 53.55 53.55 53.66 53.91 54.06
63.92 64.07 63.99 63.75 62.18 62.04 61.56 61.06 59.86 59.05 56.32 54.55 53.15 52.32 50.74 47.72 43.21 41.71 42.14 43.92 45.65 46.68 47.05 46.75 46.44 46.35 45.76 45.10 47.87 49.84 52.99 52.00 52.22 52.76 53.63 53.79 53.41 52.99 52.90 52.92 53.24 53.59 53.70
63.51 63.72 63.71 62.32 61.52 61.06 61.53 61.04 61.21 60.36 60.13 59.23 54.69 51.84 50.78 49.60 46.94 42.99 40.84 42.20 44.06 45.73 46.89 48.26 46.02 44.93 44.03 44.23 44.86 47.85 51.00 50.39 50.81 52.04 53.05 52.90 52.50 52.06 52.03 52.49 53.04 52.80 52.53
57.21 60.52 62.18 62.52 61.93 61.29 62.09 62.02 61.72 60.78 60.63 59.96 58.17 56.00 52.99 51.71 50.49 44.12 42.92 42.85 44.29 46.71 46.51 45.72 44.79 44.21 43.13 43.26 45.73 48.67 49.79 49.60 50.20 50.92 51.09 51.02 50.63 50.42 51.04 51.31 51.69 51.14 50.96
52.31 54.18 58.76 60.96 59.64 60.18 60.60 60.96 60.79 61.20 60.11 59.70 59.01 55.57 55.15 53.50 53.62 50.46 47.98 43.75 43.10 42.69 41.91 40.90 41.21 41.95 42.58 43.02 44.86 48.16 48.89 48.32 48.14 47.84 47.34 48.00 48.83 49.15 48.87 49.46 49.80 50.11 50.20
51.38 52.60 53.47 54.33 57.24 58.68 59.16 59.78 60.38 60.53 60.58 59.23 57.92 57.20 55.02 54.18 52.95 52.17 49.49 47.43 40.97 37.93 38.14 38.80 38.96 40.18 41.25 43.00 45.46 46.34 45.16 45.79 44.74 44.65 45.69 46.68 47.10 47.26 47.21 48.04 48.51 48.44 48.02
52.13 51.23 51.72 51.94 52.92 56.45 57.25 57.13 57.24 58.73 58.97 58.90 57.79 57.71 56.83 54.38 52.51 52.27 50.49 49.33 48.94 44.90 37.51 37.01 37.35 38.16 39.05 41.59 44.12 40.35 40.47 44.98 44.50 44.43 44.90 44.70 45.31 45.95 46.40 46.86 46.60 46.08 45.84
48.52 48.92 49.19 49.52 50.72 52.76 53.52 54.76 56.03 56.62 56.22 56.10 54.36 54.79 52.06 47.83 47.05 46.54 45.32 44.30 44.55 46.27 41.66 36.01 35.60 36.08 38.57 40.07 41.95 38.71 38.98 41.68 43.48 44.23 44.08 43.88 44.45 45.46 46.03 45.14 44.74 44.46 44.43
42.86 43.95 46.00 45.63 45.83 45.70 46.11 48.09 49.41 50.30 51.93 49.54 46.78 45.65 42.17 42.56 41.17 42.46 42.43 41.05 41.10 41.68 38.34 34.28 35.36 35.42 35.47 36.66 38.56 37.55 38.33 37.83 38.04 41.39 42.68 43.70 45.00 45.08 43.75 42.92 42.86 42.98 43.16
40.24 40.73 41.06 41.33 41.12 42.16 41.75 42.72 43.07 43.05 43.11 41.95 41.38 41.33 39.96 40.07 39.37 40.26 40.41 39.65 39.69 38.83 37.56 34.13 32.74 32.10 32.63 34.39 35.53 35.30 36.20 37.37 37.57 39.69 42.42 43.00 42.17 41.74 41.69 41.99 41.92 41.20 41.21
38.89 39.32 39.92 40.27 40.18 40.54 40.23 40.35 39.98 39.73 39.57 39.60 39.81 39.71 39.52 39.51 38.26 37.50 37.03 35.97 36.11 36.24 35.32 34.44 32.10 33.35 33.62 34.22 33.74 34.74 34.96 35.27 36.67 38.45 39.83 40.33 40.55 40.16 39.89 40.00 40.25 40.49 40.75
40.19 40.05 40.19 40.07 39.90 39.28 38.95 38.67 38.19 37.56 37.36 37.34 37.53 37.51 37.36 36.93 35.99 34.78 34.52 34.00 34.58 34.34 34.53 34.00 33.31 33.14 33.58 34.06 33.53 32.13 31.33 33.18 32.07 33.80 35.20 36.30 37.43 37.73 38.58 38.71 38.76 38.35 38.44
39.00 39.12 39.27 39.05 39.46 39.20 38.47 36.77 36.55 36.01 35.50 34.99 35.62 37.02 37.40 38.34 38.69 37.54 35.57 34.88 34.62 33.69 32.97 32.13 31.87 31.94 32.05 31.28 30.62 30.99 28.71 26.92 26.74 27.47 26.85 27.40 28.19 28.33 29.69 34.70 35.48 36.43 36.98
36.57 36.47 36.99 38.01 38.36 39.10 39.80 39.26 35.99 34.50 34.21 33.67 33.11 33.85 35.36 36.18 38.02 40.13 39.26 38.18 36.65 33.72 32.53 32.35 31.36 29.63 28.58 26.98 26.84 26.80 25.20 24.14 21.89 26.62 25.88 25.61 27.12 27.12 28.15 28.92 35.00 36.87 37.82
34.25 34.28 35.58 36.97 37.41 38.55 40.14 39.03 36.77 32.78 32.26 32.39 32.38 32.19 32.40 32.73 32.82 32.46 34.64 34.89 34.62 35.62 34.96 30.76 28.23 26.40 25.26 26.88 24.75 24.10 24.93 23.21 22.61 25.79 25.83 24.32 26.36 25.90 27.25 30.65 35.37 36.35 37.20
32.96 33.10 33.45 34.27 35.55 36.46 37.44 37.04 35.20 28.01 28.04 28.96 29.12 29.80 29.01 28.59 30.44 30.85 29.89 29.41 28.96 28.92 29.72 30.63 27.60 26.79 26.72 27.05 26.85 24.27 21.95 22.62 24.87 25.74 25.82 18.34 24.20 24.66 26.27 26.74 34.17 35.27 35.93
32.22 29.08 27.79 25.21 24.56 28.01 35.68 34.94 30.62 26.50 26.04 25.98 26.46 27.32 26.94 26.68 33.24 34.17 28.16 26.74 26.39 26.50 32.27 33.88 33.24 33.47 33.55 33.54 32.10 25.17 20.13 17.54 19.08 23.32 25.32 22.91 22.72 23.09 24.57 24.76 26.65 33.19 34.59
31.78 31.51 25.53 22.79 33.14 27.76 35.46 34.56 28.58 24.81 22.42 24.46 23.63 25.32 32.18 30.37 33.31 33.41 26.77 24.79 23.40 23.49 24.49 25.10 24.72 26.36 27.37 26.17 32.04 26.64 22.60 12.49 13.10 15.58 23.88 17.96 19.45 20.65 18.70 22.96 23.56 26.29 25.93

GFSMA_sfc_wetblb_060.txt.gz
Wetbulb
59.28 60.88 61.39 61.43 61.36 61.47 62.48 61.88 60.76 59.88 57.25 54.77 54.49 55.11 53.56 52.74 53.80 60.03 61.27 63.60 65.66 65.78 64.64 64.02 62.86 61.83 61.28 60.97 60.22 59.86 59.90 59.79 59.39 59.46 59.72 59.81 59.70 59.58 59.54 59.64 59.72 59.75 59.84
60.22 60.89 61.14 61.04 60.86 61.40 62.24 62.32 62.08 60.94 59.44 55.84 54.04 52.82 52.56 52.22 51.01 58.28 59.83 61.12 64.45 65.13 64.64 63.67 62.91 62.11 61.75 61.31 60.66 59.68 59.48 59.58 59.18 59.15 58.72 58.46 58.51 58.58 58.58 58.41 58.34 58.51 58.66
61.11 60.81 60.71 60.41 60.49 60.63 61.25 61.33 61.58 61.33 59.82 58.10 54.32 53.45 52.30 51.09 49.91 56.56 58.16 59.44 61.71 62.90 64.20 63.66 62.93 62.35 61.78 61.48 61.15 59.85 59.25 59.18 58.76 58.51 57.97 57.56 57.42 57.34 57.44 57.32 57.24 57.36 57.51
61.73 61.32 61.00 60.40 60.43 59.35 60.35 59.95 60.80 60.23 59.01 56.91 54.98 52.25 50.77 50.18 49.71 52.25 56.82 58.38 58.55 59.51 62.15 63.61 62.99 62.43 61.88 61.56 61.45 60.23 58.97 58.09 57.81 57.20 56.99 56.55 56.44 56.45 56.49 56.38 56.22 56.29 56.35
62.44 62.09 62.04 62.07 61.18 60.33 59.39 59.17 58.43 58.43 57.07 54.33 52.56 51.03 49.51 48.79 49.21 49.81 54.91 56.03 56.81 57.40 56.79 60.66 62.02 61.94 61.99 61.42 61.47 61.15 59.05 57.63 56.55 56.25 55.69 55.37 55.26 55.11 55.36 55.45 55.55 55.77 56.00
63.09 61.68 61.05 60.88 60.98 60.35 59.79 58.53 58.19 57.01 56.25 56.22 54.69 52.06 49.08 48.11 48.11 47.96 48.34 55.84 55.90 55.75 54.65 54.58 57.44 57.90 60.44 61.56 60.97 61.15 60.04 57.87 56.55 55.65 55.32 55.07 54.73 54.50 54.94 54.91 55.15 55.36 55.60
64.28 62.57 61.69 60.84 60.34 59.97 60.57 59.83 58.79 57.35 56.80 53.29 52.42 49.01 46.82 47.53 46.37 47.55 47.19 48.83 54.22 54.86 53.46 53.25 54.24 52.94 55.10 60.38 61.03 60.50 60.21 58.61 56.68 55.32 54.77 54.97 54.69 54.45 54.76 54.72 55.02 55.21 55.52
64.58 64.09 62.27 61.59 60.63 59.85 59.26 58.97 58.50 56.86 56.31 54.02 52.15 47.95 48.40 47.74 45.94 47.25 46.33 47.49 48.19 53.14 53.08 52.62 52.23 50.47 49.66 52.00 53.69 59.76 59.55 58.93 57.89 56.05 55.00 54.57 54.37 54.40 54.69 55.00 55.27 55.63 55.50
63.67 63.40 63.52 62.61 61.35 59.98 59.92 58.56 58.18 57.45 58.33 53.51 52.45 53.19 43.91 45.22 43.46 44.33 45.05 47.09 47.63 47.37 51.00 52.88 51.04 50.39 48.18 48.80 52.88 55.13 57.63 58.59 57.57 57.06 56.06 54.76 54.49 54.69 54.99 55.11 55.18 54.90 54.85
62.37 63.06 62.72 62.45 62.53 61.34 59.98 60.18 59.23 58.56 57.49 57.59 52.90 54.08 50.90 47.71 43.85 43.70 42.72 42.73 44.20 45.50 46.53 47.61 50.30 50.17 49.55 48.17 49.52 51.35 54.71 56.65 56.06 55.99 56.01 54.73 54.78 54.64 54.85 54.38 54.43 54.43 54.46
55.62 60.55 62.12 61.88 60.49 61.45 61.21 60.34 59.29 57.85 58.49 58.72 55.25 52.20 53.49 51.51 49.30 46.66 48.13 43.76 46.91 47.04 49.03 48.27 47.61 47.65 48.18 47.71 46.66 49.46 54.09 54.23 54.97 54.22 53.89 53.90 54.28 54.14 53.87 53.71 53.79 54.11 53.76
52.73 53.43 56.19 59.54 60.59 60.12 59.49 59.59 59.52 58.72 58.98 58.99 59.33 57.46 55.73 52.39 51.93 49.66 45.51 45.64 44.32 47.46 48.44 48.53 47.69 46.85 46.93 46.20 47.31 49.55 52.39 52.52 52.53 51.90 51.15 52.51 53.70 53.21 52.23 52.48 52.67 52.81 52.54
49.84 50.74 52.14 52.84 54.94 57.65 58.95 58.98 58.31 57.47 57.29 57.35 57.51 58.20 57.49 56.20 55.63 53.74 51.36 50.66 44.40 43.91 44.75 42.27 42.50 43.58 44.60 44.53 45.80 47.94 50.23 50.89 50.86 51.54 51.98 53.65 50.71 49.29 49.50 49.62 50.74 51.75 51.99
49.77 50.01 50.54 51.03 52.34 55.01 56.24 56.56 56.74 56.79 57.00 56.49 56.72 57.86 57.41 56.16 55.45 53.87 52.57 51.10 42.59 41.04 39.50 41.87 40.43 42.09 43.51 44.39 46.56 48.18 47.94 50.04 49.80 50.50 50.54 50.24 49.18 49.00 48.51 48.42 49.65 50.34 50.41
48.91 48.39 48.77 49.03 49.80 50.82 53.10 55.98 55.99 56.77 54.93 55.07 56.09 56.47 56.45 56.68 53.82 53.10 52.08 50.16 48.55 44.10 39.95 38.73 38.51 39.22 40.70 43.78 46.45 45.31 45.71 48.35 48.58 48.42 48.74 48.72 48.26 48.05 47.71 47.42 47.67 48.61 48.80
43.28 44.99 45.60 45.59 45.50 45.36 46.37 48.42 48.80 49.07 51.64 51.76 51.54 52.49 49.96 47.43 46.10 45.25 44.81 45.17 45.70 44.65 42.09 38.06 36.72 37.18 39.64 41.61 44.74 41.24 42.09 45.88 47.84 47.93 47.08 46.50 46.17 46.27 46.37 46.69 47.52 47.41 47.03
39.98 40.62 41.24 41.16 41.23 41.16 41.59 42.70 43.34 43.78 44.82 44.83 44.22 43.72 42.32 42.84 42.14 42.43 42.71 42.91 42.99 42.93 40.30 36.15 36.30 36.15 36.42 38.12 39.78 38.71 40.70 39.49 39.96 44.16 45.78 45.69 45.41 45.22 45.72 46.50 45.54 44.58 44.58
38.83 38.92 39.27 39.00 39.15 39.31 39.37 39.26 39.56 40.05 40.42 40.77 41.10 40.76 39.81 41.03 40.02 40.75 40.77 39.76 40.05 38.83 37.77 35.66 33.59 32.98 33.26 35.58 36.15 36.17 37.46 38.41 37.67 39.50 41.90 42.86 43.97 44.70 43.62 43.08 42.76 42.98 42.75
38.30 38.73 38.74 38.56 38.27 38.78 39.26 39.63 39.16 38.62 38.20 38.11 38.35 38.34 38.28 38.55 37.24 37.08 36.79 36.17 36.02 36.80 35.99 34.91 32.45 33.53 33.31 34.07 34.08 35.11 35.25 35.63 37.30 39.03 40.63 41.20 41.68 41.87 41.84 41.26 40.82 40.81 40.99
38.83 39.03 38.93 39.16 39.16 38.16 37.62 37.26 37.60 37.21 37.22 37.36 37.66 37.40 37.03 36.67 35.82 35.02 34.84 34.62 35.42 35.02 35.12 34.23 33.34 33.16 33.67 34.00 33.90 33.18 32.98 34.71 33.60 34.84 36.15 36.56 37.14 37.90 38.73 39.00 39.11 39.18 38.79
37.90 38.50 38.37 38.49 38.63 38.26 37.66 34.48 35.44 36.13 36.01 35.56 35.66 36.78 38.33 39.74 40.26 38.47 35.99 35.15 34.80 33.88 33.31 32.84 32.34 32.55 32.69 31.91 31.44 32.19 30.61 28.23 27.02 27.35 26.97 27.21 27.68 27.73 28.81 33.77 34.99 36.73 37.29
36.16 37.29 37.92 38.42 38.71 39.04 40.63 38.87 35.75 34.10 33.89 33.75 33.07 33.27 33.95 35.12 35.23 40.43 40.02 39.08 36.87 33.56 32.53 32.08 30.86 29.74 27.99 26.09 25.76 26.27 23.32 22.33 20.10 26.03 25.32 25.29 26.47 25.57 26.75 27.36 34.15 36.41 37.51
35.03 35.17 35.97 37.14 37.03 38.36 39.98 38.72 35.98 32.63 31.67 30.42 29.88 28.29 30.53 32.58 32.61 31.90 33.54 33.87 33.78 35.51 35.07 30.03 27.61 26.00 24.69 26.01 21.83 22.16 23.96 21.20 20.96 24.55 25.06 23.00 25.36 25.15 26.71 29.50 34.93 36.17 37.03
33.32 33.55 32.18 30.95 30.18 33.40 36.36 35.67 34.02 22.64 21.82 21.92 23.92 25.65 25.52 25.68 28.42 28.81 27.58 27.19 26.89 27.08 28.12 29.38 26.47 25.96 26.06 26.43 26.46 23.72 21.87 22.33 24.40 25.18 25.10 17.37 23.57 24.20 25.58 25.98 33.17 34.86 35.97
27.37 24.28 24.15 24.07 24.75 27.34 35.57 34.42 28.98 24.60 24.30 23.44 25.58 26.07 26.54 26.50 33.51 34.30 27.19 25.70 25.45 25.72 30.60 33.33 32.64 33.14 33.34 33.69 31.07 24.88 20.17 16.86 18.50 22.68 24.78 22.66 21.99 22.62 24.06 24.20 26.28 33.06 34.13
25.83 25.09 24.82 21.61 32.46 26.78 35.36 33.81 28.01 24.49 22.08 24.25 23.48 24.62 31.82 30.40 33.23 32.95 26.32 24.33 23.33 23.58 24.51 25.10 24.25 25.36 25.84 25.19 30.78 26.01 21.80 11.64 12.54 14.51 23.26 17.64 18.92 19.94 17.01 22.61 23.43 25.59 25.65

GFSMA_sfc_wetblb_063.txt.gz
Wetbulb
58.63 59.71 59.95 60.50 60.89 61.10 61.59 61.74 60.98 59.96 58.37 56.00 55.28 55.38 55.85 54.15 53.15 59.15 60.67 63.35 66.07 67.17 65.83 65.53 64.18 62.65 61.65 61.37 60.47 60.09 59.94 59.80 59.50 59.56 59.93 60.05 60.20 60.23 60.00 59.91 59.93 60.08 60.16
59.19 59.59 60.29 60.61 60.40 60.56 61.06 61.56 61.40 60.16 59.26 57.75 55.54 53.78 54.22 54.44 52.54 56.68 59.70 60.75 64.64 66.04 66.19 65.14 64.53 63.15 62.41 61.96 61.12 60.09 60.02 59.75 59.32 59.39 59.27 59.03 58.97 59.05 59.21 58.97 58.83 58.84 58.98
60.07 59.79 60.09 60.09 60.75 60.31 60.48 60.70 60.61 60.46 59.73 59.11 56.37 54.34 52.55 51.97 51.07 51.52 57.64 59.02 60.77 63.39 65.17 64.93 64.53 63.65 62.73 62.41 62.05 60.84 60.01 59.94 59.33 59.21 58.58 58.32 58.16 58.14 58.08 57.92 57.82 57.93 58.01
61.45 59.91 59.69 59.88 60.48 59.28 59.69 59.56 59.97 59.43 59.73 58.90 57.80 55.57 52.81 51.20 50.39 49.49 55.20 57.68 58.76 60.19 62.40 64.90 64.95 63.91 63.14 62.63 62.40 61.63 60.29 59.72 59.19 58.78 58.17 57.65 57.33 57.26 57.28 57.04 56.91 56.86 56.98
62.86 61.63 60.52 60.34 59.70 59.31 58.88 59.29 58.49 59.07 57.89 58.30 57.39 57.12 53.93 50.88 50.06 50.28 51.13 55.48 57.19 58.78 57.91 60.81 62.99 63.18 63.43 62.71 62.65 62.49 61.03 59.53 58.77 58.11 57.69 57.10 56.63 56.53 56.60 56.47 56.30 56.22 56.19
62.79 61.30 61.30 60.86 60.43 59.74 58.53 57.34 58.23 56.93 58.16 58.22 57.66 56.52 52.45 51.15 48.27 48.18 48.15 53.72 56.13 57.43 56.78 56.03 57.31 59.04 61.59 62.95 62.24 62.34 62.16 60.13 58.46 57.54 56.95 56.37 56.29 56.01 55.89 55.88 55.75 55.83 56.15
63.09 61.68 61.29 60.70 60.38 59.74 60.10 59.20 57.79 56.53 55.84 53.50 51.96 50.98 49.19 48.19 47.71 48.23 48.09 49.26 53.62 56.37 56.42 55.94 55.54 55.78 57.32 61.70 62.08 61.99 61.84 61.73 59.42 57.79 56.72 56.30 55.94 55.75 55.72 55.74 55.67 55.79 56.10
64.48 63.83 62.24 61.67 60.73 59.46 58.95 59.01 57.95 56.43 55.81 53.74 52.92 47.93 52.62 52.60 46.61 48.63 47.24 48.31 48.11 52.72 54.83 55.63 54.68 54.21 54.04 55.06 56.31 61.10 61.57 61.50 60.86 58.78 56.81 55.98 55.83 55.78 55.76 55.95 55.76 56.01 56.35
63.36 63.08 63.36 62.53 61.57 59.74 59.35 58.73 57.61 57.05 57.97 53.59 53.69 56.49 49.36 47.83 45.36 46.17 45.23 46.36 47.60 45.82 50.67 52.91 53.32 53.44 52.99 52.71 54.87 57.18 59.60 60.68 60.71 60.06 57.99 56.46 55.70 55.63 55.90 55.93 56.15 55.99 55.48
55.90 59.58 61.16 61.40 61.39 60.53 59.09 58.95 58.41 57.84 56.40 56.44 51.45 53.81 53.33 50.41 49.01 49.41 44.62 43.66 46.20 45.04 46.59 48.97 52.30 52.82 52.21 51.56 52.71 54.44 56.57 58.56 59.09 59.76 59.17 57.88 56.36 55.58 55.91 55.70 55.68 55.18 54.45
53.19 53.85 55.47 58.72 59.44 59.91 59.86 59.41 58.16 56.76 57.03 56.80 54.30 54.19 53.87 53.36 49.67 47.07 50.14 50.95 46.01 46.04 47.34 47.64 48.92 50.59 51.41 51.54 50.34 51.87 55.66 56.99 57.79 58.63 58.17 57.53 56.64 56.31 55.12 54.03 54.30 54.73 54.41
51.03 51.27 52.56 52.70 55.14 59.30 59.29 58.28 58.35 57.51 56.85 56.51 56.62 56.94 55.59 53.23 51.24 50.19 47.99 49.32 48.36 49.02 47.42 48.52 48.68 47.15 47.55 48.82 50.04 50.70 53.22 54.92 55.28 56.16 56.89 54.50 53.90 54.72 54.24 54.21 54.14 53.89 53.35
48.82 48.82 49.73 50.17 51.31 53.49 55.79 56.92 56.84 56.25 55.77 56.96 56.36 57.26 55.67 56.33 55.59 54.23 52.37 51.05 47.83 45.31 45.08 44.61 43.37 43.94 45.52 46.17 46.93 49.56 51.89 53.61 54.00 54.77 54.58 54.90 54.38 52.89 53.31 53.07 52.48 51.64 51.34
47.42 47.65 48.04 48.87 49.86 50.92 55.55 56.64 55.34 55.15 55.07 54.65 55.13 53.62 56.05 55.40 55.29 53.86 53.29 50.82 45.72 42.83 41.04 43.11 39.09 41.77 41.77 43.95 46.09 49.27 49.08 51.92 52.18 53.47 54.83 55.47 53.82 52.35 51.28 51.03 50.67 50.45 51.10
45.30 45.54 45.90 45.82 45.88 46.18 48.03 51.54 52.56 51.95 53.76 53.63 52.73 52.72 52.74 51.57 51.56 51.96 51.99 51.71 50.33 44.18 42.33 41.52 37.96 38.00 39.43 43.44 46.16 47.42 47.26 50.73 52.32 52.27 52.23 52.39 51.51 50.73 50.39 49.97 49.51 49.42 49.62
40.66 41.29 41.73 41.80 41.93 42.24 43.31 44.69 44.55 45.33 47.90 46.66 46.18 46.95 45.66 45.44 44.84 44.77 45.43 46.32 46.66 46.44 43.24 40.20 36.35 37.68 39.04 42.72 45.62 43.51 45.39 48.90 51.01 51.14 50.49 49.88 49.81 48.64 48.20 47.74 47.90 48.15 48.68
38.83 39.32 39.50 39.41 39.55 39.46 39.90 40.56 40.83 40.84 41.83 42.81 43.14 42.57 41.52 42.28 41.66 41.93 42.48 42.63 42.80 42.48 40.35 37.64 36.11 35.86 36.52 38.81 38.67 40.04 41.43 40.65 41.62 45.79 47.19 47.14 46.87 46.54 46.71 46.53 46.72 47.66 46.36
38.35 38.20 38.44 38.22 38.03 38.08 38.12 37.83 38.00 38.22 38.10 38.01 39.84 40.06 39.65 40.69 39.60 40.03 39.85 39.16 39.11 38.64 37.96 36.68 33.72 33.45 33.88 36.20 36.74 37.38 38.87 39.83 38.81 40.11 42.07 43.69 44.34 44.35 44.95 45.90 45.17 44.36 43.96
38.02 38.40 38.45 37.94 37.06 37.40 37.11 37.24 37.30 38.03 38.04 37.95 38.11 37.92 37.97 38.20 37.11 37.22 37.10 36.53 36.35 37.19 36.23 35.35 33.07 34.00 33.88 34.66 34.68 35.67 36.00 36.13 37.91 39.15 40.87 42.22 43.06 43.17 43.57 43.51 43.05 42.26 41.67
38.24 37.62 38.21 38.59 38.30 36.13 35.45 35.66 35.98 36.59 37.38 37.56 38.35 38.30 37.56 36.82 36.04 33.93 33.49 34.06 34.90 34.44 34.73 34.24 33.50 33.45 33.86 34.17 34.69 34.02 33.59 35.56 35.43 36.85 37.17 37.40 37.32 37.58 38.56 39.35 39.60 39.48 39.74
38.17 38.94 38.90 38.72 38.84 38.49 37.32 34.66 35.49 35.57 35.63 35.11 35.03 35.56 36.90 39.87 40.68 39.01 35.81 34.32 34.90 34.29 33.75 33.25 32.61 32.57 32.79 32.39 31.85 32.84 30.84 28.09 27.49 27.24 27.36 27.24 27.91 27.56 27.97 33.17 34.63 36.61 37.50
36.96 37.76 37.70 38.12 38.70 39.64 39.96 37.99 35.12 33.48 32.99 31.93 30.19 30.43 32.66 33.80 34.14 37.76 37.46 38.21 36.82 32.46 31.07 26.55 25.27 27.05 25.44 24.40 25.17 25.37 22.88 21.94 20.08 25.45 24.88 24.99 26.30 25.66 26.30 27.07 33.40 35.94 37.05
35.59 35.27 35.00 34.41 34.53 36.71 38.34 37.12 34.73 29.05 25.48 23.93 23.97 24.92 27.54 29.63 29.57 27.90 31.96 33.31 32.76 34.99 34.71 27.24 25.14 23.83 23.40 24.89 20.07 20.90 23.14 20.25 20.27 24.14 24.73 22.52 24.52 24.21 25.97 28.58 34.26 35.95 37.03
32.86 30.45 27.49 27.62 28.25 32.79 35.87 35.13 32.62 20.97 19.70 20.04 22.11 24.28 24.96 26.15 29.08 28.58 26.93 26.70 26.47 26.03 28.10 28.60 25.86 25.58 25.58 25.95 25.96 22.20 20.28 21.70 24.32 25.09 24.79 16.88 22.97 23.82 25.13 25.53 32.70 34.85 36.10
26.40 22.62 23.05 22.44 23.88 27.08 35.04 33.54 27.95 23.37 23.38 22.90 24.75 24.29 26.76 26.80 33.96 33.94 27.04 25.43 24.59 25.35 29.89 32.68 32.33 32.95 33.28 33.44 31.00 24.96 20.57 17.16 18.58 21.98 24.40 21.85 21.40 21.97 23.70 23.82 25.83 33.06 34.87
21.60 23.21 23.33 20.66 31.99 26.65 35.00 34.02 28.61 25.26 22.59 24.82 23.73 24.84 31.30 30.63 33.30 33.13 26.05 24.06 22.08 23.11 24.24 24.87 24.03 24.84 25.43 25.01 30.37 26.02 21.41 10.74 12.14 14.54 22.61 17.57 18.74 19.40 16.48 22.08 23.09 24.98 25.30

GFSMA_sfc_wetblb_066.txt.gz
Wetbulb
58.22 58.31 58.74 59.05 59.88 60.41 60.92 60.89 61.08 60.43 59.10 57.86 55.71 55.00 54.74 53.86 52.76 56.49 59.59 62.28 65.76 67.39 66.77 66.20 65.55 64.04 62.54 61.84 61.13 60.16 60.09 59.95 59.80 59.78 60.04 60.15 60.34 60.28 60.41 60.29 60.24 60.44 60.59
58.69 58.39 58.86 59.31 59.47 60.18 60.32 60.64 60.54 60.33 59.52 58.34 57.95 56.07 53.54 52.75 52.68 52.11 57.11 59.53 63.96 66.15 66.81 66.00 65.77 65.13 63.85 62.73 62.14 61.02 60.75 60.28 59.80 59.87 60.11 60.01 59.70 59.59 59.78 59.78 59.47 59.35 59.54
60.02 59.05 59.11 59.35 59.89 60.00 59.88 59.64 59.83 59.83 59.25 59.20 58.16 58.14 55.70 53.34 51.82 51.18 52.87 57.55 59.94 63.41 65.34 66.15 65.61 65.46 64.40 63.56 63.12 62.17 60.85 60.43 60.08 59.81 59.62 59.35 59.20 59.01 58.84 58.67 58.80 58.85 58.63
61.35 59.55 58.79 59.04 59.88 59.42 59.32 58.80 58.80 58.47 58.79 58.68 58.19 58.39 57.34 53.98 52.14 50.78 50.72 55.15 57.88 59.97 62.69 65.31 66.02 65.51 64.91 64.13 63.61 63.08 61.73 60.42 60.21 59.78 59.39 58.79 58.59 58.42 58.27 57.91 57.76 57.66 58.02
62.71 61.23 60.02 59.76 59.13 58.75 58.31 58.47 58.03 58.27 57.27 57.44 58.05 58.53 57.10 55.38 53.88 52.69 49.51 51.44 55.44 58.40 59.11 61.22 63.49 64.15 64.79 64.51 63.99 63.63 62.73 61.19 60.15 59.59 59.26 58.67 58.17 58.01 58.02 57.67 57.27 57.10 56.96
63.31 61.24 60.91 59.85 59.14 58.42 57.73 57.20 57.86 57.29 57.87 57.73 57.98 57.87 55.67 54.89 53.08 50.45 51.85 49.89 53.63 55.93 57.80 57.57 58.21 60.29 62.16 64.24 63.82 63.59 63.26 62.40 60.68 59.42 58.84 58.28 57.69 57.47 57.45 57.43 57.16 57.05 57.16
61.83 60.88 61.09 61.37 60.94 59.45 59.78 58.75 57.39 56.28 55.48 54.56 52.88 52.87 51.58 51.28 50.22 50.47 49.30 48.38 49.81 53.96 55.50 56.69 56.90 56.31 57.44 62.40 63.58 63.51 62.92 62.97 62.30 60.32 58.78 58.09 57.32 57.13 56.99 57.13 56.91 56.88 56.87
63.72 63.09 61.37 60.38 59.79 59.39 58.94 58.38 57.53 55.85 55.65 53.64 55.50 51.70 54.29 53.29 48.69 48.73 47.67 48.07 47.81 48.88 53.58 54.83 54.54 54.15 54.32 54.71 57.53 62.09 62.92 62.42 62.82 62.26 59.91 58.33 57.69 57.35 56.96 56.85 57.05 57.11 57.00
61.05 62.04 62.44 62.47 61.63 60.02 59.53 58.33 57.43 56.55 56.73 53.61 53.41 56.05 52.03 50.22 48.68 50.78 48.60 47.62 46.03 45.25 47.38 51.84 53.05 53.83 53.16 54.39 56.06 58.31 60.20 61.89 61.87 62.40 61.68 59.23 57.59 57.26 57.10 56.91 57.12 57.19 57.11
52.25 54.90 56.32 58.68 60.02 60.06 59.29 59.05 58.19 57.03 55.82 56.94 51.82 53.44 52.35 51.96 51.23 50.75 49.60 48.21 46.72 45.98 46.26 47.65 51.91 53.14 53.97 54.04 54.62 55.24 57.25 59.67 61.24 60.73 61.45 60.61 58.41 57.60 57.34 57.20 57.12 57.14 56.32
51.59 51.93 52.58 53.09 57.07 58.97 59.93 59.70 58.10 56.81 55.73 56.02 53.62 51.69 51.99 51.99 50.90 50.06 50.99 51.39 47.80 47.13 45.75 47.72 47.07 50.94 51.18 51.45 52.35 52.33 55.77 57.42 59.64 60.70 60.78 60.49 59.95 58.70 57.46 57.49 56.30 55.33 55.47
49.81 49.39 50.22 50.36 51.37 53.13 56.92 59.30 59.86 58.31 56.36 56.34 56.35 56.54 55.67 53.80 51.88 49.80 48.52 48.91 49.82 50.80 46.29 47.13 47.43 48.29 46.58 47.20 50.27 52.17 53.71 56.01 58.08 59.56 59.80 59.86 59.09 55.19 56.52 57.37 56.49 55.63 54.67
47.47 47.22 47.97 48.41 49.28 51.12 55.61 55.91 56.74 57.48 57.62 57.40 56.88 56.86 57.06 56.60 55.91 53.97 52.45 51.32 49.90 47.47 45.21 43.58 43.69 41.89 43.70 43.04 44.97 50.44 51.85 54.21 56.57 58.53 59.89 59.82 56.59 55.10 55.59 56.11 56.45 56.41 56.10
45.51 45.72 46.00 46.29 46.20 47.13 49.81 54.95 57.07 56.88 57.01 56.28 55.48 55.51 55.69 55.36 55.00 54.43 52.97 51.13 47.87 44.77 42.89 42.74 38.71 38.50 39.56 41.41 44.09 48.16 47.44 51.53 53.89 56.68 57.77 57.51 55.85 54.70 54.25 54.67 54.84 54.55 53.24
43.16 42.27 42.73 42.84 42.87 43.68 45.50 48.50 49.45 50.73 51.39 50.48 49.98 50.64 51.42 49.23 48.35 48.79 49.64 50.70 49.70 45.85 43.41 40.10 39.73 36.88 38.03 41.28 43.81 44.17 45.40 48.83 51.11 54.45 54.89 54.44 54.25 54.33 54.08 53.69 53.04 52.16 50.87
39.58 39.74 39.81 40.05 40.28 40.72 42.11 43.11 43.01 43.85 45.94 46.18 46.65 45.54 44.63 44.84 44.24 42.55 44.21 45.56 46.05 45.39 43.33 40.16 38.38 37.73 38.78 42.13 44.18 43.29 44.91 47.24 49.12 52.31 53.01 52.70 51.18 50.47 50.24 49.69 49.15 49.08 49.02
38.03 38.29 38.42 38.32 38.21 38.40 38.70 39.38 39.62 40.34 43.39 42.74 42.92 42.49 41.68 42.41 41.32 41.99 42.55 42.80 42.28 42.42 40.56 38.91 36.21 36.00 36.59 38.30 38.67 40.55 41.43 41.36 41.78 46.72 47.97 48.67 48.62 47.97 47.45 47.54 47.56 47.53 47.99
37.87 37.83 37.73 37.20 37.26 37.24 37.13 36.98 36.82 37.10 36.93 36.72 37.29 37.60 39.00 40.27 39.12 39.46 39.65 39.17 39.07 38.85 38.35 37.33 34.13 33.39 33.51 36.18 37.24 37.69 38.90 39.56 39.10 42.04 43.75 44.10 44.46 44.62 45.11 45.73 45.93 46.02 45.26
36.37 37.08 37.18 36.47 35.73 36.11 35.99 35.88 36.18 36.88 38.27 38.15 38.12 37.68 37.41 37.08 35.77 36.71 36.49 35.92 36.02 35.58 36.16 35.57 33.52 34.52 33.20 34.90 35.03 35.91 36.59 36.53 38.12 39.97 41.23 42.14 43.23 44.11 44.18 44.30 44.40 44.43 43.75
38.65 38.79 38.83 38.73 37.29 35.00 35.16 35.98 37.20 37.03 36.85 36.75 37.60 38.52 38.18 36.72 35.35 34.39 32.90 30.75 31.94 31.63 34.81 34.47 33.81 33.75 33.99 34.55 35.04 34.22 33.81 35.88 35.45 36.82 37.47 38.51 37.83 38.02 38.57 39.25 39.89 39.94 39.93
38.75 39.23 38.95 39.19 38.76 38.15 36.84 35.57 35.78 35.45 34.84 34.18 34.13 34.87 35.80 38.60 40.74 39.27 34.29 32.03 31.09 30.30 30.29 32.70 32.38 31.98 31.40 31.11 31.08 31.54 30.77 29.32 29.36 29.03 28.57 28.29 27.99 27.91 28.82 32.72 33.69 36.13 37.63
37.34 37.62 37.22 38.17 38.59 38.44 38.51 37.53 34.39 31.35 29.09 27.29 26.53 27.08 30.74 32.05 32.64 36.64 36.40 36.51 35.07 28.81 26.85 23.34 20.93 24.47 23.69 23.48 24.44 24.72 21.36 21.03 19.82 25.06 24.48 25.16 26.44 26.46 26.82 26.73 32.71 35.65 36.58
34.79 32.68 32.10 32.77 32.26 33.96 36.86 35.67 32.96 24.87 22.18 20.24 20.32 22.61 27.46 29.81 29.23 27.25 31.55 32.82 32.31 34.68 33.30 26.24 24.20 23.22 22.97 24.48 19.87 19.86 22.34 19.70 19.83 23.80 24.40 22.25 24.17 23.75 25.69 27.88 33.73 35.74 36.87
30.25 27.95 27.50 28.11 29.11 32.50 35.54 34.06 30.84 17.89 17.80 19.04 21.36 24.82 25.34 26.63 29.38 27.81 26.58 26.02 26.08 25.98 28.10 28.14 25.50 25.18 25.13 25.55 25.44 21.95 20.08 21.36 23.94 24.77 24.29 15.89 22.45 23.38 24.74 25.32 31.96 34.13 35.69
26.33 23.14 24.02 22.09 23.42 26.63 34.35 32.78 27.43 22.92 23.09 23.38 24.84 24.96 27.05 27.06 33.60 33.48 26.88 25.20 23.84 24.99 29.51 32.40 32.23 32.64 32.86 32.53 31.01 24.86 20.44 17.36 18.26 21.36 23.65 21.11 20.59 21.37 23.42 23.58 25.67 32.68 35.23
24.58 23.12 24.49 20.29 31.56 25.85 34.64 34.09 28.53 24.95 22.24 25.04 23.79 25.37 31.44 30.39 33.39 33.19 25.69 23.88 22.06 21.95 24.00 24.56 23.76 24.08 24.70 25.10 30.25 25.87 20.46 10.88 11.72 14.53 21.84 16.98 18.50 19.09 16.69 21.67 22.92 24.94 25.51

GFSMA_sfc_wetblb_069.txt.gz
Wetbulb
63.98 64.22 64.27 64.26 64.33 65.61 65.99 66.05 65.91 65.81 65.60 64.80 63.83 61.86 61.00 61.20 60.53 60.10 62.04 62.08 64.40 67.21 67.74 67.12 66.61 65.78 64.12 62.81 62.08 60.73 60.41 60.05 59.78 59.79 59.87 59.93 60.23 60.36 60.51 60.81 60.89 60.92 61.01
64.03 62.97 62.37 62.73 63.05 64.44 64.99 64.84 64.64 64.72 64.79 64.74 64.25 63.94 63.09 61.58 59.90 59.70 60.16 61.89 62.93 65.18 67.10 67.38 66.71 66.28 65.63 64.30 63.12 61.96 60.95 60.61 60.22 59.96 60.16 60.07 59.80 59.59 59.59 59.64 59.65 59.77 59.93
64.61 63.96 63.12 62.65 63.59 64.08 63.88 64.18 64.07 64.13 63.97 64.04 63.82 64.28 63.89 63.48 62.19 61.14 59.29 59.68 61.03 61.77 64.81 67.10 66.92 66.34 66.02 65.23 64.35 63.36 61.97 61.18 60.67 60.13 60.25 59.89 59.65 59.51 59.54 59.03 58.90 58.95 59.04
65.54 64.64 63.91 63.54 63.74 63.78 63.80 63.55 63.51 63.18 63.06 63.15 63.17 63.54 63.54 63.58 63.29 62.36 60.21 58.92 59.31 60.38 62.29 64.81 66.27 66.49 66.11 65.81 65.07 64.34 63.27 61.77 60.90 60.18 59.93 59.81 59.53 59.34 59.10 58.82 58.64 58.45 58.61
66.24 65.21 64.68 64.72 64.29 63.63 63.05 62.82 62.66 62.48 62.44 62.69 62.30 62.86 62.72 62.69 63.05 62.15 62.04 60.83 59.65 59.31 60.72 61.90 63.37 64.50 65.51 66.00 65.39 64.94 64.04 63.05 61.57 60.84 60.01 59.81 59.43 59.27 59.15 58.82 58.48 58.26 58.20
66.38 65.90 65.38 64.96 64.45 63.75 63.35 62.58 62.13 62.36 62.03 62.24 60.91 60.77 61.92 62.03 62.17 61.90 61.60 61.18 59.75 59.20 59.63 60.41 61.46 62.23 62.41 64.62 65.11 64.79 64.58 63.96 62.84 61.50 60.69 59.97 59.45 58.87 58.84 58.82 58.50 58.34 58.17
64.95 65.13 65.02 64.83 64.06 62.52 63.80 63.38 62.64 61.25 61.30 61.18 59.56 60.23 59.92 60.56 60.24 60.40 60.71 59.53 58.41 57.45 58.21 58.69 59.64 60.55 61.47 62.46 64.10 64.75 64.25 64.09 63.76 62.75 61.16 60.39 59.47 58.82 58.41 58.35 58.29 58.02 58.34
66.16 65.73 64.51 64.01 63.65 62.89 62.55 62.59 62.01 61.53 60.79 59.90 60.40 57.67 57.12 58.93 58.42 57.62 57.32 56.67 56.64 55.76 55.55 56.80 57.96 58.62 59.53 60.43 61.33 62.72 64.08 63.72 63.74 63.62 62.71 60.81 60.01 59.08 58.58 58.13 58.12 58.03 58.00
58.37 61.98 63.66 64.45 64.49 63.05 62.75 63.30 62.17 60.83 60.50 59.95 59.30 59.19 55.06 53.86 53.77 57.49 56.03 55.61 55.27 54.32 54.06 54.45 56.01 57.05 57.78 58.27 58.31 58.91 60.32 62.53 63.08 63.23 63.22 62.68 60.53 59.55 58.91 58.40 58.02 58.17 58.14
55.36 55.83 56.56 57.89 60.22 61.97 62.46 62.36 61.79 60.66 59.96 59.45 57.19 57.06 58.15 56.43 54.32 53.09 55.79 54.72 54.51 54.02 53.67 53.56 53.54 55.21 56.33 56.94 56.82 56.35 57.33 59.22 61.61 62.79 62.78 62.81 62.80 59.83 59.23 58.66 58.39 58.21 58.24
53.33 53.16 53.83 54.74 55.63 58.07 59.25 59.57 61.00 59.97 59.31 59.78 58.30 57.93 57.06 56.46 55.45 53.04 51.53 53.75 53.88 56.03 56.14 54.55 53.70 53.19 54.09 54.94 55.44 55.44 55.19 56.91 58.92 61.21 62.84 62.86 61.83 61.45 59.35 58.81 57.89 57.88 58.24
52.04 50.94 51.39 52.45 53.79 54.76 56.16 57.49 58.99 60.22 59.69 58.72 59.35 58.15 57.37 55.72 54.49 52.82 50.80 51.52 52.20 54.25 54.88 54.71 53.16 52.01 50.67 50.50 50.29 51.17 53.01 54.30 56.07 58.40 61.25 62.24 61.77 61.29 60.78 59.83 58.48 58.06 57.70
49.71 48.77 49.43 49.84 50.41 51.18 54.13 56.69 58.07 58.80 58.97 58.43 58.40 58.09 58.30 57.75 57.07 55.15 53.89 52.96 52.43 51.37 52.06 50.17 47.07 46.61 46.37 47.84 48.41 47.91 49.92 51.77 53.44 55.68 58.51 60.67 60.56 60.05 58.29 59.53 58.75 58.19 56.97
46.73 46.48 47.02 47.38 47.29 48.29 50.59 53.86 56.02 55.73 56.52 55.95 55.52 56.23 56.75 55.12 55.20 55.35 53.94 51.74 48.92 48.33 46.90 48.03 45.04 44.89 45.60 46.70 47.21 47.69 49.57 49.90 51.04 53.14 55.23 56.75 57.40 59.10 57.61 57.35 57.21 55.89 55.35
44.70 44.13 44.47 44.82 45.01 45.87 47.31 49.16 50.96 52.07 50.97 50.57 50.53 50.76 51.00 49.09 48.79 49.00 50.25 51.79 50.75 46.12 45.20 47.31 43.76 42.71 44.08 45.53 47.01 46.82 47.51 48.65 50.09 50.54 51.88 54.06 53.13 54.86 55.07 54.97 54.85 54.13 53.59
42.12 42.37 42.60 42.66 42.85 43.45 44.65 45.86 46.61 47.40 47.62 47.43 47.62 47.38 46.83 46.55 46.76 46.79 47.98 48.79 48.45 47.61 46.11 43.24 40.70 39.59 41.94 43.31 43.98 43.79 44.49 45.46 48.18 51.86 52.45 51.82 50.53 50.28 50.42 51.17 51.30 50.49 49.65
40.87 40.86 40.89 40.81 40.88 41.16 42.07 43.15 43.36 45.10 44.94 44.45 44.24 43.91 42.82 43.55 43.43 44.15 44.88 44.34 43.17 43.52 43.83 39.81 38.44 38.16 39.26 40.67 41.84 41.96 41.95 41.41 42.19 47.13 48.60 49.33 49.16 48.99 48.67 48.14 48.09 47.86 47.45
40.31 39.90 39.58 39.40 39.40 39.59 40.08 40.59 40.54 40.84 40.93 40.46 40.62 40.94 40.50 41.17 40.71 40.95 40.51 39.26 39.38 39.84 41.03 40.54 37.14 37.13 37.14 38.64 39.53 39.72 39.35 39.79 39.95 43.15 45.35 45.70 45.91 46.16 45.93 46.10 45.91 45.94 46.40
39.27 39.54 39.16 38.14 38.01 38.36 38.93 39.28 39.76 39.93 40.02 39.78 39.58 38.95 38.58 38.89 38.08 38.13 37.51 37.37 38.40 39.08 40.19 39.61 37.08 38.08 37.88 38.20 38.51 38.72 38.11 38.72 39.21 40.54 41.53 41.77 42.38 43.55 44.14 44.12 44.38 44.58 44.93
39.72 39.70 39.77 38.77 37.59 37.66 38.13 38.56 38.50 38.24 38.10 37.87 38.03 38.80 38.55 37.73 37.53 37.05 36.38 36.46 36.95 37.87 38.22 38.54 37.32 36.89 36.69 36.12 36.10 34.83 36.31 36.53 34.41 34.68 35.55 37.06 37.84 38.42 39.10 39.66 39.77 39.40 39.70
39.52 39.93 39.71 39.18 39.10 38.31 37.62 37.02 36.84 36.65 36.46 35.43 35.01 35.62 36.64 38.89 39.43 39.40 37.40 36.03 35.23 34.68 35.53 35.53 35.05 35.09 33.72 33.40 32.36 33.17 33.33 32.96 33.20 32.12 33.17 34.30 34.68 35.30 35.91 34.87 34.35 34.88 36.41
38.13 38.34 38.57 38.82 38.21 38.49 38.91 38.00 34.61 32.67 31.41 31.18 30.80 31.44 33.43 32.82 33.72 36.27 35.89 35.86 36.05 33.08 31.77 32.62 31.26 30.44 29.75 30.35 31.41 30.68 30.86 30.44 30.11 32.13 31.58 32.45 33.22 33.02 33.63 33.81 33.11 35.00 36.13
35.46 34.93 35.38 35.83 35.69 36.51 36.79 35.33 32.68 29.39 28.54 28.39 29.12 31.29 31.92 32.64 31.90 31.14 32.28 32.68 33.25 34.72 33.48 31.53 29.48 29.27 29.01 30.10 29.36 29.48 29.53 29.47 29.29 31.19 30.69 29.34 31.22 30.17 32.82 32.60 33.24 35.01 36.47
32.73 32.22 32.12 32.86 33.83 35.05 34.84 33.57 31.40 28.27 28.00 28.05 29.39 30.51 31.33 31.67 32.52 31.02 30.22 29.32 29.62 30.74 32.35 31.32 31.38 30.95 31.26 31.59 31.49 30.88 30.06 29.70 30.08 30.35 30.34 26.64 29.91 29.51 32.09 32.63 32.09 34.27 35.75
30.28 29.35 29.31 29.52 30.77 33.40 34.07 32.58 29.03 27.77 27.46 27.83 28.74 30.49 31.77 31.80 34.06 33.27 29.59 27.95 27.08 27.94 30.37 32.10 31.95 31.95 32.08 31.89 32.25 31.13 29.61 28.25 26.51 27.37 29.24 27.69 28.58 27.91 29.50 30.06 31.61 33.53 35.39
29.06 29.76 29.05 29.19 32.71 30.80 35.00 33.69 29.83 28.52 27.49 28.35 28.67 28.97 31.66 32.86 33.21 32.63 29.38 27.70 25.85 27.23 28.27 28.59 28.14 27.64 27.57 28.80 30.45 30.75 29.39 26.99 26.50 26.26 28.40 27.24 27.28 27.23 26.52 29.57 30.66 31.72 32.48

GFSMA_sfc_wetblb_072.txt.gz
Wetbulb
67.31 67.16 66.05 65.64 65.52 66.20 67.11 67.27 66.79 65.99 65.62 65.57 65.84 65.67 65.01 64.60 64.45 64.09 63.94 62.58 63.74 65.88 67.82 67.87 67.22 66.95 65.96 64.29 63.18 62.11 60.94 60.47 60.19 60.04 59.90 59.98 60.28 60.39 60.46 60.66 60.65 60.68 60.97
68.16 67.13 66.91 64.82 65.12 65.90 67.22 67.33 67.19 66.93 66.73 66.61 66.08 66.23 65.98 66.33 65.83 65.12 64.34 63.91 63.06 64.30 66.14 67.47 67.54 67.03 66.65 66.13 64.67 63.47 62.00 61.33 60.87 60.45 60.35 60.51 60.32 60.09 60.15 60.11 59.92 59.82 59.77
68.77 67.53 67.40 66.90 65.79 67.00 66.55 66.84 66.92 66.95 66.72 66.85 66.57 66.81 66.86 66.88 66.84 66.51 66.20 64.77 64.02 61.75 63.17 65.25 66.95 67.29 66.84 66.52 65.75 64.54 63.49 62.07 61.48 60.89 60.62 60.61 60.34 60.11 60.14 60.00 59.62 59.59 59.57
69.31 68.58 67.75 67.83 68.30 67.40 67.12 66.84 66.72 66.28 66.34 66.42 66.44 66.94 66.91 66.97 66.88 66.80 66.81 66.03 64.86 63.94 63.54 63.17 64.94 66.55 66.86 66.56 66.59 65.80 64.57 63.47 62.16 61.42 60.75 60.39 60.30 60.17 60.13 59.77 59.53 59.36 59.34
69.61 68.74 68.15 68.19 68.61 68.07 67.73 67.29 66.87 66.69 66.19 66.36 66.11 66.17 66.51 66.55 66.68 66.27 66.20 66.22 66.08 64.87 65.06 63.64 62.88 64.23 65.93 66.42 66.32 66.20 65.56 64.55 63.36 62.16 61.39 60.74 60.29 60.06 59.99 59.75 59.52 59.27 59.24
69.63 68.92 68.49 68.37 68.41 67.73 67.50 67.70 66.92 67.41 66.35 65.84 64.77 64.31 65.84 66.23 66.14 65.84 65.84 65.76 65.98 65.46 64.51 64.27 64.24 63.48 61.91 64.33 65.57 65.78 65.61 65.15 64.40 63.21 62.28 61.42 60.93 60.29 59.97 59.87 59.55 59.29 59.26
68.52 68.02 68.03 68.27 68.39 67.42 67.44 67.58 66.83 65.61 65.35 65.84 63.77 64.09 64.85 64.90 64.52 64.70 65.10 64.86 64.36 63.59 62.57 62.50 62.80 62.97 62.88 62.75 63.83 64.83 65.20 65.19 64.85 64.34 63.21 62.30 61.45 60.97 60.25 59.88 59.78 59.34 59.15
68.75 68.51 68.27 68.03 68.11 67.28 67.07 66.74 66.10 64.72 64.71 65.62 62.50 61.74 58.75 60.40 62.27 62.88 63.54 62.74 62.83 62.60 60.97 60.53 61.07 61.01 61.37 61.52 61.15 62.26 63.74 64.76 64.91 64.50 64.06 63.42 62.41 61.57 60.93 59.97 59.48 59.42 58.99
61.17 63.25 64.63 65.31 65.70 65.73 64.50 65.04 64.84 63.33 61.56 63.81 62.70 61.68 58.29 55.30 58.87 61.45 61.47 61.53 61.03 60.96 59.83 59.06 59.14 59.44 59.69 60.04 59.42 58.75 59.34 60.58 62.76 64.19 64.19 63.71 63.60 62.43 61.61 60.61 59.69 59.23 59.15
57.96 58.17 58.64 59.69 61.31 63.12 63.24 63.69 64.43 63.84 62.39 61.19 60.96 60.69 61.55 60.15 56.39 55.35 58.91 60.37 59.75 60.12 60.52 60.41 59.15 58.42 58.46 58.84 57.83 56.47 56.80 57.19 58.94 61.05 63.29 63.52 63.65 63.83 62.78 61.19 59.98 59.19 58.99
56.25 56.15 56.78 57.67 58.47 59.57 60.57 60.71 60.35 60.40 61.66 60.85 60.50 59.72 59.72 59.33 58.33 55.25 52.70 55.97 59.33 59.07 59.63 59.35 58.81 58.04 57.23 56.43 56.38 55.57 53.20 54.79 56.97 58.82 60.45 61.72 62.91 63.54 63.11 61.65 60.67 59.51 58.77
56.14 54.42 54.24 55.47 56.28 56.79 57.83 58.39 58.38 59.09 59.27 60.12 60.81 59.99 59.17 57.21 57.20 55.49 53.08 53.84 54.56 55.96 56.59 58.12 56.02 54.37 53.58 53.28 52.04 49.71 50.68 52.22 54.33 56.33 58.53 60.31 61.26 62.14 62.87 62.32 61.20 59.85 59.16
54.49 53.26 52.85 53.27 53.51 53.89 55.11 57.27 57.60 58.15 59.29 59.57 59.88 59.27 59.15 58.54 58.32 55.96 54.85 54.17 53.47 54.80 54.32 52.97 52.19 51.77 50.64 51.96 51.69 48.74 50.57 50.97 51.98 53.80 56.44 58.24 58.76 59.09 59.72 60.08 61.10 60.26 59.13
51.69 50.57 50.86 51.06 50.87 51.39 52.93 55.30 57.36 58.20 57.58 56.62 56.70 56.68 56.88 54.49 56.18 56.45 56.04 53.57 50.85 50.96 52.28 53.34 49.91 49.61 50.19 49.49 49.21 48.71 50.52 49.29 50.66 52.00 53.34 54.39 55.09 55.72 57.08 58.38 60.09 59.80 58.80
48.56 48.58 48.78 48.88 49.18 49.73 50.72 52.47 54.76 55.54 54.66 52.65 52.07 52.25 51.30 50.50 51.23 52.14 52.67 53.73 51.53 47.58 48.55 50.30 48.73 46.68 46.46 48.05 45.95 47.64 47.35 48.19 49.74 52.16 52.00 52.75 52.77 53.53 54.98 57.20 57.69 57.00 55.30
46.83 46.97 47.19 47.24 47.58 47.94 48.90 50.13 51.65 51.78 52.33 51.20 50.29 50.18 50.64 50.83 50.37 50.62 50.88 50.67 50.45 49.16 47.23 47.44 43.37 42.52 43.36 45.57 44.97 45.59 45.55 45.00 46.67 49.63 51.99 51.03 50.81 50.99 51.20 52.19 53.70 53.57 52.42
45.49 45.36 45.38 45.48 45.54 46.00 46.93 48.43 48.31 48.68 48.49 47.96 47.79 47.49 46.39 47.63 47.60 47.68 48.29 48.17 47.76 46.70 46.54 41.63 41.56 41.00 42.30 44.39 44.12 45.10 43.86 43.51 43.96 46.71 47.85 48.58 49.18 49.14 49.20 49.25 49.50 49.57 49.42
44.60 44.30 44.02 44.00 44.12 44.20 45.20 45.69 45.00 45.60 45.60 44.90 45.21 45.21 44.22 44.45 44.27 44.68 44.85 43.25 42.51 42.24 43.62 43.45 40.54 40.59 40.13 42.18 42.80 42.58 42.59 42.78 42.72 43.39 44.64 45.65 46.57 46.36 46.69 47.33 47.29 47.03 47.36
43.57 43.50 43.14 42.68 42.50 42.76 43.19 43.69 44.06 43.96 43.79 43.29 43.06 42.84 41.85 42.29 41.40 42.01 41.69 42.09 42.88 43.39 44.37 43.69 40.67 41.62 40.87 40.94 40.76 41.43 40.92 41.84 41.66 39.27 40.89 41.09 42.34 43.15 44.39 44.82 44.90 44.94 44.81
42.30 42.40 42.22 41.80 41.04 41.03 41.58 41.79 41.98 41.69 41.10 40.94 41.07 40.93 40.33 40.20 40.42 40.32 40.01 39.84 40.57 42.33 42.52 42.50 40.18 38.50 38.85 38.86 38.33 38.03 40.50 40.77 38.55 38.41 37.62 36.96 37.66 37.85 39.32 39.95 39.55 39.68 40.40
40.98 41.33 40.87 40.71 40.63 40.73 40.25 40.15 40.32 40.68 40.36 39.27 38.66 38.71 39.02 38.98 38.98 39.20 39.80 38.85 38.45 38.56 39.25 39.51 39.09 38.80 37.48 36.99 35.13 36.36 35.91 36.37 38.06 36.40 37.01 38.16 37.76 38.51 38.69 37.03 35.66 35.20 36.13
39.87 40.58 40.32 39.66 39.65 39.42 39.24 38.53 39.17 37.89 37.04 36.17 35.05 35.75 36.10 34.99 35.50 36.45 36.01 36.22 36.51 35.31 34.24 34.98 34.89 33.60 33.58 33.96 34.63 33.13 32.82 32.06 32.24 36.24 34.06 34.71 36.20 35.22 36.37 36.74 34.78 34.86 35.98
38.29 38.43 39.37 39.10 38.75 38.18 37.09 35.72 34.50 33.91 33.43 33.31 33.84 34.72 34.63 34.98 34.43 33.90 33.15 33.38 34.59 34.91 33.98 34.34 32.72 32.02 31.86 32.32 32.01 31.61 31.75 31.47 31.44 33.78 32.16 31.60 34.32 32.81 35.68 35.21 33.91 34.91 35.71
36.30 37.23 36.68 36.63 36.31 35.38 34.90 33.90 32.89 33.39 33.17 32.93 33.50 33.96 34.84 34.94 35.43 33.90 33.02 31.83 32.12 33.62 34.17 33.95 34.16 34.05 34.24 34.78 34.13 33.12 32.42 31.73 32.81 33.15 32.58 29.12 33.29 32.32 34.94 35.74 33.00 33.53 34.97
35.61 34.72 34.93 35.11 35.56 34.98 34.21 33.07 31.59 32.04 31.61 31.47 32.93 34.26 34.34 34.28 34.26 33.08 32.24 30.32 30.47 30.86 31.70 31.84 31.59 31.46 31.80 31.71 33.07 33.31 31.20 29.70 29.08 30.30 32.26 29.85 31.79 30.73 32.70 32.96 34.39 33.90 35.08
33.60 34.22 33.61 34.40 34.69 34.57 34.36 33.11 31.92 32.31 31.50 31.26 32.00 32.14 32.21 33.99 33.46 32.91 32.41 30.92 28.84 30.54 30.97 31.13 31.05 30.43 30.08 30.94 30.60 32.20 31.59 28.88 28.92 29.35 31.02 28.96 29.28 29.60 29.23 33.22 33.24 34.01 34.53

GFSMA_sfc_wetblb_075.txt.gz
Wetbulb
66.89 66.72 65.79 65.07 65.05 65.03 65.86 66.45 66.64 65.77 65.25 65.01 65.25 65.17 64.92 64.89 64.73 64.82 64.72 62.95 64.21 64.87 66.58 67.80 67.73 67.41 67.11 65.69 63.95 62.90 61.58 60.89 60.54 60.31 60.14 60.19 60.30 60.47 60.50 60.68 60.76 60.30 60.92
68.03 66.87 66.82 65.16 64.60 65.37 66.52 67.08 66.98 66.80 66.64 66.71 66.29 66.37 66.12 66.19 66.36 66.02 65.70 65.44 63.65 64.42 65.19 66.71 67.39 67.48 67.19 67.23 66.39 64.54 63.36 61.81 61.42 60.88 60.52 60.60 60.53 60.35 60.33 60.32 60.04 60.10 59.87
68.97 67.68 67.32 67.37 65.79 66.81 66.74 66.86 66.88 67.00 66.66 66.85 66.56 66.91 66.93 66.95 66.82 66.65 66.88 66.89 65.69 62.52 64.07 64.86 66.20 66.92 67.30 67.13 66.64 66.21 64.85 63.74 62.64 61.88 61.16 60.93 60.70 60.51 60.27 60.28 59.71 59.56 59.63
69.25 68.87 68.29 68.17 68.88 68.03 67.58 67.32 67.12 66.65 66.58 66.58 66.45 66.94 67.22 67.25 66.79 66.79 67.15 67.12 66.83 65.37 63.89 64.36 64.84 65.20 66.44 67.06 66.98 66.75 66.25 65.00 63.64 62.77 62.19 61.36 60.88 60.54 60.41 60.31 59.98 59.61 59.45
69.99 69.07 68.43 68.38 68.73 68.54 68.19 67.68 67.28 67.15 66.48 66.11 65.61 66.65 66.81 66.52 66.77 66.56 66.41 66.65 66.88 66.67 66.10 64.73 63.21 63.67 64.80 65.91 66.71 66.67 66.64 66.12 64.98 63.73 62.94 62.13 61.33 60.78 60.43 60.30 60.15 59.86 59.66
70.39 69.68 68.96 68.54 68.52 68.06 67.58 67.77 67.12 67.45 66.64 66.33 65.44 65.18 65.85 66.14 66.64 66.33 65.79 65.54 65.44 66.09 66.09 65.26 64.78 63.16 61.63 63.42 64.64 65.78 66.24 66.17 65.75 65.01 63.87 62.99 62.13 61.49 60.93 60.65 60.40 60.00 59.83
69.89 69.44 68.69 68.47 68.72 67.85 67.78 67.84 67.10 66.07 65.84 66.51 64.37 64.15 64.70 65.86 65.07 64.86 64.98 64.44 64.49 65.00 64.10 62.90 63.12 63.07 63.05 62.93 63.89 64.04 64.56 65.58 65.42 65.12 64.71 64.11 63.15 62.28 61.72 61.24 60.72 60.40 59.92
69.07 68.37 67.90 67.67 67.70 67.22 66.74 66.43 65.99 64.82 64.51 65.40 62.22 61.80 58.83 60.22 61.79 63.44 63.54 63.17 62.93 63.24 61.85 61.48 60.73 60.83 61.28 61.38 60.83 60.54 61.04 62.58 64.27 64.96 64.55 64.25 64.00 63.45 62.97 62.51 61.57 60.90 60.34
63.70 63.90 64.02 64.32 65.19 65.42 64.75 64.71 64.35 63.57 62.17 63.63 64.44 61.56 57.70 55.64 58.61 61.53 61.41 61.82 61.67 61.68 61.14 60.84 59.85 59.83 59.44 59.77 59.91 58.83 57.44 57.74 59.55 61.34 62.67 63.74 63.72 63.96 64.62 63.55 62.63 61.48 60.73
58.91 58.95 59.36 59.96 60.67 62.56 63.37 63.43 63.72 63.51 63.10 61.11 62.97 63.11 62.98 61.19 56.97 54.72 59.88 60.15 60.41 59.61 60.14 60.30 59.73 59.09 58.35 57.95 57.42 53.55 53.75 54.90 57.39 59.41 60.40 61.29 62.55 63.35 63.73 64.10 63.85 61.98 60.46
57.13 56.72 57.10 57.59 58.07 59.08 59.60 60.09 60.40 60.32 60.50 59.16 58.74 60.02 60.52 60.40 59.42 56.21 53.89 55.82 59.27 59.58 59.54 58.92 58.81 57.40 56.11 55.32 53.26 51.63 51.95 53.65 55.78 57.50 59.15 60.42 61.54 62.37 63.10 62.91 62.94 61.70 60.65
56.59 55.54 55.23 55.82 56.45 56.76 57.09 58.28 58.88 58.22 58.13 58.04 59.23 59.63 58.39 57.99 56.36 55.40 54.25 55.37 55.02 55.31 56.16 57.29 55.28 53.73 52.67 52.96 50.61 50.47 51.68 52.48 53.80 55.52 57.23 58.44 59.02 59.95 61.10 61.72 62.36 62.51 60.72
55.22 54.66 53.58 53.77 53.84 54.07 54.43 55.72 57.15 58.13 57.72 58.51 59.26 59.07 59.01 58.68 59.15 56.17 54.81 54.05 53.26 54.88 54.76 52.99 51.89 51.47 51.28 51.15 49.99 49.40 50.44 50.79 52.26 54.28 56.12 56.46 56.43 56.14 56.70 58.58 60.29 60.55 60.81
52.45 52.00 51.64 51.81 51.78 51.84 52.42 53.62 55.47 56.90 57.38 56.23 55.40 54.94 55.62 53.80 54.88 55.65 54.96 53.89 51.21 52.12 53.14 52.32 49.55 49.09 49.21 48.16 47.14 49.29 48.62 48.79 50.17 52.93 53.80 52.94 54.28 54.30 54.71 57.71 58.64 58.96 61.08
49.51 49.09 49.91 49.67 50.13 50.21 50.65 51.45 53.15 54.49 54.89 54.07 53.07 52.60 51.43 51.06 51.17 51.83 52.70 53.81 52.64 48.35 48.48 48.37 48.37 46.69 46.33 47.50 45.33 46.56 46.23 47.66 48.99 51.76 52.67 52.22 52.30 52.58 53.77 54.68 57.90 58.22 57.05
48.02 48.00 48.25 48.29 48.43 48.71 49.24 50.11 51.29 52.22 52.31 51.75 51.20 50.97 50.76 50.70 50.75 51.06 51.18 51.69 50.90 49.99 47.05 46.97 44.11 42.98 44.06 45.95 45.21 45.28 44.83 45.14 46.68 49.15 49.95 50.80 50.63 50.09 50.97 53.71 54.80 54.68 54.42
46.73 46.60 46.57 46.59 46.62 46.68 47.56 48.43 48.80 49.21 49.50 49.13 48.85 48.10 47.07 48.67 48.61 48.35 48.43 48.44 47.63 47.39 45.25 42.27 42.62 41.70 43.03 43.75 44.28 44.66 44.95 44.18 44.36 46.26 47.76 48.22 48.53 49.10 49.41 49.88 50.25 51.14 52.48
45.93 45.40 45.18 45.14 45.22 45.17 45.87 46.42 46.20 46.81 46.61 45.94 46.17 46.25 45.10 45.78 45.45 45.80 45.54 44.13 43.76 43.62 44.09 44.07 41.47 41.54 40.35 41.82 42.39 42.07 42.43 43.08 43.05 42.44 44.08 44.73 45.40 46.92 47.30 47.59 47.80 48.27 48.34
44.77 44.82 44.29 43.74 43.66 43.80 44.28 44.88 45.25 45.07 44.76 44.20 44.15 43.39 42.79 43.37 42.57 42.47 42.38 42.60 43.29 43.63 43.78 42.50 40.31 41.18 40.62 40.44 40.08 41.21 40.78 41.13 41.44 39.49 40.29 41.07 42.32 43.56 44.45 45.29 45.45 45.60 45.56
43.69 43.68 43.38 42.96 42.36 42.42 42.94 43.17 43.57 43.17 42.48 42.10 41.91 41.81 41.29 40.88 40.68 41.13 40.32 40.07 40.60 41.77 42.14 41.74 39.27 38.11 38.51 39.24 38.56 37.06 38.36 39.16 37.24 38.52 38.36 37.31 37.86 38.23 39.79 40.01 40.00 39.96 40.84
42.26 42.21 41.72 41.49 41.48 41.80 41.38 41.46 41.94 42.05 41.03 39.60 39.20 38.61 38.62 38.58 38.72 38.17 38.73 37.76 37.50 37.40 38.08 38.77 38.11 37.20 35.61 34.51 32.70 34.44 32.55 33.47 35.22 34.16 33.52 34.99 34.38 35.34 36.08 37.32 36.95 36.93 37.44
40.82 41.14 40.68 40.14 40.15 40.23 39.67 39.87 41.06 39.55 38.53 37.25 36.19 36.28 35.90 35.48 35.86 36.38 36.20 36.82 36.21 34.15 33.32 33.38 33.96 30.94 31.36 31.24 32.22 30.67 30.69 29.00 29.44 33.19 30.26 30.57 32.89 31.35 32.66 32.72 35.62 35.82 36.38
39.48 39.55 39.96 39.40 39.31 38.42 37.75 37.21 37.16 35.55 34.60 34.54 35.03 34.91 34.46 34.80 34.84 33.94 33.91 34.32 35.19 35.22 34.48 33.20 30.87 30.29 29.94 31.01 30.67 30.47 29.96 29.38 28.54 30.62 29.18 27.55 30.68 29.13 31.89 34.09 35.04 35.52 36.32
37.93 38.17 38.69 38.49 37.30 35.71 35.39 34.92 34.53 34.14 33.60 33.77 33.91 34.41 34.71 34.96 34.54 33.91 32.55 31.26 31.14 32.64 33.59 33.76 32.72 32.42 32.33 32.92 32.17 31.40 30.24 29.33 30.42 30.18 29.78 26.12 30.21 28.94 31.33 31.99 34.58 35.10 35.39
36.26 36.84 36.36 36.19 35.90 34.60 34.49 33.80 32.57 32.67 31.79 31.69 33.00 34.02 34.05 33.84 34.41 33.64 32.20 30.04 29.50 29.80 32.14 32.20 31.82 31.45 31.72 31.97 32.34 30.72 29.42 27.97 27.13 27.07 29.32 27.03 28.91 27.85 29.65 29.57 31.02 33.74 34.79
34.36 35.54 35.37 35.75 35.52 34.75 34.37 33.28 32.07 31.71 30.88 30.63 31.20 31.62 32.85 33.51 33.67 33.69 31.80 30.12 27.77 29.04 29.54 29.81 29.33 29.56 29.79 29.90 31.01 29.37 29.17 25.39 26.67 27.16 28.21 26.75 27.46 26.56 24.58 29.56 29.78 30.59 30.72

GFSMA_sfc_wetblb_078.txt.gz
Wetbulb
62.32 61.66 60.50 60.54 60.57 60.20 60.40 61.53 62.11 61.61 60.63 60.55 60.58 60.61 60.55 60.08 59.50 59.57 59.31 62.74 64.50 65.64 65.67 66.76 67.65 67.66 67.70 67.08 65.37 63.59 62.36 61.11 60.63 60.24 60.09 60.01 60.09 60.42 60.51 60.96 61.09 60.43 61.08
63.29 62.48 62.24 60.86 59.43 60.07 60.83 62.24 62.37 62.36 62.34 62.25 62.12 62.19 61.65 61.49 61.58 61.60 61.20 60.29 63.88 64.91 65.55 65.73 66.77 67.46 67.71 67.63 67.77 66.43 64.88 63.37 62.26 61.40 60.63 60.27 60.36 60.26 60.23 60.31 60.11 60.17 59.88
64.87 63.21 62.69 61.61 60.21 61.30 61.84 61.98 62.34 62.62 62.30 63.18 62.39 63.00 63.02 62.55 62.48 62.29 62.56 62.37 62.02 62.81 64.57 65.39 65.74 66.56 67.26 67.70 67.42 67.29 66.13 64.83 63.52 62.81 62.15 61.27 61.05 60.76 60.36 60.08 59.81 59.62 59.73
66.18 65.17 64.21 64.13 64.80 62.89 63.17 62.89 62.74 62.47 62.33 62.30 62.07 62.57 63.22 64.32 63.54 63.03 63.24 63.01 62.95 62.23 62.44 64.80 66.01 66.08 66.09 66.64 67.53 67.26 66.84 66.30 64.98 63.91 63.11 62.27 61.56 60.93 60.55 60.46 60.01 59.95 59.80
66.65 65.52 64.94 64.86 65.18 64.79 64.11 63.87 63.35 63.08 62.39 63.63 63.79 63.88 63.86 62.63 62.95 64.09 62.63 62.63 62.76 63.07 62.79 63.80 63.15 63.67 64.84 65.15 65.84 67.01 66.99 66.87 66.08 65.06 64.09 63.32 62.43 61.66 61.11 60.73 60.56 60.26 60.05
68.23 66.87 65.73 65.23 64.90 64.11 63.84 63.75 63.51 64.93 64.16 64.20 64.01 63.05 62.55 62.53 62.46 62.21 62.24 62.90 61.68 61.66 62.14 61.03 60.33 60.19 61.81 64.11 64.64 65.07 65.65 66.08 66.54 65.55 65.12 64.34 63.47 62.46 61.88 61.41 60.97 60.49 60.05
68.00 67.33 66.88 66.49 66.37 65.41 64.96 64.61 63.73 62.76 62.25 62.82 61.47 61.14 61.18 62.13 62.03 62.03 61.87 60.71 59.74 61.02 59.06 58.23 58.03 57.88 58.15 62.60 63.45 63.38 63.34 63.94 64.42 64.85 64.74 64.61 64.43 63.69 63.00 62.37 61.80 61.20 60.57
66.64 66.65 65.69 65.78 65.82 65.39 65.30 65.01 64.55 63.42 63.44 63.33 61.28 60.26 55.50 56.53 58.14 58.91 59.40 59.04 58.30 57.80 57.68 56.54 56.20 56.05 55.58 56.09 57.76 58.48 59.20 60.24 61.16 61.84 63.03 63.80 63.95 64.19 64.17 63.51 63.01 62.39 61.63
61.19 61.04 62.13 62.85 63.39 64.07 63.68 63.76 63.27 62.46 61.50 62.19 62.68 60.20 55.43 51.91 54.80 56.70 57.16 57.34 56.67 56.58 55.41 56.41 56.51 55.65 54.80 54.72 52.45 52.52 55.25 56.47 58.88 60.60 60.98 61.26 62.05 63.07 63.48 64.18 64.64 63.79 62.24
55.97 56.29 56.37 56.24 56.22 57.83 59.28 61.08 62.45 61.21 59.76 58.31 58.94 60.76 59.60 58.10 52.95 51.55 54.79 55.60 55.62 55.94 56.51 56.94 56.47 55.25 53.17 52.55 51.09 52.50 53.55 55.03 57.45 59.16 60.27 60.82 61.30 61.93 62.55 62.82 63.13 63.88 63.19
54.27 54.33 54.47 54.43 54.54 55.44 55.74 56.28 56.43 56.58 57.05 55.75 55.34 56.76 57.12 57.20 55.89 53.38 50.33 52.76 55.62 56.08 56.14 55.54 53.33 51.35 50.77 49.26 48.21 50.46 52.93 54.21 56.10 57.45 58.65 58.98 60.03 61.09 61.58 62.25 62.27 62.33 62.68
53.50 53.08 53.46 52.98 53.09 53.24 53.22 53.78 54.83 55.31 54.88 55.46 56.34 56.37 56.27 55.67 55.25 54.63 53.98 54.50 53.60 54.34 54.23 52.31 51.15 50.32 50.32 48.43 49.45 50.68 51.46 52.32 53.87 56.04 57.76 57.47 57.74 57.32 58.04 58.64 59.64 61.12 62.05
51.70 49.89 50.50 50.03 50.11 50.40 51.09 51.67 52.52 53.64 54.55 54.68 56.12 55.61 56.23 56.64 56.27 55.95 53.69 52.16 52.79 53.29 52.21 49.23 47.27 47.64 48.07 46.29 45.76 49.60 49.29 50.00 51.75 54.72 55.72 55.43 55.07 54.99 56.00 57.14 59.08 59.31 60.61
47.85 47.92 48.01 48.35 48.63 49.04 49.40 50.03 50.79 52.27 54.61 54.34 53.62 52.92 52.85 52.40 53.23 54.71 54.16 53.20 50.33 50.59 49.46 45.93 46.08 46.08 45.57 45.48 45.96 47.60 46.71 48.50 50.52 54.17 54.55 54.18 53.28 53.24 54.80 56.55 58.62 58.83 59.52
46.93 45.74 46.28 46.28 46.73 47.10 47.69 48.27 48.91 50.30 51.19 53.19 52.38 51.87 50.49 50.73 51.02 51.31 51.59 52.48 51.26 46.82 44.77 42.74 42.98 42.88 42.47 44.14 45.38 45.61 44.81 47.56 49.00 50.57 51.98 51.65 50.96 51.04 53.67 55.41 55.57 56.84 58.03
45.04 44.97 44.81 44.77 44.84 45.30 45.88 46.43 47.40 48.76 49.04 49.89 49.14 48.87 47.70 49.52 49.46 49.18 49.02 48.23 48.90 46.70 44.59 41.84 41.96 39.76 42.17 45.17 45.23 44.42 43.72 45.14 47.01 48.73 49.50 49.47 50.03 50.36 50.67 51.99 54.12 54.57 54.92
43.61 43.44 43.54 43.42 43.35 43.25 43.70 44.21 44.84 45.57 46.22 47.97 47.23 45.68 46.20 47.35 46.80 45.80 46.75 46.65 45.81 45.25 42.94 39.72 41.51 40.11 40.77 41.42 42.46 43.30 43.33 40.16 40.89 44.90 46.62 46.97 48.23 48.66 49.17 49.47 50.41 51.55 53.02
42.88 42.12 42.28 42.19 42.15 42.37 42.41 42.50 43.20 43.56 43.78 43.14 43.61 44.43 43.01 44.57 42.39 43.15 42.00 40.10 39.55 39.84 41.82 41.47 40.07 38.61 38.34 40.37 41.16 40.79 41.68 41.52 38.83 41.10 43.19 44.52 45.69 46.64 47.33 46.96 47.83 48.46 48.75
41.88 42.03 41.61 40.86 40.97 41.50 41.61 41.67 42.02 41.82 41.08 40.36 40.36 40.39 39.62 40.09 38.58 38.01 38.18 40.83 41.13 42.12 42.16 40.74 38.32 39.83 39.55 38.56 35.03 36.52 37.13 36.86 38.25 40.70 40.23 40.59 41.44 43.08 44.13 44.16 44.52 44.98 45.37
41.02 41.08 40.92 40.65 40.33 40.18 40.84 40.85 41.63 39.80 39.57 40.55 40.27 39.21 38.16 37.47 38.47 36.42 37.22 35.70 37.04 36.76 37.18 39.97 37.97 37.17 36.94 35.32 33.81 30.92 30.83 32.54 32.42 35.46 37.07 37.62 38.75 39.32 39.86 40.20 39.91 39.90 40.84
40.37 40.36 40.60 41.19 41.14 41.36 41.17 40.30 41.56 41.07 39.72 37.78 36.74 36.48 36.85 37.73 38.72 37.96 34.47 33.14 33.03 32.19 31.88 30.66 30.60 31.08 28.75 28.16 27.19 28.44 26.93 27.41 29.06 29.33 28.15 28.99 29.92 30.01 32.24 36.90 36.62 37.53 38.12
39.14 39.77 40.09 40.13 39.94 40.06 40.21 41.12 40.92 38.31 36.62 34.86 33.23 32.73 32.73 34.56 35.44 36.68 36.89 37.44 34.80 29.94 28.77 25.91 23.57 25.03 25.25 25.32 26.75 26.57 23.79 24.92 22.29 27.52 25.29 25.53 27.53 26.54 27.89 28.78 36.16 36.49 36.86
38.93 39.34 39.16 39.17 38.78 37.81 38.84 39.33 38.52 33.43 31.71 31.81 30.97 31.42 32.73 33.96 33.20 31.27 34.07 35.18 35.12 35.84 34.36 28.39 25.68 25.08 25.20 26.97 26.27 25.63 25.31 24.15 23.31 26.26 25.48 23.44 26.39 26.42 28.32 32.08 35.80 36.05 35.76
37.76 37.77 38.21 37.99 35.15 34.89 36.96 36.79 35.68 30.47 30.11 29.51 30.30 31.71 31.28 32.10 32.86 31.43 29.11 27.90 27.60 29.29 30.55 31.36 27.64 27.06 27.77 28.27 27.56 27.50 25.42 25.59 26.65 26.53 26.13 20.03 26.03 26.08 27.64 28.40 35.24 35.58 37.15
36.12 35.64 34.66 32.60 30.99 31.40 35.51 35.13 32.31 30.05 28.69 28.86 30.74 31.49 31.43 31.00 35.18 33.99 29.43 27.75 25.70 27.14 32.57 32.56 31.99 31.66 31.49 31.64 31.10 26.86 23.60 22.20 21.74 23.98 25.93 24.29 24.57 23.71 26.37 27.38 28.78 35.37 35.91
34.10 34.44 33.37 31.47 34.90 30.88 35.17 34.11 32.04 29.31 27.61 27.45 28.12 29.96 33.84 32.42 34.02 33.95 29.24 26.53 24.12 25.08 26.22 26.18 25.37 27.84 28.61 28.12 31.26 25.95 23.76 15.73 18.36 20.07 25.08 19.98 21.74 22.32 18.05 25.91 26.73 27.89 28.39

GFSMA_sfc_wetblb_081.txt.gz
Wetbulb
60.28 60.05 61.10 62.41 62.28 61.98 61.48 62.17 62.00 61.34 59.98 59.37 59.50 59.28 59.06 58.85 58.17 58.05 57.87 62.86 65.00 66.47 65.92 66.00 66.79 67.55 67.71 67.84 66.46 64.80 63.61 62.51 61.44 60.70 60.24 60.03 60.06 60.36 60.68 61.25 61.03 60.98 60.85
61.18 60.60 59.57 58.70 57.94 58.02 58.35 59.76 60.78 60.82 60.56 60.55 60.60 60.59 60.08 59.70 59.80 59.90 59.41 59.63 63.92 65.22 66.38 66.15 66.19 66.59 67.51 67.81 67.84 67.18 65.53 64.07 63.12 62.29 61.39 60.73 60.56 60.42 60.32 60.51 60.36 60.35 60.06
62.85 61.52 61.15 60.33 58.30 59.02 59.58 60.12 60.85 61.04 60.84 61.66 61.05 61.74 61.90 61.63 61.27 61.01 61.31 60.75 60.99 62.97 65.13 66.52 66.65 66.63 66.84 67.47 67.65 67.44 66.87 66.01 64.59 63.63 62.84 61.98 61.38 61.04 60.57 60.36 60.11 59.84 60.27
64.78 62.68 62.07 62.45 61.79 59.86 60.94 61.25 61.27 60.99 60.89 60.81 60.84 61.54 62.43 63.37 63.56 61.91 62.16 61.87 61.73 62.47 62.81 65.61 66.91 66.93 66.50 66.38 66.82 67.23 67.08 66.48 65.83 64.91 64.03 63.21 62.23 61.60 60.93 60.58 60.59 60.08 60.07
65.58 64.64 63.98 63.86 64.08 63.44 62.34 62.18 62.10 61.77 61.29 62.04 63.05 63.42 63.36 63.10 62.02 62.90 61.63 61.68 61.57 62.71 61.61 63.07 63.40 63.69 64.49 64.79 65.43 66.06 66.11 66.26 65.96 65.52 65.11 64.28 63.36 62.49 61.91 61.40 61.02 60.83 60.01
66.46 65.83 64.70 64.10 63.79 63.08 62.84 62.67 62.41 63.22 63.48 63.39 63.64 62.58 61.90 62.00 61.83 61.30 61.29 61.99 61.37 61.25 61.80 61.48 61.02 60.07 61.71 63.53 64.26 64.71 64.73 64.70 64.88 65.05 64.68 64.74 64.57 63.76 62.91 62.36 61.72 60.95 60.51
67.52 66.72 66.39 65.85 65.96 65.04 64.66 64.80 64.30 63.50 62.37 62.24 61.94 60.75 60.42 61.14 60.97 61.11 61.29 60.76 60.53 59.32 57.28 56.64 55.85 55.62 57.14 60.58 61.14 61.24 61.71 62.07 62.11 62.24 62.92 63.97 64.12 64.45 64.12 63.51 62.77 61.96 61.37
65.12 65.09 64.89 65.53 65.43 64.94 64.70 64.53 64.15 63.13 63.03 63.29 61.01 59.93 56.74 56.07 57.07 57.19 57.61 59.07 58.28 57.52 55.91 55.78 55.20 54.54 54.72 55.40 54.77 56.78 57.83 59.49 60.82 61.60 61.45 61.66 62.06 63.13 63.69 64.15 63.85 63.01 62.50
59.61 59.56 60.63 62.29 62.64 63.22 62.91 63.15 62.97 62.19 60.98 61.51 62.42 59.87 55.70 51.72 53.52 55.62 56.28 56.20 55.59 54.96 55.11 55.54 55.44 55.09 52.85 50.62 51.20 52.14 55.41 56.82 58.97 60.30 60.81 60.96 61.26 61.74 62.08 62.83 63.34 64.32 63.77
55.25 55.62 55.59 55.56 55.24 55.63 55.70 56.89 57.80 58.22 57.09 56.87 57.24 58.87 57.68 57.89 54.71 52.53 53.92 54.64 55.05 56.03 54.31 54.79 53.44 52.33 50.91 49.84 51.36 53.45 54.02 55.44 57.48 58.80 59.78 60.02 60.22 61.23 62.05 62.41 62.39 62.53 62.69
53.73 53.81 53.64 53.49 53.61 54.12 54.15 54.75 55.22 55.39 55.48 54.48 53.87 53.75 53.76 54.08 54.78 53.70 50.27 51.58 54.08 54.02 52.97 51.10 51.09 50.78 49.73 49.36 48.79 50.99 52.53 53.78 55.52 56.75 58.44 58.77 59.17 59.25 59.29 59.42 59.97 60.90 61.87
51.94 51.87 52.22 51.32 51.30 51.49 51.17 51.35 52.02 52.82 53.65 53.63 53.59 53.12 52.99 52.58 52.21 52.09 51.08 51.29 50.95 52.95 50.80 50.80 49.76 49.39 48.68 47.29 49.48 50.35 50.39 51.92 53.75 56.14 57.04 57.62 57.15 56.42 56.68 57.72 58.68 59.32 60.20
50.53 48.90 49.25 48.66 48.61 49.04 49.67 50.08 50.04 51.04 52.15 52.55 52.71 53.62 55.80 54.72 54.73 54.64 53.10 51.53 52.83 53.10 49.33 47.22 45.86 46.57 46.04 44.02 46.37 47.53 48.94 50.25 52.41 56.02 57.70 57.03 55.20 54.71 55.44 56.96 58.58 59.59 59.77
47.47 47.26 47.38 47.31 47.34 47.63 47.81 48.19 48.45 49.76 51.86 52.15 52.71 52.96 53.04 51.07 52.32 53.75 54.54 52.75 50.43 50.82 48.63 45.31 44.16 42.85 44.31 45.00 46.23 46.84 46.35 48.72 51.04 53.16 53.97 52.92 51.96 52.62 55.61 56.12 56.33 57.32 58.78
45.97 45.54 45.50 45.41 45.59 45.83 46.04 46.47 46.76 48.29 48.95 50.19 50.13 51.73 51.30 50.86 50.90 51.25 50.57 52.03 50.96 47.35 47.44 43.49 42.24 42.05 42.04 43.55 44.68 44.97 44.11 47.54 49.32 50.47 50.52 50.52 50.56 50.90 52.22 53.93 55.28 55.62 57.52
44.53 43.90 43.73 43.61 43.62 43.91 44.20 44.28 45.52 46.72 47.20 47.53 47.94 49.20 48.96 48.51 48.26 48.61 48.37 48.50 47.73 47.93 45.12 42.73 41.19 40.88 43.05 44.06 44.24 43.97 42.78 44.27 46.58 47.80 48.08 48.83 49.40 50.00 49.84 50.66 52.29 53.77 55.32
42.93 42.50 42.40 42.19 42.10 41.94 42.22 42.62 43.18 44.16 44.67 46.03 47.19 46.40 45.40 46.05 45.96 44.04 44.00 45.37 45.23 45.67 44.18 40.94 41.24 40.75 39.49 38.47 41.24 42.73 42.60 39.29 40.56 44.17 45.64 47.07 47.63 48.54 48.51 48.14 49.02 50.53 51.58
42.33 41.55 41.44 41.18 41.08 41.25 41.24 40.98 41.87 42.29 42.38 41.89 43.53 44.24 43.70 43.93 42.02 42.81 42.41 41.57 41.29 39.10 43.09 41.04 40.06 38.61 38.88 40.09 40.61 38.27 39.72 40.22 36.10 41.11 42.42 43.19 44.71 46.02 46.54 46.68 46.83 47.21 48.23
40.98 40.92 40.49 39.90 40.04 40.51 40.41 40.44 40.76 40.19 39.38 39.05 39.85 40.80 39.93 38.45 36.85 36.66 37.07 38.81 38.43 41.02 40.49 40.55 37.96 39.70 39.40 37.12 34.50 35.07 35.91 34.40 36.39 39.28 39.68 40.58 41.30 42.36 43.06 43.58 43.34 43.76 44.73
40.05 39.90 39.62 39.66 39.49 39.43 40.01 40.03 40.12 38.80 38.80 38.62 38.26 37.03 36.54 36.37 36.64 35.28 34.65 33.91 35.28 36.13 36.24 39.17 38.07 37.18 35.94 33.93 32.45 28.79 28.85 30.05 29.47 33.16 34.77 37.22 38.65 39.38 40.14 40.13 39.94 39.59 40.50
39.17 39.26 39.23 39.43 39.87 40.99 41.18 40.76 41.50 39.90 38.79 37.60 36.99 36.61 37.48 38.49 39.49 37.96 33.92 32.06 32.29 31.66 31.28 29.86 30.02 30.35 27.82 27.26 26.59 27.07 25.82 25.82 26.86 26.55 26.48 26.71 27.91 27.57 31.31 35.08 36.03 37.47 38.00
37.75 38.10 38.23 39.24 39.79 40.02 40.75 41.88 41.27 38.78 37.07 34.41 32.30 32.46 33.22 34.99 35.76 37.61 37.86 37.40 34.12 29.77 27.67 26.02 23.29 25.03 24.75 25.12 25.99 26.16 22.98 24.11 21.71 26.75 24.53 25.00 25.93 25.89 27.16 28.03 37.04 37.18 36.88
36.43 37.52 39.09 39.26 38.66 38.49 39.92 41.18 39.90 35.66 33.76 31.41 29.78 30.41 31.67 33.49 32.52 31.15 35.04 35.65 36.05 36.54 34.27 28.39 25.73 24.83 25.25 26.68 25.97 25.09 24.45 23.14 22.47 25.65 24.60 22.70 26.10 25.92 27.39 30.71 36.35 37.16 36.98
35.17 36.79 38.41 38.42 36.18 35.86 38.85 38.76 37.24 30.47 28.81 29.57 31.04 31.83 31.89 31.52 32.10 30.83 28.95 27.83 28.63 29.07 30.06 30.55 27.97 27.44 27.86 27.84 27.59 26.79 24.41 24.81 25.65 25.98 25.24 19.77 24.80 25.56 26.64 27.42 35.50 36.11 36.47
33.98 35.59 36.06 34.39 32.30 31.44 37.07 36.33 31.38 28.53 28.74 28.66 30.45 31.16 31.86 31.81 35.08 34.57 29.56 27.26 25.72 27.26 33.03 33.60 32.46 32.21 31.94 32.01 30.92 26.21 23.48 21.17 21.19 23.63 25.41 23.88 23.52 22.69 24.92 26.55 28.14 35.35 35.70
32.08 34.79 33.94 33.47 33.29 29.83 36.14 35.35 31.54 27.99 26.44 27.12 29.29 30.56 35.12 32.68 34.88 34.46 28.64 25.46 24.29 25.04 26.33 25.98 25.32 28.15 28.40 28.67 31.72 26.12 24.44 14.88 16.84 18.56 24.54 19.24 20.85 20.68 17.41 24.12 25.30 26.17 26.68

GFSMA_sfc_wetblb_084.txt.gz
Wetbulb
63.09 62.48 62.14 62.06 61.69 61.92 61.77 61.44 61.84 61.86 61.35 61.53 59.61 58.53 58.48 57.73 57.58 57.46 56.90 62.12 65.53 67.45 66.98 66.37 66.58 67.13 67.79 68.01 67.44 65.78 64.32 63.15 62.17 61.27 60.55 60.12 59.96 60.29 60.47 60.82 60.48 60.95 60.83
60.48 59.65 59.05 60.71 60.93 59.60 60.96 58.87 61.22 60.45 59.06 59.03 59.23 59.10 58.74 58.66 58.69 58.65 58.55 58.12 63.52 65.60 67.27 66.60 66.73 66.94 67.13 67.94 67.82 67.07 66.50 65.11 63.94 63.02 62.01 61.27 60.89 60.75 60.65 60.64 60.39 60.24 60.03
60.85 60.28 59.21 58.04 57.19 57.29 57.32 58.51 59.61 59.98 59.98 60.59 60.23 60.90 61.00 60.82 60.62 60.06 60.21 59.86 60.19 62.63 65.02 66.52 67.14 67.41 66.91 67.08 67.62 67.26 66.90 66.35 65.95 64.60 63.61 62.68 62.03 61.57 61.00 60.78 60.42 60.05 60.22
62.96 61.03 60.72 61.25 60.07 57.82 58.60 59.02 60.05 59.94 60.07 60.20 60.15 60.92 61.21 63.18 63.24 62.94 62.28 62.32 61.85 62.28 62.93 65.47 67.08 66.85 66.13 66.26 66.38 66.32 66.38 66.10 65.78 65.68 64.82 64.05 63.01 62.23 61.92 61.41 61.04 60.43 60.28
64.58 63.27 62.17 62.37 62.88 61.90 60.10 60.80 61.03 61.06 60.74 61.30 62.50 63.07 63.15 63.00 62.52 62.47 61.29 61.32 61.01 61.86 61.93 62.07 63.34 63.54 63.76 64.19 65.01 65.41 65.40 64.99 65.13 64.81 64.93 65.15 64.51 63.50 62.82 62.03 61.57 61.02 60.72
65.41 64.53 63.94 63.64 63.30 62.49 62.35 62.27 62.04 62.00 62.93 62.64 63.39 63.08 62.96 62.84 61.70 61.16 61.12 61.44 60.82 60.60 60.74 62.04 59.18 59.54 62.62 63.75 63.95 63.83 63.41 63.02 62.59 62.65 63.14 64.20 64.35 64.62 64.08 63.35 62.55 61.99 61.22
66.08 64.43 65.25 64.88 64.97 64.19 64.15 64.19 64.12 63.52 62.31 62.88 61.96 60.33 59.45 60.23 60.08 60.34 59.88 59.65 60.21 59.93 58.73 56.36 55.40 56.50 58.82 60.52 60.48 60.52 61.02 61.54 61.86 61.93 61.80 62.00 62.48 63.46 64.16 64.49 63.70 62.75 62.01
65.94 64.83 64.26 64.08 64.75 64.63 64.54 64.37 64.00 62.88 62.73 62.83 59.89 58.76 54.25 55.74 56.15 56.13 56.26 57.15 57.13 56.56 56.54 55.89 55.19 55.62 54.51 53.55 54.90 57.13 58.15 59.44 60.55 61.04 60.79 61.15 61.40 61.94 62.35 63.04 64.04 64.15 62.97
62.02 61.63 61.57 61.89 61.60 62.14 61.25 60.36 61.21 61.20 59.39 58.96 59.20 57.73 53.64 51.28 52.79 55.36 54.94 55.00 54.83 55.08 55.44 55.20 54.65 52.70 51.10 51.31 52.58 53.84 55.74 57.06 58.65 59.71 60.16 60.19 60.26 60.66 62.07 62.47 62.79 63.07 63.75
57.29 56.20 55.92 55.52 56.29 55.97 55.15 55.69 56.43 56.92 56.96 55.84 55.93 57.73 56.30 58.02 53.89 50.67 53.66 54.04 54.34 54.95 54.84 53.39 52.21 50.61 49.53 51.19 52.62 53.75 54.55 55.32 56.71 57.61 58.65 59.63 59.47 60.53 60.96 60.87 61.21 61.83 62.20
53.79 53.91 53.78 53.62 53.36 53.83 53.62 53.89 54.03 54.00 54.54 54.10 53.42 52.50 51.73 51.76 52.13 51.52 51.28 50.97 52.54 51.15 50.32 50.91 50.48 49.25 49.42 50.03 49.88 50.93 52.66 54.20 55.82 57.11 57.71 59.21 59.11 58.79 58.43 58.75 58.71 59.28 59.79
52.20 51.67 51.76 51.11 51.00 50.74 50.11 50.24 50.69 51.06 52.25 52.51 52.68 51.99 51.49 50.80 50.63 50.01 52.05 51.39 49.76 49.80 49.26 49.72 49.29 48.42 47.35 47.57 49.27 50.00 51.23 52.84 54.83 57.17 57.60 58.46 57.06 56.51 56.58 56.98 58.70 59.36 59.67
50.20 49.19 49.19 48.54 48.06 48.35 48.69 48.79 48.69 48.93 49.91 51.12 51.27 51.55 52.55 52.78 53.02 51.90 50.93 50.04 52.22 50.57 47.40 46.59 46.59 46.25 45.66 44.52 45.98 47.36 49.79 51.34 53.14 55.05 55.96 55.56 54.06 54.42 57.01 57.43 57.78 57.65 58.43
49.19 48.39 47.81 47.51 46.90 46.81 46.71 46.83 46.96 47.66 49.06 49.81 49.95 50.02 50.04 50.26 52.16 53.04 52.31 52.20 48.91 50.32 48.83 44.37 43.45 43.27 44.35 43.60 45.90 46.32 44.93 49.42 51.37 52.23 53.10 52.16 51.22 52.20 53.82 55.17 56.21 57.52 58.27
46.98 46.36 46.24 45.84 45.24 45.22 45.10 45.27 45.36 46.39 47.45 48.31 48.42 48.40 48.65 50.94 51.02 51.02 51.31 50.48 51.28 46.96 48.19 43.67 42.68 42.41 41.33 42.48 43.98 42.68 42.42 47.75 49.29 49.77 49.98 50.06 50.39 50.71 51.09 52.18 53.10 54.39 56.41
45.09 44.98 44.68 44.62 44.43 43.88 43.20 43.12 43.77 45.27 45.59 46.33 46.66 46.12 46.75 48.71 48.96 48.26 48.41 48.90 48.54 48.76 44.94 44.05 41.08 41.77 43.44 43.73 44.17 41.42 41.53 43.51 46.07 47.66 48.01 48.30 49.19 49.58 48.77 49.46 50.76 52.02 53.28
44.02 44.02 43.62 42.78 42.29 41.89 41.42 41.30 42.13 42.81 43.49 44.59 44.36 44.37 45.76 46.52 45.71 43.30 43.42 45.55 44.76 46.09 44.92 40.95 41.19 41.08 39.89 40.16 40.03 42.34 39.97 38.63 37.63 44.63 45.42 46.11 47.36 48.33 48.10 47.35 47.84 49.03 50.39
42.88 42.27 41.54 41.14 40.63 40.68 40.29 40.00 40.56 41.31 41.70 41.36 42.52 44.99 43.93 43.53 42.72 43.10 42.91 42.14 42.27 42.18 43.81 40.27 39.84 38.46 39.09 39.99 39.83 36.48 38.46 37.97 34.96 40.88 42.06 42.67 43.88 44.58 45.25 45.43 45.41 46.01 47.24
41.21 40.71 40.31 40.00 40.03 40.02 39.61 39.49 39.84 39.38 38.82 38.73 39.22 41.86 41.20 40.52 39.45 39.35 39.69 40.00 39.53 40.70 41.79 40.69 38.01 39.68 39.33 37.10 34.33 33.37 32.99 32.01 34.48 37.46 39.43 40.27 41.20 41.53 42.07 42.55 42.48 42.79 43.67
39.50 39.27 39.02 39.16 39.08 38.75 39.19 39.14 38.90 37.66 37.09 37.06 37.23 37.08 37.45 36.65 36.60 35.37 34.93 34.97 36.73 37.07 37.71 39.81 38.11 37.32 36.78 33.39 30.41 28.91 28.46 28.91 28.00 31.47 33.42 35.36 37.20 39.01 40.31 39.31 39.02 39.03 40.07
38.62 38.78 38.42 38.47 38.62 39.16 40.05 40.18 41.16 40.46 39.07 37.29 37.65 37.33 37.05 38.59 39.15 37.32 33.81 32.08 33.53 33.01 33.19 30.64 30.44 31.10 28.46 27.67 26.97 27.12 26.03 25.73 26.47 26.04 25.63 26.29 26.18 26.36 29.13 32.97 36.20 38.04 38.32
37.01 37.22 37.31 37.71 37.62 39.95 41.30 42.22 42.02 39.32 37.79 36.14 34.43 33.68 34.44 34.67 36.50 38.34 37.94 37.33 34.15 30.80 30.01 29.40 24.77 27.64 25.38 26.16 26.44 26.38 24.24 24.17 22.75 26.40 24.16 24.54 25.80 26.16 27.48 29.39 37.56 38.25 37.30
35.63 36.08 36.40 38.83 39.10 39.29 40.90 41.86 42.11 37.16 35.01 33.78 31.12 29.30 31.01 33.04 32.41 31.16 35.83 36.40 37.04 36.97 33.69 29.04 26.89 25.78 25.76 26.98 26.53 25.49 24.63 23.66 22.79 25.49 24.32 22.09 25.81 25.68 26.92 29.88 36.77 37.57 37.80
34.45 34.86 35.56 37.27 37.70 37.09 40.09 40.62 39.21 34.02 33.22 32.02 27.98 29.51 30.03 29.86 30.36 30.23 28.72 29.00 28.03 29.33 30.17 30.82 28.69 28.13 28.10 28.03 28.15 27.38 25.52 25.06 25.51 26.02 24.89 19.44 24.12 25.01 25.86 26.97 35.88 36.90 36.85
33.21 33.40 34.34 35.93 34.91 34.62 38.82 38.91 33.90 29.10 28.42 28.31 28.92 29.99 31.45 31.77 34.99 34.36 29.11 27.28 26.66 28.21 33.60 33.78 32.78 33.17 33.69 33.48 30.31 26.96 24.74 22.19 22.30 23.97 25.42 23.84 22.87 22.19 24.13 25.83 27.53 34.06 35.09
32.55 31.60 34.36 34.63 35.03 32.34 37.47 36.91 31.69 27.56 26.09 27.38 28.62 30.65 35.44 32.95 35.79 34.89 28.79 26.25 24.97 25.78 27.23 26.64 26.39 28.22 27.75 29.55 32.06 26.40 24.95 16.70 18.86 20.97 25.18 19.68 20.18 19.82 16.87 23.63 24.76 25.53 26.40

GFSMA_sfc_wetblb_087.txt.gz
Wetbulb
62.49 62.39 61.69 61.29 61.01 60.92 61.03 60.41 60.89 61.20 60.80 60.76 61.18 59.03 58.02 57.56 57.00 57.06 56.49 59.92 65.17 67.20 67.27 67.17 67.04 67.31 67.82 68.40 67.75 66.96 65.68 64.33 63.25 62.03 61.05 60.36 59.97 60.21 60.40 60.75 60.43 60.63 60.60
62.77 62.39 61.57 61.21 60.73 60.75 61.06 60.62 59.46 60.84 60.37 58.26 58.22 57.76 57.46 57.61 57.82 58.00 58.09 58.00 61.65 65.31 67.01 66.87 67.21 67.45 67.50 67.48 67.44 66.95 66.43 66.13 65.51 64.25 63.05 61.96 61.11 60.83 60.68 60.77 60.44 60.25 59.94
62.04 61.80 59.56 58.32 60.15 59.47 57.88 57.10 57.93 59.00 58.96 59.65 59.46 60.15 60.34 60.26 60.33 60.04 60.32 61.03 60.81 62.08 64.40 66.64 67.19 67.72 67.06 66.78 66.87 66.58 66.19 65.74 65.73 66.17 64.72 63.47 62.53 61.97 61.36 61.07 60.75 60.34 60.16
61.16 59.98 59.30 58.57 58.38 56.79 56.83 57.03 58.31 58.69 58.96 59.47 59.62 60.53 60.70 61.96 62.48 62.96 62.35 62.11 62.10 62.00 62.42 64.71 67.10 66.72 65.17 65.56 65.45 65.91 65.88 65.32 65.55 65.46 65.29 64.85 63.95 63.06 62.62 62.13 61.55 60.92 60.65
62.66 61.30 60.73 60.80 61.59 58.88 58.18 59.20 59.68 60.08 60.08 60.49 60.97 62.68 62.58 62.83 63.09 62.68 61.18 61.55 61.29 60.84 61.09 62.09 63.40 63.52 64.11 64.36 64.97 65.42 64.66 63.64 63.26 63.43 64.15 64.69 64.76 64.55 63.67 63.16 62.44 62.05 61.35
64.24 63.24 62.38 62.25 62.60 62.19 61.82 61.21 60.82 61.63 61.75 62.29 62.97 63.01 62.89 62.77 62.48 61.45 60.65 60.89 60.54 60.60 59.87 60.67 59.66 60.53 63.18 64.43 64.02 63.49 62.84 62.53 62.34 62.29 62.37 62.53 63.11 63.89 64.46 64.42 63.45 62.80 62.23
64.54 64.24 63.66 63.32 63.12 62.59 62.44 63.38 63.25 62.92 62.81 62.45 60.28 58.41 58.18 59.30 59.09 58.87 57.03 56.69 57.83 59.89 59.16 57.85 57.13 59.42 60.55 61.72 61.25 61.07 60.98 60.98 61.31 61.40 61.01 61.38 61.72 62.15 62.67 63.45 64.38 63.97 62.97
65.32 64.70 64.00 63.39 63.37 63.50 64.46 63.99 63.01 62.57 61.67 61.00 57.92 57.04 53.30 55.21 55.05 55.55 55.14 54.85 55.22 55.62 55.10 55.79 55.71 55.12 54.02 54.43 55.58 57.91 58.61 59.38 60.01 60.44 60.20 60.23 60.59 61.03 61.85 62.79 62.93 63.38 64.25
64.27 63.88 63.61 63.05 62.45 62.24 62.30 60.80 59.41 59.20 57.74 57.53 57.74 57.15 53.62 50.61 51.88 55.09 54.54 53.41 53.84 53.12 54.41 54.67 53.58 52.06 51.34 52.18 52.68 53.92 56.47 57.62 58.47 58.92 59.24 60.24 59.51 60.24 61.46 61.72 62.13 62.31 62.75
60.14 60.41 59.57 59.32 57.79 56.97 56.12 55.64 55.91 56.44 56.86 55.64 54.96 55.91 54.85 56.53 52.90 49.16 52.60 52.91 53.27 53.46 52.58 52.50 50.51 49.88 50.41 51.26 52.13 53.44 54.24 55.74 57.06 57.81 58.32 58.53 59.71 59.78 60.04 60.00 59.86 60.31 60.64
57.54 57.88 57.14 55.80 55.55 54.84 53.72 53.30 52.58 52.31 53.07 53.22 53.26 51.76 50.70 50.71 50.88 52.19 50.81 49.42 50.86 48.69 48.77 49.08 49.17 48.25 49.88 49.83 49.64 51.12 52.79 54.99 56.78 57.94 57.92 58.96 58.98 58.69 58.61 57.80 58.14 59.24 59.70
55.19 55.31 54.77 53.59 51.86 51.45 50.91 50.67 50.50 50.10 50.69 51.11 51.26 51.28 50.82 49.43 48.69 47.98 48.96 48.75 48.16 48.60 49.13 49.35 48.66 47.15 47.52 48.33 49.20 50.03 51.75 53.33 55.09 56.29 58.23 57.80 56.70 57.19 58.96 58.39 58.66 58.82 58.38
51.62 50.90 49.82 49.28 48.57 48.75 48.37 48.33 48.18 47.87 48.34 49.00 50.19 50.27 50.51 50.70 52.66 51.70 50.18 49.02 48.79 47.74 46.92 45.76 46.49 46.33 46.31 45.80 46.72 47.49 49.57 51.54 53.30 55.02 55.78 55.31 53.96 54.10 55.70 56.81 57.40 57.88 58.37
51.08 49.10 47.91 47.46 46.99 47.07 46.77 46.60 46.42 46.29 47.44 48.05 48.25 49.46 49.37 49.13 49.73 50.69 51.73 51.36 49.93 49.03 46.81 44.54 43.79 44.76 44.67 45.51 46.54 46.22 44.36 49.63 50.95 51.38 51.86 52.06 51.77 51.48 52.62 53.88 53.89 55.79 57.33
48.02 45.80 45.86 45.82 45.68 45.64 45.57 45.42 44.99 45.02 46.40 46.52 47.46 47.87 47.60 48.12 48.50 49.31 51.02 51.05 50.64 46.79 47.53 43.30 42.13 42.88 43.49 44.15 44.72 43.30 42.04 47.54 48.57 49.39 49.63 49.79 50.17 49.99 49.91 51.04 51.84 53.00 54.69
45.76 45.03 44.61 44.76 44.76 44.39 43.94 42.74 42.65 43.79 44.20 44.89 46.25 45.73 45.70 45.89 46.14 46.72 48.33 48.74 48.86 48.87 46.84 44.19 41.54 42.17 43.80 43.85 44.44 42.30 42.03 42.65 45.58 47.15 48.09 48.21 48.91 49.21 48.83 48.60 49.48 50.32 52.22
44.89 44.67 44.40 43.57 42.84 41.56 41.26 41.00 41.44 42.09 42.19 42.76 43.52 43.38 43.25 43.57 44.00 45.63 45.24 45.79 45.88 46.34 44.93 40.94 41.08 41.30 40.20 40.80 41.59 41.58 39.51 37.04 37.09 44.40 44.92 45.23 46.39 46.67 47.19 46.72 46.58 47.84 50.01
43.95 43.27 42.49 41.76 40.97 40.70 40.16 39.90 39.94 40.30 40.31 40.76 41.36 42.94 43.49 43.85 43.00 42.22 43.14 43.13 42.86 42.80 44.44 40.82 39.59 38.48 39.19 40.18 39.87 37.42 38.05 35.90 33.86 41.22 42.42 42.91 43.38 43.94 44.15 44.29 44.40 45.21 46.57
42.08 41.65 40.81 40.19 40.12 40.08 39.40 39.41 39.12 38.99 38.72 38.46 38.40 39.57 40.92 41.38 40.51 40.06 40.34 40.76 40.77 41.67 42.39 40.94 38.21 39.74 39.25 37.41 35.15 33.71 31.41 31.18 33.26 36.35 39.05 40.18 40.77 41.77 41.90 41.06 40.95 41.65 43.17
40.98 40.48 39.00 38.92 38.83 38.28 38.51 38.39 38.40 36.84 36.45 36.56 36.79 36.55 38.52 38.44 38.21 37.54 37.01 36.57 37.92 38.84 39.33 40.25 38.30 37.44 36.89 34.25 30.61 30.40 29.15 28.48 27.92 30.65 32.58 34.87 36.12 38.93 38.74 39.03 39.26 39.22 39.99
38.27 38.26 37.84 37.82 37.91 38.30 39.33 38.01 39.42 39.63 39.42 38.59 37.98 37.54 37.91 38.86 39.44 37.78 35.38 33.52 34.08 33.87 34.56 35.91 35.37 33.47 30.44 29.07 28.17 27.64 26.83 26.00 26.40 26.24 25.68 26.77 26.37 27.35 30.10 33.34 36.40 38.75 38.77
36.67 36.78 36.63 36.93 36.82 38.79 41.42 42.54 42.45 40.31 38.79 37.08 35.31 34.87 35.17 35.72 37.78 38.92 37.99 37.20 34.67 32.54 31.84 30.23 27.59 30.63 26.72 26.73 26.98 26.82 25.76 24.42 23.78 26.34 24.64 25.05 26.54 26.46 27.49 29.57 38.09 38.83 37.85
35.29 35.51 35.64 36.27 36.40 37.48 41.42 42.12 42.94 38.46 36.35 35.13 33.93 32.42 30.92 32.30 31.44 30.81 36.01 36.85 36.95 36.91 33.88 29.65 27.85 26.45 26.26 27.60 27.11 26.33 25.48 24.25 23.26 25.83 24.73 22.65 26.01 25.98 26.95 29.17 37.21 37.60 38.24
34.25 34.29 34.83 35.44 35.45 36.68 40.36 41.38 40.90 34.87 33.84 33.07 32.16 30.15 28.90 28.56 29.11 28.93 27.97 29.26 28.41 29.25 30.02 30.54 28.81 28.13 28.93 28.63 28.81 28.10 25.75 25.41 25.82 26.37 25.30 20.77 24.42 24.87 25.76 27.16 36.68 36.76 37.14
32.99 32.99 33.51 33.48 33.29 34.68 39.56 40.20 37.60 33.20 32.49 31.77 31.17 29.65 29.67 29.50 34.28 34.18 28.08 27.49 26.96 28.66 33.90 34.33 34.02 34.71 34.57 33.71 30.95 27.74 25.82 23.68 23.32 24.20 25.64 24.38 23.38 22.90 24.43 26.12 26.91 34.14 35.87
32.79 31.67 32.75 35.97 36.88 34.38 37.50 39.16 35.08 29.92 27.02 27.16 26.96 28.32 35.78 32.43 36.20 35.43 28.63 26.45 25.45 26.18 27.71 27.69 27.74 28.59 29.04 30.96 32.80 26.78 25.79 18.31 18.74 20.98 25.40 20.58 21.45 21.52 18.62 24.34 24.82 25.50 25.47

GFSMA_sfc_wetblb_090.txt.gz
Wetbulb
61.99 62.30 61.82 61.07 60.65 60.32 60.26 59.51 59.82 60.23 60.03 60.12 60.16 60.01 58.61 57.32 56.97 56.78 56.51 59.54 61.68 66.32 67.50 67.57 67.46 67.62 68.00 68.02 67.25 67.09 66.66 65.78 64.84 63.49 62.13 61.14 60.35 60.27 60.42 60.79 60.56 60.57 60.66
62.95 62.50 61.87 61.18 60.57 60.16 60.32 60.17 59.38 59.37 60.20 58.75 58.18 58.03 57.20 57.01 57.49 57.83 58.08 58.14 61.59 63.41 65.84 67.18 67.38 67.84 67.90 67.11 66.62 66.35 66.10 65.53 66.15 65.98 64.46 63.20 62.09 61.29 60.96 60.97 60.73 60.43 60.07
63.15 63.08 62.40 61.35 61.10 60.85 60.30 58.72 57.92 58.41 58.66 59.26 59.03 59.76 59.90 59.88 60.05 59.94 61.17 60.45 61.58 61.70 63.44 65.95 67.15 67.78 67.21 66.25 66.28 65.93 66.04 65.83 65.80 66.13 65.87 64.92 63.57 62.70 62.16 61.69 61.45 60.84 60.39
62.65 61.92 61.22 59.56 58.52 58.50 57.51 55.70 56.68 57.79 58.27 58.67 59.07 60.08 60.39 60.88 62.37 62.70 62.79 62.43 62.03 62.23 62.94 64.24 65.84 67.08 65.77 65.23 65.45 66.16 65.31 64.04 63.73 64.12 65.04 64.76 64.89 64.20 63.50 62.87 62.32 61.81 60.99
61.68 61.46 60.16 59.45 59.10 57.10 56.81 57.26 57.69 59.09 59.34 60.07 60.48 61.20 62.01 61.48 62.95 62.87 61.79 61.40 61.11 60.91 60.56 61.91 62.86 64.03 64.93 65.02 65.49 65.28 63.86 62.96 62.70 62.81 63.01 63.09 63.65 64.41 64.80 64.25 63.57 62.67 61.98
62.31 61.19 60.25 60.31 61.27 60.19 59.21 58.77 58.94 60.45 61.15 61.59 62.11 61.93 61.20 60.62 60.21 59.49 58.97 59.55 59.44 60.05 59.95 59.36 59.53 61.08 63.28 65.24 64.39 63.58 62.60 61.82 61.62 61.57 61.46 61.90 62.30 62.62 63.28 63.85 64.52 63.78 63.04
63.64 62.24 62.07 61.61 62.06 62.01 61.57 61.34 61.68 60.75 62.29 61.11 59.79 57.45 56.79 57.66 56.96 56.13 55.49 55.26 56.70 57.88 57.76 57.18 57.71 58.44 58.98 61.41 61.35 61.13 61.03 60.99 60.81 60.55 59.77 60.46 60.54 61.29 61.98 62.93 63.29 63.96 64.15
64.45 64.03 63.55 62.62 62.40 61.77 62.15 63.72 63.42 60.48 59.24 59.29 56.39 54.63 51.97 54.02 54.11 54.43 54.14 53.89 53.67 54.59 54.27 54.83 54.73 54.56 54.48 55.04 56.07 57.90 58.97 59.72 60.44 60.38 59.88 60.23 60.22 60.08 60.72 61.88 62.69 62.92 62.82
65.29 64.04 63.56 62.96 62.53 62.39 61.99 60.67 59.79 59.22 57.14 56.33 56.58 56.33 53.63 49.69 51.18 53.89 52.70 52.37 52.27 52.31 52.67 52.68 51.93 52.24 52.24 52.63 53.25 53.99 56.11 57.08 58.38 59.10 59.17 58.77 59.63 60.10 60.74 60.80 60.79 61.44 61.52
61.03 62.10 62.82 62.32 60.43 59.35 59.35 58.61 57.43 56.42 56.12 54.65 54.20 54.57 53.76 56.30 51.90 48.74 51.67 51.79 50.87 51.15 50.88 49.93 49.29 50.92 50.89 51.33 52.38 53.89 54.69 56.13 57.70 58.42 58.82 58.66 59.51 59.55 59.58 59.75 59.52 59.51 59.97
59.54 59.38 59.08 58.61 57.55 57.19 56.34 56.32 54.16 53.00 52.98 52.33 52.16 51.21 50.07 49.54 49.75 51.99 48.81 48.15 49.14 47.78 48.10 47.95 48.66 49.13 50.10 49.89 49.48 51.29 53.76 55.40 56.76 58.01 59.56 59.46 59.03 59.05 59.80 57.44 58.56 58.99 58.95
56.05 56.41 55.99 55.29 54.32 52.60 51.69 50.97 50.89 50.88 51.26 50.72 50.17 50.03 50.01 48.94 47.38 46.75 48.71 49.46 47.11 47.18 47.07 48.82 48.56 47.91 48.41 47.97 49.16 50.55 52.21 53.54 55.43 56.05 56.47 57.21 56.51 56.79 57.88 58.81 58.71 58.56 58.59
53.03 50.91 50.68 50.45 49.45 48.74 48.55 48.64 47.88 47.26 47.90 47.74 48.02 48.88 49.74 50.03 51.01 51.75 50.47 48.16 47.42 46.98 44.98 45.06 46.66 46.31 46.31 46.54 47.19 47.52 50.01 51.81 52.41 53.22 54.65 54.79 53.90 53.71 54.87 56.10 56.25 57.10 57.48
52.93 50.36 49.02 48.33 47.92 47.38 46.92 46.75 46.50 46.01 46.41 47.02 47.02 47.72 49.21 48.93 49.20 49.92 50.38 49.45 46.23 47.92 46.62 45.10 44.07 44.68 45.35 45.85 46.66 46.38 45.82 49.95 50.60 51.18 51.82 51.73 51.57 50.86 51.57 52.81 53.25 54.55 56.00
50.75 48.69 47.35 46.11 45.76 45.69 45.74 45.40 44.94 44.87 45.93 46.38 46.61 46.95 48.95 47.13 47.42 47.65 48.37 49.66 48.61 45.52 47.04 43.56 42.79 43.64 44.00 44.49 44.87 43.55 42.47 47.51 48.70 49.20 49.38 49.45 50.12 49.89 49.63 50.03 50.92 51.64 53.71
47.30 46.82 45.42 44.86 44.61 44.42 44.21 43.68 42.93 43.46 43.56 43.78 45.51 45.00 44.97 45.29 45.26 45.15 45.38 46.52 48.90 48.18 46.23 44.30 42.28 42.45 42.57 44.22 44.54 42.31 42.79 42.00 46.27 47.43 47.52 48.27 48.36 48.43 48.23 47.78 48.12 49.37 51.66
44.81 44.76 44.57 43.93 43.61 42.65 41.65 41.40 41.06 41.38 41.50 42.21 43.00 43.06 43.06 43.08 43.03 42.95 43.51 45.46 46.03 46.32 44.95 40.94 41.27 41.48 41.08 41.40 42.07 41.17 39.88 36.63 36.37 44.10 44.90 45.61 45.94 46.17 46.36 45.56 45.96 47.01 48.67
43.52 43.49 42.98 42.22 41.62 41.18 40.91 40.90 40.65 40.75 40.67 40.72 40.87 42.05 42.62 44.07 42.95 42.75 42.84 42.92 43.19 43.38 43.79 41.81 39.61 38.66 39.38 40.67 40.13 38.60 37.35 34.68 33.18 41.11 42.36 43.11 43.14 43.70 42.99 42.64 43.07 44.37 45.84
42.02 41.70 41.60 40.43 40.74 39.77 39.45 39.23 39.03 38.74 38.57 38.00 37.87 38.86 39.63 41.47 41.10 40.59 40.42 40.58 40.98 41.83 42.00 41.67 38.42 39.76 39.16 37.86 35.59 34.71 32.97 31.90 32.76 36.31 37.79 39.62 41.39 42.00 40.61 40.74 41.01 41.46 43.08
39.93 39.48 39.61 39.81 38.73 38.88 38.67 38.37 38.11 36.96 36.38 36.53 36.82 36.51 38.59 39.13 39.12 38.67 37.90 37.64 38.48 39.29 39.82 40.70 38.77 37.78 37.19 34.68 33.04 32.58 29.65 29.38 28.97 30.74 32.15 34.62 36.07 37.33 38.87 39.41 39.92 39.53 40.53
38.80 38.69 38.21 38.34 37.84 38.17 39.06 37.85 38.59 37.70 39.14 38.96 38.36 37.82 38.23 39.02 39.62 38.77 36.43 35.43 35.66 36.65 37.18 37.31 36.49 34.79 33.14 31.48 29.95 28.82 27.94 27.13 27.15 26.24 26.58 27.62 27.81 28.57 30.70 34.41 37.16 38.65 39.47
36.50 36.80 36.74 37.06 36.75 38.59 41.48 42.26 41.51 39.47 39.72 38.00 36.25 35.47 35.42 35.63 37.33 39.07 38.32 37.42 35.61 33.67 32.89 30.31 33.08 33.20 28.87 27.30 27.48 27.27 24.44 24.71 24.09 26.23 25.15 26.05 27.52 27.18 27.87 30.09 38.66 39.46 39.96
35.23 35.28 35.40 35.90 35.72 36.24 41.34 42.11 42.47 39.80 37.50 36.36 35.18 33.78 32.14 33.21 31.80 31.22 36.26 35.54 35.44 36.72 34.72 31.25 30.68 29.12 28.34 28.58 27.83 26.08 26.30 24.87 23.94 26.57 25.50 23.50 26.60 26.24 27.47 29.39 37.80 38.02 38.41
34.33 34.12 34.36 34.75 34.65 36.09 40.71 41.23 41.61 35.78 34.59 34.19 33.66 32.33 30.96 27.82 28.14 28.40 27.72 27.02 27.11 28.49 29.29 30.21 28.49 27.97 28.41 28.29 28.73 28.39 26.69 25.79 26.62 27.01 25.86 22.46 24.80 24.91 26.37 27.63 36.13 36.66 37.50
32.91 32.90 33.34 33.29 33.13 33.48 39.44 40.81 38.76 34.75 34.05 33.18 32.41 31.31 30.16 27.64 32.44 34.79 27.01 26.32 26.49 28.23 33.96 35.10 35.03 35.26 34.96 34.20 31.67 28.82 27.28 26.08 24.22 24.82 26.17 25.07 23.69 23.27 24.63 26.37 27.21 35.06 35.44
33.21 33.10 32.18 32.79 35.95 32.99 38.35 39.91 37.46 32.54 31.54 30.93 29.21 28.27 34.89 30.99 35.56 36.11 26.47 24.92 24.71 26.24 27.45 27.77 27.49 28.08 30.21 32.19 33.30 27.70 27.24 21.35 22.40 22.59 25.98 22.53 22.47 21.74 19.81 24.92 25.25 26.10 26.21

GFSMA_sfc_wetblb_093.txt.gz
Wetbulb
64.97 65.39 65.08 65.13 65.18 65.22 65.04 64.38 64.53 65.21 65.30 65.13 64.91 64.43 64.76 64.00 63.64 63.93 63.98 60.40 61.58 63.83 67.19 67.99 68.15 68.19 68.20 67.85 66.48 66.42 66.55 66.54 66.06 65.30 63.65 62.39 61.37 60.64 60.59 60.93 60.81 60.82 60.77
65.40 65.04 65.55 64.92 64.71 64.72 64.58 64.63 64.48 64.94 65.03 65.01 63.52 63.62 63.90 63.95 64.19 64.48 65.27 65.34 61.87 63.25 64.65 66.85 67.78 68.11 68.12 67.05 66.19 66.44 66.04 65.73 65.90 66.18 66.25 64.73 63.27 62.09 61.63 61.55 61.17 60.73 60.20
65.77 65.81 65.70 65.43 64.97 64.99 64.39 64.30 63.81 62.72 63.45 63.42 63.52 64.48 64.87 65.29 65.35 65.68 65.83 65.59 64.53 62.27 63.45 65.74 67.54 68.18 67.90 66.07 66.41 66.55 65.98 65.04 64.77 64.94 65.94 66.16 64.87 63.70 63.02 62.57 62.20 61.53 60.91
66.16 65.88 65.69 65.81 65.74 64.49 64.16 63.02 61.14 61.50 62.32 63.08 63.95 64.84 65.18 65.45 65.98 65.77 66.04 64.95 66.15 65.81 64.53 64.33 65.54 66.66 67.34 66.08 66.38 66.71 64.68 63.64 63.37 63.41 63.57 64.59 64.61 64.97 64.64 63.88 63.22 62.61 61.83
66.55 65.83 65.30 65.29 64.17 62.02 62.09 61.47 60.89 62.18 63.01 64.15 64.40 65.66 66.15 66.05 66.09 65.32 65.18 65.12 65.46 65.45 65.75 63.72 62.56 63.83 65.80 66.28 66.48 65.58 63.94 62.67 62.16 62.20 62.48 62.62 62.90 63.38 64.23 64.87 64.63 63.83 62.91
65.93 65.12 64.69 64.41 63.17 61.44 60.72 60.85 61.41 62.40 63.31 64.31 63.72 64.42 65.57 65.33 64.18 63.40 63.04 62.67 62.71 62.72 63.67 64.28 64.84 64.42 63.35 66.02 65.35 64.14 62.71 61.86 61.46 61.25 60.74 60.96 61.36 62.00 62.85 63.19 63.58 64.38 64.04
65.37 64.90 64.11 63.24 63.13 62.98 62.62 62.33 63.46 63.46 64.10 65.24 64.06 62.93 62.66 62.86 61.64 61.32 60.98 60.47 61.21 61.72 62.78 63.35 63.68 63.89 62.61 62.13 62.43 61.71 61.32 61.12 60.86 60.81 60.55 60.43 60.09 60.33 61.02 61.68 63.23 63.31 64.10
65.28 64.80 64.21 63.66 63.67 63.78 64.34 64.54 64.11 64.26 63.98 63.80 61.75 60.09 58.13 59.35 60.21 59.23 59.34 58.58 58.64 59.90 59.73 60.12 60.28 59.45 58.91 57.24 58.37 58.93 59.61 59.76 59.80 59.74 59.71 59.64 60.33 59.43 61.11 61.61 61.71 62.38 62.56
64.84 65.17 64.39 64.33 64.46 64.23 63.54 63.25 62.80 62.95 62.62 61.62 61.08 61.37 56.77 54.98 57.09 58.89 57.62 57.32 57.27 57.70 57.94 57.26 56.66 56.25 55.31 54.61 54.45 55.49 56.47 57.37 58.39 58.92 59.12 59.12 59.22 60.22 60.46 60.54 60.40 60.75 60.93
63.56 64.04 63.90 63.61 62.26 61.22 60.94 59.30 59.11 59.72 60.97 60.45 60.11 58.60 59.63 59.29 54.86 52.69 56.59 56.69 55.25 55.35 55.73 55.58 55.26 54.44 53.54 53.40 53.43 54.19 55.54 57.08 57.82 58.84 60.23 60.64 59.85 59.68 60.19 59.14 58.61 59.31 59.71
60.92 61.98 62.55 61.37 59.77 58.38 57.28 57.37 56.02 55.78 56.84 57.15 56.99 56.82 56.28 56.31 56.76 55.09 51.19 53.93 54.59 53.10 53.48 53.57 53.84 53.38 51.50 50.87 51.27 52.95 54.37 55.89 56.57 56.83 57.77 58.19 58.96 58.63 59.28 60.15 59.03 58.96 59.23
58.08 57.64 58.40 59.25 58.15 56.18 55.17 54.02 53.66 54.20 54.41 54.54 54.79 55.00 54.77 53.83 52.88 52.79 51.21 51.50 52.31 53.35 52.92 52.87 52.62 52.30 51.22 50.47 49.95 50.94 52.57 53.88 55.31 56.32 57.18 56.90 55.89 56.37 56.89 57.90 57.87 58.01 57.95
55.10 54.42 54.13 54.13 53.02 52.91 52.43 52.00 51.68 51.50 51.49 51.97 52.24 52.90 53.80 53.95 54.06 53.68 51.86 50.51 50.13 52.42 50.51 51.03 50.97 49.89 48.25 49.57 49.75 48.29 50.76 52.12 52.70 53.53 54.76 54.70 53.13 52.86 54.17 55.12 55.52 56.26 56.92
55.65 54.21 52.70 51.20 51.07 50.46 50.19 50.11 49.70 49.75 50.43 51.15 51.16 51.68 52.57 53.44 53.25 52.83 51.74 49.74 47.61 49.33 50.36 50.80 47.41 48.63 47.83 47.86 48.06 46.95 47.93 50.03 50.64 50.79 51.64 51.94 51.08 50.73 51.60 52.34 52.97 53.69 55.03
54.51 51.83 50.12 49.26 49.09 49.25 48.91 48.46 47.86 47.83 48.75 49.22 49.94 50.92 51.55 51.74 51.30 51.47 52.05 50.68 48.05 44.32 47.06 47.68 46.04 46.23 46.87 45.90 45.65 45.01 45.05 47.60 49.08 49.37 49.39 50.00 50.01 49.77 49.36 49.56 50.05 51.31 52.82
50.48 49.11 48.13 47.39 46.92 46.69 46.58 46.85 46.76 47.02 47.33 47.67 48.59 48.94 49.38 49.70 49.36 49.58 50.14 50.13 50.32 47.52 45.61 47.29 45.22 44.93 44.91 44.85 44.82 43.96 44.08 43.37 46.64 47.35 47.34 47.88 47.77 47.79 47.43 47.13 47.60 48.89 50.23
48.14 47.10 46.29 46.02 45.23 44.09 44.24 44.56 44.56 45.19 45.39 45.67 45.99 46.77 47.12 47.12 47.38 47.47 47.80 48.03 48.37 48.99 46.40 42.73 42.53 42.75 42.94 43.39 42.58 41.88 40.09 39.83 42.11 44.84 45.35 45.66 45.72 45.85 45.17 44.34 45.10 46.49 48.04
47.31 46.66 46.03 44.90 44.17 43.70 43.78 43.73 43.42 43.64 44.00 43.74 44.06 45.30 45.57 45.13 45.94 45.39 45.29 45.10 45.55 46.09 44.95 44.40 41.15 40.68 40.73 41.76 41.23 39.43 37.19 35.71 37.97 42.63 43.34 43.39 43.53 43.23 42.27 42.40 42.65 44.02 45.80
45.08 44.71 44.50 43.73 43.23 42.83 42.35 42.52 42.82 42.47 42.41 42.45 42.29 42.86 43.36 43.70 43.72 43.22 42.78 42.69 43.38 43.14 43.59 43.87 40.89 40.88 39.98 39.08 37.05 36.06 34.84 34.15 34.70 36.51 38.17 39.74 42.25 41.26 40.84 41.00 41.25 41.53 43.34
43.01 42.64 42.69 42.38 41.93 41.41 41.22 41.21 41.12 40.83 40.82 40.88 40.96 41.28 41.72 41.75 41.51 41.45 40.40 40.37 40.23 40.71 41.46 42.51 40.47 39.06 38.30 36.15 35.72 34.31 32.32 33.00 33.91 33.25 33.87 35.51 36.90 37.89 39.31 39.86 40.25 39.88 41.20
42.20 41.85 41.13 40.76 40.82 41.07 40.99 41.27 41.42 41.15 41.14 40.88 40.80 39.77 40.14 40.05 40.07 40.40 39.10 38.32 37.17 38.00 39.03 39.66 38.26 36.57 35.02 33.43 33.46 32.81 34.51 33.37 32.53 32.08 32.38 32.62 33.83 34.57 35.81 37.86 38.93 39.42 39.96
40.68 40.69 40.55 40.44 40.57 40.66 43.28 43.21 42.24 41.89 41.56 40.75 38.71 37.88 38.06 37.39 39.33 39.50 38.73 37.96 37.12 36.58 36.29 36.28 36.21 35.37 33.99 33.00 33.77 33.68 32.43 31.01 31.06 31.77 31.22 31.37 32.96 32.49 33.66 36.61 38.81 38.98 40.03
39.34 39.39 39.48 39.80 39.77 40.50 42.56 42.90 42.90 41.79 40.70 39.78 38.17 36.53 34.27 35.09 35.18 36.77 37.49 35.14 35.01 36.35 36.02 36.39 36.63 35.42 34.94 34.81 33.16 31.12 29.92 30.02 29.70 30.71 30.90 29.05 31.48 31.18 32.16 34.14 37.87 38.15 38.70
38.77 38.71 38.86 39.26 39.33 39.29 41.84 41.97 41.98 39.55 38.30 37.92 36.93 35.75 34.18 32.03 33.11 33.46 32.63 31.42 31.46 33.04 33.03 32.79 33.90 34.14 33.93 33.29 33.50 32.98 31.52 29.94 29.27 29.78 30.32 28.86 29.66 29.62 31.27 33.48 36.32 37.06 37.80
37.31 37.22 37.50 37.36 37.63 38.25 40.89 41.40 40.21 37.89 37.29 36.21 34.90 33.49 32.63 31.46 33.05 35.07 31.12 30.02 30.53 31.97 35.27 36.00 35.74 35.47 34.99 34.44 33.08 31.83 30.02 29.95 28.42 28.57 29.91 29.58 28.53 28.41 29.78 31.56 31.90 35.72 35.44
36.01 36.20 36.33 37.09 37.92 37.84 39.63 41.07 39.73 36.79 35.92 34.56 33.08 32.16 35.45 33.09 35.14 36.80 30.86 29.94 28.92 30.51 31.35 31.60 30.75 31.89 33.04 34.71 33.31 31.24 31.24 29.39 28.64 27.76 29.27 28.80 27.52 27.70 28.47 29.71 30.34 31.11 31.53

GFSMA_sfc_wetblb_096.txt.gz
Wetbulb
65.18 65.63 65.69 65.98 65.99 66.52 66.10 65.63 66.34 66.33 66.08 66.37 66.72 66.71 66.59 66.86 66.89 67.59 67.78 61.83 62.31 64.04 65.79 67.82 68.51 68.61 68.66 67.80 66.80 66.79 67.16 66.78 66.59 66.45 65.47 64.07 62.82 61.69 61.26 61.37 61.11 60.87 60.57
66.55 66.44 66.68 66.71 66.67 66.79 66.51 66.49 66.68 66.83 66.89 67.04 66.83 66.78 66.97 67.16 67.36 67.62 68.14 67.86 63.11 63.76 65.10 66.72 67.97 68.57 68.41 67.28 66.93 66.24 65.94 65.67 65.55 65.60 66.16 66.51 64.83 63.53 62.51 62.15 61.93 61.24 60.37
67.72 66.55 67.15 67.10 67.17 66.90 66.64 66.75 66.48 66.47 65.95 66.50 66.33 66.75 67.18 67.64 67.71 67.28 67.38 67.48 67.10 62.83 63.67 65.90 67.25 68.43 68.41 66.97 67.03 66.79 65.98 64.53 63.63 63.71 64.74 65.76 65.99 65.08 64.18 63.52 63.04 62.36 61.63
68.10 67.44 67.43 68.00 67.87 67.19 66.85 66.05 65.31 64.23 65.07 65.98 66.22 66.95 67.36 67.49 67.24 67.09 66.98 66.56 66.85 66.80 65.43 65.03 65.61 66.45 67.19 67.51 67.21 66.75 64.83 63.32 62.85 63.07 63.38 63.42 63.91 64.27 64.88 65.02 64.30 63.57 62.90
68.37 67.34 67.42 68.24 67.92 67.00 66.28 65.74 64.54 64.05 64.74 65.99 66.73 67.41 67.33 66.91 66.64 66.62 66.40 66.28 66.42 66.29 66.45 65.20 63.22 63.05 65.05 67.14 66.87 66.00 63.95 62.43 61.98 61.78 61.68 62.01 62.38 62.78 63.44 64.10 64.53 64.67 63.85
68.97 67.77 67.44 67.75 67.77 66.53 64.74 64.73 63.86 64.83 66.06 66.60 65.31 64.94 66.04 66.17 65.58 65.02 64.94 64.58 64.59 65.04 65.48 65.61 66.14 65.80 63.88 65.81 66.21 64.78 62.91 61.72 61.21 60.98 60.55 60.68 60.58 61.00 61.66 62.54 63.23 63.70 64.47
67.89 67.42 67.00 67.27 67.09 65.68 65.09 65.14 64.80 65.01 65.08 66.48 64.72 63.86 64.22 64.81 64.58 64.39 64.48 63.74 63.56 64.07 64.56 65.02 65.87 66.25 64.21 62.51 63.36 62.40 61.44 61.23 61.02 60.68 60.40 60.42 60.72 60.31 60.50 61.16 62.31 63.07 63.41
66.99 66.43 66.25 66.26 65.91 65.71 65.67 65.52 65.81 65.24 65.46 66.40 63.36 63.05 59.01 60.46 62.57 62.82 63.46 62.39 62.17 62.98 62.88 63.22 64.00 63.97 63.71 62.39 60.10 59.37 59.75 59.47 59.74 59.79 59.63 59.62 59.67 60.28 60.30 61.39 61.14 61.44 62.09
66.94 66.33 65.77 65.20 65.75 66.41 65.53 65.03 64.14 63.76 63.58 64.88 63.97 61.69 57.42 55.46 58.56 60.97 61.10 61.58 61.31 61.80 61.93 61.84 61.25 60.58 59.65 58.37 57.54 56.08 56.73 57.74 58.59 59.29 60.18 60.38 60.04 60.28 60.33 60.31 59.87 59.93 60.15
65.41 64.66 65.08 64.08 63.59 63.51 63.19 62.50 62.27 62.53 63.90 61.99 63.82 62.91 63.09 60.88 54.80 53.31 58.73 60.23 60.04 59.33 59.96 60.20 60.26 59.20 58.32 56.81 54.19 54.47 55.82 57.20 57.87 58.80 59.05 59.55 59.79 59.96 60.18 60.88 59.88 59.56 59.51
62.57 63.44 63.82 62.58 61.10 60.25 59.86 59.21 58.83 58.63 59.00 58.07 57.76 58.10 57.54 58.17 58.11 55.45 52.11 54.55 57.92 58.34 58.53 58.24 58.22 57.78 56.17 54.91 54.42 53.74 54.24 56.09 56.75 56.72 57.49 57.73 57.48 57.99 59.02 59.30 59.67 59.07 58.69
60.09 60.58 61.12 61.31 60.52 59.49 58.58 58.47 58.67 56.27 55.05 56.42 56.62 56.46 55.83 54.70 54.30 53.85 52.93 53.18 53.00 54.90 56.11 56.62 55.98 56.21 55.85 54.92 51.43 51.29 52.73 53.61 55.12 55.94 56.76 56.63 55.57 55.35 56.04 57.36 57.21 57.60 57.96
58.55 59.43 60.03 60.38 59.86 58.30 57.48 56.93 55.70 55.13 55.06 54.49 54.61 54.44 55.10 55.06 55.62 54.95 53.53 52.26 51.11 53.14 53.96 54.65 55.13 53.67 52.15 52.36 52.35 49.57 51.40 52.51 53.07 53.95 55.28 54.71 52.93 52.18 52.81 54.60 55.24 55.83 56.29
60.54 59.47 59.17 58.86 56.76 56.33 55.97 55.74 54.70 54.05 53.48 53.63 53.24 53.28 53.67 54.39 55.06 54.67 53.34 50.96 49.17 51.01 52.09 52.28 52.51 52.58 51.69 50.69 48.98 47.43 49.60 50.29 50.52 51.05 51.76 51.65 50.97 50.67 50.90 51.65 52.47 53.41 54.70
59.96 58.63 57.86 55.69 52.94 52.34 52.67 53.30 52.62 52.20 52.61 53.00 53.21 53.56 53.54 54.19 54.22 54.30 53.86 52.69 50.10 46.19 47.55 51.75 51.05 49.41 48.33 48.21 46.69 46.58 46.27 47.97 49.08 49.66 49.55 49.97 49.84 49.34 48.98 49.02 49.59 50.48 51.40
57.46 56.00 54.05 53.27 51.75 51.66 51.30 50.83 50.73 50.89 50.69 51.13 51.41 51.41 51.99 52.76 53.13 52.83 52.64 52.32 50.76 48.42 45.11 50.59 49.96 49.56 48.03 46.02 45.20 45.37 43.83 44.44 46.81 47.42 47.32 47.52 47.50 47.48 46.82 46.60 47.29 48.13 49.04
53.41 52.22 51.12 50.48 49.71 48.61 48.75 48.69 48.55 48.40 48.41 48.72 48.72 49.65 49.84 50.46 50.32 49.49 49.31 49.74 49.56 49.63 47.32 48.85 45.85 44.86 44.92 44.60 43.19 42.33 41.48 40.96 43.11 45.03 45.31 45.35 45.52 45.00 44.23 44.10 44.42 45.86 47.06
52.16 50.38 49.43 48.56 47.76 47.04 47.08 47.10 46.62 46.90 46.84 46.54 47.28 47.93 48.49 48.46 48.98 48.97 48.65 48.21 47.95 48.67 46.77 45.10 43.46 42.21 42.45 43.21 42.37 38.94 37.11 37.69 41.43 43.00 43.11 43.65 43.51 42.52 42.12 42.30 42.48 43.27 45.11
51.10 50.00 49.13 48.20 47.59 46.63 46.86 47.17 46.88 46.47 46.53 46.95 47.14 47.54 48.24 48.22 48.02 47.72 46.78 45.70 46.03 45.52 46.39 45.12 44.01 43.11 41.63 40.52 38.77 37.93 35.57 35.05 35.67 36.96 38.40 40.95 42.30 41.00 40.81 40.98 41.29 41.51 42.99
49.43 48.93 48.44 47.38 46.83 46.25 46.09 45.76 45.75 45.75 45.79 45.81 45.71 46.04 46.05 46.03 46.06 45.73 44.64 43.87 42.99 43.04 43.56 43.36 43.25 41.01 39.99 37.94 37.46 35.35 33.66 33.99 34.07 35.32 35.59 36.78 37.32 37.58 39.03 40.10 40.22 40.03 41.44
48.66 48.22 46.90 46.32 45.99 45.64 45.33 45.18 45.34 45.47 45.42 44.76 44.97 44.49 44.52 43.35 40.70 42.71 43.28 43.79 42.61 41.19 41.34 41.26 40.01 38.58 36.75 34.68 34.80 35.17 35.08 34.57 36.52 36.94 35.39 35.45 36.07 36.56 37.67 39.08 39.98 40.25 40.40
46.60 46.10 46.13 45.57 45.31 44.40 43.59 44.07 45.37 44.98 44.66 44.21 43.33 42.93 42.63 40.58 41.20 40.30 39.25 38.31 39.61 40.67 40.19 39.44 39.08 37.23 36.84 35.95 34.01 34.05 37.50 35.92 34.66 35.29 33.18 33.04 34.67 34.34 36.14 38.41 38.81 39.69 40.49
45.80 45.26 45.19 44.98 44.84 44.82 44.14 44.25 43.76 44.94 44.21 43.84 42.89 41.63 39.53 38.50 38.26 39.97 39.01 36.82 36.03 36.46 37.00 39.44 38.18 37.55 36.29 35.82 37.54 37.03 36.26 35.03 33.93 33.27 33.06 32.04 33.65 32.86 35.72 37.75 37.97 38.49 39.21
44.24 44.23 44.10 44.36 44.35 44.09 43.71 43.90 43.55 43.77 43.09 42.84 42.06 41.33 39.38 36.81 35.67 37.24 36.85 35.40 34.75 35.70 36.07 36.01 37.84 40.50 40.23 39.66 38.97 38.13 36.30 34.20 33.07 32.83 33.12 31.45 32.25 31.74 34.16 36.46 36.74 37.79 38.46
43.97 43.75 44.01 43.29 43.27 43.28 42.79 42.85 42.57 42.80 42.21 41.64 41.15 39.89 37.95 35.15 34.99 35.82 34.65 33.51 33.52 34.59 36.34 36.22 36.02 35.54 35.59 35.44 36.03 34.86 32.43 31.71 31.04 31.13 32.65 32.46 31.36 31.14 32.39 33.48 34.30 36.03 35.85
40.74 42.48 41.39 42.56 42.62 43.08 41.96 42.31 41.73 41.38 40.72 40.05 38.84 36.84 36.53 34.93 35.97 36.96 35.14 34.13 32.30 33.66 33.87 34.99 35.47 35.65 36.34 35.72 33.50 34.62 34.45 33.38 32.09 30.45 32.39 31.87 30.43 30.68 30.77 32.30 33.03 33.87 34.20

GFSMA_sfc_wetblb_099.txt.gz
Wetbulb
65.47 66.06 65.74 65.87 65.99 65.59 65.24 64.54 64.51 64.24 63.82 65.07 65.88 65.68 65.70 66.13 66.30 66.52 66.97 62.91 63.89 64.72 65.74 66.89 68.08 68.87 68.82 68.29 67.15 66.86 66.43 66.63 66.43 66.57 66.56 66.27 64.89 63.51 62.49 62.12 62.04 61.59 61.02
65.26 65.21 65.02 65.17 65.40 65.90 65.80 65.41 65.09 65.52 65.65 65.91 65.66 66.17 66.19 66.55 66.61 66.83 67.24 66.04 64.44 64.92 65.66 66.88 67.79 68.59 68.64 66.88 67.02 66.34 66.14 65.85 65.65 64.89 65.00 65.93 66.31 65.15 64.16 63.41 62.76 62.18 61.50
66.00 66.01 66.07 66.46 66.36 66.17 65.38 65.53 65.51 66.03 65.57 65.99 65.98 66.40 66.56 66.86 67.14 66.73 66.89 67.34 65.86 63.45 65.34 66.76 67.11 67.96 68.40 67.21 67.16 66.93 65.87 64.69 63.71 63.52 63.72 64.00 64.84 65.23 65.17 64.99 64.15 63.50 62.75
67.31 66.58 67.49 67.04 66.88 66.55 65.88 65.04 65.01 64.30 64.06 64.86 65.41 66.03 66.39 66.90 66.54 65.98 66.37 66.12 66.87 66.13 65.46 66.22 66.62 65.80 66.41 67.17 67.24 66.37 65.14 63.60 62.78 62.46 62.25 62.62 62.93 63.22 63.77 64.30 64.72 64.68 63.97
67.85 67.90 67.81 67.92 67.41 66.68 65.92 65.58 64.66 63.56 63.07 64.65 65.30 65.94 65.35 66.41 65.90 65.50 65.40 65.63 65.71 65.67 65.45 64.93 64.42 63.92 64.37 66.15 67.19 66.37 64.52 62.79 62.05 61.19 61.07 61.23 61.30 61.43 61.91 62.94 63.71 64.19 64.60
68.41 68.06 67.76 67.52 67.54 66.67 65.29 65.23 64.28 63.82 64.42 64.37 64.26 64.26 65.26 65.67 65.94 65.05 64.12 63.64 63.88 64.57 65.13 65.34 65.72 63.11 64.53 65.27 66.61 65.46 63.56 62.15 61.48 60.91 60.74 60.90 61.17 60.89 60.84 61.26 62.11 63.23 63.84
68.47 67.99 67.89 67.41 67.35 66.50 65.61 64.91 64.48 63.90 64.73 65.84 63.73 63.48 64.14 64.49 64.23 63.69 63.90 62.95 62.85 63.57 63.75 63.92 64.72 65.18 62.68 62.82 64.10 63.47 62.33 61.65 60.91 60.30 59.93 60.04 60.20 60.59 60.63 60.76 62.40 62.33 62.99
68.05 67.86 67.39 67.04 66.79 66.20 65.72 65.14 64.89 64.84 65.85 65.14 62.53 62.69 58.61 60.14 62.06 61.81 62.48 61.68 61.45 62.78 62.16 62.46 63.38 63.39 63.08 60.35 59.45 59.82 60.23 59.63 59.57 59.39 59.62 59.86 59.98 60.27 61.02 61.25 61.15 61.10 61.04
67.99 67.68 67.04 66.75 66.45 66.15 64.32 65.80 65.91 64.76 63.41 64.75 64.17 61.12 57.37 55.31 58.10 60.65 60.90 60.35 60.24 60.88 61.24 61.30 61.31 61.29 60.33 57.26 57.50 56.30 57.27 58.16 58.92 59.76 61.04 60.91 60.74 60.50 60.65 61.12 61.00 60.54 60.25
66.15 66.61 66.62 65.87 65.66 65.10 63.28 63.20 63.07 63.58 63.37 61.73 63.06 62.90 62.27 59.64 54.56 53.19 58.62 59.25 59.40 58.82 59.32 60.03 59.76 59.28 58.82 57.47 54.73 54.92 56.35 57.44 57.83 58.55 58.88 59.13 59.54 59.87 60.08 60.13 60.41 60.40 59.81
65.10 65.32 65.43 65.04 63.81 61.88 60.69 60.08 59.39 59.19 58.72 56.86 56.82 56.65 57.48 57.52 57.56 54.81 52.17 55.51 57.58 57.97 58.28 58.13 58.25 58.28 56.64 55.78 55.22 53.47 54.37 56.03 57.01 57.75 59.03 58.50 58.18 58.10 58.17 58.79 58.60 58.96 59.09
62.99 63.25 63.87 63.14 62.04 60.84 59.83 59.57 59.57 59.27 58.30 57.64 57.07 56.09 54.75 53.78 53.60 53.19 52.24 52.96 53.38 55.40 56.70 56.83 56.57 56.68 55.96 54.87 51.51 51.93 53.17 54.10 54.96 55.79 57.02 57.29 55.80 54.63 55.08 55.85 57.48 57.40 57.80
59.74 60.86 61.51 61.06 60.69 60.50 60.54 60.39 59.53 58.49 56.69 56.05 55.40 54.62 55.21 55.52 55.63 54.59 53.44 52.28 51.61 53.38 53.97 55.16 55.23 54.25 52.77 53.02 51.18 50.26 51.81 52.64 53.25 54.03 55.14 55.10 52.93 52.22 52.48 53.13 54.45 55.35 56.10
60.16 61.57 61.48 61.64 61.27 60.81 59.86 59.35 58.09 57.06 56.44 56.06 55.52 54.99 54.74 54.89 55.54 54.85 53.75 52.17 49.71 50.43 52.23 52.24 52.73 52.66 52.05 50.33 48.52 48.12 49.81 50.58 50.85 51.51 51.79 51.72 51.04 50.57 50.25 50.58 51.39 52.35 53.40
61.18 60.66 60.91 60.58 59.78 58.68 58.18 57.08 55.62 54.25 53.55 53.85 53.76 53.94 53.56 54.28 54.67 54.53 54.25 53.41 50.44 46.57 47.26 50.38 49.91 49.33 48.79 48.48 46.51 46.94 47.01 48.40 49.53 49.83 49.96 49.62 49.15 48.81 48.23 48.34 48.61 49.35 50.38
59.93 59.28 58.63 56.78 54.80 53.78 53.86 53.32 52.27 52.31 51.95 52.29 52.38 52.38 52.64 53.17 52.98 53.41 52.66 52.33 51.59 49.54 46.19 49.66 49.15 49.04 47.96 46.64 45.53 45.54 44.23 45.15 46.98 47.54 47.52 47.26 47.23 46.66 46.11 45.96 46.08 46.89 47.95
57.37 55.98 54.61 53.92 53.01 51.97 51.40 50.17 49.90 50.02 49.76 50.05 49.92 50.81 50.80 51.94 51.41 51.36 51.23 50.63 50.00 49.96 46.90 48.52 46.99 46.00 46.28 45.07 43.49 42.42 41.75 41.94 44.19 45.45 45.46 45.28 45.28 44.26 43.96 43.84 44.08 44.50 46.13
55.20 53.44 51.89 51.29 51.16 50.66 49.57 48.39 47.42 47.61 47.80 47.88 47.69 48.07 48.75 49.22 49.33 49.25 48.95 48.80 48.54 48.55 47.22 45.24 45.04 43.26 43.30 44.01 42.50 39.27 37.69 38.36 41.12 43.26 43.34 43.82 43.29 42.45 42.05 42.05 42.35 42.36 43.91
52.97 50.35 49.84 49.17 49.12 48.45 47.99 48.12 47.53 47.04 47.19 47.32 47.70 47.47 47.77 48.45 48.16 48.33 47.24 45.67 46.26 45.90 46.17 45.51 43.58 43.98 42.70 41.25 39.36 38.42 36.02 35.11 36.45 38.07 38.79 41.36 41.93 41.19 40.96 41.16 41.42 41.39 42.57
52.43 50.51 49.24 48.50 47.99 47.59 47.98 47.59 47.13 46.33 45.90 46.10 46.57 46.69 47.12 47.24 46.92 47.33 46.02 44.99 44.47 44.00 44.15 43.74 43.50 41.95 41.13 39.30 38.56 36.02 34.29 34.61 33.81 35.41 36.16 37.17 37.57 37.25 38.78 40.40 41.03 41.03 41.31
50.99 50.74 49.30 48.26 48.08 47.43 47.08 46.93 46.75 46.65 46.39 45.87 46.04 45.99 46.08 45.19 42.48 43.86 44.32 44.12 42.99 42.23 42.23 42.14 41.17 39.43 37.07 35.20 35.46 36.36 35.28 33.94 34.14 35.94 34.43 33.66 33.50 34.53 36.20 39.05 39.33 40.68 40.96
49.27 49.03 47.87 47.22 46.86 46.22 45.87 46.35 46.83 46.11 46.25 45.58 44.47 44.18 43.09 41.09 41.49 41.84 40.90 39.49 39.96 41.49 40.37 39.52 39.79 37.63 37.13 36.62 35.25 34.09 34.76 34.02 34.54 34.01 31.43 30.89 32.19 32.21 34.64 36.48 39.32 39.75 40.72
47.56 46.96 46.98 46.76 46.29 46.26 44.99 45.21 45.04 45.98 45.17 44.71 44.24 43.17 42.00 41.42 41.23 39.90 40.14 39.38 37.82 37.40 37.19 39.46 38.72 38.17 36.68 36.18 35.18 34.59 35.70 34.54 32.39 31.15 30.79 29.01 31.08 30.81 33.74 37.01 38.54 39.07 39.87
46.87 46.24 46.05 45.82 45.62 45.55 44.93 44.88 44.57 44.20 43.71 43.45 43.17 42.80 41.35 38.93 39.12 39.38 38.86 35.24 34.84 35.29 36.13 35.97 37.03 39.76 40.38 39.17 38.33 37.14 35.24 32.57 30.96 30.30 30.51 28.64 29.33 29.46 31.57 34.08 37.49 38.37 38.43
46.14 45.59 45.86 45.17 44.80 44.73 44.54 44.73 43.89 42.98 42.61 42.15 42.69 42.55 41.60 38.69 38.61 38.85 36.60 33.05 33.07 34.51 36.40 36.29 36.31 36.74 37.20 37.94 37.37 33.60 30.77 29.88 28.49 28.65 29.99 29.19 28.24 28.23 29.52 31.05 32.42 36.44 36.12
44.86 45.06 44.20 44.83 44.70 44.36 43.71 44.01 43.25 42.77 41.69 41.20 41.57 40.59 40.39 38.48 37.98 38.12 34.61 33.54 31.07 32.01 32.69 33.65 34.08 34.80 35.63 34.80 34.35 32.92 32.11 30.62 30.36 28.03 29.59 28.82 27.65 28.20 26.69 30.29 31.49 31.96 32.16

GFSMA_sfc_wetblb_102.txt.gz
Wetbulb
62.71 64.36 64.15 64.01 63.13 62.13 61.50 61.04 60.53 60.01 59.96 60.06 61.16 61.47 61.22 61.44 61.73 62.05 60.00 62.61 64.82 66.52 66.49 67.03 67.62 68.13 68.67 68.09 67.74 67.20 66.25 66.13 65.98 65.92 65.09 65.43 66.17 65.13 63.97 63.03 62.54 62.07 61.45
61.68 61.58 61.56 61.57 61.25 61.15 60.80 60.51 60.06 60.48 60.52 61.55 61.69 61.99 61.73 61.71 62.00 62.41 62.23 61.24 64.50 65.63 67.15 67.42 68.01 68.33 68.40 66.84 67.35 67.02 66.35 66.03 65.01 64.04 63.97 64.27 65.45 65.75 65.35 64.77 63.95 63.30 62.30
61.28 61.00 60.80 61.04 61.81 62.32 61.98 61.85 61.07 61.63 62.11 62.39 61.46 62.44 62.44 62.50 64.09 63.87 64.30 63.97 63.29 63.70 66.00 67.45 68.01 67.62 67.30 67.29 67.42 67.02 66.27 64.97 63.76 63.18 62.96 63.37 63.47 63.81 64.25 64.51 64.76 64.86 63.93
62.59 62.69 63.56 63.35 63.36 62.51 61.99 61.42 61.24 61.07 60.90 60.96 60.93 61.86 62.11 63.00 63.05 62.53 62.00 62.90 63.06 63.76 63.71 66.08 67.10 66.61 66.04 65.86 67.52 67.10 65.56 63.82 62.95 62.18 61.84 61.92 61.85 61.89 62.22 62.95 63.95 64.53 64.69
64.34 64.11 64.63 64.48 63.91 63.17 62.28 62.36 60.90 60.23 59.40 59.80 61.55 62.17 63.66 63.58 63.27 62.06 60.58 60.86 60.82 60.83 60.93 63.59 64.08 63.55 64.31 65.58 67.23 66.88 64.92 63.12 62.23 61.35 60.92 61.50 61.62 61.46 61.54 61.65 62.03 62.82 63.93
65.58 65.33 65.38 65.06 64.55 63.80 62.78 62.37 61.15 60.74 60.01 60.34 62.84 62.31 62.58 61.95 60.97 59.95 59.24 60.12 59.96 60.78 60.99 61.21 61.08 61.75 63.33 65.31 67.47 66.17 64.09 62.47 61.60 61.01 60.81 61.01 61.05 60.98 61.36 60.96 62.61 62.91 63.40
67.02 65.70 65.10 64.87 64.99 63.96 63.16 62.14 61.25 60.25 59.26 62.70 61.47 60.85 59.72 60.16 59.20 58.72 58.76 57.43 58.86 59.85 59.54 59.89 61.25 60.79 60.37 62.36 64.92 64.73 63.14 62.21 61.19 60.15 60.04 60.25 60.49 60.49 61.18 62.04 61.69 61.65 61.55
66.66 66.65 65.79 65.01 65.29 64.11 63.47 62.73 61.17 60.63 61.69 62.75 59.34 58.00 54.44 55.77 57.25 58.03 57.77 57.52 56.45 58.28 58.60 59.33 59.58 60.69 59.78 58.62 58.64 59.89 60.77 59.99 59.74 59.70 60.73 60.76 60.60 60.89 61.33 61.62 61.51 61.35 60.91
65.73 65.54 65.29 65.00 64.23 64.14 63.11 62.83 62.86 62.20 60.56 61.29 60.94 58.07 53.29 50.96 53.23 57.25 56.60 55.79 55.48 55.56 56.78 57.92 58.12 58.05 56.50 56.33 56.18 55.99 57.48 58.51 59.15 59.89 59.75 60.20 60.23 60.47 60.54 60.24 60.25 60.80 60.73
64.80 64.72 64.17 64.19 63.54 63.20 62.47 61.94 62.48 60.53 60.74 59.60 60.53 59.92 57.94 56.52 51.20 48.67 54.78 55.78 55.74 55.51 54.79 55.11 56.07 56.24 54.65 52.71 54.33 55.23 56.56 57.78 57.54 58.00 58.70 58.87 58.86 59.05 58.97 59.22 59.48 59.50 59.52
63.61 63.96 63.82 63.35 62.88 62.42 61.37 60.72 59.97 59.24 58.85 56.87 56.24 55.34 54.08 54.27 55.11 52.48 49.61 51.48 54.93 55.00 55.31 53.87 53.75 53.44 52.85 52.39 51.53 52.52 54.69 56.49 58.01 58.87 59.37 58.98 58.16 57.23 56.92 56.91 57.55 58.00 57.76
61.40 61.70 62.45 62.22 61.83 61.12 60.44 59.78 58.77 58.04 58.37 57.44 55.98 54.58 53.65 52.51 51.92 51.60 50.40 50.93 50.69 52.33 53.94 53.06 52.61 51.96 52.29 49.97 51.04 52.40 53.61 54.23 55.11 55.96 56.86 57.15 55.50 54.82 54.94 55.37 55.82 56.24 56.28
60.35 60.87 61.71 61.07 60.60 60.19 59.89 60.11 59.32 58.64 58.14 57.12 55.66 54.76 54.00 53.50 54.18 53.26 51.73 50.27 49.22 50.19 50.79 51.56 51.13 50.30 50.30 49.82 48.39 50.49 51.82 52.39 52.98 54.33 56.02 55.22 53.26 52.60 52.44 52.63 53.16 53.49 54.19
60.40 60.35 61.04 60.78 60.46 60.45 59.90 59.52 59.47 58.21 55.96 54.96 54.00 53.27 53.16 53.23 53.38 53.41 51.48 49.42 46.83 47.79 48.63 48.49 49.14 48.94 48.89 48.76 48.83 49.27 49.64 50.79 51.22 52.04 52.81 52.55 51.22 50.27 49.83 49.84 50.25 50.63 51.87
61.68 61.55 61.22 60.97 60.67 60.51 59.99 58.76 57.83 56.79 54.40 53.53 52.96 52.58 51.59 51.87 52.05 52.07 51.77 50.68 48.04 44.03 44.11 46.59 45.87 45.90 46.03 46.06 46.08 46.29 46.56 48.67 49.86 50.12 49.89 49.28 49.04 48.52 47.99 47.83 47.94 47.98 49.00
60.54 59.62 59.97 60.19 59.82 59.99 59.18 57.48 55.75 53.68 52.65 52.38 51.12 50.99 50.93 51.19 50.96 50.67 50.01 50.18 49.29 47.20 44.28 46.67 45.73 45.39 45.72 45.47 45.82 44.12 44.49 45.58 47.41 47.94 47.79 47.24 47.11 45.97 45.78 45.56 45.63 46.07 46.86
58.23 57.97 57.47 55.78 54.71 54.29 54.36 53.72 51.74 50.82 49.83 48.83 49.33 49.30 49.82 49.94 49.43 49.32 48.91 49.54 49.51 49.23 46.11 45.38 43.33 43.81 45.18 42.70 42.32 41.99 41.61 41.85 43.76 45.98 45.82 45.52 44.88 44.23 43.64 43.30 43.35 43.52 45.05
55.58 54.50 53.72 53.48 53.19 51.81 50.50 49.38 48.54 48.98 47.54 47.54 46.83 47.94 48.08 48.59 47.87 47.72 47.11 46.24 45.75 45.61 45.84 44.79 44.04 41.86 42.67 43.71 41.82 39.12 38.04 38.94 42.06 43.77 44.01 43.84 43.40 42.69 42.16 42.08 42.23 42.31 42.97
51.67 50.88 50.64 50.16 49.62 48.83 48.48 48.44 48.60 48.29 46.67 46.54 46.69 45.70 45.96 46.51 45.86 45.70 45.13 44.35 43.41 44.21 44.63 44.54 42.61 42.84 42.03 40.95 39.22 38.15 35.99 35.50 36.95 39.64 39.74 41.28 42.11 41.16 40.68 41.31 42.09 41.99 42.14
49.86 47.77 48.27 48.25 47.84 47.43 47.54 47.53 47.31 46.59 45.69 45.62 46.35 45.92 45.70 45.94 45.23 44.58 43.38 42.51 42.51 41.12 41.03 40.97 40.96 41.57 40.53 39.39 38.69 36.43 34.72 34.85 34.14 35.50 37.14 37.71 37.75 37.25 38.95 40.44 40.70 41.43 41.52
48.25 47.41 47.00 47.12 46.87 46.66 46.87 46.33 46.39 46.26 45.63 45.24 45.59 45.64 44.83 43.89 44.25 44.69 43.38 43.03 42.70 40.55 39.74 39.51 39.04 39.54 37.26 35.36 35.56 36.46 35.48 34.43 34.24 34.95 33.68 30.69 30.25 30.62 33.08 38.01 39.00 40.32 41.85
46.05 46.01 45.17 45.03 45.70 45.77 46.91 47.46 46.39 44.98 45.00 44.18 42.51 42.55 40.98 41.65 41.95 43.12 42.75 41.56 41.55 41.05 39.50 38.67 37.82 37.25 36.78 36.01 36.22 34.50 34.36 32.62 32.34 31.07 28.36 27.72 28.70 28.24 31.19 33.58 39.13 40.03 40.17
43.71 43.58 43.42 43.66 43.24 43.18 46.68 47.12 46.83 43.38 42.29 41.66 41.17 40.63 39.62 40.27 40.54 38.40 41.11 40.78 39.78 39.62 39.02 39.16 37.60 37.54 35.22 36.44 34.95 33.51 33.95 34.15 31.24 28.13 27.56 25.52 27.47 26.99 30.60 35.17 38.61 39.25 39.51
42.61 42.30 42.45 42.57 42.21 43.09 45.92 46.29 45.84 40.64 40.40 40.01 39.94 39.75 38.77 36.92 37.37 37.25 36.12 32.64 31.87 32.32 33.34 34.40 34.48 35.79 36.94 37.99 36.94 36.27 34.95 29.10 27.36 27.23 27.28 22.76 25.72 26.08 29.15 30.78 37.67 37.70 38.03
41.83 41.72 42.11 41.58 41.13 41.23 45.03 45.36 44.32 40.25 39.93 39.44 40.64 40.12 39.47 35.55 39.31 41.43 35.63 31.74 29.95 31.50 36.14 36.24 36.87 38.35 39.56 41.14 36.42 31.65 26.94 25.57 24.08 25.67 26.98 26.49 25.10 25.17 26.40 28.23 30.90 36.61 36.08
40.61 39.41 41.06 41.23 42.56 40.55 44.68 45.34 44.44 41.10 38.77 39.33 40.07 39.85 43.09 36.89 40.68 41.00 33.85 32.62 27.73 28.04 31.18 30.70 30.79 32.67 34.16 35.09 36.99 30.43 27.85 24.54 22.33 22.01 26.81 24.45 23.34 23.72 20.94 27.23 28.08 29.14 29.57

GFSMA_sfc_wetblb_105.txt.gz
Wetbulb
64.91 64.09 63.43 64.71 63.40 63.30 62.38 61.59 60.80 59.92 59.12 58.77 59.80 60.16 59.90 59.93 59.94 60.33 59.75 63.22 65.83 67.65 67.55 67.47 67.66 68.09 68.31 68.41 68.16 67.59 66.76 66.13 65.91 65.04 64.50 64.89 65.55 65.79 64.63 64.33 63.54 62.97 62.15
64.34 63.66 63.62 63.55 62.98 62.01 62.22 60.98 59.27 58.17 58.25 58.30 59.41 61.20 61.40 60.24 60.46 60.26 59.41 60.73 64.38 65.94 67.81 67.85 68.01 68.42 67.91 67.26 67.59 67.50 66.63 66.22 64.67 63.64 63.43 63.64 64.21 65.02 65.03 64.92 64.96 64.87 63.83
63.19 62.68 62.91 62.54 62.11 60.67 59.65 59.06 58.67 59.28 59.68 60.08 60.01 60.75 61.25 61.22 61.54 63.12 62.91 62.09 63.15 63.45 65.96 67.88 67.83 67.67 67.31 67.00 67.48 67.42 66.53 65.19 63.72 63.04 62.86 62.69 62.54 62.57 62.89 63.15 63.92 64.54 64.82
61.42 61.13 61.04 60.40 60.70 60.63 60.34 59.75 59.68 59.30 59.56 59.76 60.17 61.11 61.43 62.08 62.01 62.29 60.73 62.16 63.02 62.64 63.52 65.59 66.96 66.80 65.94 66.04 67.33 67.65 66.34 64.27 63.19 62.11 61.67 61.82 61.90 61.75 61.65 61.81 61.95 62.70 63.85
61.27 62.35 61.86 62.36 61.91 61.14 60.74 60.56 59.75 59.58 58.80 58.57 60.03 60.99 61.62 62.83 63.37 61.57 59.87 59.99 59.83 59.86 59.97 63.23 63.60 62.99 64.13 65.08 66.71 67.72 65.73 63.57 62.57 61.51 61.14 61.05 61.05 61.20 61.58 61.41 62.27 62.40 63.09
62.80 63.95 63.80 63.49 62.75 61.95 61.06 60.99 59.61 59.41 58.44 58.37 60.95 61.30 61.74 62.24 61.01 58.68 57.71 59.14 59.42 59.82 59.33 59.59 60.50 61.19 63.27 65.39 67.30 66.95 64.86 62.89 61.84 61.06 60.26 60.21 60.49 60.72 61.14 62.14 61.95 62.01 62.06
64.57 64.31 64.44 63.98 63.53 62.63 61.79 61.44 60.50 59.38 58.23 60.73 60.04 60.64 60.28 60.55 58.49 57.62 56.92 56.88 58.52 58.53 58.53 59.97 59.91 59.35 59.80 62.49 65.42 65.60 63.89 62.63 61.49 60.39 59.84 60.07 60.33 60.96 61.37 61.76 61.81 61.73 61.41
65.51 65.00 64.56 63.77 63.76 62.98 62.23 61.61 60.24 59.70 59.65 60.91 58.40 56.56 54.43 55.30 56.66 57.10 56.30 56.23 56.58 57.31 57.92 58.63 59.61 58.67 57.00 57.43 58.87 60.05 61.25 60.49 60.02 59.91 60.67 60.65 60.62 60.67 60.83 60.53 60.63 60.99 61.07
65.66 65.81 65.11 64.55 63.92 63.59 62.69 62.24 61.15 60.37 59.77 59.66 59.84 57.96 53.52 51.43 54.03 56.28 55.85 54.93 54.76 55.83 56.70 57.33 56.98 56.35 55.44 54.91 55.27 55.48 57.73 58.45 59.29 60.23 59.82 59.92 59.71 59.64 59.76 59.82 59.97 59.87 59.95
64.65 64.80 64.67 64.14 63.40 62.51 61.86 61.84 62.36 61.17 60.56 58.62 59.22 58.87 57.48 55.56 50.94 51.09 55.12 55.10 55.04 55.16 54.82 54.96 55.46 54.37 53.30 52.36 54.09 55.18 56.56 57.83 57.76 58.45 59.19 59.40 58.88 58.59 58.42 58.28 58.76 58.83 58.55
62.49 62.70 62.80 62.54 62.68 61.89 61.07 60.72 59.87 59.39 59.58 59.21 57.61 56.33 54.73 54.07 55.05 51.66 49.31 52.36 54.70 54.72 53.40 53.20 53.65 52.44 53.23 52.31 50.39 52.77 54.58 56.63 58.14 58.69 59.07 58.69 58.13 57.28 57.05 56.99 57.28 57.68 57.63
60.73 61.52 61.86 61.87 61.58 61.30 60.52 59.58 59.28 58.46 58.29 57.28 55.04 54.57 53.31 51.79 50.89 51.64 50.02 50.19 51.19 51.50 53.64 53.73 52.11 51.31 50.96 49.40 51.65 52.97 53.71 54.48 55.32 56.22 57.56 57.29 55.86 55.08 54.93 55.22 55.61 55.74 55.33
59.46 60.26 60.94 60.85 60.53 60.72 60.44 59.77 58.40 57.87 57.61 56.56 55.90 55.16 54.91 53.01 53.05 53.13 51.84 50.23 49.40 50.13 51.42 50.43 49.90 48.84 49.62 47.51 48.56 50.50 51.93 52.20 52.90 54.33 56.08 55.45 53.51 52.41 52.24 52.76 52.95 52.94 53.48
59.45 60.21 60.25 60.85 60.51 60.32 60.25 60.05 59.33 58.72 57.78 56.80 56.25 55.03 54.16 53.19 53.20 52.33 51.26 50.53 47.72 47.81 46.95 46.56 46.93 46.95 47.20 47.07 48.40 50.28 48.56 50.83 51.39 52.16 53.22 52.78 50.89 50.07 49.61 49.60 49.89 49.87 50.36
60.54 60.03 60.21 60.46 60.64 60.47 60.42 60.06 59.45 58.35 56.61 55.65 54.38 53.55 52.38 52.75 52.10 52.01 51.77 50.59 47.89 44.00 44.90 45.90 44.72 44.77 44.66 44.61 46.11 45.43 45.47 48.97 50.26 50.64 49.81 49.09 48.67 47.79 47.29 47.17 47.08 47.43 47.68
58.93 59.74 60.44 60.54 60.49 60.48 60.35 59.64 58.51 58.01 55.88 54.44 53.72 52.83 51.00 50.80 51.03 50.95 50.63 50.03 49.33 46.77 43.59 45.80 44.20 43.98 44.69 44.77 45.82 43.48 44.00 46.13 47.93 48.42 48.08 47.27 46.64 45.65 45.07 44.56 44.43 44.64 45.67
59.27 59.14 59.46 59.74 59.54 59.62 59.89 58.96 58.21 55.18 54.54 53.67 52.06 51.98 50.22 50.02 49.61 49.57 49.14 48.80 48.06 47.70 44.59 43.18 43.30 42.83 43.64 41.99 41.77 40.82 42.08 41.72 43.96 46.62 46.19 45.98 44.74 43.80 43.28 43.23 43.16 43.31 43.50
55.95 56.59 56.37 56.14 55.97 55.56 55.24 56.09 53.77 53.29 53.22 51.97 50.16 49.87 48.73 49.41 48.52 49.20 47.90 46.86 46.63 46.39 45.71 43.57 43.71 42.18 43.28 43.61 42.08 39.76 38.68 39.77 42.77 44.44 44.48 44.12 43.64 42.60 42.03 41.96 42.65 42.82 42.70
51.75 51.24 52.02 52.54 52.32 51.42 50.66 50.58 50.87 49.79 49.90 50.31 48.69 47.92 47.79 47.30 47.09 46.50 45.76 45.44 44.77 45.24 44.43 43.42 41.56 42.83 42.16 41.41 39.66 38.55 36.43 36.34 38.02 41.24 41.53 41.62 42.42 40.95 40.13 41.14 41.68 42.25 42.22
49.52 48.37 48.13 48.91 49.60 48.86 48.41 48.11 48.26 48.66 48.40 48.80 48.55 47.61 47.35 47.70 46.43 44.83 44.24 43.36 42.41 41.46 40.93 41.02 41.13 41.68 40.53 39.67 39.27 37.34 35.31 35.48 34.79 35.93 38.00 38.68 38.44 37.52 39.00 40.58 40.41 41.19 42.16
47.51 47.52 46.51 46.24 46.10 46.52 47.03 47.12 47.52 47.20 47.00 46.97 47.79 47.98 47.69 47.41 46.93 46.56 44.12 41.91 41.54 39.95 38.62 36.64 38.01 40.25 38.18 36.12 35.98 36.51 36.15 35.56 35.08 35.20 33.57 32.58 31.22 29.68 32.71 36.91 38.43 40.17 40.82
44.56 45.09 45.26 44.76 43.99 44.95 46.99 47.68 46.86 45.64 45.68 45.35 44.69 45.02 45.16 45.02 45.34 46.50 45.94 45.52 43.28 39.84 38.06 38.29 38.09 38.29 37.84 37.47 36.74 35.44 34.86 33.03 32.52 32.76 28.38 27.44 27.86 27.58 30.04 32.69 39.16 39.62 40.26
42.76 42.92 42.68 42.77 42.63 43.11 46.48 47.80 47.47 44.91 44.29 43.82 43.28 42.68 41.60 41.95 42.55 41.71 43.88 43.23 42.24 43.78 42.95 39.14 38.31 38.19 37.66 37.77 36.15 34.19 34.19 33.83 33.36 30.04 27.05 25.23 26.51 26.57 29.44 34.38 38.44 38.51 38.54
41.60 41.68 41.95 42.07 41.66 42.39 45.69 46.87 46.83 41.15 41.51 41.78 41.93 41.82 40.73 39.66 39.57 38.74 37.86 34.88 34.51 34.83 36.22 36.69 36.48 39.09 39.13 37.67 37.19 36.30 35.20 31.76 28.68 27.58 26.84 22.53 24.80 25.74 28.22 30.11 37.64 37.16 37.88
40.82 40.51 40.98 40.88 40.29 40.66 44.60 45.96 45.01 40.27 39.70 39.69 41.16 41.11 40.46 38.84 40.97 41.76 36.18 32.16 30.66 30.80 36.67 37.16 36.60 37.81 40.02 41.83 38.91 33.84 29.00 26.23 24.02 25.33 26.13 25.71 24.41 24.54 25.91 27.82 29.89 36.65 36.06
43.41 42.72 42.21 40.67 41.61 40.03 43.23 45.59 44.99 41.59 40.69 40.51 40.95 40.63 42.73 39.23 41.86 42.57 36.25 32.86 29.53 28.50 31.23 31.11 31.33 34.02 35.84 38.52 40.50 32.82 29.43 24.11 22.05 21.72 26.13 23.45 22.29 22.99 19.92 26.14 27.26 28.13 28.72

GFSMA_sfc_wetblb_108.txt.gz
Wetbulb
65.38 65.27 65.83 66.00 65.54 63.14 63.02 62.10 61.06 59.66 57.97 57.82 57.88 58.13 58.53 58.15 58.97 59.78 59.82 63.13 66.01 68.39 68.96 68.35 67.92 68.03 68.15 68.40 68.42 67.99 67.21 66.33 65.84 64.44 63.69 64.00 64.87 65.47 65.28 65.28 65.14 64.72 64.06
65.02 64.92 64.33 64.18 63.96 62.70 62.15 61.43 60.15 59.40 58.15 57.53 57.31 58.59 59.13 59.21 59.16 59.56 59.33 59.95 64.55 66.45 68.28 67.94 67.82 68.01 67.81 67.57 67.54 67.85 66.93 66.13 64.92 63.47 62.94 63.10 63.23 63.43 63.49 63.66 64.09 64.62 65.02
64.90 64.27 64.00 63.55 62.62 61.52 61.87 60.33 59.60 58.05 57.14 57.34 57.13 58.80 59.88 59.83 60.09 59.76 60.20 59.71 62.15 63.34 65.68 67.45 67.87 67.74 67.01 66.91 67.12 67.84 66.94 66.02 64.08 62.98 62.39 61.85 62.02 62.17 62.09 62.20 62.41 62.75 63.79
65.01 64.06 63.72 63.40 62.75 60.79 60.28 58.92 58.23 57.32 58.04 58.50 58.49 59.49 60.35 60.58 60.63 61.06 61.32 60.59 60.82 61.66 63.33 65.61 66.72 66.70 65.92 65.80 66.59 68.00 66.96 65.00 63.50 62.43 61.60 61.41 61.65 61.86 61.95 61.78 62.11 63.19 63.33
64.38 62.93 62.77 62.13 60.93 60.73 59.94 59.34 58.56 58.64 58.08 58.12 58.96 59.67 59.96 60.35 61.47 61.36 59.77 60.01 60.21 59.89 59.61 62.88 63.34 63.04 63.93 64.80 66.22 67.73 66.90 64.33 62.65 61.48 60.96 60.89 61.13 61.23 61.62 62.31 62.44 62.43 62.44
63.04 62.22 61.21 61.21 61.34 60.53 60.16 59.68 58.76 58.65 58.45 58.30 59.12 59.62 60.06 60.82 60.23 58.78 58.97 59.02 59.01 59.40 58.80 59.60 59.63 60.52 63.27 65.41 66.25 67.57 66.15 63.54 62.10 61.10 60.30 60.43 60.59 60.71 61.67 61.85 62.00 61.97 61.98
62.35 62.21 62.10 62.27 62.07 61.08 60.47 60.12 59.65 58.49 57.49 57.79 58.17 58.87 59.27 58.90 58.07 58.57 57.56 57.38 58.29 58.09 58.82 59.53 59.21 58.62 59.19 62.68 65.76 66.20 64.49 63.11 61.96 60.45 59.94 60.11 60.40 60.86 61.23 61.23 61.03 61.21 61.42
63.12 64.04 63.38 63.28 62.69 61.80 60.96 60.65 59.54 58.61 58.33 58.89 58.11 56.23 54.80 55.80 56.04 56.25 55.33 56.85 56.72 57.43 58.03 59.38 58.36 57.13 56.33 56.62 58.71 61.72 62.70 62.23 61.18 60.11 60.49 60.80 60.48 60.33 60.22 60.61 60.57 60.06 60.26
63.70 64.19 64.24 63.89 63.19 62.59 61.77 60.99 59.56 59.09 58.49 59.63 59.90 57.84 53.43 52.25 53.08 55.25 54.96 54.48 55.06 55.86 56.17 57.11 57.75 56.51 55.05 53.92 54.59 55.36 57.85 58.38 59.36 60.34 60.94 60.11 59.97 59.42 59.22 59.39 59.56 59.72 59.84
64.08 64.30 64.35 63.64 63.19 62.47 61.57 61.31 61.28 60.09 59.94 58.62 58.95 59.42 58.28 54.87 50.93 50.52 53.99 53.76 54.24 55.09 56.03 56.50 55.72 54.20 53.86 52.13 54.22 55.15 56.40 57.59 57.94 58.82 59.64 60.13 59.85 58.55 58.41 58.44 58.46 58.92 58.69
62.29 63.00 63.25 62.69 61.93 61.13 60.63 60.52 60.15 59.83 60.16 59.16 58.51 57.10 56.68 56.25 55.77 51.13 50.08 52.23 54.38 54.78 54.98 55.20 54.92 53.26 52.92 51.50 50.54 53.21 54.67 56.61 58.17 58.70 59.26 59.01 58.37 57.29 57.09 57.10 56.92 56.93 56.60
60.63 61.08 61.50 61.46 61.42 60.92 60.50 60.18 59.96 60.02 59.49 59.47 60.49 57.47 54.98 52.94 52.03 51.46 49.33 49.37 52.28 52.66 52.95 52.77 52.31 51.84 51.33 49.57 51.68 53.47 53.77 54.45 55.41 56.40 58.13 58.17 56.26 55.50 55.08 54.95 55.03 54.98 55.17
59.31 59.72 60.37 60.46 60.41 60.51 60.58 60.07 58.83 58.45 58.51 57.84 57.43 56.33 54.42 53.77 54.31 53.64 51.68 49.95 49.19 50.25 51.14 50.23 50.49 49.91 48.95 47.51 48.47 50.27 52.03 52.29 53.10 54.59 56.34 56.04 53.94 52.77 52.13 52.30 52.57 52.69 52.51
60.04 60.29 60.33 60.48 60.09 59.90 59.68 59.66 59.37 59.06 58.60 58.01 57.03 56.02 56.01 55.66 54.90 53.32 52.24 50.30 47.00 47.79 48.30 47.49 47.76 46.35 46.66 46.23 47.97 50.42 48.08 50.84 51.52 52.56 53.92 52.83 51.11 50.10 49.64 49.75 49.90 49.93 49.88
60.23 60.55 60.43 59.98 59.99 59.96 59.63 59.51 59.51 59.09 58.66 57.88 57.13 56.60 54.01 53.71 53.09 52.87 52.07 51.18 48.67 44.26 45.05 45.31 44.61 44.24 44.69 44.90 46.40 44.91 44.64 49.13 50.41 50.83 49.92 49.23 48.56 47.65 47.13 46.75 46.57 46.58 46.98
59.58 59.28 59.15 58.82 58.20 59.67 60.04 59.80 59.59 59.40 57.65 56.43 55.98 54.87 54.24 51.91 51.72 51.40 51.26 50.67 49.02 46.27 43.18 45.00 44.16 44.22 45.09 44.90 46.36 43.82 44.15 46.43 48.06 48.88 48.41 47.50 46.62 45.65 45.14 44.69 44.74 44.87 44.92
59.18 58.78 59.16 59.67 59.68 59.70 60.04 59.78 59.54 58.55 57.41 57.35 55.40 53.90 53.19 51.02 50.68 49.42 49.07 48.69 48.28 47.49 45.22 43.09 43.41 43.20 42.30 42.03 41.89 40.88 41.42 41.57 43.86 47.01 46.92 46.39 45.07 43.92 43.50 43.28 43.36 44.04 44.15
54.49 55.72 56.50 56.66 56.95 57.02 57.04 57.60 57.70 56.41 55.86 56.23 55.17 54.43 53.60 51.27 49.60 49.60 49.15 48.21 46.95 46.90 45.22 42.96 41.68 42.16 42.52 41.49 42.10 40.54 39.52 39.55 41.87 45.12 45.27 44.83 44.44 42.99 42.31 42.14 42.41 42.77 43.02
50.96 50.68 50.79 51.56 53.16 54.06 53.77 53.59 53.58 53.25 53.12 54.12 53.77 52.92 53.01 50.89 49.20 48.57 47.29 47.45 46.34 46.10 45.29 42.49 40.71 42.05 42.05 41.83 40.04 39.14 37.29 36.59 38.87 42.21 43.33 42.54 43.81 41.88 40.39 40.86 41.68 41.70 42.71
47.97 48.21 47.80 48.04 48.63 49.50 49.62 49.91 50.02 50.08 50.06 50.39 50.31 50.11 50.31 49.84 49.26 47.99 46.61 46.03 44.57 43.44 41.21 40.83 39.90 41.21 39.97 40.21 39.71 38.32 36.31 35.71 35.52 36.50 39.50 38.78 39.74 38.43 39.21 40.64 40.17 40.56 41.38
45.12 45.55 45.88 45.94 45.50 45.89 46.83 46.29 47.28 48.09 48.30 48.23 48.15 48.47 48.59 47.97 47.95 48.38 47.00 45.11 43.75 42.07 39.85 39.06 37.74 40.54 38.49 36.57 37.32 37.27 37.14 36.50 35.16 35.48 33.68 33.75 32.69 31.55 31.68 36.00 38.04 40.13 40.76
43.37 43.49 43.55 43.71 43.63 44.46 46.46 47.69 47.15 45.04 46.22 46.81 46.22 46.52 46.56 46.02 47.04 48.78 48.35 46.88 45.39 42.90 40.77 39.40 36.30 37.55 38.15 36.86 37.35 35.77 34.22 33.87 33.78 33.75 32.34 30.81 28.11 27.90 29.19 31.43 38.61 39.41 39.17
41.39 41.54 41.79 41.78 41.80 42.17 45.80 47.17 47.46 44.21 42.98 43.28 44.11 43.99 43.65 43.62 44.98 44.99 47.86 47.16 46.15 46.36 44.58 41.69 36.96 37.70 37.05 38.71 37.22 34.77 34.68 34.08 34.04 31.10 29.57 26.58 26.60 26.41 29.06 33.38 38.32 38.41 38.02
40.02 40.32 40.56 40.88 40.33 41.71 45.12 46.13 46.69 42.75 40.84 41.18 42.15 42.87 42.97 41.64 41.75 41.40 41.43 39.64 39.41 40.82 41.78 40.72 39.16 38.59 39.57 39.90 39.07 37.84 35.75 33.45 29.81 30.01 27.84 24.53 25.18 25.62 27.20 29.52 37.11 37.17 37.70
38.58 39.20 40.45 41.71 41.37 40.77 43.61 44.83 45.16 42.00 39.45 39.04 41.34 42.03 42.06 41.06 42.57 44.04 39.17 37.14 35.39 34.51 37.42 39.78 39.47 40.87 42.31 42.41 39.26 34.75 32.33 31.82 29.14 26.55 26.59 25.98 24.03 24.12 25.58 27.36 29.52 37.08 35.88
40.01 41.48 41.74 43.02 43.90 43.12 44.77 44.91 44.70 43.46 41.61 40.95 41.11 40.98 43.33 41.60 42.54 43.92 38.70 36.48 33.72 32.04 32.28 31.95 33.19 35.32 38.53 39.42 41.90 35.90 32.52 32.04 24.34 24.17 26.64 25.03 22.42 22.81 19.41 25.41 26.78 27.64 28.35

GFSMA_sfc_wetblb_111.txt.gz
Wetbulb
65.08 65.03 65.13 65.91 65.46 65.52 64.69 63.49 61.01 59.93 58.37 57.19 56.96 56.75 57.03 57.00 56.86 58.31 59.82 62.10 65.80 68.45 69.04 68.77 68.53 68.11 68.22 68.36 68.37 68.31 67.80 66.73 65.73 64.33 63.31 63.67 64.03 64.49 64.57 64.28 64.35 64.62 64.87
65.36 65.02 65.16 64.78 65.05 64.71 63.02 63.34 60.49 59.42 58.13 56.86 57.08 56.90 57.46 57.52 57.63 58.63 59.02 59.55 64.22 66.32 68.47 68.57 68.03 67.94 68.09 67.77 67.42 67.94 67.69 66.43 65.48 63.43 62.83 62.88 62.70 62.76 62.76 62.73 62.76 62.90 63.21
65.68 65.04 64.23 64.28 64.25 63.72 62.80 62.21 60.10 58.90 57.67 57.51 56.09 56.39 57.90 58.59 59.11 59.00 59.37 58.86 59.87 62.96 65.30 67.53 67.91 68.02 67.81 67.21 67.17 67.28 67.75 66.35 64.48 63.11 62.22 61.74 61.87 62.01 62.06 62.12 62.27 63.48 63.48
65.42 64.81 64.13 63.87 63.23 62.52 61.81 61.15 59.27 58.08 56.76 56.15 55.88 56.93 58.30 59.23 59.73 59.75 59.87 59.73 59.53 60.76 63.11 65.85 66.95 66.97 66.74 66.08 66.40 66.86 67.76 66.05 63.97 62.72 61.62 61.33 61.24 61.23 61.68 62.25 62.63 62.81 62.84
65.66 64.65 64.11 63.60 62.73 61.75 60.45 60.25 58.58 57.58 56.86 56.91 57.90 58.42 59.01 59.58 60.05 61.00 59.33 59.77 60.11 60.28 60.17 61.95 63.18 63.05 63.71 64.62 65.86 66.63 67.36 65.22 63.28 62.11 61.11 60.58 60.63 60.73 61.20 61.95 62.15 62.30 62.38
64.65 64.11 63.73 63.13 62.31 61.73 60.05 58.41 57.85 58.05 57.71 57.82 58.79 58.65 58.80 59.58 59.94 58.96 58.26 59.42 59.47 59.16 59.08 59.80 59.45 60.09 63.13 65.02 65.78 66.17 67.45 64.92 63.08 62.10 61.03 60.36 60.43 60.46 60.97 61.20 61.05 61.33 61.57
64.18 63.24 62.52 62.01 61.49 61.28 60.74 60.09 58.70 57.88 57.77 56.93 56.71 56.86 58.48 58.12 57.78 57.39 57.09 57.54 58.15 58.16 58.08 58.61 58.33 57.93 58.70 62.27 66.09 67.53 66.05 64.42 63.08 61.68 60.60 60.31 60.64 60.94 60.79 60.49 60.76 60.49 60.76
62.56 61.72 62.13 61.42 61.09 60.74 60.00 59.82 59.36 57.97 57.85 57.91 57.00 55.49 54.46 56.12 56.12 56.30 55.41 56.62 56.75 56.87 58.25 58.30 57.45 56.63 55.97 56.39 58.93 61.98 63.77 63.61 62.72 61.34 60.76 61.27 61.03 60.64 60.28 59.94 59.92 60.08 59.93
62.80 62.56 62.79 62.52 61.61 61.34 60.59 60.07 59.67 58.59 56.82 57.90 58.98 57.34 53.16 52.97 53.84 55.31 54.66 54.81 55.59 55.58 56.19 57.50 57.02 55.94 55.20 54.11 55.02 56.14 58.30 58.64 59.66 60.62 61.51 61.33 60.86 60.39 59.39 59.12 58.98 59.05 59.56
62.50 63.23 63.29 62.86 62.23 62.06 60.74 60.77 60.30 59.08 59.25 57.82 58.59 59.22 57.12 54.73 52.52 50.96 53.47 53.74 54.10 54.76 55.45 56.82 56.55 55.76 54.57 53.81 54.45 55.23 56.62 57.22 58.09 59.12 60.21 60.71 60.85 59.96 58.69 58.46 58.26 58.20 58.01
61.87 62.24 62.60 62.75 62.65 62.56 61.55 60.79 59.92 59.41 59.23 58.53 57.93 56.64 56.55 56.26 55.62 51.57 51.90 52.63 53.77 53.97 56.38 56.38 55.67 54.11 53.46 52.70 52.09 53.89 55.32 56.64 58.10 58.61 59.35 59.66 59.09 57.77 57.37 57.26 56.95 56.71 56.37
60.09 61.02 61.11 60.57 60.41 60.53 59.77 59.60 59.53 59.35 59.32 59.21 58.87 57.88 57.37 55.55 54.36 53.40 50.66 50.51 52.16 53.01 53.47 53.85 53.81 52.89 52.32 51.39 52.11 53.76 54.21 54.61 55.46 56.44 58.06 59.37 57.51 56.30 55.46 55.46 55.27 55.02 54.61
59.00 59.47 60.36 60.46 60.07 59.89 60.00 59.89 59.21 58.82 59.05 59.11 59.22 59.10 58.48 58.28 55.86 54.21 52.34 50.87 51.07 51.07 51.12 50.76 51.42 50.20 50.41 48.68 50.05 50.88 52.61 52.58 53.17 54.69 56.53 57.53 54.74 53.22 52.62 52.92 52.99 52.64 52.84
59.41 59.94 60.02 60.34 60.09 59.92 59.67 59.42 58.81 58.58 57.83 58.16 57.76 56.73 57.00 55.86 54.99 55.45 53.97 51.49 48.62 48.54 49.01 48.76 47.74 47.85 47.99 48.22 48.63 50.79 48.79 51.31 51.62 52.56 54.64 53.48 51.76 50.28 49.63 49.54 49.50 49.24 48.97
59.92 59.75 59.91 59.48 59.52 59.53 59.51 58.74 58.85 58.98 58.50 58.47 58.25 58.20 57.46 57.21 56.00 55.47 54.12 52.92 51.48 46.86 47.52 47.34 46.60 45.88 45.56 46.10 47.54 45.57 45.02 49.48 50.75 51.42 50.56 49.82 48.86 47.85 47.17 46.69 46.40 46.44 46.74
59.80 59.81 59.52 59.30 58.83 58.78 58.87 59.27 59.47 59.23 58.65 58.67 58.43 57.91 57.11 55.91 54.68 53.69 52.69 52.33 51.07 50.68 47.56 46.47 45.65 45.52 45.23 45.47 46.88 44.47 44.75 47.19 48.72 49.72 49.12 48.14 47.06 45.91 45.07 44.79 44.89 45.39 45.78
58.63 58.56 58.85 58.78 58.58 58.40 58.98 59.23 59.18 59.09 58.46 58.48 57.66 56.59 56.31 56.11 54.29 52.19 52.12 51.92 51.08 49.30 47.21 44.33 44.51 44.31 44.23 43.28 43.16 42.25 43.10 42.51 43.28 47.87 48.44 47.20 45.91 44.42 43.65 43.38 43.40 43.94 44.54
53.11 52.99 53.54 55.23 55.97 56.41 56.79 57.08 57.37 57.57 57.56 57.04 57.20 55.91 55.37 54.35 54.09 53.15 51.46 50.63 50.37 49.59 47.65 44.45 43.13 42.80 43.29 42.61 40.54 39.17 39.92 40.74 41.14 45.61 46.91 46.17 45.54 43.96 42.69 42.06 42.36 42.69 43.09
48.91 49.55 49.29 49.64 50.40 51.25 51.87 52.80 53.46 53.56 53.60 54.18 54.90 54.90 54.92 53.60 51.81 50.71 50.38 50.09 49.19 47.42 46.25 44.39 41.98 42.64 42.66 42.69 40.79 39.49 36.97 36.35 39.59 43.66 45.41 44.33 44.64 43.71 41.14 40.77 41.63 41.28 41.96
45.27 45.73 46.56 46.63 46.65 47.02 47.63 47.77 48.16 48.58 49.45 50.73 51.22 51.28 52.10 51.39 51.24 49.58 49.01 48.07 46.33 45.43 44.29 43.68 41.73 41.61 41.44 40.98 40.59 38.71 36.94 35.37 35.38 37.32 41.47 39.90 41.19 40.94 39.13 40.56 39.84 40.32 40.73
43.58 43.57 43.48 43.78 44.24 44.48 45.28 45.18 45.71 45.68 46.22 47.06 48.40 49.08 49.52 49.09 48.35 49.31 48.37 47.26 46.26 45.20 43.38 42.40 40.65 40.65 39.01 37.39 38.09 38.54 37.37 36.24 36.32 36.34 33.89 34.55 32.83 32.35 33.19 35.63 37.28 39.71 40.28
41.53 41.83 41.83 41.95 42.01 43.31 45.77 46.87 46.82 44.22 44.24 44.57 45.00 45.39 46.04 46.45 47.38 49.19 49.28 48.56 47.49 44.95 42.96 41.63 40.31 40.65 40.57 38.73 37.40 35.50 35.82 34.66 34.26 34.62 32.70 30.79 29.90 29.13 29.91 30.58 37.65 39.04 38.71
39.03 39.28 39.90 40.47 40.52 40.71 45.21 46.35 46.63 43.20 42.08 41.66 41.80 43.84 44.02 44.23 45.52 45.52 48.31 48.60 47.90 48.11 47.47 44.11 42.34 41.55 39.85 39.67 37.13 34.20 34.79 34.98 35.11 31.23 30.63 29.09 27.98 27.74 28.99 32.81 38.11 38.40 37.77
37.60 37.94 38.49 39.20 39.02 40.70 44.62 45.52 46.05 41.58 40.17 39.94 40.16 40.97 41.88 42.56 42.75 43.38 43.46 43.22 43.66 43.76 45.64 43.55 43.46 41.54 41.87 40.24 39.82 37.92 36.96 34.29 30.77 30.31 29.62 27.01 26.42 26.67 27.36 29.80 36.63 37.78 37.23
36.77 36.86 37.82 37.77 38.02 39.74 44.62 45.46 45.17 43.40 42.51 41.61 41.24 41.43 41.58 40.85 42.96 44.87 41.24 39.07 38.57 38.28 39.77 42.63 42.29 42.46 43.06 43.23 40.38 36.79 33.45 33.04 30.31 29.28 27.93 27.41 25.13 24.96 25.73 27.29 29.85 37.17 36.30
37.99 38.46 38.58 38.55 39.91 38.57 42.56 44.54 44.34 42.86 42.06 42.27 42.72 41.57 43.20 43.03 43.80 44.40 42.28 39.13 35.26 37.84 35.41 34.09 35.28 37.61 40.44 40.56 42.33 38.36 35.48 34.13 30.86 29.23 28.31 26.24 23.58 24.33 20.61 25.32 27.16 28.36 28.98

GFSMA_sfc_wetblb_114.txt.gz
Wetbulb
65.49 64.50 64.09 64.24 64.29 65.11 64.82 64.18 62.21 60.80 58.20 57.00 56.36 55.99 56.08 56.08 55.93 56.76 58.92 61.59 64.86 67.71 68.79 69.10 69.03 68.54 68.20 68.40 68.23 68.46 68.43 67.52 66.45 64.82 63.45 63.16 63.18 63.06 63.02 63.05 63.20 63.24 63.45
65.43 64.58 64.78 65.00 63.84 64.28 63.80 63.65 61.58 59.42 58.22 56.90 55.99 56.16 56.21 56.35 56.67 56.73 57.93 59.07 63.08 65.91 67.27 68.26 68.92 68.23 68.11 68.28 67.70 68.02 68.29 67.12 66.23 64.24 63.29 62.50 62.20 62.13 62.17 62.42 62.70 63.57 63.59
64.94 64.88 64.84 64.98 64.91 64.91 63.77 62.36 61.48 59.21 57.73 57.03 55.59 56.14 56.16 56.60 57.49 57.49 58.35 58.58 59.28 62.21 64.74 66.67 68.15 68.25 68.08 67.93 67.29 67.16 68.07 67.20 65.81 63.81 62.84 62.07 61.57 61.45 61.63 62.23 62.81 62.93 62.90
65.84 65.16 64.40 64.77 65.14 64.57 63.53 62.52 61.09 58.85 57.51 56.36 55.72 55.84 56.04 56.88 58.11 58.52 58.97 58.89 58.74 59.36 62.11 65.52 67.26 67.68 67.39 67.05 66.90 66.75 66.84 67.25 65.13 63.63 62.53 61.71 61.10 60.94 61.25 61.96 62.02 62.46 62.65
65.91 65.21 64.72 64.50 64.08 63.81 62.91 62.30 60.29 59.66 57.25 56.41 56.51 56.80 56.95 57.73 58.86 60.12 59.27 59.16 59.16 59.17 59.41 61.82 63.70 63.71 64.13 64.71 65.87 66.61 66.84 67.10 64.67 63.23 62.32 61.31 60.75 60.71 61.19 61.56 61.65 61.74 61.85
65.70 65.47 65.01 64.18 63.45 62.80 61.51 61.00 60.18 58.53 57.81 57.25 58.04 57.96 57.96 58.68 59.09 59.31 59.34 59.27 59.52 59.50 59.38 59.65 59.97 60.20 62.80 64.41 65.43 65.90 66.26 66.77 64.56 63.20 62.06 60.80 60.61 60.54 61.09 61.00 60.83 60.63 60.67
64.51 64.35 64.09 63.50 63.00 62.09 61.01 60.53 59.37 58.53 57.08 56.73 55.92 55.93 56.97 58.42 58.04 58.14 57.37 57.60 57.95 58.25 58.39 58.61 58.67 58.77 58.46 61.41 64.18 67.00 67.18 66.26 64.51 62.93 61.41 60.83 60.63 60.98 60.96 60.85 60.67 60.64 60.68
63.99 63.79 63.06 61.68 62.04 61.66 60.85 59.97 59.26 57.90 57.87 57.02 55.51 54.74 53.13 55.61 56.46 56.82 56.02 56.77 57.15 57.10 57.48 57.84 57.75 56.91 56.19 56.75 59.09 62.88 65.52 65.23 64.32 62.86 61.64 61.37 61.62 61.14 60.88 60.17 59.92 59.80 59.90
63.42 62.67 61.70 61.50 61.22 61.56 60.77 60.71 59.58 58.74 56.80 56.65 58.26 56.88 52.82 52.58 53.91 54.89 54.70 55.10 56.05 55.92 56.14 57.44 57.00 56.29 56.08 56.02 56.76 58.00 59.58 60.31 60.88 61.51 61.82 62.16 61.87 61.53 60.43 59.32 59.01 59.17 58.63
63.03 61.02 60.53 59.85 60.41 61.18 60.72 60.60 60.23 59.42 58.55 56.59 57.72 58.79 57.43 55.03 52.60 51.74 53.94 54.42 54.30 55.03 55.57 56.11 57.64 56.80 55.89 55.02 55.44 55.54 57.04 57.67 58.80 60.11 60.88 61.38 61.29 61.03 59.52 58.46 58.07 57.97 57.50
62.20 61.96 61.00 60.34 60.54 61.66 61.25 60.83 59.59 58.81 59.08 58.03 57.67 55.93 55.82 55.28 54.40 51.91 51.22 53.00 53.34 54.26 55.97 56.75 57.74 56.15 54.74 54.04 53.53 54.57 56.53 57.27 58.69 59.15 60.06 60.27 59.66 59.61 58.26 57.23 56.77 56.67 56.07
61.18 62.05 62.31 62.54 62.47 62.03 61.53 60.69 59.48 59.16 59.01 58.73 58.32 57.46 56.93 55.35 54.01 53.31 51.81 52.53 53.57 54.09 54.61 55.88 55.51 54.23 53.71 52.65 52.66 53.89 55.33 55.90 56.60 57.72 58.42 59.25 59.59 58.12 56.42 55.47 54.99 54.58 54.33
59.28 59.96 60.48 60.36 60.16 60.21 59.77 59.33 58.94 58.77 58.68 58.51 58.74 58.78 58.80 58.29 57.53 55.85 55.11 54.43 51.53 52.54 51.64 52.69 53.89 53.46 52.21 51.13 51.34 52.18 54.04 54.42 54.66 55.82 57.35 58.06 56.93 54.76 53.37 52.68 52.40 51.96 51.55
59.45 59.83 59.91 60.06 59.91 59.73 59.52 59.37 58.94 58.39 58.28 58.34 57.89 57.52 56.19 55.97 55.50 55.35 55.00 53.84 51.86 49.49 49.97 50.61 49.63 50.67 50.51 49.79 50.03 51.61 50.80 53.00 53.42 54.53 55.66 56.39 53.76 52.00 50.73 49.75 48.68 48.01 48.30
59.48 59.70 59.80 59.43 59.55 59.51 59.43 59.07 58.59 58.26 58.17 58.34 58.37 58.21 57.54 58.00 56.39 56.51 56.27 55.46 54.30 50.30 48.50 49.82 48.84 48.50 48.72 48.95 49.32 48.67 46.71 51.18 52.54 53.27 53.62 52.41 51.05 49.58 48.26 46.83 46.01 46.11 46.58
59.21 59.34 59.06 59.23 58.92 59.09 59.17 58.42 58.49 58.89 58.64 58.79 58.64 58.12 58.10 58.32 57.94 56.93 55.98 54.74 54.14 52.84 49.13 51.20 48.57 46.58 47.52 47.42 48.10 46.61 46.23 49.29 51.58 52.11 51.13 50.00 48.96 47.86 46.67 45.15 44.56 44.83 45.30
56.12 56.43 57.17 58.36 58.36 57.88 57.91 57.89 57.81 57.93 58.35 58.53 58.33 57.71 57.53 57.65 56.20 54.70 54.10 53.72 52.85 52.39 50.57 47.99 45.97 45.48 45.33 45.72 45.45 44.43 44.69 44.18 45.00 50.52 50.26 48.96 47.85 46.49 45.23 44.09 43.26 43.38 43.87
50.30 49.93 50.27 50.99 51.75 52.84 54.02 54.48 54.45 55.00 55.26 55.68 56.51 56.75 56.09 56.02 55.64 55.97 54.41 53.09 52.65 52.22 51.23 49.18 43.72 43.25 44.36 44.71 43.99 41.99 41.53 41.96 41.91 46.17 49.10 48.31 47.37 45.84 44.49 42.81 42.19 42.22 41.96
45.66 46.46 46.94 46.80 47.03 47.46 47.94 48.46 48.97 49.23 50.22 51.59 52.41 52.76 53.34 54.18 53.79 53.51 52.30 51.61 50.92 49.84 49.78 46.40 42.76 43.34 43.22 43.15 41.47 40.85 39.59 38.37 39.53 43.42 47.45 47.14 46.96 46.24 44.08 42.08 41.91 40.91 40.67
43.53 43.59 43.67 44.05 44.39 44.55 44.81 45.11 45.46 45.42 45.48 46.52 47.81 48.84 49.89 50.58 51.09 51.52 50.44 50.38 49.50 47.47 45.95 45.03 42.87 41.91 41.90 41.51 41.58 39.82 38.79 37.62 36.87 38.65 43.19 43.40 44.03 45.37 43.12 41.36 41.06 39.75 40.41
41.65 41.85 42.12 42.43 42.57 43.18 44.07 44.04 44.17 43.79 43.64 43.82 44.43 45.50 46.41 46.95 47.81 49.41 49.44 48.84 47.33 46.86 45.48 44.67 41.86 41.04 39.85 38.28 40.03 40.01 40.77 38.69 36.86 37.12 35.39 36.52 36.09 33.87 34.33 38.89 37.89 39.67 39.90
39.49 39.87 39.93 40.27 40.36 42.04 45.24 46.87 46.01 42.54 42.17 41.88 41.69 42.64 43.04 44.54 45.27 48.09 49.12 49.27 48.46 46.68 44.49 43.69 43.14 42.27 41.15 39.81 39.81 39.05 38.56 35.92 35.36 37.45 34.54 32.95 32.92 31.01 31.05 31.68 36.66 40.02 38.79
36.94 37.32 37.82 38.32 38.34 38.92 44.72 45.70 46.24 41.93 40.31 39.78 39.72 40.26 41.20 42.74 43.53 43.12 45.81 48.31 48.75 48.72 48.60 45.59 44.34 43.25 42.78 40.23 40.12 36.67 36.80 35.74 35.82 33.06 33.55 31.90 29.77 28.54 29.67 31.85 38.80 39.52 38.11
35.29 35.32 36.00 36.54 36.54 38.21 43.26 44.49 45.19 40.14 39.10 39.15 39.75 40.59 41.69 41.71 41.65 42.84 42.80 42.61 44.70 45.85 47.06 46.98 45.71 45.78 44.54 42.68 42.17 39.91 38.20 34.55 31.80 31.59 32.94 31.03 27.21 27.97 28.38 30.14 38.48 39.20 37.58
34.13 34.79 35.70 35.64 35.04 36.73 41.75 42.83 42.44 39.74 38.69 38.05 39.76 40.38 42.23 41.82 43.56 44.68 42.70 40.40 40.49 41.94 43.14 45.85 45.64 45.23 44.95 44.46 42.45 37.17 33.81 34.31 31.69 30.41 30.20 30.15 25.51 25.31 25.92 27.83 30.67 38.44 37.75
33.54 34.30 34.74 35.31 37.48 36.57 39.81 40.58 39.74 38.96 37.71 38.71 39.98 40.83 43.04 43.58 44.58 45.14 42.95 41.64 39.02 39.84 38.54 36.85 38.06 40.56 42.87 42.80 43.25 39.21 35.13 34.94 32.17 30.54 30.03 29.80 25.28 23.72 20.20 25.30 27.98 29.80 30.52

GFSMA_sfc_wetblb_117.txt.gz
Wetbulb
69.11 68.55 68.96 68.00 68.79 68.68 67.69 67.43 67.55 66.78 64.66 62.35 61.87 61.23 61.20 61.48 61.80 62.36 63.33 61.64 64.15 66.70 68.20 69.43 69.26 68.97 68.61 68.33 68.58 68.37 68.85 68.25 67.39 66.15 63.86 63.20 62.58 62.52 62.72 62.90 63.23 63.90 63.93
68.40 67.93 67.47 66.39 67.95 68.51 67.56 67.23 66.49 65.67 63.81 62.75 61.39 61.19 61.49 61.99 62.26 62.52 62.99 63.54 62.76 64.83 66.87 67.67 68.63 69.14 68.51 68.27 68.25 67.82 68.46 68.16 67.18 65.44 63.91 63.11 62.15 61.90 62.02 62.45 63.31 63.33 63.26
66.85 67.16 67.21 67.31 66.83 67.89 66.35 65.74 66.37 65.37 63.05 62.23 61.24 60.86 61.27 62.06 62.17 62.66 63.04 63.27 63.56 61.85 64.27 66.92 67.48 68.56 68.68 68.49 68.15 67.50 67.52 68.16 66.99 65.18 63.92 62.94 61.96 61.57 61.71 62.36 62.47 62.62 62.94
66.34 65.75 66.21 67.03 67.59 65.76 66.60 63.97 63.43 64.03 61.75 61.17 60.19 61.12 61.30 61.80 62.02 62.63 63.51 63.38 63.57 63.48 63.04 64.47 67.08 68.01 68.50 68.23 68.00 67.35 66.91 68.13 67.08 65.04 63.75 62.72 61.54 61.04 61.15 62.00 62.05 62.11 62.25
67.26 66.47 66.12 66.63 66.81 65.40 65.80 64.51 62.03 63.18 61.45 61.02 59.58 60.70 62.00 61.65 61.64 61.88 62.83 63.42 63.79 63.30 63.46 62.53 63.30 64.77 65.89 66.48 66.54 66.52 66.66 67.51 66.78 64.87 63.56 62.45 61.41 61.01 60.84 61.40 60.99 60.57 60.68
66.43 66.52 67.01 65.79 66.21 65.81 64.66 64.13 62.11 61.49 61.59 60.91 60.35 60.07 62.04 62.05 62.65 62.65 63.04 63.41 63.40 63.19 63.38 63.37 63.83 63.43 62.50 64.39 65.26 66.13 66.43 66.86 66.46 64.87 63.57 62.42 61.64 61.32 61.62 61.61 61.03 60.68 60.62
65.69 66.44 66.61 65.37 65.22 64.15 63.59 63.09 61.76 60.66 60.24 61.53 60.30 60.59 60.72 61.57 61.95 62.39 62.92 62.93 62.22 62.43 63.06 62.96 63.81 64.13 64.10 62.78 63.84 65.65 65.98 66.64 66.65 64.92 63.35 62.12 61.60 61.76 62.14 61.77 60.89 60.02 59.50
65.22 65.21 65.26 64.65 64.00 63.41 62.46 61.63 61.08 59.33 59.92 59.85 59.89 58.52 56.74 59.23 60.83 61.24 61.57 60.67 61.27 61.29 61.48 62.19 62.15 62.86 62.98 62.95 63.08 63.70 67.05 67.62 66.62 64.97 63.42 62.30 62.13 62.40 62.44 61.64 60.64 59.56 58.91
64.48 64.29 64.22 63.96 63.84 63.15 62.78 62.28 61.49 60.28 58.68 59.24 60.28 59.67 56.34 55.13 56.95 58.61 58.42 59.22 58.98 58.95 60.18 60.78 61.57 61.60 61.43 61.50 61.26 60.90 61.74 64.43 65.72 65.33 64.28 62.93 62.91 62.87 62.44 61.51 60.35 59.23 58.14
63.90 63.82 63.68 63.66 63.26 63.38 62.17 62.29 61.44 60.85 59.82 58.29 58.88 59.26 60.08 58.91 56.03 55.38 57.57 58.21 57.86 57.48 59.42 60.20 60.81 60.70 60.52 59.47 57.71 57.61 58.36 59.76 61.99 63.48 63.84 63.26 62.76 62.74 62.33 61.56 59.98 58.13 56.92
63.54 62.79 62.33 61.47 61.48 61.89 61.33 61.17 60.11 59.86 60.05 58.80 59.32 58.13 58.83 59.09 57.09 54.96 54.98 56.20 56.12 58.13 59.10 59.73 60.53 59.29 57.68 58.57 55.98 56.19 57.57 58.62 60.62 61.84 62.51 62.61 62.14 62.04 61.91 60.37 58.36 57.06 55.83
62.49 62.32 61.95 61.72 61.05 60.78 60.41 61.45 60.31 60.23 60.50 59.94 60.06 59.33 58.84 57.12 56.31 54.87 54.15 56.30 56.80 58.71 57.36 57.83 58.69 58.41 57.37 56.90 55.16 54.70 56.37 57.58 59.12 60.20 61.30 61.59 61.26 61.26 60.62 58.58 56.55 54.95 54.19
60.48 61.37 61.91 60.95 60.43 60.32 60.72 60.82 59.91 59.76 60.25 59.46 59.08 58.93 58.92 58.44 58.23 57.10 56.66 56.05 55.48 56.13 55.37 56.44 57.25 57.93 55.80 55.08 53.99 53.16 54.77 56.17 56.95 58.33 59.66 60.21 59.44 59.28 57.20 55.79 54.26 52.90 51.82
60.65 61.53 61.15 60.66 60.73 60.73 60.47 60.28 59.96 59.53 59.12 59.38 59.84 59.79 59.33 59.02 58.41 57.15 57.12 55.60 55.15 55.34 54.74 54.74 53.55 53.96 53.19 53.46 52.33 52.97 52.77 54.88 55.09 56.20 57.47 58.37 57.87 55.25 53.83 52.45 50.86 49.38 48.77
60.02 60.11 60.24 59.98 60.01 59.90 59.63 59.30 58.84 58.80 58.99 59.21 59.68 60.04 59.47 58.74 57.93 57.95 57.76 57.45 55.47 52.78 53.74 54.04 51.23 51.43 52.21 51.97 51.80 51.99 50.66 52.81 53.88 54.37 55.05 55.68 53.50 52.02 50.74 49.49 47.96 47.17 47.09
59.18 59.13 59.37 59.57 59.54 59.54 59.40 59.00 58.65 58.55 58.40 58.56 58.38 58.33 59.09 59.09 58.76 58.18 57.47 57.13 56.46 54.87 52.43 53.70 51.92 49.54 51.36 50.23 50.78 50.21 48.46 49.50 52.17 53.13 53.91 52.19 51.24 50.11 49.09 47.54 46.22 45.72 45.68
52.89 53.29 53.63 54.37 55.65 56.51 57.24 58.15 58.22 58.13 57.86 58.00 58.42 58.34 57.76 58.12 57.58 57.25 56.35 55.89 54.82 54.27 52.00 52.99 48.89 47.36 48.30 47.98 47.74 47.11 47.20 47.49 48.25 51.79 52.09 51.08 50.18 49.12 47.91 46.71 45.54 44.76 44.42
48.23 48.70 48.98 49.02 49.13 49.78 50.64 51.22 51.88 52.41 52.76 52.76 53.45 53.54 54.05 55.06 55.42 56.25 55.52 54.28 53.79 53.95 52.37 51.39 46.93 44.61 46.46 48.04 47.63 46.21 44.84 45.09 45.25 47.20 50.48 50.54 49.59 48.43 47.20 46.04 44.72 43.93 43.12
45.63 45.93 46.30 46.08 46.29 46.61 46.88 47.13 47.35 47.59 48.00 48.53 49.14 49.73 50.43 51.15 51.07 52.40 53.03 52.89 52.68 51.81 51.81 51.01 48.23 45.38 44.42 44.93 42.86 42.99 42.85 43.04 43.30 45.26 48.02 49.76 49.44 48.48 47.06 45.57 44.10 43.22 41.84
44.21 44.40 44.35 44.40 44.59 45.15 45.83 45.97 46.02 46.01 46.10 46.26 46.77 47.21 47.49 47.79 48.24 49.15 49.81 50.33 50.64 50.29 49.69 49.17 45.57 42.95 43.01 43.18 43.44 41.36 39.33 40.48 40.23 42.02 44.93 46.86 48.01 47.92 47.72 45.58 43.44 42.17 40.67
42.00 42.20 42.29 42.24 42.84 44.01 45.43 46.03 45.64 44.93 44.64 44.64 45.04 45.05 45.80 45.59 45.19 46.63 47.08 47.73 48.34 48.30 47.58 46.51 44.94 42.38 41.15 39.53 41.72 43.07 42.64 41.66 40.16 40.21 40.15 42.36 43.86 43.24 43.86 43.79 41.54 40.42 40.49
40.08 40.51 40.32 40.46 40.49 41.23 44.93 45.35 45.24 43.51 43.08 42.64 42.39 43.38 43.83 43.55 44.90 45.75 46.63 47.16 47.98 46.66 46.24 45.32 45.39 43.93 43.33 42.80 43.85 41.00 43.50 38.32 37.40 40.49 38.05 38.05 39.79 37.53 36.72 37.09 38.41 39.04 40.61
38.58 38.42 39.00 39.17 39.00 40.08 43.25 43.76 43.85 42.66 41.96 41.99 41.93 42.10 42.40 43.11 43.58 43.55 44.43 45.56 46.38 47.53 48.47 47.67 44.96 44.93 45.23 43.98 44.37 39.50 41.13 38.60 38.33 37.62 38.66 37.87 35.12 35.67 35.88 35.12 38.08 39.54 40.41
36.31 36.75 37.32 37.81 37.89 38.74 41.49 41.68 41.14 40.80 40.81 40.92 41.50 41.45 41.67 42.14 42.98 43.49 43.70 43.63 43.95 44.60 46.20 47.65 47.65 47.13 46.75 47.17 44.19 43.91 41.74 39.31 33.85 34.71 37.75 36.85 34.56 34.42 33.96 35.15 37.79 40.26 39.86
35.83 36.17 36.70 36.01 36.41 37.29 39.53 39.43 38.16 37.28 37.14 36.91 37.56 38.65 40.05 40.50 42.50 43.52 42.71 41.84 42.00 42.52 44.18 45.24 46.43 46.82 47.22 46.82 44.91 39.61 36.20 35.73 33.87 31.91 33.13 34.73 30.42 33.30 32.87 34.11 36.24 39.69 39.30
34.52 34.86 33.71 34.46 36.00 34.53 36.37 37.37 37.40 36.10 34.90 35.05 36.13 36.40 38.01 38.81 40.35 40.93 40.03 40.01 38.76 40.64 41.69 41.17 39.49 41.18 44.46 44.80 45.49 41.77 38.24 36.07 33.37 31.80 32.59 33.32 28.32 30.21 30.62 31.62 34.29 36.84 38.50

GFSMA_sfc_wetblb_120.txt.gz
Wetbulb
70.43 70.79 70.84 70.73 70.41 69.55 68.87 66.94 66.31 66.50 66.40 65.15 64.96 64.68 64.55 65.29 65.61 65.37 65.31 62.50 63.93 66.26 67.59 68.73 69.68 69.50 69.28 69.06 68.96 68.91 68.56 68.55 68.12 67.32 64.85 63.82 62.74 62.32 62.15 62.39 63.13 63.21 63.34
70.89 70.57 70.48 70.36 70.11 69.15 69.16 68.20 65.95 66.19 65.25 65.56 64.64 64.26 63.72 63.82 64.19 64.79 65.36 65.45 63.07 64.56 66.41 67.56 68.29 68.89 69.45 68.81 68.78 68.49 67.89 67.86 68.32 67.45 65.13 63.94 62.82 62.11 61.79 62.02 62.29 62.36 62.79
70.33 69.94 69.93 69.93 69.98 70.40 68.75 67.89 67.46 65.67 65.47 65.49 64.13 63.90 63.29 63.44 63.80 64.37 65.22 65.75 65.49 61.99 64.14 66.55 67.61 68.13 68.58 69.20 68.93 68.55 68.12 67.93 68.18 67.28 65.20 64.05 62.98 62.21 61.90 61.91 61.83 62.13 62.32
70.11 69.40 66.80 68.36 69.31 69.58 69.41 68.13 65.88 66.46 64.59 63.44 64.34 64.11 63.40 63.42 63.93 64.58 64.93 65.44 66.04 66.01 64.56 64.38 66.27 67.59 68.39 68.75 68.80 68.61 68.03 68.37 68.56 67.39 65.40 64.11 63.01 62.30 61.96 62.18 61.97 61.38 61.14
67.74 68.45 68.33 67.88 69.18 68.47 68.19 67.80 66.49 64.46 64.38 63.39 62.70 64.26 64.17 63.19 63.51 64.00 63.95 64.30 65.54 66.01 66.38 64.70 63.08 64.29 66.26 67.75 67.87 67.97 67.55 67.49 68.04 67.56 65.56 64.23 63.20 62.35 62.10 62.42 62.26 61.35 60.54
66.17 66.71 67.28 67.82 68.02 67.85 67.60 67.16 66.62 66.06 64.65 64.84 62.42 61.83 63.81 63.54 63.67 64.13 64.24 64.29 65.23 66.08 66.44 66.37 66.31 64.67 62.91 65.76 66.32 66.60 66.62 66.76 67.91 67.26 65.63 64.42 63.30 62.53 62.26 62.49 62.34 61.78 61.22
66.43 66.36 66.57 67.09 67.58 66.83 66.60 66.09 65.74 65.47 62.55 65.18 63.51 61.44 61.60 63.21 62.81 63.65 64.21 64.94 65.21 65.76 66.21 66.08 65.94 65.91 65.20 63.58 64.71 65.10 65.72 66.19 66.74 67.44 65.94 64.55 63.36 62.67 62.52 62.78 62.58 61.94 60.96
65.87 65.78 65.49 65.42 66.76 65.13 65.48 64.98 64.94 63.51 61.98 62.82 59.39 58.93 56.72 59.75 61.79 62.89 63.81 64.13 64.70 64.94 64.55 65.02 65.04 65.24 65.43 64.99 63.94 63.50 64.54 66.24 66.24 67.69 66.20 64.63 63.57 62.96 63.07 63.21 62.84 61.84 61.07
65.71 65.81 65.52 65.76 66.47 64.81 63.57 63.57 63.39 62.28 60.18 61.06 61.66 60.12 55.84 55.20 58.50 60.64 60.74 61.67 61.65 62.52 62.97 62.95 63.22 63.25 63.89 63.75 62.38 62.01 61.59 63.41 67.13 67.41 66.55 65.10 63.95 63.60 63.80 63.34 62.85 61.87 60.82
65.21 65.49 65.72 64.92 64.21 64.09 63.38 63.12 63.81 63.47 61.29 59.56 60.08 61.82 60.89 59.19 56.63 54.76 59.14 59.74 60.57 60.18 61.32 61.73 61.88 62.31 62.38 62.57 61.08 59.68 59.95 60.95 64.28 66.48 66.20 65.65 64.60 64.27 63.88 63.40 62.76 61.82 59.94
64.83 65.37 65.30 63.98 63.40 63.01 63.30 63.61 62.34 60.91 61.25 60.21 60.05 59.18 58.78 59.29 58.96 56.82 53.60 57.23 58.78 58.86 60.13 61.35 62.41 61.87 62.47 63.10 61.76 59.93 58.79 60.51 63.35 64.71 65.41 64.81 64.47 64.25 63.55 63.05 62.67 61.08 58.58
63.60 64.53 64.73 64.73 64.02 62.36 62.14 62.27 62.22 61.45 61.24 60.31 59.24 58.58 58.11 57.19 56.77 56.25 55.57 57.01 57.51 59.40 60.18 59.77 59.57 61.10 61.01 60.34 59.18 56.87 57.55 59.18 61.44 62.81 63.25 63.41 62.95 62.53 62.38 62.26 60.91 58.38 56.66
61.22 62.47 63.67 63.16 61.26 61.55 62.76 62.71 62.34 60.44 60.29 60.47 60.45 58.87 58.89 58.48 58.85 57.71 57.26 56.39 55.89 57.16 56.96 57.51 58.42 58.54 58.86 59.59 58.42 54.42 55.43 57.63 58.75 60.23 61.17 61.69 61.16 60.92 60.62 61.14 58.75 56.77 55.48
61.69 63.46 63.32 62.85 62.64 61.75 60.64 60.68 60.13 60.76 60.13 59.91 59.40 59.81 59.69 59.63 59.51 58.55 56.91 55.92 54.60 55.86 56.97 57.32 57.87 57.54 58.33 58.16 57.15 53.45 55.46 55.77 56.93 58.19 59.36 59.65 59.62 59.31 57.70 56.58 55.33 53.66 52.44
62.70 62.82 62.87 61.72 61.39 61.21 60.56 60.29 59.89 58.93 59.25 59.30 59.14 59.36 59.37 59.48 59.02 59.24 58.99 58.52 56.21 52.71 53.19 57.28 54.59 55.87 54.99 55.32 55.53 54.19 54.48 54.15 55.97 56.44 56.54 56.95 57.28 55.84 54.84 53.72 52.29 50.86 50.18
58.18 56.83 58.54 59.72 59.70 60.18 60.24 60.04 59.35 59.18 58.74 58.69 58.73 58.78 59.13 59.07 59.52 59.23 58.48 57.92 57.34 55.70 52.93 55.68 54.60 54.15 52.68 52.62 53.41 54.05 53.83 51.93 54.49 55.21 55.08 55.12 53.99 52.99 52.24 51.49 50.30 49.12 48.55
51.53 51.74 52.22 52.25 53.23 53.75 55.38 57.88 58.05 58.23 58.26 58.37 58.28 58.19 58.23 58.09 57.75 57.88 57.53 57.10 56.11 55.64 53.17 54.63 54.54 52.76 51.64 51.83 50.99 51.64 50.60 51.43 51.55 53.69 54.38 54.06 52.84 51.82 51.17 50.14 48.84 47.93 47.55
47.90 48.07 48.00 47.82 48.20 48.63 49.30 49.78 49.88 49.79 50.37 50.86 51.09 51.62 52.07 52.78 52.63 54.08 54.82 54.72 54.66 55.09 53.49 51.62 52.95 48.95 48.12 50.32 50.37 48.86 48.28 49.00 49.89 51.48 53.36 53.20 51.95 51.23 50.44 49.48 48.24 47.31 46.48
46.58 47.01 47.25 46.80 47.11 47.37 47.31 47.52 47.51 47.51 47.71 48.12 48.52 48.60 49.41 49.83 50.27 51.30 51.40 50.96 51.33 51.83 52.54 51.26 50.57 48.70 47.52 46.80 45.55 46.73 45.68 46.44 46.73 48.07 52.30 52.48 51.60 50.73 49.73 48.85 47.69 46.38 45.24
46.02 45.62 45.94 46.65 47.30 47.60 47.79 47.69 47.59 47.20 47.43 47.32 47.49 47.58 47.84 47.76 47.68 48.10 48.20 48.48 48.87 49.58 49.39 48.85 48.59 48.30 44.89 44.66 44.99 43.37 41.33 42.59 43.59 44.52 47.77 49.74 50.75 50.23 49.64 48.69 47.20 45.52 44.32
44.01 44.18 44.06 44.27 44.76 44.70 44.59 45.45 45.63 45.26 45.06 45.11 45.74 45.77 46.24 44.67 44.00 45.75 46.08 46.89 46.98 46.50 47.19 45.85 46.03 46.66 43.51 40.82 41.71 44.46 43.61 44.70 43.09 42.65 42.51 44.32 47.02 47.31 47.70 48.18 46.41 44.60 43.36
42.31 42.63 42.09 42.42 42.60 42.98 43.66 43.71 43.82 43.63 43.57 43.32 43.03 43.84 44.30 43.49 43.98 44.93 45.16 45.40 45.29 44.38 44.23 44.45 43.98 43.66 44.61 45.31 46.79 45.05 43.52 39.63 38.96 41.41 41.13 40.98 43.81 43.10 43.83 45.10 45.82 44.02 43.00
41.07 41.02 41.02 41.20 41.38 42.06 41.69 41.59 41.11 42.34 42.22 42.00 42.09 42.14 42.07 42.63 43.24 43.27 43.83 43.61 44.08 44.74 45.05 44.71 43.02 43.72 44.33 45.99 46.50 43.96 42.89 41.08 42.56 42.29 41.34 39.95 39.14 40.34 40.62 40.40 43.45 42.83 41.56
39.60 39.74 39.69 39.76 40.03 39.84 39.68 39.43 38.95 40.13 40.10 39.99 39.78 39.86 39.69 39.94 41.54 41.05 40.19 40.87 41.48 42.87 43.93 44.05 44.59 44.15 44.67 45.83 47.00 46.02 43.91 42.49 37.02 36.44 39.78 38.76 35.50 37.71 37.51 37.66 41.28 41.41 40.88
38.72 37.84 37.71 38.65 38.54 37.64 37.73 38.05 38.67 38.85 38.30 38.17 38.67 38.91 38.16 38.54 39.09 39.27 38.00 37.39 37.26 38.67 41.75 43.65 44.74 44.87 44.98 45.56 45.97 44.17 37.19 36.19 36.69 34.28 35.16 35.01 32.99 34.19 34.11 35.12 37.67 40.59 40.95
36.78 36.77 36.45 37.22 35.19 36.40 36.32 37.24 37.63 37.95 36.63 36.65 37.47 37.83 37.95 37.38 37.79 38.15 36.86 36.01 33.84 35.98 38.28 40.05 42.10 43.44 44.01 43.16 44.22 44.40 42.21 37.10 36.40 32.72 34.11 34.09 30.67 30.99 29.98 32.16 35.78 38.33 39.86